<?xml version="1.0" encoding="UTF-8" standalone="no" ?>
<gpx xmlns="http://www.topografix.com/GPX/1/1" xmlns:xsi="http://www.w3.org/2001/XMLSchema-instance" xsi:schemaLocation="http://www.topografix.com/GPX/1/1 http://www.topografix.com/GPX/1/1/gpx.xsd" version="1.1" creator="VisuGPX - https://www.visugpx.com">
  <metadata>
    <name>Bueil en Touraine 15 10 2020 14_05_33 </name>
  </metadata>
  <trk>
    <name><![CDATA[Hiking_2020-10-15T14_05_33 on AllTrails]]></name>
    <trkseg>
      <trkpt lat="47.64221" lon="0.54896">
        <ele>89</ele>
        <time>2020-10-15T12:05:34Z</time>
      </trkpt>
      <trkpt lat="47.64221" lon="0.54898">
        <ele>89</ele>
        <time>2020-10-15T12:05:52Z</time>
      </trkpt>
      <trkpt lat="47.64222" lon="0.54902">
        <ele>89</ele>
        <time>2020-10-15T12:05:55Z</time>
      </trkpt>
      <trkpt lat="47.64223" lon="0.54905">
        <ele>88</ele>
        <time>2020-10-15T12:05:57Z</time>
      </trkpt>
      <trkpt lat="47.64224" lon="0.54908">
        <ele>88</ele>
        <time>2020-10-15T12:05:59Z</time>
      </trkpt>
      <trkpt lat="47.64225" lon="0.5491">
        <ele>88</ele>
        <time>2020-10-15T12:06:01Z</time>
      </trkpt>
      <trkpt lat="47.64226" lon="0.54914">
        <ele>88</ele>
        <time>2020-10-15T12:06:03Z</time>
      </trkpt>
      <trkpt lat="47.64227" lon="0.54916">
        <ele>88</ele>
        <time>2020-10-15T12:06:05Z</time>
      </trkpt>
      <trkpt lat="47.64228" lon="0.54919">
        <ele>88</ele>
        <time>2020-10-15T12:06:07Z</time>
      </trkpt>
      <trkpt lat="47.64229" lon="0.54923">
        <ele>88</ele>
        <time>2020-10-15T12:06:09Z</time>
      </trkpt>
      <trkpt lat="47.6423" lon="0.54926">
        <ele>88</ele>
        <time>2020-10-15T12:06:11Z</time>
      </trkpt>
      <trkpt lat="47.64231" lon="0.5493">
        <ele>88</ele>
        <time>2020-10-15T12:06:13Z</time>
      </trkpt>
      <trkpt lat="47.64232" lon="0.54933">
        <ele>88</ele>
        <time>2020-10-15T12:06:15Z</time>
      </trkpt>
      <trkpt lat="47.64233" lon="0.54936">
        <ele>88</ele>
        <time>2020-10-15T12:06:17Z</time>
      </trkpt>
      <trkpt lat="47.64234" lon="0.54939">
        <ele>88</ele>
        <time>2020-10-15T12:06:19Z</time>
      </trkpt>
      <trkpt lat="47.64235" lon="0.54943">
        <ele>89</ele>
        <time>2020-10-15T12:06:21Z</time>
      </trkpt>
      <trkpt lat="47.64236" lon="0.54946">
        <ele>89</ele>
        <time>2020-10-15T12:06:23Z</time>
      </trkpt>
      <trkpt lat="47.64237" lon="0.54949">
        <ele>89</ele>
        <time>2020-10-15T12:06:26Z</time>
      </trkpt>
      <trkpt lat="47.64237" lon="0.54952">
        <ele>89</ele>
        <time>2020-10-15T12:06:30Z</time>
      </trkpt>
      <trkpt lat="47.64236" lon="0.54949">
        <ele>89</ele>
        <time>2020-10-15T12:06:38Z</time>
      </trkpt>
      <trkpt lat="47.64235" lon="0.54946">
        <ele>89</ele>
        <time>2020-10-15T12:06:40Z</time>
      </trkpt>
      <trkpt lat="47.64234" lon="0.54943">
        <ele>89</ele>
        <time>2020-10-15T12:06:42Z</time>
      </trkpt>
      <trkpt lat="47.64231" lon="0.5494">
        <ele>89</ele>
        <time>2020-10-15T12:06:44Z</time>
      </trkpt>
      <trkpt lat="47.64229" lon="0.54936">
        <ele>89</ele>
        <time>2020-10-15T12:06:46Z</time>
      </trkpt>
      <trkpt lat="47.64228" lon="0.54933">
        <ele>89</ele>
        <time>2020-10-15T12:06:48Z</time>
      </trkpt>
      <trkpt lat="47.64226" lon="0.5493">
        <ele>89</ele>
        <time>2020-10-15T12:06:50Z</time>
      </trkpt>
      <trkpt lat="47.64225" lon="0.54926">
        <ele>89</ele>
        <time>2020-10-15T12:06:52Z</time>
      </trkpt>
      <trkpt lat="47.64223" lon="0.54923">
        <ele>89</ele>
        <time>2020-10-15T12:06:54Z</time>
      </trkpt>
      <trkpt lat="47.64221" lon="0.54919">
        <ele>89</ele>
        <time>2020-10-15T12:06:56Z</time>
      </trkpt>
      <trkpt lat="47.6422" lon="0.54915">
        <ele>89</ele>
        <time>2020-10-15T12:06:58Z</time>
      </trkpt>
      <trkpt lat="47.64218" lon="0.54911">
        <ele>89</ele>
        <time>2020-10-15T12:07:00Z</time>
      </trkpt>
      <trkpt lat="47.64217" lon="0.54907">
        <ele>89</ele>
        <time>2020-10-15T12:07:02Z</time>
      </trkpt>
      <trkpt lat="47.64215" lon="0.54904">
        <ele>89</ele>
        <time>2020-10-15T12:07:04Z</time>
      </trkpt>
      <trkpt lat="47.64215" lon="0.549">
        <ele>89</ele>
        <time>2020-10-15T12:07:06Z</time>
      </trkpt>
      <trkpt lat="47.64214" lon="0.54897">
        <ele>89</ele>
        <time>2020-10-15T12:07:08Z</time>
      </trkpt>
      <trkpt lat="47.64214" lon="0.54894">
        <ele>89</ele>
        <time>2020-10-15T12:07:10Z</time>
      </trkpt>
      <trkpt lat="47.64215" lon="0.54891">
        <ele>89</ele>
        <time>2020-10-15T12:07:17Z</time>
      </trkpt>
      <trkpt lat="47.64215" lon="0.54894">
        <ele>89</ele>
        <time>2020-10-15T12:07:21Z</time>
      </trkpt>
      <trkpt lat="47.64214" lon="0.54897">
        <ele>89</ele>
        <time>2020-10-15T12:07:23Z</time>
      </trkpt>
      <trkpt lat="47.64213" lon="0.54899">
        <ele>89</ele>
        <time>2020-10-15T12:07:25Z</time>
      </trkpt>
      <trkpt lat="47.64211" lon="0.54902">
        <ele>89</ele>
        <time>2020-10-15T12:07:27Z</time>
      </trkpt>
      <trkpt lat="47.6421" lon="0.54903">
        <ele>89</ele>
        <time>2020-10-15T12:07:31Z</time>
      </trkpt>
      <trkpt lat="47.64208" lon="0.54905">
        <ele>89</ele>
        <time>2020-10-15T12:07:34Z</time>
      </trkpt>
      <trkpt lat="47.64206" lon="0.54906">
        <ele>89</ele>
        <time>2020-10-15T12:07:36Z</time>
      </trkpt>
      <trkpt lat="47.64204" lon="0.54909">
        <ele>89</ele>
        <time>2020-10-15T12:07:38Z</time>
      </trkpt>
      <trkpt lat="47.64203" lon="0.54913">
        <ele>90</ele>
        <time>2020-10-15T12:07:40Z</time>
      </trkpt>
      <trkpt lat="47.64201" lon="0.54915">
        <ele>90</ele>
        <time>2020-10-15T12:07:42Z</time>
      </trkpt>
      <trkpt lat="47.64199" lon="0.54918">
        <ele>90</ele>
        <time>2020-10-15T12:07:45Z</time>
      </trkpt>
      <trkpt lat="47.64196" lon="0.5492">
        <ele>90</ele>
        <time>2020-10-15T12:07:47Z</time>
      </trkpt>
      <trkpt lat="47.64194" lon="0.54923">
        <ele>91</ele>
        <time>2020-10-15T12:07:49Z</time>
      </trkpt>
      <trkpt lat="47.64193" lon="0.54925">
        <ele>91</ele>
        <time>2020-10-15T12:07:51Z</time>
      </trkpt>
      <trkpt lat="47.64192" lon="0.54928">
        <ele>91</ele>
        <time>2020-10-15T12:07:53Z</time>
      </trkpt>
      <trkpt lat="47.64191" lon="0.54931">
        <ele>91</ele>
        <time>2020-10-15T12:07:55Z</time>
      </trkpt>
      <trkpt lat="47.64189" lon="0.54933">
        <ele>91</ele>
        <time>2020-10-15T12:07:57Z</time>
      </trkpt>
      <trkpt lat="47.64188" lon="0.54935">
        <ele>91</ele>
        <time>2020-10-15T12:07:59Z</time>
      </trkpt>
      <trkpt lat="47.64187" lon="0.54938">
        <ele>91</ele>
        <time>2020-10-15T12:08:01Z</time>
      </trkpt>
      <trkpt lat="47.64185" lon="0.5494">
        <ele>91</ele>
        <time>2020-10-15T12:08:03Z</time>
      </trkpt>
      <trkpt lat="47.64183" lon="0.54942">
        <ele>91</ele>
        <time>2020-10-15T12:08:05Z</time>
      </trkpt>
      <trkpt lat="47.64182" lon="0.54945">
        <ele>92</ele>
        <time>2020-10-15T12:08:07Z</time>
      </trkpt>
      <trkpt lat="47.6418" lon="0.54947">
        <ele>92</ele>
        <time>2020-10-15T12:08:09Z</time>
      </trkpt>
      <trkpt lat="47.64178" lon="0.5495">
        <ele>92</ele>
        <time>2020-10-15T12:08:12Z</time>
      </trkpt>
      <trkpt lat="47.64177" lon="0.54953">
        <ele>92</ele>
        <time>2020-10-15T12:08:14Z</time>
      </trkpt>
      <trkpt lat="47.64176" lon="0.54956">
        <ele>92</ele>
        <time>2020-10-15T12:08:16Z</time>
      </trkpt>
      <trkpt lat="47.64174" lon="0.54958">
        <ele>92</ele>
        <time>2020-10-15T12:08:18Z</time>
      </trkpt>
      <trkpt lat="47.64173" lon="0.5496">
        <ele>92</ele>
        <time>2020-10-15T12:08:22Z</time>
      </trkpt>
      <trkpt lat="47.6417" lon="0.54962">
        <ele>92</ele>
        <time>2020-10-15T12:08:25Z</time>
      </trkpt>
      <trkpt lat="47.64168" lon="0.54964">
        <ele>92</ele>
        <time>2020-10-15T12:08:28Z</time>
      </trkpt>
      <trkpt lat="47.64167" lon="0.54966">
        <ele>92</ele>
        <time>2020-10-15T12:08:30Z</time>
      </trkpt>
      <trkpt lat="47.64165" lon="0.54968">
        <ele>92</ele>
        <time>2020-10-15T12:08:32Z</time>
      </trkpt>
      <trkpt lat="47.64163" lon="0.54969">
        <ele>92</ele>
        <time>2020-10-15T12:08:35Z</time>
      </trkpt>
      <trkpt lat="47.64161" lon="0.54971">
        <ele>92</ele>
        <time>2020-10-15T12:08:37Z</time>
      </trkpt>
      <trkpt lat="47.64159" lon="0.54973">
        <ele>92</ele>
        <time>2020-10-15T12:08:39Z</time>
      </trkpt>
      <trkpt lat="47.64156" lon="0.54975">
        <ele>92</ele>
        <time>2020-10-15T12:08:41Z</time>
      </trkpt>
      <trkpt lat="47.64155" lon="0.54977">
        <ele>92</ele>
        <time>2020-10-15T12:08:43Z</time>
      </trkpt>
      <trkpt lat="47.64153" lon="0.54978">
        <ele>92</ele>
        <time>2020-10-15T12:08:45Z</time>
      </trkpt>
      <trkpt lat="47.64151" lon="0.5498">
        <ele>92</ele>
        <time>2020-10-15T12:08:47Z</time>
      </trkpt>
      <trkpt lat="47.64149" lon="0.54982">
        <ele>91</ele>
        <time>2020-10-15T12:08:49Z</time>
      </trkpt>
      <trkpt lat="47.64148" lon="0.54984">
        <ele>91</ele>
        <time>2020-10-15T12:08:51Z</time>
      </trkpt>
      <trkpt lat="47.64146" lon="0.54985">
        <ele>91</ele>
        <time>2020-10-15T12:08:53Z</time>
      </trkpt>
      <trkpt lat="47.64144" lon="0.54986">
        <ele>91</ele>
        <time>2020-10-15T12:08:55Z</time>
      </trkpt>
      <trkpt lat="47.64142" lon="0.54987">
        <ele>91</ele>
        <time>2020-10-15T12:08:57Z</time>
      </trkpt>
      <trkpt lat="47.6414" lon="0.54988">
        <ele>91</ele>
        <time>2020-10-15T12:08:59Z</time>
      </trkpt>
      <trkpt lat="47.64137" lon="0.5499">
        <ele>91</ele>
        <time>2020-10-15T12:09:01Z</time>
      </trkpt>
      <trkpt lat="47.64135" lon="0.54991">
        <ele>91</ele>
        <time>2020-10-15T12:09:03Z</time>
      </trkpt>
      <trkpt lat="47.64133" lon="0.54992">
        <ele>91</ele>
        <time>2020-10-15T12:09:05Z</time>
      </trkpt>
      <trkpt lat="47.6413" lon="0.54992">
        <ele>91</ele>
        <time>2020-10-15T12:09:07Z</time>
      </trkpt>
      <trkpt lat="47.64127" lon="0.54991">
        <ele>90</ele>
        <time>2020-10-15T12:09:09Z</time>
      </trkpt>
      <trkpt lat="47.64124" lon="0.5499">
        <ele>90</ele>
        <time>2020-10-15T12:09:11Z</time>
      </trkpt>
      <trkpt lat="47.64122" lon="0.54988">
        <ele>90</ele>
        <time>2020-10-15T12:09:13Z</time>
      </trkpt>
      <trkpt lat="47.6412" lon="0.54987">
        <ele>90</ele>
        <time>2020-10-15T12:09:15Z</time>
      </trkpt>
      <trkpt lat="47.64118" lon="0.54985">
        <ele>90</ele>
        <time>2020-10-15T12:09:17Z</time>
      </trkpt>
      <trkpt lat="47.64116" lon="0.54983">
        <ele>90</ele>
        <time>2020-10-15T12:09:19Z</time>
      </trkpt>
      <trkpt lat="47.64114" lon="0.54981">
        <ele>90</ele>
        <time>2020-10-15T12:09:21Z</time>
      </trkpt>
      <trkpt lat="47.64112" lon="0.54979">
        <ele>90</ele>
        <time>2020-10-15T12:09:23Z</time>
      </trkpt>
      <trkpt lat="47.6411" lon="0.54977">
        <ele>90</ele>
        <time>2020-10-15T12:09:25Z</time>
      </trkpt>
      <trkpt lat="47.64108" lon="0.54975">
        <ele>90</ele>
        <time>2020-10-15T12:09:27Z</time>
      </trkpt>
      <trkpt lat="47.64107" lon="0.54973">
        <ele>90</ele>
        <time>2020-10-15T12:09:29Z</time>
      </trkpt>
      <trkpt lat="47.64105" lon="0.54971">
        <ele>90</ele>
        <time>2020-10-15T12:09:31Z</time>
      </trkpt>
      <trkpt lat="47.64103" lon="0.54969">
        <ele>90</ele>
        <time>2020-10-15T12:09:33Z</time>
      </trkpt>
      <trkpt lat="47.64101" lon="0.54966">
        <ele>90</ele>
        <time>2020-10-15T12:09:35Z</time>
      </trkpt>
      <trkpt lat="47.641" lon="0.54964">
        <ele>90</ele>
        <time>2020-10-15T12:09:37Z</time>
      </trkpt>
      <trkpt lat="47.64097" lon="0.54962">
        <ele>90</ele>
        <time>2020-10-15T12:09:40Z</time>
      </trkpt>
      <trkpt lat="47.64095" lon="0.5496">
        <ele>90</ele>
        <time>2020-10-15T12:09:42Z</time>
      </trkpt>
      <trkpt lat="47.64093" lon="0.54957">
        <ele>90</ele>
        <time>2020-10-15T12:09:44Z</time>
      </trkpt>
      <trkpt lat="47.64091" lon="0.54954">
        <ele>90</ele>
        <time>2020-10-15T12:09:46Z</time>
      </trkpt>
      <trkpt lat="47.6409" lon="0.54952">
        <ele>90</ele>
        <time>2020-10-15T12:09:48Z</time>
      </trkpt>
      <trkpt lat="47.64089" lon="0.5495">
        <ele>90</ele>
        <time>2020-10-15T12:09:50Z</time>
      </trkpt>
      <trkpt lat="47.64087" lon="0.54947">
        <ele>90</ele>
        <time>2020-10-15T12:09:52Z</time>
      </trkpt>
      <trkpt lat="47.64085" lon="0.54945">
        <ele>90</ele>
        <time>2020-10-15T12:09:54Z</time>
      </trkpt>
      <trkpt lat="47.64084" lon="0.54943">
        <ele>90</ele>
        <time>2020-10-15T12:09:56Z</time>
      </trkpt>
      <trkpt lat="47.64082" lon="0.54941">
        <ele>91</ele>
        <time>2020-10-15T12:09:58Z</time>
      </trkpt>
      <trkpt lat="47.6408" lon="0.5494">
        <ele>91</ele>
        <time>2020-10-15T12:10:00Z</time>
      </trkpt>
      <trkpt lat="47.64078" lon="0.54939">
        <ele>91</ele>
        <time>2020-10-15T12:10:02Z</time>
      </trkpt>
      <trkpt lat="47.64076" lon="0.54939">
        <ele>91</ele>
        <time>2020-10-15T12:10:04Z</time>
      </trkpt>
      <trkpt lat="47.64073" lon="0.54939">
        <ele>91</ele>
        <time>2020-10-15T12:10:06Z</time>
      </trkpt>
      <trkpt lat="47.64071" lon="0.5494">
        <ele>91</ele>
        <time>2020-10-15T12:10:08Z</time>
      </trkpt>
      <trkpt lat="47.64069" lon="0.5494">
        <ele>91</ele>
        <time>2020-10-15T12:10:10Z</time>
      </trkpt>
      <trkpt lat="47.64067" lon="0.5494">
        <ele>92</ele>
        <time>2020-10-15T12:10:13Z</time>
      </trkpt>
      <trkpt lat="47.64064" lon="0.54941">
        <ele>92</ele>
        <time>2020-10-15T12:10:15Z</time>
      </trkpt>
      <trkpt lat="47.64062" lon="0.54942">
        <ele>92</ele>
        <time>2020-10-15T12:10:17Z</time>
      </trkpt>
      <trkpt lat="47.6406" lon="0.54943">
        <ele>92</ele>
        <time>2020-10-15T12:10:20Z</time>
      </trkpt>
      <trkpt lat="47.64058" lon="0.54944">
        <ele>92</ele>
        <time>2020-10-15T12:10:22Z</time>
      </trkpt>
      <trkpt lat="47.64056" lon="0.54945">
        <ele>92</ele>
        <time>2020-10-15T12:10:24Z</time>
      </trkpt>
      <trkpt lat="47.64053" lon="0.54945">
        <ele>92</ele>
        <time>2020-10-15T12:10:26Z</time>
      </trkpt>
      <trkpt lat="47.64051" lon="0.54946">
        <ele>92</ele>
        <time>2020-10-15T12:10:28Z</time>
      </trkpt>
      <trkpt lat="47.64048" lon="0.54946">
        <ele>92</ele>
        <time>2020-10-15T12:10:30Z</time>
      </trkpt>
      <trkpt lat="47.64045" lon="0.54947">
        <ele>92</ele>
        <time>2020-10-15T12:10:32Z</time>
      </trkpt>
      <trkpt lat="47.64043" lon="0.54948">
        <ele>92</ele>
        <time>2020-10-15T12:10:34Z</time>
      </trkpt>
      <trkpt lat="47.64041" lon="0.54949">
        <ele>92</ele>
        <time>2020-10-15T12:10:36Z</time>
      </trkpt>
      <trkpt lat="47.64038" lon="0.54949">
        <ele>92</ele>
        <time>2020-10-15T12:10:38Z</time>
      </trkpt>
      <trkpt lat="47.64035" lon="0.54949">
        <ele>92</ele>
        <time>2020-10-15T12:10:40Z</time>
      </trkpt>
      <trkpt lat="47.64033" lon="0.5495">
        <ele>92</ele>
        <time>2020-10-15T12:10:42Z</time>
      </trkpt>
      <trkpt lat="47.64031" lon="0.5495">
        <ele>92</ele>
        <time>2020-10-15T12:10:44Z</time>
      </trkpt>
      <trkpt lat="47.64028" lon="0.54951">
        <ele>92</ele>
        <time>2020-10-15T12:10:47Z</time>
      </trkpt>
      <trkpt lat="47.64026" lon="0.54951">
        <ele>92</ele>
        <time>2020-10-15T12:10:49Z</time>
      </trkpt>
      <trkpt lat="47.64024" lon="0.54952">
        <ele>92</ele>
        <time>2020-10-15T12:10:52Z</time>
      </trkpt>
      <trkpt lat="47.64022" lon="0.54952">
        <ele>92</ele>
        <time>2020-10-15T12:10:55Z</time>
      </trkpt>
      <trkpt lat="47.64019" lon="0.54953">
        <ele>92</ele>
        <time>2020-10-15T12:10:57Z</time>
      </trkpt>
      <trkpt lat="47.64017" lon="0.54954">
        <ele>92</ele>
        <time>2020-10-15T12:10:59Z</time>
      </trkpt>
      <trkpt lat="47.64015" lon="0.54955">
        <ele>92</ele>
        <time>2020-10-15T12:11:01Z</time>
      </trkpt>
      <trkpt lat="47.64013" lon="0.54956">
        <ele>92</ele>
        <time>2020-10-15T12:11:03Z</time>
      </trkpt>
      <trkpt lat="47.64011" lon="0.54956">
        <ele>92</ele>
        <time>2020-10-15T12:11:05Z</time>
      </trkpt>
      <trkpt lat="47.64008" lon="0.54957">
        <ele>92</ele>
        <time>2020-10-15T12:11:08Z</time>
      </trkpt>
      <trkpt lat="47.64006" lon="0.54958">
        <ele>92</ele>
        <time>2020-10-15T12:11:10Z</time>
      </trkpt>
      <trkpt lat="47.64003" lon="0.5496">
        <ele>92</ele>
        <time>2020-10-15T12:11:12Z</time>
      </trkpt>
      <trkpt lat="47.64001" lon="0.54961">
        <ele>92</ele>
        <time>2020-10-15T12:11:14Z</time>
      </trkpt>
      <trkpt lat="47.63999" lon="0.54963">
        <ele>92</ele>
        <time>2020-10-15T12:11:16Z</time>
      </trkpt>
      <trkpt lat="47.63996" lon="0.54964">
        <ele>92</ele>
        <time>2020-10-15T12:11:18Z</time>
      </trkpt>
      <trkpt lat="47.63993" lon="0.54964">
        <ele>92</ele>
        <time>2020-10-15T12:11:20Z</time>
      </trkpt>
      <trkpt lat="47.63991" lon="0.54965">
        <ele>92</ele>
        <time>2020-10-15T12:11:22Z</time>
      </trkpt>
      <trkpt lat="47.63988" lon="0.54966">
        <ele>92</ele>
        <time>2020-10-15T12:11:24Z</time>
      </trkpt>
      <trkpt lat="47.63986" lon="0.54968">
        <ele>92</ele>
        <time>2020-10-15T12:11:26Z</time>
      </trkpt>
      <trkpt lat="47.63983" lon="0.54969">
        <ele>92</ele>
        <time>2020-10-15T12:11:28Z</time>
      </trkpt>
      <trkpt lat="47.6398" lon="0.54971">
        <ele>92</ele>
        <time>2020-10-15T12:11:30Z</time>
      </trkpt>
      <trkpt lat="47.63978" lon="0.54972">
        <ele>92</ele>
        <time>2020-10-15T12:11:31Z</time>
      </trkpt>
      <trkpt lat="47.63976" lon="0.54973">
        <ele>93</ele>
        <time>2020-10-15T12:11:33Z</time>
      </trkpt>
      <trkpt lat="47.63973" lon="0.54974">
        <ele>93</ele>
        <time>2020-10-15T12:11:35Z</time>
      </trkpt>
      <trkpt lat="47.6397" lon="0.54975">
        <ele>93</ele>
        <time>2020-10-15T12:11:37Z</time>
      </trkpt>
      <trkpt lat="47.63968" lon="0.54977">
        <ele>93</ele>
        <time>2020-10-15T12:11:39Z</time>
      </trkpt>
      <trkpt lat="47.63966" lon="0.54978">
        <ele>93</ele>
        <time>2020-10-15T12:11:41Z</time>
      </trkpt>
      <trkpt lat="47.63964" lon="0.54979">
        <ele>93</ele>
        <time>2020-10-15T12:11:43Z</time>
      </trkpt>
      <trkpt lat="47.63961" lon="0.54981">
        <ele>93</ele>
        <time>2020-10-15T12:11:45Z</time>
      </trkpt>
      <trkpt lat="47.63959" lon="0.54982">
        <ele>93</ele>
        <time>2020-10-15T12:11:47Z</time>
      </trkpt>
      <trkpt lat="47.63957" lon="0.54984">
        <ele>93</ele>
        <time>2020-10-15T12:11:49Z</time>
      </trkpt>
      <trkpt lat="47.63955" lon="0.54985">
        <ele>94</ele>
        <time>2020-10-15T12:11:51Z</time>
      </trkpt>
      <trkpt lat="47.63953" lon="0.54987">
        <ele>94</ele>
        <time>2020-10-15T12:11:53Z</time>
      </trkpt>
      <trkpt lat="47.63951" lon="0.54988">
        <ele>94</ele>
        <time>2020-10-15T12:11:55Z</time>
      </trkpt>
      <trkpt lat="47.63948" lon="0.5499">
        <ele>94</ele>
        <time>2020-10-15T12:11:57Z</time>
      </trkpt>
      <trkpt lat="47.63947" lon="0.54991">
        <ele>94</ele>
        <time>2020-10-15T12:11:59Z</time>
      </trkpt>
      <trkpt lat="47.63944" lon="0.54993">
        <ele>94</ele>
        <time>2020-10-15T12:12:01Z</time>
      </trkpt>
      <trkpt lat="47.63941" lon="0.54994">
        <ele>94</ele>
        <time>2020-10-15T12:12:03Z</time>
      </trkpt>
      <trkpt lat="47.63939" lon="0.54995">
        <ele>95</ele>
        <time>2020-10-15T12:12:05Z</time>
      </trkpt>
      <trkpt lat="47.63936" lon="0.54997">
        <ele>95</ele>
        <time>2020-10-15T12:12:07Z</time>
      </trkpt>
      <trkpt lat="47.63933" lon="0.54998">
        <ele>95</ele>
        <time>2020-10-15T12:12:09Z</time>
      </trkpt>
      <trkpt lat="47.63931" lon="0.54999">
        <ele>95</ele>
        <time>2020-10-15T12:12:11Z</time>
      </trkpt>
      <trkpt lat="47.63929" lon="0.55001">
        <ele>95</ele>
        <time>2020-10-15T12:12:13Z</time>
      </trkpt>
      <trkpt lat="47.63926" lon="0.55003">
        <ele>95</ele>
        <time>2020-10-15T12:12:15Z</time>
      </trkpt>
      <trkpt lat="47.63924" lon="0.55004">
        <ele>95</ele>
        <time>2020-10-15T12:12:17Z</time>
      </trkpt>
      <trkpt lat="47.63922" lon="0.55006">
        <ele>95</ele>
        <time>2020-10-15T12:12:19Z</time>
      </trkpt>
      <trkpt lat="47.6392" lon="0.55007">
        <ele>95</ele>
        <time>2020-10-15T12:12:21Z</time>
      </trkpt>
      <trkpt lat="47.63918" lon="0.55008">
        <ele>95</ele>
        <time>2020-10-15T12:12:23Z</time>
      </trkpt>
      <trkpt lat="47.63916" lon="0.5501">
        <ele>96</ele>
        <time>2020-10-15T12:12:25Z</time>
      </trkpt>
      <trkpt lat="47.63914" lon="0.55012">
        <ele>96</ele>
        <time>2020-10-15T12:12:27Z</time>
      </trkpt>
      <trkpt lat="47.63912" lon="0.55013">
        <ele>96</ele>
        <time>2020-10-15T12:12:29Z</time>
      </trkpt>
      <trkpt lat="47.6391" lon="0.55015">
        <ele>96</ele>
        <time>2020-10-15T12:12:31Z</time>
      </trkpt>
      <trkpt lat="47.63908" lon="0.55016">
        <ele>96</ele>
        <time>2020-10-15T12:12:33Z</time>
      </trkpt>
      <trkpt lat="47.63906" lon="0.55018">
        <ele>96</ele>
        <time>2020-10-15T12:12:35Z</time>
      </trkpt>
      <trkpt lat="47.63904" lon="0.55019">
        <ele>96</ele>
        <time>2020-10-15T12:12:37Z</time>
      </trkpt>
      <trkpt lat="47.63901" lon="0.5502">
        <ele>96</ele>
        <time>2020-10-15T12:12:39Z</time>
      </trkpt>
      <trkpt lat="47.63899" lon="0.55021">
        <ele>96</ele>
        <time>2020-10-15T12:12:41Z</time>
      </trkpt>
      <trkpt lat="47.63898" lon="0.55022">
        <ele>96</ele>
        <time>2020-10-15T12:12:43Z</time>
      </trkpt>
      <trkpt lat="47.63895" lon="0.55023">
        <ele>96</ele>
        <time>2020-10-15T12:12:45Z</time>
      </trkpt>
      <trkpt lat="47.63893" lon="0.55023">
        <ele>96</ele>
        <time>2020-10-15T12:12:47Z</time>
      </trkpt>
      <trkpt lat="47.6389" lon="0.55023">
        <ele>96</ele>
        <time>2020-10-15T12:12:49Z</time>
      </trkpt>
      <trkpt lat="47.63888" lon="0.55024">
        <ele>96</ele>
        <time>2020-10-15T12:12:51Z</time>
      </trkpt>
      <trkpt lat="47.63886" lon="0.55024">
        <ele>96</ele>
        <time>2020-10-15T12:12:53Z</time>
      </trkpt>
      <trkpt lat="47.63884" lon="0.55024">
        <ele>96</ele>
        <time>2020-10-15T12:12:55Z</time>
      </trkpt>
      <trkpt lat="47.63881" lon="0.55024">
        <ele>96</ele>
        <time>2020-10-15T12:12:57Z</time>
      </trkpt>
      <trkpt lat="47.63878" lon="0.55024">
        <ele>96</ele>
        <time>2020-10-15T12:12:59Z</time>
      </trkpt>
      <trkpt lat="47.63875" lon="0.55023">
        <ele>96</ele>
        <time>2020-10-15T12:13:01Z</time>
      </trkpt>
      <trkpt lat="47.63873" lon="0.55024">
        <ele>96</ele>
        <time>2020-10-15T12:13:03Z</time>
      </trkpt>
      <trkpt lat="47.63871" lon="0.55024">
        <ele>96</ele>
        <time>2020-10-15T12:13:05Z</time>
      </trkpt>
      <trkpt lat="47.63869" lon="0.55024">
        <ele>96</ele>
        <time>2020-10-15T12:13:07Z</time>
      </trkpt>
      <trkpt lat="47.63866" lon="0.55023">
        <ele>96</ele>
        <time>2020-10-15T12:13:09Z</time>
      </trkpt>
      <trkpt lat="47.63863" lon="0.55023">
        <ele>96</ele>
        <time>2020-10-15T12:13:11Z</time>
      </trkpt>
      <trkpt lat="47.63861" lon="0.55023">
        <ele>96</ele>
        <time>2020-10-15T12:13:13Z</time>
      </trkpt>
      <trkpt lat="47.63858" lon="0.55023">
        <ele>96</ele>
        <time>2020-10-15T12:13:15Z</time>
      </trkpt>
      <trkpt lat="47.63856" lon="0.55023">
        <ele>96</ele>
        <time>2020-10-15T12:13:17Z</time>
      </trkpt>
      <trkpt lat="47.63853" lon="0.55023">
        <ele>96</ele>
        <time>2020-10-15T12:13:19Z</time>
      </trkpt>
      <trkpt lat="47.63851" lon="0.55023">
        <ele>96</ele>
        <time>2020-10-15T12:13:21Z</time>
      </trkpt>
      <trkpt lat="47.63849" lon="0.55023">
        <ele>96</ele>
        <time>2020-10-15T12:13:23Z</time>
      </trkpt>
      <trkpt lat="47.63846" lon="0.55023">
        <ele>96</ele>
        <time>2020-10-15T12:13:25Z</time>
      </trkpt>
      <trkpt lat="47.63844" lon="0.55023">
        <ele>96</ele>
        <time>2020-10-15T12:13:27Z</time>
      </trkpt>
      <trkpt lat="47.63842" lon="0.55023">
        <ele>96</ele>
        <time>2020-10-15T12:13:29Z</time>
      </trkpt>
      <trkpt lat="47.6384" lon="0.55023">
        <ele>96</ele>
        <time>2020-10-15T12:13:31Z</time>
      </trkpt>
      <trkpt lat="47.63837" lon="0.55022">
        <ele>96</ele>
        <time>2020-10-15T12:13:33Z</time>
      </trkpt>
      <trkpt lat="47.63835" lon="0.55022">
        <ele>96</ele>
        <time>2020-10-15T12:13:35Z</time>
      </trkpt>
      <trkpt lat="47.63832" lon="0.55021">
        <ele>96</ele>
        <time>2020-10-15T12:13:37Z</time>
      </trkpt>
      <trkpt lat="47.6383" lon="0.55021">
        <ele>96</ele>
        <time>2020-10-15T12:13:39Z</time>
      </trkpt>
      <trkpt lat="47.63827" lon="0.5502">
        <ele>96</ele>
        <time>2020-10-15T12:13:41Z</time>
      </trkpt>
      <trkpt lat="47.63824" lon="0.55021">
        <ele>96</ele>
        <time>2020-10-15T12:13:43Z</time>
      </trkpt>
      <trkpt lat="47.63821" lon="0.55021">
        <ele>96</ele>
        <time>2020-10-15T12:13:45Z</time>
      </trkpt>
      <trkpt lat="47.63819" lon="0.5502">
        <ele>96</ele>
        <time>2020-10-15T12:13:47Z</time>
      </trkpt>
      <trkpt lat="47.63816" lon="0.5502">
        <ele>96</ele>
        <time>2020-10-15T12:13:49Z</time>
      </trkpt>
      <trkpt lat="47.63813" lon="0.55019">
        <ele>97</ele>
        <time>2020-10-15T12:13:51Z</time>
      </trkpt>
      <trkpt lat="47.6381" lon="0.55018">
        <ele>97</ele>
        <time>2020-10-15T12:13:53Z</time>
      </trkpt>
      <trkpt lat="47.63807" lon="0.55017">
        <ele>97</ele>
        <time>2020-10-15T12:13:55Z</time>
      </trkpt>
      <trkpt lat="47.63805" lon="0.55016">
        <ele>97</ele>
        <time>2020-10-15T12:13:57Z</time>
      </trkpt>
      <trkpt lat="47.63803" lon="0.55014">
        <ele>97</ele>
        <time>2020-10-15T12:13:59Z</time>
      </trkpt>
      <trkpt lat="47.63801" lon="0.55012">
        <ele>97</ele>
        <time>2020-10-15T12:14:01Z</time>
      </trkpt>
      <trkpt lat="47.63798" lon="0.5501">
        <ele>97</ele>
        <time>2020-10-15T12:14:03Z</time>
      </trkpt>
      <trkpt lat="47.63796" lon="0.55009">
        <ele>97</ele>
        <time>2020-10-15T12:14:05Z</time>
      </trkpt>
      <trkpt lat="47.63793" lon="0.55009">
        <ele>97</ele>
        <time>2020-10-15T12:14:07Z</time>
      </trkpt>
      <trkpt lat="47.63791" lon="0.55007">
        <ele>98</ele>
        <time>2020-10-15T12:14:09Z</time>
      </trkpt>
      <trkpt lat="47.63789" lon="0.55007">
        <ele>98</ele>
        <time>2020-10-15T12:14:11Z</time>
      </trkpt>
      <trkpt lat="47.63786" lon="0.55006">
        <ele>98</ele>
        <time>2020-10-15T12:14:13Z</time>
      </trkpt>
      <trkpt lat="47.63783" lon="0.55004">
        <ele>98</ele>
        <time>2020-10-15T12:14:15Z</time>
      </trkpt>
      <trkpt lat="47.63781" lon="0.55003">
        <ele>98</ele>
        <time>2020-10-15T12:14:17Z</time>
      </trkpt>
      <trkpt lat="47.63778" lon="0.55002">
        <ele>98</ele>
        <time>2020-10-15T12:14:19Z</time>
      </trkpt>
      <trkpt lat="47.63776" lon="0.55001">
        <ele>98</ele>
        <time>2020-10-15T12:14:21Z</time>
      </trkpt>
      <trkpt lat="47.63773" lon="0.55">
        <ele>98</ele>
        <time>2020-10-15T12:14:23Z</time>
      </trkpt>
      <trkpt lat="47.63771" lon="0.54999">
        <ele>98</ele>
        <time>2020-10-15T12:14:25Z</time>
      </trkpt>
      <trkpt lat="47.63768" lon="0.54997">
        <ele>98</ele>
        <time>2020-10-15T12:14:27Z</time>
      </trkpt>
      <trkpt lat="47.63765" lon="0.54997">
        <ele>98</ele>
        <time>2020-10-15T12:14:29Z</time>
      </trkpt>
      <trkpt lat="47.63762" lon="0.54995">
        <ele>98</ele>
        <time>2020-10-15T12:14:31Z</time>
      </trkpt>
      <trkpt lat="47.6376" lon="0.54994">
        <ele>98</ele>
        <time>2020-10-15T12:14:33Z</time>
      </trkpt>
      <trkpt lat="47.63757" lon="0.54993">
        <ele>98</ele>
        <time>2020-10-15T12:14:35Z</time>
      </trkpt>
      <trkpt lat="47.63755" lon="0.54992">
        <ele>98</ele>
        <time>2020-10-15T12:14:37Z</time>
      </trkpt>
      <trkpt lat="47.63752" lon="0.54991">
        <ele>98</ele>
        <time>2020-10-15T12:14:39Z</time>
      </trkpt>
      <trkpt lat="47.6375" lon="0.54989">
        <ele>98</ele>
        <time>2020-10-15T12:14:41Z</time>
      </trkpt>
      <trkpt lat="47.63747" lon="0.54988">
        <ele>99</ele>
        <time>2020-10-15T12:14:43Z</time>
      </trkpt>
      <trkpt lat="47.63745" lon="0.54987">
        <ele>99</ele>
        <time>2020-10-15T12:14:45Z</time>
      </trkpt>
      <trkpt lat="47.63743" lon="0.54987">
        <ele>99</ele>
        <time>2020-10-15T12:14:47Z</time>
      </trkpt>
      <trkpt lat="47.6374" lon="0.54986">
        <ele>99</ele>
        <time>2020-10-15T12:14:49Z</time>
      </trkpt>
      <trkpt lat="47.63738" lon="0.54986">
        <ele>99</ele>
        <time>2020-10-15T12:14:51Z</time>
      </trkpt>
      <trkpt lat="47.63736" lon="0.54985">
        <ele>99</ele>
        <time>2020-10-15T12:14:53Z</time>
      </trkpt>
      <trkpt lat="47.63734" lon="0.54984">
        <ele>99</ele>
        <time>2020-10-15T12:14:55Z</time>
      </trkpt>
      <trkpt lat="47.63731" lon="0.54983">
        <ele>99</ele>
        <time>2020-10-15T12:14:57Z</time>
      </trkpt>
      <trkpt lat="47.63728" lon="0.54982">
        <ele>99</ele>
        <time>2020-10-15T12:14:59Z</time>
      </trkpt>
      <trkpt lat="47.63726" lon="0.54982">
        <ele>99</ele>
        <time>2020-10-15T12:15:01Z</time>
      </trkpt>
      <trkpt lat="47.63724" lon="0.54982">
        <ele>99</ele>
        <time>2020-10-15T12:15:03Z</time>
      </trkpt>
      <trkpt lat="47.63721" lon="0.54982">
        <ele>99</ele>
        <time>2020-10-15T12:15:05Z</time>
      </trkpt>
      <trkpt lat="47.63718" lon="0.5498">
        <ele>99</ele>
        <time>2020-10-15T12:15:07Z</time>
      </trkpt>
      <trkpt lat="47.63715" lon="0.5498">
        <ele>99</ele>
        <time>2020-10-15T12:15:09Z</time>
      </trkpt>
      <trkpt lat="47.63712" lon="0.54979">
        <ele>99</ele>
        <time>2020-10-15T12:15:11Z</time>
      </trkpt>
      <trkpt lat="47.6371" lon="0.54978">
        <ele>99</ele>
        <time>2020-10-15T12:15:13Z</time>
      </trkpt>
      <trkpt lat="47.63707" lon="0.54978">
        <ele>99</ele>
        <time>2020-10-15T12:15:15Z</time>
      </trkpt>
      <trkpt lat="47.63705" lon="0.54978">
        <ele>99</ele>
        <time>2020-10-15T12:15:17Z</time>
      </trkpt>
      <trkpt lat="47.63702" lon="0.54977">
        <ele>99</ele>
        <time>2020-10-15T12:15:19Z</time>
      </trkpt>
      <trkpt lat="47.637" lon="0.54977">
        <ele>99</ele>
        <time>2020-10-15T12:15:21Z</time>
      </trkpt>
      <trkpt lat="47.63697" lon="0.54976">
        <ele>99</ele>
        <time>2020-10-15T12:15:23Z</time>
      </trkpt>
      <trkpt lat="47.63695" lon="0.54976">
        <ele>99</ele>
        <time>2020-10-15T12:15:25Z</time>
      </trkpt>
      <trkpt lat="47.63693" lon="0.54975">
        <ele>100</ele>
        <time>2020-10-15T12:15:27Z</time>
      </trkpt>
      <trkpt lat="47.63691" lon="0.54974">
        <ele>100</ele>
        <time>2020-10-15T12:15:29Z</time>
      </trkpt>
      <trkpt lat="47.63688" lon="0.54974">
        <ele>100</ele>
        <time>2020-10-15T12:15:31Z</time>
      </trkpt>
      <trkpt lat="47.63686" lon="0.54973">
        <ele>100</ele>
        <time>2020-10-15T12:15:33Z</time>
      </trkpt>
      <trkpt lat="47.63684" lon="0.54973">
        <ele>100</ele>
        <time>2020-10-15T12:15:35Z</time>
      </trkpt>
      <trkpt lat="47.63681" lon="0.54973">
        <ele>100</ele>
        <time>2020-10-15T12:15:38Z</time>
      </trkpt>
      <trkpt lat="47.63679" lon="0.54974">
        <ele>100</ele>
        <time>2020-10-15T12:15:41Z</time>
      </trkpt>
      <trkpt lat="47.63676" lon="0.54974">
        <ele>100</ele>
        <time>2020-10-15T12:15:43Z</time>
      </trkpt>
      <trkpt lat="47.63674" lon="0.54974">
        <ele>100</ele>
        <time>2020-10-15T12:15:45Z</time>
      </trkpt>
      <trkpt lat="47.63672" lon="0.54973">
        <ele>100</ele>
        <time>2020-10-15T12:15:47Z</time>
      </trkpt>
      <trkpt lat="47.63669" lon="0.54972">
        <ele>100</ele>
        <time>2020-10-15T12:15:50Z</time>
      </trkpt>
      <trkpt lat="47.63666" lon="0.54972">
        <ele>100</ele>
        <time>2020-10-15T12:15:52Z</time>
      </trkpt>
      <trkpt lat="47.63664" lon="0.54971">
        <ele>100</ele>
        <time>2020-10-15T12:15:54Z</time>
      </trkpt>
      <trkpt lat="47.63662" lon="0.54971">
        <ele>100</ele>
        <time>2020-10-15T12:15:56Z</time>
      </trkpt>
      <trkpt lat="47.6366" lon="0.54971">
        <ele>100</ele>
        <time>2020-10-15T12:15:58Z</time>
      </trkpt>
      <trkpt lat="47.63657" lon="0.54971">
        <ele>100</ele>
        <time>2020-10-15T12:16:00Z</time>
      </trkpt>
      <trkpt lat="47.63654" lon="0.54971">
        <ele>100</ele>
        <time>2020-10-15T12:16:02Z</time>
      </trkpt>
      <trkpt lat="47.63652" lon="0.54971">
        <ele>100</ele>
        <time>2020-10-15T12:16:04Z</time>
      </trkpt>
      <trkpt lat="47.63649" lon="0.5497">
        <ele>100</ele>
        <time>2020-10-15T12:16:06Z</time>
      </trkpt>
      <trkpt lat="47.63647" lon="0.54971">
        <ele>100</ele>
        <time>2020-10-15T12:16:08Z</time>
      </trkpt>
      <trkpt lat="47.63644" lon="0.5497">
        <ele>100</ele>
        <time>2020-10-15T12:16:10Z</time>
      </trkpt>
      <trkpt lat="47.63642" lon="0.5497">
        <ele>100</ele>
        <time>2020-10-15T12:16:12Z</time>
      </trkpt>
      <trkpt lat="47.6364" lon="0.54969">
        <ele>100</ele>
        <time>2020-10-15T12:16:14Z</time>
      </trkpt>
      <trkpt lat="47.63638" lon="0.54969">
        <ele>101</ele>
        <time>2020-10-15T12:16:16Z</time>
      </trkpt>
      <trkpt lat="47.63635" lon="0.54969">
        <ele>101</ele>
        <time>2020-10-15T12:16:18Z</time>
      </trkpt>
      <trkpt lat="47.63632" lon="0.54969">
        <ele>101</ele>
        <time>2020-10-15T12:16:20Z</time>
      </trkpt>
      <trkpt lat="47.6363" lon="0.54969">
        <ele>101</ele>
        <time>2020-10-15T12:16:22Z</time>
      </trkpt>
      <trkpt lat="47.63627" lon="0.5497">
        <ele>101</ele>
        <time>2020-10-15T12:16:24Z</time>
      </trkpt>
      <trkpt lat="47.63625" lon="0.5497">
        <ele>101</ele>
        <time>2020-10-15T12:16:26Z</time>
      </trkpt>
      <trkpt lat="47.63624" lon="0.54969">
        <ele>101</ele>
        <time>2020-10-15T12:16:28Z</time>
      </trkpt>
      <trkpt lat="47.63621" lon="0.54969">
        <ele>101</ele>
        <time>2020-10-15T12:16:31Z</time>
      </trkpt>
      <trkpt lat="47.63619" lon="0.5497">
        <ele>101</ele>
        <time>2020-10-15T12:16:34Z</time>
      </trkpt>
      <trkpt lat="47.63617" lon="0.54971">
        <ele>101</ele>
        <time>2020-10-15T12:16:36Z</time>
      </trkpt>
      <trkpt lat="47.63615" lon="0.54971">
        <ele>101</ele>
        <time>2020-10-15T12:16:38Z</time>
      </trkpt>
      <trkpt lat="47.63613" lon="0.54971">
        <ele>101</ele>
        <time>2020-10-15T12:16:41Z</time>
      </trkpt>
      <trkpt lat="47.6361" lon="0.54972">
        <ele>101</ele>
        <time>2020-10-15T12:16:43Z</time>
      </trkpt>
      <trkpt lat="47.63607" lon="0.54972">
        <ele>101</ele>
        <time>2020-10-15T12:16:45Z</time>
      </trkpt>
      <trkpt lat="47.63605" lon="0.54973">
        <ele>101</ele>
        <time>2020-10-15T12:16:47Z</time>
      </trkpt>
      <trkpt lat="47.63602" lon="0.54973">
        <ele>101</ele>
        <time>2020-10-15T12:16:49Z</time>
      </trkpt>
      <trkpt lat="47.636" lon="0.54974">
        <ele>101</ele>
        <time>2020-10-15T12:16:51Z</time>
      </trkpt>
      <trkpt lat="47.63598" lon="0.54974">
        <ele>101</ele>
        <time>2020-10-15T12:16:53Z</time>
      </trkpt>
      <trkpt lat="47.63596" lon="0.54975">
        <ele>101</ele>
        <time>2020-10-15T12:16:55Z</time>
      </trkpt>
      <trkpt lat="47.63594" lon="0.54975">
        <ele>101</ele>
        <time>2020-10-15T12:16:57Z</time>
      </trkpt>
      <trkpt lat="47.63591" lon="0.54975">
        <ele>101</ele>
        <time>2020-10-15T12:16:59Z</time>
      </trkpt>
      <trkpt lat="47.63589" lon="0.54976">
        <ele>101</ele>
        <time>2020-10-15T12:17:01Z</time>
      </trkpt>
      <trkpt lat="47.63585" lon="0.54976">
        <ele>101</ele>
        <time>2020-10-15T12:17:03Z</time>
      </trkpt>
      <trkpt lat="47.63583" lon="0.54977">
        <ele>102</ele>
        <time>2020-10-15T12:17:05Z</time>
      </trkpt>
      <trkpt lat="47.6358" lon="0.54977">
        <ele>102</ele>
        <time>2020-10-15T12:17:07Z</time>
      </trkpt>
      <trkpt lat="47.63577" lon="0.54978">
        <ele>102</ele>
        <time>2020-10-15T12:17:09Z</time>
      </trkpt>
      <trkpt lat="47.63575" lon="0.54979">
        <ele>102</ele>
        <time>2020-10-15T12:17:11Z</time>
      </trkpt>
      <trkpt lat="47.63572" lon="0.54979">
        <ele>102</ele>
        <time>2020-10-15T12:17:13Z</time>
      </trkpt>
      <trkpt lat="47.6357" lon="0.5498">
        <ele>102</ele>
        <time>2020-10-15T12:17:15Z</time>
      </trkpt>
      <trkpt lat="47.63568" lon="0.5498">
        <ele>102</ele>
        <time>2020-10-15T12:17:17Z</time>
      </trkpt>
      <trkpt lat="47.63565" lon="0.54981">
        <ele>102</ele>
        <time>2020-10-15T12:17:19Z</time>
      </trkpt>
      <trkpt lat="47.63563" lon="0.54981">
        <ele>102</ele>
        <time>2020-10-15T12:17:21Z</time>
      </trkpt>
      <trkpt lat="47.6356" lon="0.54982">
        <ele>102</ele>
        <time>2020-10-15T12:17:23Z</time>
      </trkpt>
      <trkpt lat="47.63557" lon="0.54983">
        <ele>102</ele>
        <time>2020-10-15T12:17:25Z</time>
      </trkpt>
      <trkpt lat="47.63554" lon="0.54983">
        <ele>101</ele>
        <time>2020-10-15T12:17:27Z</time>
      </trkpt>
      <trkpt lat="47.63551" lon="0.54984">
        <ele>101</ele>
        <time>2020-10-15T12:17:29Z</time>
      </trkpt>
      <trkpt lat="47.63549" lon="0.54984">
        <ele>101</ele>
        <time>2020-10-15T12:17:31Z</time>
      </trkpt>
      <trkpt lat="47.63547" lon="0.54985">
        <ele>101</ele>
        <time>2020-10-15T12:17:33Z</time>
      </trkpt>
      <trkpt lat="47.63545" lon="0.54985">
        <ele>101</ele>
        <time>2020-10-15T12:17:35Z</time>
      </trkpt>
      <trkpt lat="47.63542" lon="0.54986">
        <ele>101</ele>
        <time>2020-10-15T12:17:37Z</time>
      </trkpt>
      <trkpt lat="47.6354" lon="0.54986">
        <ele>101</ele>
        <time>2020-10-15T12:17:39Z</time>
      </trkpt>
      <trkpt lat="47.63537" lon="0.54987">
        <ele>101</ele>
        <time>2020-10-15T12:17:41Z</time>
      </trkpt>
      <trkpt lat="47.63535" lon="0.54988">
        <ele>101</ele>
        <time>2020-10-15T12:17:43Z</time>
      </trkpt>
      <trkpt lat="47.63532" lon="0.54988">
        <ele>101</ele>
        <time>2020-10-15T12:17:45Z</time>
      </trkpt>
      <trkpt lat="47.6353" lon="0.54988">
        <ele>101</ele>
        <time>2020-10-15T12:17:47Z</time>
      </trkpt>
      <trkpt lat="47.63528" lon="0.54989">
        <ele>101</ele>
        <time>2020-10-15T12:17:49Z</time>
      </trkpt>
      <trkpt lat="47.63526" lon="0.54989">
        <ele>100</ele>
        <time>2020-10-15T12:17:51Z</time>
      </trkpt>
      <trkpt lat="47.63523" lon="0.5499">
        <ele>100</ele>
        <time>2020-10-15T12:17:53Z</time>
      </trkpt>
      <trkpt lat="47.6352" lon="0.54991">
        <ele>100</ele>
        <time>2020-10-15T12:17:55Z</time>
      </trkpt>
      <trkpt lat="47.63517" lon="0.54991">
        <ele>100</ele>
        <time>2020-10-15T12:17:57Z</time>
      </trkpt>
      <trkpt lat="47.63514" lon="0.54992">
        <ele>100</ele>
        <time>2020-10-15T12:17:59Z</time>
      </trkpt>
      <trkpt lat="47.63511" lon="0.54993">
        <ele>100</ele>
        <time>2020-10-15T12:18:01Z</time>
      </trkpt>
      <trkpt lat="47.63508" lon="0.54993">
        <ele>100</ele>
        <time>2020-10-15T12:18:03Z</time>
      </trkpt>
      <trkpt lat="47.63506" lon="0.54994">
        <ele>100</ele>
        <time>2020-10-15T12:18:05Z</time>
      </trkpt>
      <trkpt lat="47.63503" lon="0.54995">
        <ele>100</ele>
        <time>2020-10-15T12:18:07Z</time>
      </trkpt>
      <trkpt lat="47.635" lon="0.54995">
        <ele>100</ele>
        <time>2020-10-15T12:18:09Z</time>
      </trkpt>
      <trkpt lat="47.63498" lon="0.54995">
        <ele>99</ele>
        <time>2020-10-15T12:18:11Z</time>
      </trkpt>
      <trkpt lat="47.63495" lon="0.54995">
        <ele>99</ele>
        <time>2020-10-15T12:18:13Z</time>
      </trkpt>
      <trkpt lat="47.63493" lon="0.54996">
        <ele>99</ele>
        <time>2020-10-15T12:18:15Z</time>
      </trkpt>
      <trkpt lat="47.6349" lon="0.54996">
        <ele>99</ele>
        <time>2020-10-15T12:18:17Z</time>
      </trkpt>
      <trkpt lat="47.63487" lon="0.54996">
        <ele>99</ele>
        <time>2020-10-15T12:18:19Z</time>
      </trkpt>
      <trkpt lat="47.63484" lon="0.54996">
        <ele>99</ele>
        <time>2020-10-15T12:18:21Z</time>
      </trkpt>
      <trkpt lat="47.63482" lon="0.54997">
        <ele>99</ele>
        <time>2020-10-15T12:18:23Z</time>
      </trkpt>
      <trkpt lat="47.63479" lon="0.54997">
        <ele>99</ele>
        <time>2020-10-15T12:18:25Z</time>
      </trkpt>
      <trkpt lat="47.63477" lon="0.54997">
        <ele>99</ele>
        <time>2020-10-15T12:18:27Z</time>
      </trkpt>
      <trkpt lat="47.63474" lon="0.54998">
        <ele>99</ele>
        <time>2020-10-15T12:18:29Z</time>
      </trkpt>
      <trkpt lat="47.63472" lon="0.54999">
        <ele>99</ele>
        <time>2020-10-15T12:18:31Z</time>
      </trkpt>
      <trkpt lat="47.63469" lon="0.54999">
        <ele>99</ele>
        <time>2020-10-15T12:18:33Z</time>
      </trkpt>
      <trkpt lat="47.63466" lon="0.55">
        <ele>99</ele>
        <time>2020-10-15T12:18:35Z</time>
      </trkpt>
      <trkpt lat="47.63464" lon="0.55">
        <ele>99</ele>
        <time>2020-10-15T12:18:37Z</time>
      </trkpt>
      <trkpt lat="47.63461" lon="0.55001">
        <ele>99</ele>
        <time>2020-10-15T12:18:39Z</time>
      </trkpt>
      <trkpt lat="47.63459" lon="0.55002">
        <ele>99</ele>
        <time>2020-10-15T12:18:41Z</time>
      </trkpt>
      <trkpt lat="47.63457" lon="0.55002">
        <ele>99</ele>
        <time>2020-10-15T12:18:43Z</time>
      </trkpt>
      <trkpt lat="47.63454" lon="0.55003">
        <ele>99</ele>
        <time>2020-10-15T12:18:45Z</time>
      </trkpt>
      <trkpt lat="47.63451" lon="0.55003">
        <ele>99</ele>
        <time>2020-10-15T12:18:47Z</time>
      </trkpt>
      <trkpt lat="47.63449" lon="0.55004">
        <ele>99</ele>
        <time>2020-10-15T12:18:49Z</time>
      </trkpt>
      <trkpt lat="47.63446" lon="0.55005">
        <ele>100</ele>
        <time>2020-10-15T12:18:51Z</time>
      </trkpt>
      <trkpt lat="47.63444" lon="0.55007">
        <ele>100</ele>
        <time>2020-10-15T12:18:53Z</time>
      </trkpt>
      <trkpt lat="47.63442" lon="0.55008">
        <ele>100</ele>
        <time>2020-10-15T12:18:55Z</time>
      </trkpt>
      <trkpt lat="47.63439" lon="0.5501">
        <ele>100</ele>
        <time>2020-10-15T12:18:57Z</time>
      </trkpt>
      <trkpt lat="47.63437" lon="0.55011">
        <ele>100</ele>
        <time>2020-10-15T12:18:59Z</time>
      </trkpt>
      <trkpt lat="47.63434" lon="0.55013">
        <ele>100</ele>
        <time>2020-10-15T12:19:01Z</time>
      </trkpt>
      <trkpt lat="47.63431" lon="0.55014">
        <ele>100</ele>
        <time>2020-10-15T12:19:03Z</time>
      </trkpt>
      <trkpt lat="47.63428" lon="0.55015">
        <ele>100</ele>
        <time>2020-10-15T12:19:05Z</time>
      </trkpt>
      <trkpt lat="47.63426" lon="0.55016">
        <ele>100</ele>
        <time>2020-10-15T12:19:07Z</time>
      </trkpt>
      <trkpt lat="47.63423" lon="0.55018">
        <ele>100</ele>
        <time>2020-10-15T12:19:09Z</time>
      </trkpt>
      <trkpt lat="47.63421" lon="0.55019">
        <ele>100</ele>
        <time>2020-10-15T12:19:11Z</time>
      </trkpt>
      <trkpt lat="47.63419" lon="0.55021">
        <ele>100</ele>
        <time>2020-10-15T12:19:13Z</time>
      </trkpt>
      <trkpt lat="47.63417" lon="0.55022">
        <ele>100</ele>
        <time>2020-10-15T12:19:15Z</time>
      </trkpt>
      <trkpt lat="47.63414" lon="0.55024">
        <ele>101</ele>
        <time>2020-10-15T12:19:17Z</time>
      </trkpt>
      <trkpt lat="47.63412" lon="0.55025">
        <ele>101</ele>
        <time>2020-10-15T12:19:19Z</time>
      </trkpt>
      <trkpt lat="47.63409" lon="0.55026">
        <ele>101</ele>
        <time>2020-10-15T12:19:21Z</time>
      </trkpt>
      <trkpt lat="47.63407" lon="0.55026">
        <ele>101</ele>
        <time>2020-10-15T12:19:23Z</time>
      </trkpt>
      <trkpt lat="47.63404" lon="0.55027">
        <ele>101</ele>
        <time>2020-10-15T12:19:25Z</time>
      </trkpt>
      <trkpt lat="47.63401" lon="0.55028">
        <ele>101</ele>
        <time>2020-10-15T12:19:27Z</time>
      </trkpt>
      <trkpt lat="47.63398" lon="0.55029">
        <ele>101</ele>
        <time>2020-10-15T12:19:29Z</time>
      </trkpt>
      <trkpt lat="47.63396" lon="0.55029">
        <ele>101</ele>
        <time>2020-10-15T12:19:31Z</time>
      </trkpt>
      <trkpt lat="47.63394" lon="0.5503">
        <ele>101</ele>
        <time>2020-10-15T12:19:33Z</time>
      </trkpt>
      <trkpt lat="47.63391" lon="0.55031">
        <ele>101</ele>
        <time>2020-10-15T12:19:35Z</time>
      </trkpt>
      <trkpt lat="47.63389" lon="0.55031">
        <ele>101</ele>
        <time>2020-10-15T12:19:37Z</time>
      </trkpt>
      <trkpt lat="47.63386" lon="0.5503">
        <ele>101</ele>
        <time>2020-10-15T12:19:39Z</time>
      </trkpt>
      <trkpt lat="47.63383" lon="0.5503">
        <ele>101</ele>
        <time>2020-10-15T12:19:41Z</time>
      </trkpt>
      <trkpt lat="47.63381" lon="0.55031">
        <ele>101</ele>
        <time>2020-10-15T12:19:43Z</time>
      </trkpt>
      <trkpt lat="47.63378" lon="0.55031">
        <ele>101</ele>
        <time>2020-10-15T12:19:45Z</time>
      </trkpt>
      <trkpt lat="47.63376" lon="0.55031">
        <ele>101</ele>
        <time>2020-10-15T12:19:47Z</time>
      </trkpt>
      <trkpt lat="47.63374" lon="0.55032">
        <ele>101</ele>
        <time>2020-10-15T12:20:00Z</time>
      </trkpt>
      <trkpt lat="47.63373" lon="0.55035">
        <ele>101</ele>
        <time>2020-10-15T12:20:02Z</time>
      </trkpt>
      <trkpt lat="47.63373" lon="0.55038">
        <ele>101</ele>
        <time>2020-10-15T12:20:04Z</time>
      </trkpt>
      <trkpt lat="47.63373" lon="0.55041">
        <ele>101</ele>
        <time>2020-10-15T12:20:06Z</time>
      </trkpt>
      <trkpt lat="47.63374" lon="0.55044">
        <ele>101</ele>
        <time>2020-10-15T12:20:08Z</time>
      </trkpt>
      <trkpt lat="47.63374" lon="0.55047">
        <ele>101</ele>
        <time>2020-10-15T12:20:10Z</time>
      </trkpt>
      <trkpt lat="47.63374" lon="0.55051">
        <ele>101</ele>
        <time>2020-10-15T12:20:12Z</time>
      </trkpt>
      <trkpt lat="47.63375" lon="0.55054">
        <ele>101</ele>
        <time>2020-10-15T12:20:14Z</time>
      </trkpt>
      <trkpt lat="47.63376" lon="0.55058">
        <ele>100</ele>
        <time>2020-10-15T12:20:16Z</time>
      </trkpt>
      <trkpt lat="47.63377" lon="0.55062">
        <ele>100</ele>
        <time>2020-10-15T12:20:18Z</time>
      </trkpt>
      <trkpt lat="47.63378" lon="0.55066">
        <ele>100</ele>
        <time>2020-10-15T12:20:20Z</time>
      </trkpt>
      <trkpt lat="47.63379" lon="0.5507">
        <ele>100</ele>
        <time>2020-10-15T12:20:22Z</time>
      </trkpt>
      <trkpt lat="47.63379" lon="0.55074">
        <ele>100</ele>
        <time>2020-10-15T12:20:24Z</time>
      </trkpt>
      <trkpt lat="47.63379" lon="0.55078">
        <ele>100</ele>
        <time>2020-10-15T12:20:26Z</time>
      </trkpt>
      <trkpt lat="47.6338" lon="0.55083">
        <ele>100</ele>
        <time>2020-10-15T12:20:28Z</time>
      </trkpt>
      <trkpt lat="47.6338" lon="0.55087">
        <ele>99</ele>
        <time>2020-10-15T12:20:30Z</time>
      </trkpt>
      <trkpt lat="47.6338" lon="0.55091">
        <ele>99</ele>
        <time>2020-10-15T12:20:32Z</time>
      </trkpt>
      <trkpt lat="47.6338" lon="0.55094">
        <ele>99</ele>
        <time>2020-10-15T12:20:34Z</time>
      </trkpt>
      <trkpt lat="47.6338" lon="0.55098">
        <ele>99</ele>
        <time>2020-10-15T12:20:36Z</time>
      </trkpt>
      <trkpt lat="47.6338" lon="0.55102">
        <ele>98</ele>
        <time>2020-10-15T12:20:38Z</time>
      </trkpt>
      <trkpt lat="47.63381" lon="0.55106">
        <ele>98</ele>
        <time>2020-10-15T12:20:40Z</time>
      </trkpt>
      <trkpt lat="47.6338" lon="0.55109">
        <ele>98</ele>
        <time>2020-10-15T12:20:42Z</time>
      </trkpt>
      <trkpt lat="47.6338" lon="0.55112">
        <ele>98</ele>
        <time>2020-10-15T12:20:44Z</time>
      </trkpt>
      <trkpt lat="47.6338" lon="0.55115">
        <ele>98</ele>
        <time>2020-10-15T12:20:46Z</time>
      </trkpt>
      <trkpt lat="47.6338" lon="0.55118">
        <ele>98</ele>
        <time>2020-10-15T12:20:48Z</time>
      </trkpt>
      <trkpt lat="47.63381" lon="0.55121">
        <ele>97</ele>
        <time>2020-10-15T12:20:50Z</time>
      </trkpt>
      <trkpt lat="47.63382" lon="0.55125">
        <ele>97</ele>
        <time>2020-10-15T12:20:52Z</time>
      </trkpt>
      <trkpt lat="47.63382" lon="0.55128">
        <ele>97</ele>
        <time>2020-10-15T12:20:54Z</time>
      </trkpt>
      <trkpt lat="47.63382" lon="0.55131">
        <ele>97</ele>
        <time>2020-10-15T12:20:56Z</time>
      </trkpt>
      <trkpt lat="47.63383" lon="0.55135">
        <ele>97</ele>
        <time>2020-10-15T12:21:02Z</time>
      </trkpt>
      <trkpt lat="47.63383" lon="0.55138">
        <ele>97</ele>
        <time>2020-10-15T12:21:05Z</time>
      </trkpt>
      <trkpt lat="47.63382" lon="0.55141">
        <ele>97</ele>
        <time>2020-10-15T12:21:07Z</time>
      </trkpt>
      <trkpt lat="47.63381" lon="0.55143">
        <ele>96</ele>
        <time>2020-10-15T12:21:09Z</time>
      </trkpt>
      <trkpt lat="47.63378" lon="0.55145">
        <ele>96</ele>
        <time>2020-10-15T12:21:11Z</time>
      </trkpt>
      <trkpt lat="47.63376" lon="0.55148">
        <ele>96</ele>
        <time>2020-10-15T12:21:13Z</time>
      </trkpt>
      <trkpt lat="47.63374" lon="0.55152">
        <ele>96</ele>
        <time>2020-10-15T12:21:15Z</time>
      </trkpt>
      <trkpt lat="47.63373" lon="0.55154">
        <ele>96</ele>
        <time>2020-10-15T12:21:17Z</time>
      </trkpt>
      <trkpt lat="47.63372" lon="0.55156">
        <ele>96</ele>
        <time>2020-10-15T12:21:19Z</time>
      </trkpt>
      <trkpt lat="47.6337" lon="0.55161">
        <ele>96</ele>
        <time>2020-10-15T12:21:21Z</time>
      </trkpt>
      <trkpt lat="47.63368" lon="0.55163">
        <ele>96</ele>
        <time>2020-10-15T12:21:22Z</time>
      </trkpt>
      <trkpt lat="47.63366" lon="0.55166">
        <ele>95</ele>
        <time>2020-10-15T12:21:24Z</time>
      </trkpt>
      <trkpt lat="47.63364" lon="0.55168">
        <ele>95</ele>
        <time>2020-10-15T12:21:26Z</time>
      </trkpt>
      <trkpt lat="47.63362" lon="0.5517">
        <ele>95</ele>
        <time>2020-10-15T12:21:28Z</time>
      </trkpt>
      <trkpt lat="47.6336" lon="0.55172">
        <ele>95</ele>
        <time>2020-10-15T12:21:30Z</time>
      </trkpt>
      <trkpt lat="47.63358" lon="0.55174">
        <ele>95</ele>
        <time>2020-10-15T12:21:32Z</time>
      </trkpt>
      <trkpt lat="47.63356" lon="0.55176">
        <ele>95</ele>
        <time>2020-10-15T12:21:34Z</time>
      </trkpt>
      <trkpt lat="47.63354" lon="0.55177">
        <ele>95</ele>
        <time>2020-10-15T12:21:36Z</time>
      </trkpt>
      <trkpt lat="47.63352" lon="0.55181">
        <ele>95</ele>
        <time>2020-10-15T12:21:38Z</time>
      </trkpt>
      <trkpt lat="47.63351" lon="0.55184">
        <ele>95</ele>
        <time>2020-10-15T12:21:39Z</time>
      </trkpt>
      <trkpt lat="47.6335" lon="0.55186">
        <ele>94</ele>
        <time>2020-10-15T12:21:40Z</time>
      </trkpt>
      <trkpt lat="47.63349" lon="0.5519">
        <ele>94</ele>
        <time>2020-10-15T12:21:42Z</time>
      </trkpt>
      <trkpt lat="47.63348" lon="0.55193">
        <ele>94</ele>
        <time>2020-10-15T12:21:44Z</time>
      </trkpt>
      <trkpt lat="47.63348" lon="0.55196">
        <ele>94</ele>
        <time>2020-10-15T12:21:46Z</time>
      </trkpt>
      <trkpt lat="47.63347" lon="0.552">
        <ele>93</ele>
        <time>2020-10-15T12:21:48Z</time>
      </trkpt>
      <trkpt lat="47.63347" lon="0.55204">
        <ele>93</ele>
        <time>2020-10-15T12:21:50Z</time>
      </trkpt>
      <trkpt lat="47.63347" lon="0.55208">
        <ele>93</ele>
        <time>2020-10-15T12:21:52Z</time>
      </trkpt>
      <trkpt lat="47.63346" lon="0.55213">
        <ele>92</ele>
        <time>2020-10-15T12:21:54Z</time>
      </trkpt>
      <trkpt lat="47.63345" lon="0.55217">
        <ele>92</ele>
        <time>2020-10-15T12:21:56Z</time>
      </trkpt>
      <trkpt lat="47.63344" lon="0.5522">
        <ele>92</ele>
        <time>2020-10-15T12:21:58Z</time>
      </trkpt>
      <trkpt lat="47.63343" lon="0.55224">
        <ele>91</ele>
        <time>2020-10-15T12:22:00Z</time>
      </trkpt>
      <trkpt lat="47.63344" lon="0.55227">
        <ele>91</ele>
        <time>2020-10-15T12:22:02Z</time>
      </trkpt>
      <trkpt lat="47.63344" lon="0.5523">
        <ele>91</ele>
        <time>2020-10-15T12:22:04Z</time>
      </trkpt>
      <trkpt lat="47.63345" lon="0.55234">
        <ele>91</ele>
        <time>2020-10-15T12:22:06Z</time>
      </trkpt>
      <trkpt lat="47.63346" lon="0.55238">
        <ele>91</ele>
        <time>2020-10-15T12:22:08Z</time>
      </trkpt>
      <trkpt lat="47.63347" lon="0.55242">
        <ele>91</ele>
        <time>2020-10-15T12:22:10Z</time>
      </trkpt>
      <trkpt lat="47.63348" lon="0.55245">
        <ele>91</ele>
        <time>2020-10-15T12:22:12Z</time>
      </trkpt>
      <trkpt lat="47.63349" lon="0.55249">
        <ele>91</ele>
        <time>2020-10-15T12:22:14Z</time>
      </trkpt>
      <trkpt lat="47.6335" lon="0.55253">
        <ele>91</ele>
        <time>2020-10-15T12:22:16Z</time>
      </trkpt>
      <trkpt lat="47.63351" lon="0.55258">
        <ele>91</ele>
        <time>2020-10-15T12:22:18Z</time>
      </trkpt>
      <trkpt lat="47.63351" lon="0.55261">
        <ele>91</ele>
        <time>2020-10-15T12:22:20Z</time>
      </trkpt>
      <trkpt lat="47.63352" lon="0.55264">
        <ele>91</ele>
        <time>2020-10-15T12:22:22Z</time>
      </trkpt>
      <trkpt lat="47.63353" lon="0.55268">
        <ele>91</ele>
        <time>2020-10-15T12:22:24Z</time>
      </trkpt>
      <trkpt lat="47.63354" lon="0.55272">
        <ele>91</ele>
        <time>2020-10-15T12:22:26Z</time>
      </trkpt>
      <trkpt lat="47.63354" lon="0.55276">
        <ele>91</ele>
        <time>2020-10-15T12:22:28Z</time>
      </trkpt>
      <trkpt lat="47.63356" lon="0.5528">
        <ele>90</ele>
        <time>2020-10-15T12:22:30Z</time>
      </trkpt>
      <trkpt lat="47.63358" lon="0.55283">
        <ele>90</ele>
        <time>2020-10-15T12:22:32Z</time>
      </trkpt>
      <trkpt lat="47.63358" lon="0.55286">
        <ele>90</ele>
        <time>2020-10-15T12:22:34Z</time>
      </trkpt>
      <trkpt lat="47.63359" lon="0.55291">
        <ele>90</ele>
        <time>2020-10-15T12:22:36Z</time>
      </trkpt>
      <trkpt lat="47.6336" lon="0.55295">
        <ele>89</ele>
        <time>2020-10-15T12:22:38Z</time>
      </trkpt>
      <trkpt lat="47.63361" lon="0.553">
        <ele>89</ele>
        <time>2020-10-15T12:22:40Z</time>
      </trkpt>
      <trkpt lat="47.63362" lon="0.55305">
        <ele>88</ele>
        <time>2020-10-15T12:22:42Z</time>
      </trkpt>
      <trkpt lat="47.63363" lon="0.55309">
        <ele>88</ele>
        <time>2020-10-15T12:22:44Z</time>
      </trkpt>
      <trkpt lat="47.63363" lon="0.55314">
        <ele>88</ele>
        <time>2020-10-15T12:22:46Z</time>
      </trkpt>
      <trkpt lat="47.63363" lon="0.55318">
        <ele>88</ele>
        <time>2020-10-15T12:22:48Z</time>
      </trkpt>
      <trkpt lat="47.63363" lon="0.55321">
        <ele>87</ele>
        <time>2020-10-15T12:22:50Z</time>
      </trkpt>
      <trkpt lat="47.63363" lon="0.55324">
        <ele>87</ele>
        <time>2020-10-15T12:22:52Z</time>
      </trkpt>
      <trkpt lat="47.63363" lon="0.55328">
        <ele>87</ele>
        <time>2020-10-15T12:22:54Z</time>
      </trkpt>
      <trkpt lat="47.63364" lon="0.55332">
        <ele>86</ele>
        <time>2020-10-15T12:22:56Z</time>
      </trkpt>
      <trkpt lat="47.63364" lon="0.55336">
        <ele>86</ele>
        <time>2020-10-15T12:22:58Z</time>
      </trkpt>
      <trkpt lat="47.63365" lon="0.5534">
        <ele>86</ele>
        <time>2020-10-15T12:23:00Z</time>
      </trkpt>
      <trkpt lat="47.63365" lon="0.55344">
        <ele>85</ele>
        <time>2020-10-15T12:23:02Z</time>
      </trkpt>
      <trkpt lat="47.63366" lon="0.55349">
        <ele>85</ele>
        <time>2020-10-15T12:23:04Z</time>
      </trkpt>
      <trkpt lat="47.63366" lon="0.55354">
        <ele>85</ele>
        <time>2020-10-15T12:23:06Z</time>
      </trkpt>
      <trkpt lat="47.63366" lon="0.55359">
        <ele>84</ele>
        <time>2020-10-15T12:23:08Z</time>
      </trkpt>
      <trkpt lat="47.63366" lon="0.55363">
        <ele>84</ele>
        <time>2020-10-15T12:23:10Z</time>
      </trkpt>
      <trkpt lat="47.63366" lon="0.55368">
        <ele>84</ele>
        <time>2020-10-15T12:23:12Z</time>
      </trkpt>
      <trkpt lat="47.63364" lon="0.55372">
        <ele>84</ele>
        <time>2020-10-15T12:23:14Z</time>
      </trkpt>
      <trkpt lat="47.63362" lon="0.55375">
        <ele>83</ele>
        <time>2020-10-15T12:23:16Z</time>
      </trkpt>
      <trkpt lat="47.6336" lon="0.55377">
        <ele>83</ele>
        <time>2020-10-15T12:23:18Z</time>
      </trkpt>
      <trkpt lat="47.63358" lon="0.55378">
        <ele>83</ele>
        <time>2020-10-15T12:23:19Z</time>
      </trkpt>
      <trkpt lat="47.63356" lon="0.55379">
        <ele>83</ele>
        <time>2020-10-15T12:23:20Z</time>
      </trkpt>
      <trkpt lat="47.63353" lon="0.5538">
        <ele>82</ele>
        <time>2020-10-15T12:23:22Z</time>
      </trkpt>
      <trkpt lat="47.6335" lon="0.5538">
        <ele>82</ele>
        <time>2020-10-15T12:23:24Z</time>
      </trkpt>
      <trkpt lat="47.63347" lon="0.55381">
        <ele>81</ele>
        <time>2020-10-15T12:23:26Z</time>
      </trkpt>
      <trkpt lat="47.63344" lon="0.55381">
        <ele>81</ele>
        <time>2020-10-15T12:23:28Z</time>
      </trkpt>
      <trkpt lat="47.63341" lon="0.5538">
        <ele>80</ele>
        <time>2020-10-15T12:23:30Z</time>
      </trkpt>
      <trkpt lat="47.63338" lon="0.5538">
        <ele>80</ele>
        <time>2020-10-15T12:23:32Z</time>
      </trkpt>
      <trkpt lat="47.63335" lon="0.5538">
        <ele>80</ele>
        <time>2020-10-15T12:23:34Z</time>
      </trkpt>
      <trkpt lat="47.63333" lon="0.5538">
        <ele>79</ele>
        <time>2020-10-15T12:23:36Z</time>
      </trkpt>
      <trkpt lat="47.6333" lon="0.55379">
        <ele>79</ele>
        <time>2020-10-15T12:23:38Z</time>
      </trkpt>
      <trkpt lat="47.63327" lon="0.55379">
        <ele>79</ele>
        <time>2020-10-15T12:23:40Z</time>
      </trkpt>
      <trkpt lat="47.63324" lon="0.55378">
        <ele>79</ele>
        <time>2020-10-15T12:23:42Z</time>
      </trkpt>
      <trkpt lat="47.63321" lon="0.55378">
        <ele>79</ele>
        <time>2020-10-15T12:23:44Z</time>
      </trkpt>
      <trkpt lat="47.63319" lon="0.55378">
        <ele>79</ele>
        <time>2020-10-15T12:23:46Z</time>
      </trkpt>
      <trkpt lat="47.63316" lon="0.55378">
        <ele>79</ele>
        <time>2020-10-15T12:23:48Z</time>
      </trkpt>
      <trkpt lat="47.63313" lon="0.55378">
        <ele>78</ele>
        <time>2020-10-15T12:23:50Z</time>
      </trkpt>
      <trkpt lat="47.6331" lon="0.55377">
        <ele>78</ele>
        <time>2020-10-15T12:23:52Z</time>
      </trkpt>
      <trkpt lat="47.63307" lon="0.55376">
        <ele>78</ele>
        <time>2020-10-15T12:23:54Z</time>
      </trkpt>
      <trkpt lat="47.63304" lon="0.55375">
        <ele>78</ele>
        <time>2020-10-15T12:23:56Z</time>
      </trkpt>
      <trkpt lat="47.63302" lon="0.55375">
        <ele>78</ele>
        <time>2020-10-15T12:23:58Z</time>
      </trkpt>
      <trkpt lat="47.63299" lon="0.55375">
        <ele>78</ele>
        <time>2020-10-15T12:24:00Z</time>
      </trkpt>
      <trkpt lat="47.63296" lon="0.55374">
        <ele>78</ele>
        <time>2020-10-15T12:24:02Z</time>
      </trkpt>
      <trkpt lat="47.63293" lon="0.55374">
        <ele>78</ele>
        <time>2020-10-15T12:24:04Z</time>
      </trkpt>
      <trkpt lat="47.6329" lon="0.55374">
        <ele>78</ele>
        <time>2020-10-15T12:24:06Z</time>
      </trkpt>
      <trkpt lat="47.63288" lon="0.55373">
        <ele>78</ele>
        <time>2020-10-15T12:24:08Z</time>
      </trkpt>
      <trkpt lat="47.63285" lon="0.55373">
        <ele>78</ele>
        <time>2020-10-15T12:24:10Z</time>
      </trkpt>
      <trkpt lat="47.63282" lon="0.55372">
        <ele>78</ele>
        <time>2020-10-15T12:24:12Z</time>
      </trkpt>
      <trkpt lat="47.6328" lon="0.55371">
        <ele>78</ele>
        <time>2020-10-15T12:24:14Z</time>
      </trkpt>
      <trkpt lat="47.63278" lon="0.55371">
        <ele>79</ele>
        <time>2020-10-15T12:24:16Z</time>
      </trkpt>
      <trkpt lat="47.63275" lon="0.55371">
        <ele>79</ele>
        <time>2020-10-15T12:24:18Z</time>
      </trkpt>
      <trkpt lat="47.63273" lon="0.55371">
        <ele>79</ele>
        <time>2020-10-15T12:24:20Z</time>
      </trkpt>
      <trkpt lat="47.6327" lon="0.5537">
        <ele>79</ele>
        <time>2020-10-15T12:24:22Z</time>
      </trkpt>
      <trkpt lat="47.63267" lon="0.5537">
        <ele>79</ele>
        <time>2020-10-15T12:24:24Z</time>
      </trkpt>
      <trkpt lat="47.63264" lon="0.55369">
        <ele>79</ele>
        <time>2020-10-15T12:24:26Z</time>
      </trkpt>
      <trkpt lat="47.63261" lon="0.55368">
        <ele>79</ele>
        <time>2020-10-15T12:24:28Z</time>
      </trkpt>
      <trkpt lat="47.63259" lon="0.55368">
        <ele>79</ele>
        <time>2020-10-15T12:24:30Z</time>
      </trkpt>
      <trkpt lat="47.63257" lon="0.55368">
        <ele>79</ele>
        <time>2020-10-15T12:24:32Z</time>
      </trkpt>
      <trkpt lat="47.63254" lon="0.55368">
        <ele>79</ele>
        <time>2020-10-15T12:24:34Z</time>
      </trkpt>
      <trkpt lat="47.63251" lon="0.55367">
        <ele>79</ele>
        <time>2020-10-15T12:24:36Z</time>
      </trkpt>
      <trkpt lat="47.63248" lon="0.55368">
        <ele>79</ele>
        <time>2020-10-15T12:24:38Z</time>
      </trkpt>
      <trkpt lat="47.63245" lon="0.55368">
        <ele>79</ele>
        <time>2020-10-15T12:24:40Z</time>
      </trkpt>
      <trkpt lat="47.63243" lon="0.55368">
        <ele>79</ele>
        <time>2020-10-15T12:24:42Z</time>
      </trkpt>
      <trkpt lat="47.6324" lon="0.55369">
        <ele>79</ele>
        <time>2020-10-15T12:24:44Z</time>
      </trkpt>
      <trkpt lat="47.63237" lon="0.55368">
        <ele>79</ele>
        <time>2020-10-15T12:24:46Z</time>
      </trkpt>
      <trkpt lat="47.63235" lon="0.55367">
        <ele>79</ele>
        <time>2020-10-15T12:24:48Z</time>
      </trkpt>
      <trkpt lat="47.63232" lon="0.55367">
        <ele>79</ele>
        <time>2020-10-15T12:24:50Z</time>
      </trkpt>
      <trkpt lat="47.63229" lon="0.55367">
        <ele>79</ele>
        <time>2020-10-15T12:24:52Z</time>
      </trkpt>
      <trkpt lat="47.63226" lon="0.55367">
        <ele>79</ele>
        <time>2020-10-15T12:24:54Z</time>
      </trkpt>
      <trkpt lat="47.63224" lon="0.55367">
        <ele>79</ele>
        <time>2020-10-15T12:24:56Z</time>
      </trkpt>
      <trkpt lat="47.63221" lon="0.55367">
        <ele>78</ele>
        <time>2020-10-15T12:24:58Z</time>
      </trkpt>
      <trkpt lat="47.63218" lon="0.55367">
        <ele>78</ele>
        <time>2020-10-15T12:25:00Z</time>
      </trkpt>
      <trkpt lat="47.63215" lon="0.55367">
        <ele>78</ele>
        <time>2020-10-15T12:25:02Z</time>
      </trkpt>
      <trkpt lat="47.63214" lon="0.55365">
        <ele>78</ele>
        <time>2020-10-15T12:25:04Z</time>
      </trkpt>
      <trkpt lat="47.63211" lon="0.55365">
        <ele>78</ele>
        <time>2020-10-15T12:25:06Z</time>
      </trkpt>
      <trkpt lat="47.63209" lon="0.55365">
        <ele>78</ele>
        <time>2020-10-15T12:25:08Z</time>
      </trkpt>
      <trkpt lat="47.63206" lon="0.55364">
        <ele>78</ele>
        <time>2020-10-15T12:25:10Z</time>
      </trkpt>
      <trkpt lat="47.63204" lon="0.55363">
        <ele>78</ele>
        <time>2020-10-15T12:25:12Z</time>
      </trkpt>
      <trkpt lat="47.63201" lon="0.55362">
        <ele>78</ele>
        <time>2020-10-15T12:25:14Z</time>
      </trkpt>
      <trkpt lat="47.63198" lon="0.55361">
        <ele>78</ele>
        <time>2020-10-15T12:25:16Z</time>
      </trkpt>
      <trkpt lat="47.63196" lon="0.55361">
        <ele>78</ele>
        <time>2020-10-15T12:25:18Z</time>
      </trkpt>
      <trkpt lat="47.63193" lon="0.5536">
        <ele>78</ele>
        <time>2020-10-15T12:25:20Z</time>
      </trkpt>
      <trkpt lat="47.6319" lon="0.5536">
        <ele>78</ele>
        <time>2020-10-15T12:25:22Z</time>
      </trkpt>
      <trkpt lat="47.63187" lon="0.55359">
        <ele>78</ele>
        <time>2020-10-15T12:25:24Z</time>
      </trkpt>
      <trkpt lat="47.63184" lon="0.55357">
        <ele>78</ele>
        <time>2020-10-15T12:25:26Z</time>
      </trkpt>
      <trkpt lat="47.63182" lon="0.55357">
        <ele>78</ele>
        <time>2020-10-15T12:25:28Z</time>
      </trkpt>
      <trkpt lat="47.63179" lon="0.55356">
        <ele>78</ele>
        <time>2020-10-15T12:25:30Z</time>
      </trkpt>
      <trkpt lat="47.63176" lon="0.55356">
        <ele>78</ele>
        <time>2020-10-15T12:25:32Z</time>
      </trkpt>
      <trkpt lat="47.63173" lon="0.55355">
        <ele>78</ele>
        <time>2020-10-15T12:25:34Z</time>
      </trkpt>
      <trkpt lat="47.6317" lon="0.55354">
        <ele>78</ele>
        <time>2020-10-15T12:25:36Z</time>
      </trkpt>
      <trkpt lat="47.63168" lon="0.55353">
        <ele>78</ele>
        <time>2020-10-15T12:25:38Z</time>
      </trkpt>
      <trkpt lat="47.63165" lon="0.55353">
        <ele>77</ele>
        <time>2020-10-15T12:25:40Z</time>
      </trkpt>
      <trkpt lat="47.63163" lon="0.55352">
        <ele>77</ele>
        <time>2020-10-15T12:25:42Z</time>
      </trkpt>
      <trkpt lat="47.6316" lon="0.55352">
        <ele>77</ele>
        <time>2020-10-15T12:25:44Z</time>
      </trkpt>
      <trkpt lat="47.63157" lon="0.55351">
        <ele>77</ele>
        <time>2020-10-15T12:25:46Z</time>
      </trkpt>
      <trkpt lat="47.63154" lon="0.55351">
        <ele>77</ele>
        <time>2020-10-15T12:25:48Z</time>
      </trkpt>
      <trkpt lat="47.63152" lon="0.5535">
        <ele>77</ele>
        <time>2020-10-15T12:25:50Z</time>
      </trkpt>
      <trkpt lat="47.63149" lon="0.55349">
        <ele>77</ele>
        <time>2020-10-15T12:25:52Z</time>
      </trkpt>
      <trkpt lat="47.63146" lon="0.55349">
        <ele>77</ele>
        <time>2020-10-15T12:25:54Z</time>
      </trkpt>
      <trkpt lat="47.63143" lon="0.55348">
        <ele>77</ele>
        <time>2020-10-15T12:25:56Z</time>
      </trkpt>
      <trkpt lat="47.63141" lon="0.55347">
        <ele>77</ele>
        <time>2020-10-15T12:25:58Z</time>
      </trkpt>
      <trkpt lat="47.63138" lon="0.55346">
        <ele>77</ele>
        <time>2020-10-15T12:26:00Z</time>
      </trkpt>
      <trkpt lat="47.63135" lon="0.55346">
        <ele>77</ele>
        <time>2020-10-15T12:26:02Z</time>
      </trkpt>
      <trkpt lat="47.63132" lon="0.55345">
        <ele>77</ele>
        <time>2020-10-15T12:26:04Z</time>
      </trkpt>
      <trkpt lat="47.63129" lon="0.55344">
        <ele>77</ele>
        <time>2020-10-15T12:26:06Z</time>
      </trkpt>
      <trkpt lat="47.63126" lon="0.55344">
        <ele>78</ele>
        <time>2020-10-15T12:26:08Z</time>
      </trkpt>
      <trkpt lat="47.63124" lon="0.55343">
        <ele>78</ele>
        <time>2020-10-15T12:26:10Z</time>
      </trkpt>
      <trkpt lat="47.63121" lon="0.55342">
        <ele>78</ele>
        <time>2020-10-15T12:26:12Z</time>
      </trkpt>
      <trkpt lat="47.63118" lon="0.55341">
        <ele>78</ele>
        <time>2020-10-15T12:26:14Z</time>
      </trkpt>
      <trkpt lat="47.63115" lon="0.55341">
        <ele>78</ele>
        <time>2020-10-15T12:26:16Z</time>
      </trkpt>
      <trkpt lat="47.63114" lon="0.5534">
        <ele>78</ele>
        <time>2020-10-15T12:26:18Z</time>
      </trkpt>
      <trkpt lat="47.63111" lon="0.55339">
        <ele>78</ele>
        <time>2020-10-15T12:26:20Z</time>
      </trkpt>
      <trkpt lat="47.63108" lon="0.55338">
        <ele>78</ele>
        <time>2020-10-15T12:26:22Z</time>
      </trkpt>
      <trkpt lat="47.63106" lon="0.55337">
        <ele>78</ele>
        <time>2020-10-15T12:26:24Z</time>
      </trkpt>
      <trkpt lat="47.63104" lon="0.55336">
        <ele>78</ele>
        <time>2020-10-15T12:26:26Z</time>
      </trkpt>
      <trkpt lat="47.631" lon="0.55336">
        <ele>78</ele>
        <time>2020-10-15T12:26:28Z</time>
      </trkpt>
      <trkpt lat="47.63098" lon="0.55335">
        <ele>78</ele>
        <time>2020-10-15T12:26:30Z</time>
      </trkpt>
      <trkpt lat="47.63095" lon="0.55336">
        <ele>78</ele>
        <time>2020-10-15T12:26:32Z</time>
      </trkpt>
      <trkpt lat="47.63092" lon="0.55336">
        <ele>78</ele>
        <time>2020-10-15T12:26:34Z</time>
      </trkpt>
      <trkpt lat="47.6309" lon="0.55335">
        <ele>78</ele>
        <time>2020-10-15T12:26:36Z</time>
      </trkpt>
      <trkpt lat="47.63088" lon="0.55335">
        <ele>78</ele>
        <time>2020-10-15T12:26:38Z</time>
      </trkpt>
      <trkpt lat="47.63086" lon="0.55335">
        <ele>78</ele>
        <time>2020-10-15T12:26:40Z</time>
      </trkpt>
      <trkpt lat="47.63083" lon="0.55335">
        <ele>78</ele>
        <time>2020-10-15T12:26:42Z</time>
      </trkpt>
      <trkpt lat="47.6308" lon="0.55334">
        <ele>78</ele>
        <time>2020-10-15T12:26:44Z</time>
      </trkpt>
      <trkpt lat="47.63078" lon="0.55334">
        <ele>78</ele>
        <time>2020-10-15T12:26:46Z</time>
      </trkpt>
      <trkpt lat="47.63076" lon="0.55334">
        <ele>78</ele>
        <time>2020-10-15T12:26:48Z</time>
      </trkpt>
      <trkpt lat="47.63073" lon="0.55333">
        <ele>78</ele>
        <time>2020-10-15T12:26:50Z</time>
      </trkpt>
      <trkpt lat="47.6307" lon="0.55332">
        <ele>78</ele>
        <time>2020-10-15T12:26:52Z</time>
      </trkpt>
      <trkpt lat="47.63068" lon="0.55332">
        <ele>78</ele>
        <time>2020-10-15T12:26:54Z</time>
      </trkpt>
      <trkpt lat="47.63066" lon="0.55332">
        <ele>78</ele>
        <time>2020-10-15T12:26:56Z</time>
      </trkpt>
      <trkpt lat="47.63064" lon="0.55331">
        <ele>78</ele>
        <time>2020-10-15T12:26:58Z</time>
      </trkpt>
      <trkpt lat="47.63062" lon="0.5533">
        <ele>78</ele>
        <time>2020-10-15T12:27:00Z</time>
      </trkpt>
      <trkpt lat="47.6306" lon="0.55329">
        <ele>78</ele>
        <time>2020-10-15T12:27:02Z</time>
      </trkpt>
      <trkpt lat="47.63057" lon="0.55329">
        <ele>78</ele>
        <time>2020-10-15T12:27:04Z</time>
      </trkpt>
      <trkpt lat="47.63055" lon="0.55327">
        <ele>78</ele>
        <time>2020-10-15T12:27:06Z</time>
      </trkpt>
      <trkpt lat="47.63052" lon="0.55327">
        <ele>78</ele>
        <time>2020-10-15T12:27:08Z</time>
      </trkpt>
      <trkpt lat="47.63049" lon="0.55326">
        <ele>78</ele>
        <time>2020-10-15T12:27:10Z</time>
      </trkpt>
      <trkpt lat="47.63047" lon="0.55326">
        <ele>78</ele>
        <time>2020-10-15T12:27:12Z</time>
      </trkpt>
      <trkpt lat="47.63044" lon="0.55325">
        <ele>78</ele>
        <time>2020-10-15T12:27:14Z</time>
      </trkpt>
      <trkpt lat="47.63041" lon="0.55325">
        <ele>78</ele>
        <time>2020-10-15T12:27:16Z</time>
      </trkpt>
      <trkpt lat="47.63039" lon="0.55324">
        <ele>78</ele>
        <time>2020-10-15T12:27:18Z</time>
      </trkpt>
      <trkpt lat="47.63036" lon="0.55324">
        <ele>78</ele>
        <time>2020-10-15T12:27:20Z</time>
      </trkpt>
      <trkpt lat="47.63034" lon="0.55322">
        <ele>78</ele>
        <time>2020-10-15T12:27:22Z</time>
      </trkpt>
      <trkpt lat="47.63033" lon="0.55319">
        <ele>78</ele>
        <time>2020-10-15T12:27:24Z</time>
      </trkpt>
      <trkpt lat="47.63031" lon="0.55318">
        <ele>78</ele>
        <time>2020-10-15T12:27:26Z</time>
      </trkpt>
      <trkpt lat="47.63028" lon="0.55318">
        <ele>78</ele>
        <time>2020-10-15T12:27:28Z</time>
      </trkpt>
      <trkpt lat="47.63026" lon="0.55317">
        <ele>78</ele>
        <time>2020-10-15T12:27:30Z</time>
      </trkpt>
      <trkpt lat="47.63023" lon="0.55317">
        <ele>78</ele>
        <time>2020-10-15T12:27:32Z</time>
      </trkpt>
      <trkpt lat="47.6302" lon="0.55317">
        <ele>78</ele>
        <time>2020-10-15T12:27:34Z</time>
      </trkpt>
      <trkpt lat="47.63017" lon="0.55317">
        <ele>78</ele>
        <time>2020-10-15T12:27:36Z</time>
      </trkpt>
      <trkpt lat="47.63014" lon="0.55317">
        <ele>78</ele>
        <time>2020-10-15T12:27:38Z</time>
      </trkpt>
      <trkpt lat="47.63012" lon="0.55317">
        <ele>78</ele>
        <time>2020-10-15T12:27:40Z</time>
      </trkpt>
      <trkpt lat="47.63009" lon="0.55316">
        <ele>78</ele>
        <time>2020-10-15T12:27:42Z</time>
      </trkpt>
      <trkpt lat="47.63007" lon="0.55316">
        <ele>77</ele>
        <time>2020-10-15T12:27:44Z</time>
      </trkpt>
      <trkpt lat="47.63004" lon="0.55315">
        <ele>77</ele>
        <time>2020-10-15T12:27:46Z</time>
      </trkpt>
      <trkpt lat="47.63002" lon="0.55315">
        <ele>77</ele>
        <time>2020-10-15T12:27:48Z</time>
      </trkpt>
      <trkpt lat="47.62999" lon="0.55314">
        <ele>77</ele>
        <time>2020-10-15T12:27:50Z</time>
      </trkpt>
      <trkpt lat="47.62997" lon="0.55314">
        <ele>77</ele>
        <time>2020-10-15T12:27:52Z</time>
      </trkpt>
      <trkpt lat="47.62994" lon="0.55314">
        <ele>77</ele>
        <time>2020-10-15T12:27:54Z</time>
      </trkpt>
      <trkpt lat="47.62991" lon="0.55313">
        <ele>77</ele>
        <time>2020-10-15T12:27:56Z</time>
      </trkpt>
      <trkpt lat="47.62988" lon="0.55313">
        <ele>77</ele>
        <time>2020-10-15T12:27:58Z</time>
      </trkpt>
      <trkpt lat="47.62986" lon="0.55312">
        <ele>77</ele>
        <time>2020-10-15T12:28:00Z</time>
      </trkpt>
      <trkpt lat="47.62983" lon="0.55312">
        <ele>77</ele>
        <time>2020-10-15T12:28:02Z</time>
      </trkpt>
      <trkpt lat="47.6298" lon="0.55311">
        <ele>77</ele>
        <time>2020-10-15T12:28:04Z</time>
      </trkpt>
      <trkpt lat="47.62977" lon="0.5531">
        <ele>77</ele>
        <time>2020-10-15T12:28:06Z</time>
      </trkpt>
      <trkpt lat="47.62974" lon="0.55309">
        <ele>76</ele>
        <time>2020-10-15T12:28:08Z</time>
      </trkpt>
      <trkpt lat="47.62972" lon="0.55307">
        <ele>76</ele>
        <time>2020-10-15T12:28:10Z</time>
      </trkpt>
      <trkpt lat="47.62969" lon="0.55305">
        <ele>76</ele>
        <time>2020-10-15T12:28:12Z</time>
      </trkpt>
      <trkpt lat="47.62967" lon="0.55304">
        <ele>76</ele>
        <time>2020-10-15T12:28:14Z</time>
      </trkpt>
      <trkpt lat="47.62964" lon="0.55302">
        <ele>76</ele>
        <time>2020-10-15T12:28:16Z</time>
      </trkpt>
      <trkpt lat="47.62962" lon="0.55301">
        <ele>76</ele>
        <time>2020-10-15T12:28:18Z</time>
      </trkpt>
      <trkpt lat="47.62959" lon="0.55299">
        <ele>76</ele>
        <time>2020-10-15T12:28:20Z</time>
      </trkpt>
      <trkpt lat="47.62957" lon="0.55298">
        <ele>76</ele>
        <time>2020-10-15T12:28:22Z</time>
      </trkpt>
      <trkpt lat="47.62954" lon="0.55296">
        <ele>76</ele>
        <time>2020-10-15T12:28:24Z</time>
      </trkpt>
      <trkpt lat="47.62953" lon="0.55293">
        <ele>76</ele>
        <time>2020-10-15T12:28:26Z</time>
      </trkpt>
      <trkpt lat="47.62951" lon="0.55291">
        <ele>76</ele>
        <time>2020-10-15T12:28:28Z</time>
      </trkpt>
      <trkpt lat="47.62948" lon="0.5529">
        <ele>76</ele>
        <time>2020-10-15T12:28:30Z</time>
      </trkpt>
      <trkpt lat="47.62946" lon="0.55288">
        <ele>76</ele>
        <time>2020-10-15T12:28:32Z</time>
      </trkpt>
      <trkpt lat="47.62943" lon="0.55286">
        <ele>76</ele>
        <time>2020-10-15T12:28:34Z</time>
      </trkpt>
      <trkpt lat="47.6294" lon="0.55285">
        <ele>76</ele>
        <time>2020-10-15T12:28:36Z</time>
      </trkpt>
      <trkpt lat="47.62938" lon="0.55283">
        <ele>76</ele>
        <time>2020-10-15T12:28:38Z</time>
      </trkpt>
      <trkpt lat="47.62935" lon="0.5528">
        <ele>76</ele>
        <time>2020-10-15T12:28:40Z</time>
      </trkpt>
      <trkpt lat="47.62933" lon="0.55277">
        <ele>76</ele>
        <time>2020-10-15T12:28:42Z</time>
      </trkpt>
      <trkpt lat="47.62931" lon="0.55274">
        <ele>76</ele>
        <time>2020-10-15T12:28:44Z</time>
      </trkpt>
      <trkpt lat="47.62928" lon="0.55271">
        <ele>76</ele>
        <time>2020-10-15T12:28:46Z</time>
      </trkpt>
      <trkpt lat="47.62925" lon="0.55269">
        <ele>75</ele>
        <time>2020-10-15T12:28:48Z</time>
      </trkpt>
      <trkpt lat="47.62923" lon="0.55266">
        <ele>75</ele>
        <time>2020-10-15T12:28:50Z</time>
      </trkpt>
      <trkpt lat="47.62921" lon="0.55264">
        <ele>75</ele>
        <time>2020-10-15T12:28:52Z</time>
      </trkpt>
      <trkpt lat="47.62919" lon="0.55262">
        <ele>75</ele>
        <time>2020-10-15T12:28:54Z</time>
      </trkpt>
      <trkpt lat="47.62917" lon="0.55259">
        <ele>75</ele>
        <time>2020-10-15T12:28:56Z</time>
      </trkpt>
      <trkpt lat="47.62915" lon="0.55257">
        <ele>75</ele>
        <time>2020-10-15T12:28:58Z</time>
      </trkpt>
      <trkpt lat="47.62913" lon="0.55253">
        <ele>75</ele>
        <time>2020-10-15T12:29:00Z</time>
      </trkpt>
      <trkpt lat="47.62911" lon="0.5525">
        <ele>75</ele>
        <time>2020-10-15T12:29:02Z</time>
      </trkpt>
      <trkpt lat="47.62909" lon="0.55247">
        <ele>75</ele>
        <time>2020-10-15T12:29:04Z</time>
      </trkpt>
      <trkpt lat="47.62908" lon="0.55243">
        <ele>75</ele>
        <time>2020-10-15T12:29:06Z</time>
      </trkpt>
      <trkpt lat="47.62906" lon="0.55239">
        <ele>75</ele>
        <time>2020-10-15T12:29:08Z</time>
      </trkpt>
      <trkpt lat="47.62904" lon="0.55235">
        <ele>75</ele>
        <time>2020-10-15T12:29:10Z</time>
      </trkpt>
      <trkpt lat="47.62902" lon="0.55232">
        <ele>75</ele>
        <time>2020-10-15T12:29:12Z</time>
      </trkpt>
      <trkpt lat="47.629" lon="0.55229">
        <ele>75</ele>
        <time>2020-10-15T12:29:14Z</time>
      </trkpt>
      <trkpt lat="47.62899" lon="0.55227">
        <ele>75</ele>
        <time>2020-10-15T12:29:16Z</time>
      </trkpt>
      <trkpt lat="47.62897" lon="0.55224">
        <ele>75</ele>
        <time>2020-10-15T12:29:18Z</time>
      </trkpt>
      <trkpt lat="47.62896" lon="0.5522">
        <ele>75</ele>
        <time>2020-10-15T12:29:20Z</time>
      </trkpt>
      <trkpt lat="47.62895" lon="0.55217">
        <ele>75</ele>
        <time>2020-10-15T12:29:22Z</time>
      </trkpt>
      <trkpt lat="47.62894" lon="0.55213">
        <ele>75</ele>
        <time>2020-10-15T12:29:24Z</time>
      </trkpt>
      <trkpt lat="47.62893" lon="0.5521">
        <ele>75</ele>
        <time>2020-10-15T12:29:26Z</time>
      </trkpt>
      <trkpt lat="47.62892" lon="0.55206">
        <ele>75</ele>
        <time>2020-10-15T12:29:28Z</time>
      </trkpt>
      <trkpt lat="47.6289" lon="0.55202">
        <ele>75</ele>
        <time>2020-10-15T12:29:30Z</time>
      </trkpt>
      <trkpt lat="47.62889" lon="0.55198">
        <ele>75</ele>
        <time>2020-10-15T12:29:32Z</time>
      </trkpt>
      <trkpt lat="47.62888" lon="0.55194">
        <ele>75</ele>
        <time>2020-10-15T12:29:34Z</time>
      </trkpt>
      <trkpt lat="47.62887" lon="0.55191">
        <ele>75</ele>
        <time>2020-10-15T12:29:36Z</time>
      </trkpt>
      <trkpt lat="47.62886" lon="0.55186">
        <ele>75</ele>
        <time>2020-10-15T12:29:38Z</time>
      </trkpt>
      <trkpt lat="47.62886" lon="0.55183">
        <ele>75</ele>
        <time>2020-10-15T12:29:40Z</time>
      </trkpt>
      <trkpt lat="47.62885" lon="0.55178">
        <ele>75</ele>
        <time>2020-10-15T12:29:42Z</time>
      </trkpt>
      <trkpt lat="47.62884" lon="0.55175">
        <ele>75</ele>
        <time>2020-10-15T12:29:44Z</time>
      </trkpt>
      <trkpt lat="47.62884" lon="0.55172">
        <ele>75</ele>
        <time>2020-10-15T12:29:46Z</time>
      </trkpt>
      <trkpt lat="47.62883" lon="0.55168">
        <ele>75</ele>
        <time>2020-10-15T12:29:48Z</time>
      </trkpt>
      <trkpt lat="47.62882" lon="0.55163">
        <ele>76</ele>
        <time>2020-10-15T12:29:50Z</time>
      </trkpt>
      <trkpt lat="47.62882" lon="0.55159">
        <ele>76</ele>
        <time>2020-10-15T12:29:52Z</time>
      </trkpt>
      <trkpt lat="47.62881" lon="0.55155">
        <ele>76</ele>
        <time>2020-10-15T12:29:54Z</time>
      </trkpt>
      <trkpt lat="47.62881" lon="0.55151">
        <ele>76</ele>
        <time>2020-10-15T12:29:56Z</time>
      </trkpt>
      <trkpt lat="47.6288" lon="0.55148">
        <ele>76</ele>
        <time>2020-10-15T12:29:58Z</time>
      </trkpt>
      <trkpt lat="47.6288" lon="0.55144">
        <ele>76</ele>
        <time>2020-10-15T12:30:00Z</time>
      </trkpt>
      <trkpt lat="47.62879" lon="0.5514">
        <ele>76</ele>
        <time>2020-10-15T12:30:02Z</time>
      </trkpt>
      <trkpt lat="47.62879" lon="0.55136">
        <ele>76</ele>
        <time>2020-10-15T12:30:04Z</time>
      </trkpt>
      <trkpt lat="47.62878" lon="0.55131">
        <ele>75</ele>
        <time>2020-10-15T12:30:06Z</time>
      </trkpt>
      <trkpt lat="47.62878" lon="0.55127">
        <ele>75</ele>
        <time>2020-10-15T12:30:08Z</time>
      </trkpt>
      <trkpt lat="47.62877" lon="0.55123">
        <ele>75</ele>
        <time>2020-10-15T12:30:10Z</time>
      </trkpt>
      <trkpt lat="47.62876" lon="0.55119">
        <ele>75</ele>
        <time>2020-10-15T12:30:12Z</time>
      </trkpt>
      <trkpt lat="47.62876" lon="0.55114">
        <ele>75</ele>
        <time>2020-10-15T12:30:14Z</time>
      </trkpt>
      <trkpt lat="47.62875" lon="0.5511">
        <ele>74</ele>
        <time>2020-10-15T12:30:16Z</time>
      </trkpt>
      <trkpt lat="47.62874" lon="0.55105">
        <ele>74</ele>
        <time>2020-10-15T12:30:18Z</time>
      </trkpt>
      <trkpt lat="47.62873" lon="0.55101">
        <ele>74</ele>
        <time>2020-10-15T12:30:20Z</time>
      </trkpt>
      <trkpt lat="47.62872" lon="0.55097">
        <ele>74</ele>
        <time>2020-10-15T12:30:22Z</time>
      </trkpt>
      <trkpt lat="47.62872" lon="0.55093">
        <ele>74</ele>
        <time>2020-10-15T12:30:24Z</time>
      </trkpt>
      <trkpt lat="47.62871" lon="0.55089">
        <ele>74</ele>
        <time>2020-10-15T12:30:26Z</time>
      </trkpt>
      <trkpt lat="47.62871" lon="0.55085">
        <ele>74</ele>
        <time>2020-10-15T12:30:28Z</time>
      </trkpt>
      <trkpt lat="47.6287" lon="0.55081">
        <ele>73</ele>
        <time>2020-10-15T12:30:30Z</time>
      </trkpt>
      <trkpt lat="47.62869" lon="0.55077">
        <ele>73</ele>
        <time>2020-10-15T12:30:32Z</time>
      </trkpt>
      <trkpt lat="47.62869" lon="0.55073">
        <ele>73</ele>
        <time>2020-10-15T12:30:34Z</time>
      </trkpt>
      <trkpt lat="47.62868" lon="0.55069">
        <ele>74</ele>
        <time>2020-10-15T12:30:36Z</time>
      </trkpt>
      <trkpt lat="47.62867" lon="0.55065">
        <ele>74</ele>
        <time>2020-10-15T12:30:38Z</time>
      </trkpt>
      <trkpt lat="47.62867" lon="0.55061">
        <ele>74</ele>
        <time>2020-10-15T12:30:40Z</time>
      </trkpt>
      <trkpt lat="47.62867" lon="0.55057">
        <ele>74</ele>
        <time>2020-10-15T12:30:42Z</time>
      </trkpt>
      <trkpt lat="47.62866" lon="0.55053">
        <ele>74</ele>
        <time>2020-10-15T12:30:44Z</time>
      </trkpt>
      <trkpt lat="47.62865" lon="0.55048">
        <ele>74</ele>
        <time>2020-10-15T12:30:46Z</time>
      </trkpt>
      <trkpt lat="47.62864" lon="0.55044">
        <ele>74</ele>
        <time>2020-10-15T12:30:48Z</time>
      </trkpt>
      <trkpt lat="47.62864" lon="0.55041">
        <ele>74</ele>
        <time>2020-10-15T12:30:50Z</time>
      </trkpt>
      <trkpt lat="47.62863" lon="0.55037">
        <ele>74</ele>
        <time>2020-10-15T12:30:52Z</time>
      </trkpt>
      <trkpt lat="47.62862" lon="0.55033">
        <ele>74</ele>
        <time>2020-10-15T12:30:54Z</time>
      </trkpt>
      <trkpt lat="47.6286" lon="0.55029">
        <ele>73</ele>
        <time>2020-10-15T12:30:56Z</time>
      </trkpt>
      <trkpt lat="47.6286" lon="0.55025">
        <ele>73</ele>
        <time>2020-10-15T12:30:58Z</time>
      </trkpt>
      <trkpt lat="47.62858" lon="0.55022">
        <ele>73</ele>
        <time>2020-10-15T12:31:00Z</time>
      </trkpt>
      <trkpt lat="47.62857" lon="0.55018">
        <ele>73</ele>
        <time>2020-10-15T12:31:02Z</time>
      </trkpt>
      <trkpt lat="47.62856" lon="0.55015">
        <ele>73</ele>
        <time>2020-10-15T12:31:04Z</time>
      </trkpt>
      <trkpt lat="47.62855" lon="0.55012">
        <ele>73</ele>
        <time>2020-10-15T12:31:06Z</time>
      </trkpt>
      <trkpt lat="47.62854" lon="0.55009">
        <ele>73</ele>
        <time>2020-10-15T12:31:08Z</time>
      </trkpt>
      <trkpt lat="47.62852" lon="0.55006">
        <ele>73</ele>
        <time>2020-10-15T12:31:10Z</time>
      </trkpt>
      <trkpt lat="47.62851" lon="0.55003">
        <ele>73</ele>
        <time>2020-10-15T12:31:12Z</time>
      </trkpt>
      <trkpt lat="47.62849" lon="0.55">
        <ele>73</ele>
        <time>2020-10-15T12:31:14Z</time>
      </trkpt>
      <trkpt lat="47.62848" lon="0.54997">
        <ele>72</ele>
        <time>2020-10-15T12:31:16Z</time>
      </trkpt>
      <trkpt lat="47.62846" lon="0.54994">
        <ele>72</ele>
        <time>2020-10-15T12:31:18Z</time>
      </trkpt>
      <trkpt lat="47.62844" lon="0.54991">
        <ele>72</ele>
        <time>2020-10-15T12:31:20Z</time>
      </trkpt>
      <trkpt lat="47.62842" lon="0.54987">
        <ele>72</ele>
        <time>2020-10-15T12:31:22Z</time>
      </trkpt>
      <trkpt lat="47.6284" lon="0.54985">
        <ele>72</ele>
        <time>2020-10-15T12:31:24Z</time>
      </trkpt>
      <trkpt lat="47.62838" lon="0.54982">
        <ele>72</ele>
        <time>2020-10-15T12:31:26Z</time>
      </trkpt>
      <trkpt lat="47.62836" lon="0.54979">
        <ele>72</ele>
        <time>2020-10-15T12:31:28Z</time>
      </trkpt>
      <trkpt lat="47.62833" lon="0.54977">
        <ele>72</ele>
        <time>2020-10-15T12:31:30Z</time>
      </trkpt>
      <trkpt lat="47.62831" lon="0.54974">
        <ele>72</ele>
        <time>2020-10-15T12:31:32Z</time>
      </trkpt>
      <trkpt lat="47.62829" lon="0.54972">
        <ele>72</ele>
        <time>2020-10-15T12:31:34Z</time>
      </trkpt>
      <trkpt lat="47.62827" lon="0.5497">
        <ele>71</ele>
        <time>2020-10-15T12:31:36Z</time>
      </trkpt>
      <trkpt lat="47.62824" lon="0.54968">
        <ele>71</ele>
        <time>2020-10-15T12:31:38Z</time>
      </trkpt>
      <trkpt lat="47.62822" lon="0.54966">
        <ele>71</ele>
        <time>2020-10-15T12:31:40Z</time>
      </trkpt>
      <trkpt lat="47.6282" lon="0.54964">
        <ele>71</ele>
        <time>2020-10-15T12:31:42Z</time>
      </trkpt>
      <trkpt lat="47.62817" lon="0.54962">
        <ele>71</ele>
        <time>2020-10-15T12:31:44Z</time>
      </trkpt>
      <trkpt lat="47.62815" lon="0.5496">
        <ele>71</ele>
        <time>2020-10-15T12:31:46Z</time>
      </trkpt>
      <trkpt lat="47.62813" lon="0.54958">
        <ele>70</ele>
        <time>2020-10-15T12:31:48Z</time>
      </trkpt>
      <trkpt lat="47.6281" lon="0.54955">
        <ele>70</ele>
        <time>2020-10-15T12:31:50Z</time>
      </trkpt>
      <trkpt lat="47.62808" lon="0.54953">
        <ele>70</ele>
        <time>2020-10-15T12:31:52Z</time>
      </trkpt>
      <trkpt lat="47.62806" lon="0.54951">
        <ele>70</ele>
        <time>2020-10-15T12:31:54Z</time>
      </trkpt>
      <trkpt lat="47.62803" lon="0.54948">
        <ele>70</ele>
        <time>2020-10-15T12:31:56Z</time>
      </trkpt>
      <trkpt lat="47.62801" lon="0.54946">
        <ele>70</ele>
        <time>2020-10-15T12:31:58Z</time>
      </trkpt>
      <trkpt lat="47.62799" lon="0.54945">
        <ele>70</ele>
        <time>2020-10-15T12:32:00Z</time>
      </trkpt>
      <trkpt lat="47.62797" lon="0.54943">
        <ele>70</ele>
        <time>2020-10-15T12:32:02Z</time>
      </trkpt>
      <trkpt lat="47.62796" lon="0.54941">
        <ele>70</ele>
        <time>2020-10-15T12:32:04Z</time>
      </trkpt>
      <trkpt lat="47.62793" lon="0.54938">
        <ele>70</ele>
        <time>2020-10-15T12:32:06Z</time>
      </trkpt>
      <trkpt lat="47.62791" lon="0.54936">
        <ele>71</ele>
        <time>2020-10-15T12:32:08Z</time>
      </trkpt>
      <trkpt lat="47.62789" lon="0.54933">
        <ele>71</ele>
        <time>2020-10-15T12:32:10Z</time>
      </trkpt>
      <trkpt lat="47.62787" lon="0.5493">
        <ele>71</ele>
        <time>2020-10-15T12:32:12Z</time>
      </trkpt>
      <trkpt lat="47.62785" lon="0.54928">
        <ele>71</ele>
        <time>2020-10-15T12:32:14Z</time>
      </trkpt>
      <trkpt lat="47.62782" lon="0.54926">
        <ele>71</ele>
        <time>2020-10-15T12:32:16Z</time>
      </trkpt>
      <trkpt lat="47.62781" lon="0.54924">
        <ele>71</ele>
        <time>2020-10-15T12:32:18Z</time>
      </trkpt>
      <trkpt lat="47.62779" lon="0.54922">
        <ele>71</ele>
        <time>2020-10-15T12:32:20Z</time>
      </trkpt>
      <trkpt lat="47.62778" lon="0.54919">
        <ele>72</ele>
        <time>2020-10-15T12:32:22Z</time>
      </trkpt>
      <trkpt lat="47.62775" lon="0.54917">
        <ele>72</ele>
        <time>2020-10-15T12:32:24Z</time>
      </trkpt>
      <trkpt lat="47.62772" lon="0.54915">
        <ele>72</ele>
        <time>2020-10-15T12:32:26Z</time>
      </trkpt>
      <trkpt lat="47.62771" lon="0.54914">
        <ele>72</ele>
        <time>2020-10-15T12:32:28Z</time>
      </trkpt>
      <trkpt lat="47.62769" lon="0.54913">
        <ele>72</ele>
        <time>2020-10-15T12:32:30Z</time>
      </trkpt>
      <trkpt lat="47.62767" lon="0.54912">
        <ele>72</ele>
        <time>2020-10-15T12:32:32Z</time>
      </trkpt>
      <trkpt lat="47.62765" lon="0.5491">
        <ele>73</ele>
        <time>2020-10-15T12:32:34Z</time>
      </trkpt>
      <trkpt lat="47.62762" lon="0.54908">
        <ele>73</ele>
        <time>2020-10-15T12:32:36Z</time>
      </trkpt>
      <trkpt lat="47.62761" lon="0.54906">
        <ele>73</ele>
        <time>2020-10-15T12:32:39Z</time>
      </trkpt>
      <trkpt lat="47.62759" lon="0.54904">
        <ele>73</ele>
        <time>2020-10-15T12:32:41Z</time>
      </trkpt>
      <trkpt lat="47.62758" lon="0.54901">
        <ele>73</ele>
        <time>2020-10-15T12:32:45Z</time>
      </trkpt>
      <trkpt lat="47.62756" lon="0.54899">
        <ele>74</ele>
        <time>2020-10-15T12:32:49Z</time>
      </trkpt>
      <trkpt lat="47.62754" lon="0.54898">
        <ele>74</ele>
        <time>2020-10-15T12:32:51Z</time>
      </trkpt>
      <trkpt lat="47.62751" lon="0.54895">
        <ele>74</ele>
        <time>2020-10-15T12:32:54Z</time>
      </trkpt>
      <trkpt lat="47.62749" lon="0.54893">
        <ele>74</ele>
        <time>2020-10-15T12:32:56Z</time>
      </trkpt>
      <trkpt lat="47.62748" lon="0.54891">
        <ele>75</ele>
        <time>2020-10-15T12:32:57Z</time>
      </trkpt>
      <trkpt lat="47.62745" lon="0.54888">
        <ele>75</ele>
        <time>2020-10-15T12:32:59Z</time>
      </trkpt>
      <trkpt lat="47.62744" lon="0.54885">
        <ele>76</ele>
        <time>2020-10-15T12:33:01Z</time>
      </trkpt>
      <trkpt lat="47.62743" lon="0.54883">
        <ele>76</ele>
        <time>2020-10-15T12:33:04Z</time>
      </trkpt>
      <trkpt lat="47.62741" lon="0.54882">
        <ele>77</ele>
        <time>2020-10-15T12:33:07Z</time>
      </trkpt>
      <trkpt lat="47.62738" lon="0.54882">
        <ele>77</ele>
        <time>2020-10-15T12:33:09Z</time>
      </trkpt>
      <trkpt lat="47.62734" lon="0.54881">
        <ele>78</ele>
        <time>2020-10-15T12:33:11Z</time>
      </trkpt>
      <trkpt lat="47.6273" lon="0.54881">
        <ele>78</ele>
        <time>2020-10-15T12:33:13Z</time>
      </trkpt>
      <trkpt lat="47.62728" lon="0.54882">
        <ele>78</ele>
        <time>2020-10-15T12:33:14Z</time>
      </trkpt>
      <trkpt lat="47.62726" lon="0.54882">
        <ele>79</ele>
        <time>2020-10-15T12:33:15Z</time>
      </trkpt>
      <trkpt lat="47.62724" lon="0.54882">
        <ele>79</ele>
        <time>2020-10-15T12:33:16Z</time>
      </trkpt>
      <trkpt lat="47.62721" lon="0.54883">
        <ele>79</ele>
        <time>2020-10-15T12:33:18Z</time>
      </trkpt>
      <trkpt lat="47.62719" lon="0.54885">
        <ele>79</ele>
        <time>2020-10-15T12:33:20Z</time>
      </trkpt>
      <trkpt lat="47.62717" lon="0.54886">
        <ele>79</ele>
        <time>2020-10-15T12:33:22Z</time>
      </trkpt>
      <trkpt lat="47.62714" lon="0.54887">
        <ele>80</ele>
        <time>2020-10-15T12:33:24Z</time>
      </trkpt>
      <trkpt lat="47.62712" lon="0.54888">
        <ele>80</ele>
        <time>2020-10-15T12:33:26Z</time>
      </trkpt>
      <trkpt lat="47.62709" lon="0.54889">
        <ele>80</ele>
        <time>2020-10-15T12:33:28Z</time>
      </trkpt>
      <trkpt lat="47.62707" lon="0.54891">
        <ele>80</ele>
        <time>2020-10-15T12:33:30Z</time>
      </trkpt>
      <trkpt lat="47.62705" lon="0.54894">
        <ele>80</ele>
        <time>2020-10-15T12:33:32Z</time>
      </trkpt>
      <trkpt lat="47.62704" lon="0.54898">
        <ele>80</ele>
        <time>2020-10-15T12:33:35Z</time>
      </trkpt>
      <trkpt lat="47.62703" lon="0.54901">
        <ele>80</ele>
        <time>2020-10-15T12:33:37Z</time>
      </trkpt>
      <trkpt lat="47.627" lon="0.5491">
        <ele>79</ele>
        <time>2020-10-15T12:33:42Z</time>
      </trkpt>
      <trkpt lat="47.62699" lon="0.54913">
        <ele>79</ele>
        <time>2020-10-15T12:33:44Z</time>
      </trkpt>
      <trkpt lat="47.62696" lon="0.54916">
        <ele>79</ele>
        <time>2020-10-15T12:33:47Z</time>
      </trkpt>
      <trkpt lat="47.6269" lon="0.54927">
        <ele>80</ele>
        <time>2020-10-15T12:33:55Z</time>
      </trkpt>
      <trkpt lat="47.62688" lon="0.54929">
        <ele>80</ele>
        <time>2020-10-15T12:33:57Z</time>
      </trkpt>
      <trkpt lat="47.62687" lon="0.54935">
        <ele>80</ele>
        <time>2020-10-15T12:34:00Z</time>
      </trkpt>
      <trkpt lat="47.62687" lon="0.54938">
        <ele>80</ele>
        <time>2020-10-15T12:34:02Z</time>
      </trkpt>
      <trkpt lat="47.62682" lon="0.54944">
        <ele>80</ele>
        <time>2020-10-15T12:34:08Z</time>
      </trkpt>
      <trkpt lat="47.6268" lon="0.54945">
        <ele>80</ele>
        <time>2020-10-15T12:34:09Z</time>
      </trkpt>
      <trkpt lat="47.62679" lon="0.54947">
        <ele>80</ele>
        <time>2020-10-15T12:34:10Z</time>
      </trkpt>
      <trkpt lat="47.62677" lon="0.5495">
        <ele>81</ele>
        <time>2020-10-15T12:34:12Z</time>
      </trkpt>
      <trkpt lat="47.62675" lon="0.54952">
        <ele>81</ele>
        <time>2020-10-15T12:34:14Z</time>
      </trkpt>
      <trkpt lat="47.62673" lon="0.54954">
        <ele>81</ele>
        <time>2020-10-15T12:34:16Z</time>
      </trkpt>
      <trkpt lat="47.62671" lon="0.54955">
        <ele>82</ele>
        <time>2020-10-15T12:34:18Z</time>
      </trkpt>
      <trkpt lat="47.62668" lon="0.54957">
        <ele>82</ele>
        <time>2020-10-15T12:34:21Z</time>
      </trkpt>
      <trkpt lat="47.62664" lon="0.54959">
        <ele>83</ele>
        <time>2020-10-15T12:34:28Z</time>
      </trkpt>
      <trkpt lat="47.62655" lon="0.54955">
        <ele>84</ele>
        <time>2020-10-15T12:34:38Z</time>
      </trkpt>
      <trkpt lat="47.62645" lon="0.54955">
        <ele>85</ele>
        <time>2020-10-15T12:34:45Z</time>
      </trkpt>
      <trkpt lat="47.62642" lon="0.54955">
        <ele>86</ele>
        <time>2020-10-15T12:34:46Z</time>
      </trkpt>
      <trkpt lat="47.6264" lon="0.54955">
        <ele>86</ele>
        <time>2020-10-15T12:34:48Z</time>
      </trkpt>
      <trkpt lat="47.62637" lon="0.54953">
        <ele>86</ele>
        <time>2020-10-15T12:34:50Z</time>
      </trkpt>
      <trkpt lat="47.62636" lon="0.5495">
        <ele>86</ele>
        <time>2020-10-15T12:34:52Z</time>
      </trkpt>
      <trkpt lat="47.62633" lon="0.54947">
        <ele>86</ele>
        <time>2020-10-15T12:34:54Z</time>
      </trkpt>
      <trkpt lat="47.62631" lon="0.54947">
        <ele>86</ele>
        <time>2020-10-15T12:34:55Z</time>
      </trkpt>
      <trkpt lat="47.62629" lon="0.54943">
        <ele>86</ele>
        <time>2020-10-15T12:34:57Z</time>
      </trkpt>
      <trkpt lat="47.62628" lon="0.54941">
        <ele>86</ele>
        <time>2020-10-15T12:34:58Z</time>
      </trkpt>
      <trkpt lat="47.62627" lon="0.54937">
        <ele>86</ele>
        <time>2020-10-15T12:35:00Z</time>
      </trkpt>
      <trkpt lat="47.62624" lon="0.54934">
        <ele>87</ele>
        <time>2020-10-15T12:35:02Z</time>
      </trkpt>
      <trkpt lat="47.62623" lon="0.54931">
        <ele>87</ele>
        <time>2020-10-15T12:35:04Z</time>
      </trkpt>
      <trkpt lat="47.62621" lon="0.54928">
        <ele>87</ele>
        <time>2020-10-15T12:35:06Z</time>
      </trkpt>
      <trkpt lat="47.62619" lon="0.54925">
        <ele>87</ele>
        <time>2020-10-15T12:35:08Z</time>
      </trkpt>
      <trkpt lat="47.62617" lon="0.54922">
        <ele>87</ele>
        <time>2020-10-15T12:35:10Z</time>
      </trkpt>
      <trkpt lat="47.62615" lon="0.54918">
        <ele>87</ele>
        <time>2020-10-15T12:35:12Z</time>
      </trkpt>
      <trkpt lat="47.62614" lon="0.54914">
        <ele>87</ele>
        <time>2020-10-15T12:35:14Z</time>
      </trkpt>
      <trkpt lat="47.62611" lon="0.54911">
        <ele>87</ele>
        <time>2020-10-15T12:35:16Z</time>
      </trkpt>
      <trkpt lat="47.62609" lon="0.54908">
        <ele>87</ele>
        <time>2020-10-15T12:35:18Z</time>
      </trkpt>
      <trkpt lat="47.62608" lon="0.54905">
        <ele>87</ele>
        <time>2020-10-15T12:35:20Z</time>
      </trkpt>
      <trkpt lat="47.62606" lon="0.54903">
        <ele>87</ele>
        <time>2020-10-15T12:35:22Z</time>
      </trkpt>
      <trkpt lat="47.62604" lon="0.549">
        <ele>87</ele>
        <time>2020-10-15T12:35:24Z</time>
      </trkpt>
      <trkpt lat="47.62602" lon="0.54897">
        <ele>87</ele>
        <time>2020-10-15T12:35:26Z</time>
      </trkpt>
      <trkpt lat="47.62601" lon="0.54894">
        <ele>87</ele>
        <time>2020-10-15T12:35:28Z</time>
      </trkpt>
      <trkpt lat="47.62599" lon="0.54892">
        <ele>87</ele>
        <time>2020-10-15T12:35:30Z</time>
      </trkpt>
      <trkpt lat="47.62597" lon="0.5489">
        <ele>88</ele>
        <time>2020-10-15T12:35:32Z</time>
      </trkpt>
      <trkpt lat="47.62594" lon="0.54888">
        <ele>88</ele>
        <time>2020-10-15T12:35:34Z</time>
      </trkpt>
      <trkpt lat="47.62592" lon="0.54885">
        <ele>88</ele>
        <time>2020-10-15T12:35:36Z</time>
      </trkpt>
      <trkpt lat="47.6259" lon="0.54884">
        <ele>88</ele>
        <time>2020-10-15T12:35:38Z</time>
      </trkpt>
      <trkpt lat="47.62587" lon="0.54883">
        <ele>88</ele>
        <time>2020-10-15T12:35:40Z</time>
      </trkpt>
      <trkpt lat="47.62584" lon="0.54882">
        <ele>89</ele>
        <time>2020-10-15T12:35:42Z</time>
      </trkpt>
      <trkpt lat="47.62582" lon="0.54882">
        <ele>89</ele>
        <time>2020-10-15T12:35:44Z</time>
      </trkpt>
      <trkpt lat="47.62579" lon="0.54881">
        <ele>89</ele>
        <time>2020-10-15T12:35:46Z</time>
      </trkpt>
      <trkpt lat="47.62577" lon="0.54882">
        <ele>89</ele>
        <time>2020-10-15T12:35:48Z</time>
      </trkpt>
      <trkpt lat="47.62575" lon="0.54883">
        <ele>89</ele>
        <time>2020-10-15T12:35:50Z</time>
      </trkpt>
      <trkpt lat="47.62572" lon="0.54884">
        <ele>89</ele>
        <time>2020-10-15T12:35:52Z</time>
      </trkpt>
      <trkpt lat="47.6257" lon="0.54886">
        <ele>89</ele>
        <time>2020-10-15T12:35:54Z</time>
      </trkpt>
      <trkpt lat="47.62568" lon="0.54888">
        <ele>89</ele>
        <time>2020-10-15T12:35:56Z</time>
      </trkpt>
      <trkpt lat="47.62566" lon="0.5489">
        <ele>88</ele>
        <time>2020-10-15T12:35:58Z</time>
      </trkpt>
      <trkpt lat="47.62564" lon="0.54892">
        <ele>88</ele>
        <time>2020-10-15T12:36:00Z</time>
      </trkpt>
      <trkpt lat="47.62562" lon="0.54893">
        <ele>88</ele>
        <time>2020-10-15T12:36:02Z</time>
      </trkpt>
      <trkpt lat="47.6256" lon="0.54894">
        <ele>88</ele>
        <time>2020-10-15T12:36:04Z</time>
      </trkpt>
      <trkpt lat="47.62557" lon="0.54894">
        <ele>88</ele>
        <time>2020-10-15T12:36:06Z</time>
      </trkpt>
      <trkpt lat="47.62555" lon="0.54896">
        <ele>88</ele>
        <time>2020-10-15T12:36:08Z</time>
      </trkpt>
      <trkpt lat="47.62553" lon="0.54898">
        <ele>88</ele>
        <time>2020-10-15T12:36:10Z</time>
      </trkpt>
      <trkpt lat="47.62551" lon="0.549">
        <ele>88</ele>
        <time>2020-10-15T12:36:12Z</time>
      </trkpt>
      <trkpt lat="47.62549" lon="0.54902">
        <ele>88</ele>
        <time>2020-10-15T12:36:14Z</time>
      </trkpt>
      <trkpt lat="47.62546" lon="0.54903">
        <ele>88</ele>
        <time>2020-10-15T12:36:16Z</time>
      </trkpt>
      <trkpt lat="47.62543" lon="0.54905">
        <ele>88</ele>
        <time>2020-10-15T12:36:18Z</time>
      </trkpt>
      <trkpt lat="47.62541" lon="0.54905">
        <ele>88</ele>
        <time>2020-10-15T12:36:20Z</time>
      </trkpt>
      <trkpt lat="47.62538" lon="0.54906">
        <ele>88</ele>
        <time>2020-10-15T12:36:22Z</time>
      </trkpt>
      <trkpt lat="47.62536" lon="0.54907">
        <ele>88</ele>
        <time>2020-10-15T12:36:24Z</time>
      </trkpt>
      <trkpt lat="47.62534" lon="0.54909">
        <ele>88</ele>
        <time>2020-10-15T12:36:26Z</time>
      </trkpt>
      <trkpt lat="47.62532" lon="0.5491">
        <ele>88</ele>
        <time>2020-10-15T12:36:29Z</time>
      </trkpt>
      <trkpt lat="47.62529" lon="0.54911">
        <ele>88</ele>
        <time>2020-10-15T12:36:31Z</time>
      </trkpt>
      <trkpt lat="47.62527" lon="0.54912">
        <ele>88</ele>
        <time>2020-10-15T12:36:33Z</time>
      </trkpt>
      <trkpt lat="47.62524" lon="0.54914">
        <ele>88</ele>
        <time>2020-10-15T12:36:35Z</time>
      </trkpt>
      <trkpt lat="47.62522" lon="0.54915">
        <ele>88</ele>
        <time>2020-10-15T12:36:37Z</time>
      </trkpt>
      <trkpt lat="47.62519" lon="0.54917">
        <ele>88</ele>
        <time>2020-10-15T12:36:39Z</time>
      </trkpt>
      <trkpt lat="47.62517" lon="0.54918">
        <ele>88</ele>
        <time>2020-10-15T12:36:41Z</time>
      </trkpt>
      <trkpt lat="47.62514" lon="0.54919">
        <ele>88</ele>
        <time>2020-10-15T12:36:43Z</time>
      </trkpt>
      <trkpt lat="47.62511" lon="0.54919">
        <ele>89</ele>
        <time>2020-10-15T12:36:45Z</time>
      </trkpt>
      <trkpt lat="47.62509" lon="0.54919">
        <ele>89</ele>
        <time>2020-10-15T12:36:47Z</time>
      </trkpt>
      <trkpt lat="47.62507" lon="0.5492">
        <ele>89</ele>
        <time>2020-10-15T12:36:49Z</time>
      </trkpt>
      <trkpt lat="47.62504" lon="0.54919">
        <ele>89</ele>
        <time>2020-10-15T12:36:51Z</time>
      </trkpt>
      <trkpt lat="47.625" lon="0.54919">
        <ele>89</ele>
        <time>2020-10-15T12:36:53Z</time>
      </trkpt>
      <trkpt lat="47.62497" lon="0.54919">
        <ele>90</ele>
        <time>2020-10-15T12:36:55Z</time>
      </trkpt>
      <trkpt lat="47.62495" lon="0.54918">
        <ele>90</ele>
        <time>2020-10-15T12:36:57Z</time>
      </trkpt>
      <trkpt lat="47.62493" lon="0.54918">
        <ele>90</ele>
        <time>2020-10-15T12:36:59Z</time>
      </trkpt>
      <trkpt lat="47.62491" lon="0.54917">
        <ele>90</ele>
        <time>2020-10-15T12:37:01Z</time>
      </trkpt>
      <trkpt lat="47.62488" lon="0.54917">
        <ele>90</ele>
        <time>2020-10-15T12:37:03Z</time>
      </trkpt>
      <trkpt lat="47.62486" lon="0.54917">
        <ele>90</ele>
        <time>2020-10-15T12:37:05Z</time>
      </trkpt>
      <trkpt lat="47.62483" lon="0.54917">
        <ele>90</ele>
        <time>2020-10-15T12:37:08Z</time>
      </trkpt>
      <trkpt lat="47.62481" lon="0.54917">
        <ele>90</ele>
        <time>2020-10-15T12:37:10Z</time>
      </trkpt>
      <trkpt lat="47.62479" lon="0.54916">
        <ele>89</ele>
        <time>2020-10-15T12:37:13Z</time>
      </trkpt>
      <trkpt lat="47.62476" lon="0.54917">
        <ele>90</ele>
        <time>2020-10-15T12:37:15Z</time>
      </trkpt>
      <trkpt lat="47.62474" lon="0.54917">
        <ele>89</ele>
        <time>2020-10-15T12:37:17Z</time>
      </trkpt>
      <trkpt lat="47.62472" lon="0.54916">
        <ele>89</ele>
        <time>2020-10-15T12:37:19Z</time>
      </trkpt>
      <trkpt lat="47.6247" lon="0.54916">
        <ele>89</ele>
        <time>2020-10-15T12:37:21Z</time>
      </trkpt>
      <trkpt lat="47.62467" lon="0.54917">
        <ele>90</ele>
        <time>2020-10-15T12:37:23Z</time>
      </trkpt>
      <trkpt lat="47.62465" lon="0.54918">
        <ele>90</ele>
        <time>2020-10-15T12:37:25Z</time>
      </trkpt>
      <trkpt lat="47.62463" lon="0.54919">
        <ele>90</ele>
        <time>2020-10-15T12:37:27Z</time>
      </trkpt>
      <trkpt lat="47.62461" lon="0.5492">
        <ele>90</ele>
        <time>2020-10-15T12:37:30Z</time>
      </trkpt>
      <trkpt lat="47.62459" lon="0.54921">
        <ele>90</ele>
        <time>2020-10-15T12:37:32Z</time>
      </trkpt>
      <trkpt lat="47.62456" lon="0.54922">
        <ele>90</ele>
        <time>2020-10-15T12:37:34Z</time>
      </trkpt>
      <trkpt lat="47.62454" lon="0.54923">
        <ele>90</ele>
        <time>2020-10-15T12:37:36Z</time>
      </trkpt>
      <trkpt lat="47.62451" lon="0.54924">
        <ele>90</ele>
        <time>2020-10-15T12:37:38Z</time>
      </trkpt>
      <trkpt lat="47.62448" lon="0.54925">
        <ele>90</ele>
        <time>2020-10-15T12:37:40Z</time>
      </trkpt>
      <trkpt lat="47.62445" lon="0.54926">
        <ele>90</ele>
        <time>2020-10-15T12:37:42Z</time>
      </trkpt>
      <trkpt lat="47.62443" lon="0.54927">
        <ele>90</ele>
        <time>2020-10-15T12:37:43Z</time>
      </trkpt>
      <trkpt lat="47.62441" lon="0.54928">
        <ele>90</ele>
        <time>2020-10-15T12:37:45Z</time>
      </trkpt>
      <trkpt lat="47.62439" lon="0.54929">
        <ele>90</ele>
        <time>2020-10-15T12:37:47Z</time>
      </trkpt>
      <trkpt lat="47.62437" lon="0.54931">
        <ele>89</ele>
        <time>2020-10-15T12:37:49Z</time>
      </trkpt>
      <trkpt lat="47.62435" lon="0.54934">
        <ele>89</ele>
        <time>2020-10-15T12:37:51Z</time>
      </trkpt>
      <trkpt lat="47.62433" lon="0.54935">
        <ele>89</ele>
        <time>2020-10-15T12:37:52Z</time>
      </trkpt>
      <trkpt lat="47.62432" lon="0.54938">
        <ele>89</ele>
        <time>2020-10-15T12:37:54Z</time>
      </trkpt>
      <trkpt lat="47.62429" lon="0.5494">
        <ele>89</ele>
        <time>2020-10-15T12:37:56Z</time>
      </trkpt>
      <trkpt lat="47.62428" lon="0.54941">
        <ele>89</ele>
        <time>2020-10-15T12:37:58Z</time>
      </trkpt>
      <trkpt lat="47.62425" lon="0.54943">
        <ele>89</ele>
        <time>2020-10-15T12:38:00Z</time>
      </trkpt>
      <trkpt lat="47.62424" lon="0.54945">
        <ele>89</ele>
        <time>2020-10-15T12:38:02Z</time>
      </trkpt>
      <trkpt lat="47.62422" lon="0.54947">
        <ele>89</ele>
        <time>2020-10-15T12:38:04Z</time>
      </trkpt>
      <trkpt lat="47.6242" lon="0.5495">
        <ele>89</ele>
        <time>2020-10-15T12:38:06Z</time>
      </trkpt>
      <trkpt lat="47.62418" lon="0.54952">
        <ele>89</ele>
        <time>2020-10-15T12:38:08Z</time>
      </trkpt>
      <trkpt lat="47.62415" lon="0.54953">
        <ele>89</ele>
        <time>2020-10-15T12:38:10Z</time>
      </trkpt>
      <trkpt lat="47.62413" lon="0.54955">
        <ele>89</ele>
        <time>2020-10-15T12:38:12Z</time>
      </trkpt>
      <trkpt lat="47.6241" lon="0.54957">
        <ele>89</ele>
        <time>2020-10-15T12:38:14Z</time>
      </trkpt>
      <trkpt lat="47.62408" lon="0.54959">
        <ele>89</ele>
        <time>2020-10-15T12:38:16Z</time>
      </trkpt>
      <trkpt lat="47.62405" lon="0.5496">
        <ele>89</ele>
        <time>2020-10-15T12:38:18Z</time>
      </trkpt>
      <trkpt lat="47.62403" lon="0.54961">
        <ele>89</ele>
        <time>2020-10-15T12:38:20Z</time>
      </trkpt>
      <trkpt lat="47.62401" lon="0.54962">
        <ele>89</ele>
        <time>2020-10-15T12:38:22Z</time>
      </trkpt>
      <trkpt lat="47.62399" lon="0.54962">
        <ele>89</ele>
        <time>2020-10-15T12:38:24Z</time>
      </trkpt>
      <trkpt lat="47.62396" lon="0.54964">
        <ele>89</ele>
        <time>2020-10-15T12:38:26Z</time>
      </trkpt>
      <trkpt lat="47.62394" lon="0.54965">
        <ele>89</ele>
        <time>2020-10-15T12:38:28Z</time>
      </trkpt>
      <trkpt lat="47.62391" lon="0.54967">
        <ele>89</ele>
        <time>2020-10-15T12:38:30Z</time>
      </trkpt>
      <trkpt lat="47.62389" lon="0.54968">
        <ele>88</ele>
        <time>2020-10-15T12:38:32Z</time>
      </trkpt>
      <trkpt lat="47.62386" lon="0.54968">
        <ele>88</ele>
        <time>2020-10-15T12:38:34Z</time>
      </trkpt>
      <trkpt lat="47.62384" lon="0.54969">
        <ele>88</ele>
        <time>2020-10-15T12:38:36Z</time>
      </trkpt>
      <trkpt lat="47.62382" lon="0.54969">
        <ele>88</ele>
        <time>2020-10-15T12:38:38Z</time>
      </trkpt>
      <trkpt lat="47.6238" lon="0.5497">
        <ele>88</ele>
        <time>2020-10-15T12:38:40Z</time>
      </trkpt>
      <trkpt lat="47.62378" lon="0.5497">
        <ele>88</ele>
        <time>2020-10-15T12:38:42Z</time>
      </trkpt>
      <trkpt lat="47.62375" lon="0.54971">
        <ele>88</ele>
        <time>2020-10-15T12:38:44Z</time>
      </trkpt>
      <trkpt lat="47.62376" lon="0.54967">
        <ele>88</ele>
        <time>2020-10-15T12:39:00Z</time>
      </trkpt>
      <trkpt lat="47.62378" lon="0.54965">
        <ele>88</ele>
        <time>2020-10-15T12:39:02Z</time>
      </trkpt>
      <trkpt lat="47.62378" lon="0.54962">
        <ele>89</ele>
        <time>2020-10-15T12:39:05Z</time>
      </trkpt>
      <trkpt lat="47.62377" lon="0.54958">
        <ele>89</ele>
        <time>2020-10-15T12:39:08Z</time>
      </trkpt>
      <trkpt lat="47.62377" lon="0.54955">
        <ele>89</ele>
        <time>2020-10-15T12:39:11Z</time>
      </trkpt>
      <trkpt lat="47.62378" lon="0.54953">
        <ele>89</ele>
        <time>2020-10-15T12:39:21Z</time>
      </trkpt>
      <trkpt lat="47.62377" lon="0.54949">
        <ele>89</ele>
        <time>2020-10-15T12:39:26Z</time>
      </trkpt>
      <trkpt lat="47.62379" lon="0.54948">
        <ele>89</ele>
        <time>2020-10-15T12:39:43Z</time>
      </trkpt>
      <trkpt lat="47.62379" lon="0.5495">
        <ele>89</ele>
        <time>2020-10-15T12:39:51Z</time>
      </trkpt>
      <trkpt lat="47.62381" lon="0.54949">
        <ele>89</ele>
        <time>2020-10-15T12:40:27Z</time>
      </trkpt>
      <trkpt lat="47.62378" lon="0.54948">
        <ele>89</ele>
        <time>2020-10-15T12:40:30Z</time>
      </trkpt>
      <trkpt lat="47.62377" lon="0.54948">
        <ele>89</ele>
        <time>2020-10-15T12:40:34Z</time>
      </trkpt>
      <trkpt lat="47.62374" lon="0.54949">
        <ele>89</ele>
        <time>2020-10-15T12:40:36Z</time>
      </trkpt>
      <trkpt lat="47.62372" lon="0.54949">
        <ele>89</ele>
        <time>2020-10-15T12:40:38Z</time>
      </trkpt>
      <trkpt lat="47.6237" lon="0.5495">
        <ele>89</ele>
        <time>2020-10-15T12:40:40Z</time>
      </trkpt>
      <trkpt lat="47.62367" lon="0.54949">
        <ele>90</ele>
        <time>2020-10-15T12:40:46Z</time>
      </trkpt>
      <trkpt lat="47.62365" lon="0.54947">
        <ele>90</ele>
        <time>2020-10-15T12:40:49Z</time>
      </trkpt>
      <trkpt lat="47.62367" lon="0.54946">
        <ele>90</ele>
        <time>2020-10-15T12:41:02Z</time>
      </trkpt>
      <trkpt lat="47.62369" lon="0.54945">
        <ele>90</ele>
        <time>2020-10-15T12:41:04Z</time>
      </trkpt>
      <trkpt lat="47.6237" lon="0.54942">
        <ele>90</ele>
        <time>2020-10-15T12:41:07Z</time>
      </trkpt>
      <trkpt lat="47.62371" lon="0.54939">
        <ele>90</ele>
        <time>2020-10-15T12:41:09Z</time>
      </trkpt>
      <trkpt lat="47.62371" lon="0.54935">
        <ele>90</ele>
        <time>2020-10-15T12:41:12Z</time>
      </trkpt>
      <trkpt lat="47.62371" lon="0.54931">
        <ele>90</ele>
        <time>2020-10-15T12:41:15Z</time>
      </trkpt>
      <trkpt lat="47.6237" lon="0.54928">
        <ele>90</ele>
        <time>2020-10-15T12:41:17Z</time>
      </trkpt>
      <trkpt lat="47.62368" lon="0.54925">
        <ele>90</ele>
        <time>2020-10-15T12:41:19Z</time>
      </trkpt>
      <trkpt lat="47.62367" lon="0.54924">
        <ele>90</ele>
        <time>2020-10-15T12:41:21Z</time>
      </trkpt>
      <trkpt lat="47.62365" lon="0.54921">
        <ele>90</ele>
        <time>2020-10-15T12:41:23Z</time>
      </trkpt>
      <trkpt lat="47.62364" lon="0.54918">
        <ele>90</ele>
        <time>2020-10-15T12:41:26Z</time>
      </trkpt>
      <trkpt lat="47.62362" lon="0.54915">
        <ele>90</ele>
        <time>2020-10-15T12:41:28Z</time>
      </trkpt>
      <trkpt lat="47.62361" lon="0.54913">
        <ele>91</ele>
        <time>2020-10-15T12:41:31Z</time>
      </trkpt>
      <trkpt lat="47.6236" lon="0.5491">
        <ele>91</ele>
        <time>2020-10-15T12:41:33Z</time>
      </trkpt>
      <trkpt lat="47.62359" lon="0.54907">
        <ele>91</ele>
        <time>2020-10-15T12:41:35Z</time>
      </trkpt>
      <trkpt lat="47.62358" lon="0.54904">
        <ele>91</ele>
        <time>2020-10-15T12:41:37Z</time>
      </trkpt>
      <trkpt lat="47.62356" lon="0.54902">
        <ele>91</ele>
        <time>2020-10-15T12:41:39Z</time>
      </trkpt>
      <trkpt lat="47.62355" lon="0.549">
        <ele>91</ele>
        <time>2020-10-15T12:41:41Z</time>
      </trkpt>
      <trkpt lat="47.62353" lon="0.54898">
        <ele>92</ele>
        <time>2020-10-15T12:41:43Z</time>
      </trkpt>
      <trkpt lat="47.62351" lon="0.54894">
        <ele>92</ele>
        <time>2020-10-15T12:41:46Z</time>
      </trkpt>
      <trkpt lat="47.6235" lon="0.54892">
        <ele>92</ele>
        <time>2020-10-15T12:41:49Z</time>
      </trkpt>
      <trkpt lat="47.62349" lon="0.54889">
        <ele>92</ele>
        <time>2020-10-15T12:41:52Z</time>
      </trkpt>
      <trkpt lat="47.62348" lon="0.54887">
        <ele>92</ele>
        <time>2020-10-15T12:41:55Z</time>
      </trkpt>
      <trkpt lat="47.62346" lon="0.54884">
        <ele>92</ele>
        <time>2020-10-15T12:41:57Z</time>
      </trkpt>
      <trkpt lat="47.62345" lon="0.54882">
        <ele>93</ele>
        <time>2020-10-15T12:41:58Z</time>
      </trkpt>
      <trkpt lat="47.62343" lon="0.5488">
        <ele>93</ele>
        <time>2020-10-15T12:41:59Z</time>
      </trkpt>
      <trkpt lat="47.62342" lon="0.54876">
        <ele>93</ele>
        <time>2020-10-15T12:42:01Z</time>
      </trkpt>
      <trkpt lat="47.62341" lon="0.54873">
        <ele>93</ele>
        <time>2020-10-15T12:42:03Z</time>
      </trkpt>
      <trkpt lat="47.62339" lon="0.5487">
        <ele>93</ele>
        <time>2020-10-15T12:42:05Z</time>
      </trkpt>
      <trkpt lat="47.62337" lon="0.54868">
        <ele>93</ele>
        <time>2020-10-15T12:42:08Z</time>
      </trkpt>
      <trkpt lat="47.62335" lon="0.54866">
        <ele>93</ele>
        <time>2020-10-15T12:42:10Z</time>
      </trkpt>
      <trkpt lat="47.62334" lon="0.54862">
        <ele>93</ele>
        <time>2020-10-15T12:42:12Z</time>
      </trkpt>
      <trkpt lat="47.62332" lon="0.54858">
        <ele>93</ele>
        <time>2020-10-15T12:42:14Z</time>
      </trkpt>
      <trkpt lat="47.62331" lon="0.54856">
        <ele>93</ele>
        <time>2020-10-15T12:42:16Z</time>
      </trkpt>
      <trkpt lat="47.62329" lon="0.54852">
        <ele>93</ele>
        <time>2020-10-15T12:42:18Z</time>
      </trkpt>
      <trkpt lat="47.62327" lon="0.54849">
        <ele>93</ele>
        <time>2020-10-15T12:42:20Z</time>
      </trkpt>
      <trkpt lat="47.62325" lon="0.54846">
        <ele>93</ele>
        <time>2020-10-15T12:42:22Z</time>
      </trkpt>
      <trkpt lat="47.62323" lon="0.54843">
        <ele>93</ele>
        <time>2020-10-15T12:42:24Z</time>
      </trkpt>
      <trkpt lat="47.62321" lon="0.5484">
        <ele>93</ele>
        <time>2020-10-15T12:42:27Z</time>
      </trkpt>
      <trkpt lat="47.6232" lon="0.54837">
        <ele>93</ele>
        <time>2020-10-15T12:42:29Z</time>
      </trkpt>
      <trkpt lat="47.62319" lon="0.54835">
        <ele>93</ele>
        <time>2020-10-15T12:42:30Z</time>
      </trkpt>
      <trkpt lat="47.62318" lon="0.54831">
        <ele>93</ele>
        <time>2020-10-15T12:42:32Z</time>
      </trkpt>
      <trkpt lat="47.62317" lon="0.54828">
        <ele>93</ele>
        <time>2020-10-15T12:42:34Z</time>
      </trkpt>
      <trkpt lat="47.62315" lon="0.54826">
        <ele>93</ele>
        <time>2020-10-15T12:42:37Z</time>
      </trkpt>
      <trkpt lat="47.62313" lon="0.54822">
        <ele>93</ele>
        <time>2020-10-15T12:42:40Z</time>
      </trkpt>
      <trkpt lat="47.62311" lon="0.5482">
        <ele>93</ele>
        <time>2020-10-15T12:42:42Z</time>
      </trkpt>
      <trkpt lat="47.62309" lon="0.54817">
        <ele>93</ele>
        <time>2020-10-15T12:42:44Z</time>
      </trkpt>
      <trkpt lat="47.62307" lon="0.54814">
        <ele>94</ele>
        <time>2020-10-15T12:42:46Z</time>
      </trkpt>
      <trkpt lat="47.62306" lon="0.54811">
        <ele>94</ele>
        <time>2020-10-15T12:42:49Z</time>
      </trkpt>
      <trkpt lat="47.62304" lon="0.54807">
        <ele>94</ele>
        <time>2020-10-15T12:42:52Z</time>
      </trkpt>
      <trkpt lat="47.62303" lon="0.54804">
        <ele>94</ele>
        <time>2020-10-15T12:42:54Z</time>
      </trkpt>
      <trkpt lat="47.62301" lon="0.548">
        <ele>94</ele>
        <time>2020-10-15T12:42:56Z</time>
      </trkpt>
      <trkpt lat="47.623" lon="0.54797">
        <ele>94</ele>
        <time>2020-10-15T12:42:58Z</time>
      </trkpt>
      <trkpt lat="47.62298" lon="0.54795">
        <ele>94</ele>
        <time>2020-10-15T12:43:00Z</time>
      </trkpt>
      <trkpt lat="47.62297" lon="0.54791">
        <ele>94</ele>
        <time>2020-10-15T12:43:02Z</time>
      </trkpt>
      <trkpt lat="47.62296" lon="0.54788">
        <ele>94</ele>
        <time>2020-10-15T12:43:07Z</time>
      </trkpt>
      <trkpt lat="47.62294" lon="0.54785">
        <ele>95</ele>
        <time>2020-10-15T12:43:09Z</time>
      </trkpt>
      <trkpt lat="47.62292" lon="0.54781">
        <ele>95</ele>
        <time>2020-10-15T12:43:11Z</time>
      </trkpt>
      <trkpt lat="47.62291" lon="0.54778">
        <ele>95</ele>
        <time>2020-10-15T12:43:13Z</time>
      </trkpt>
      <trkpt lat="47.6229" lon="0.54774">
        <ele>95</ele>
        <time>2020-10-15T12:43:15Z</time>
      </trkpt>
      <trkpt lat="47.62289" lon="0.5477">
        <ele>95</ele>
        <time>2020-10-15T12:43:17Z</time>
      </trkpt>
      <trkpt lat="47.62287" lon="0.54765">
        <ele>95</ele>
        <time>2020-10-15T12:43:19Z</time>
      </trkpt>
      <trkpt lat="47.62285" lon="0.54762">
        <ele>96</ele>
        <time>2020-10-15T12:43:21Z</time>
      </trkpt>
      <trkpt lat="47.62283" lon="0.54759">
        <ele>96</ele>
        <time>2020-10-15T12:43:23Z</time>
      </trkpt>
      <trkpt lat="47.62281" lon="0.54755">
        <ele>96</ele>
        <time>2020-10-15T12:43:26Z</time>
      </trkpt>
      <trkpt lat="47.6228" lon="0.54753">
        <ele>96</ele>
        <time>2020-10-15T12:43:28Z</time>
      </trkpt>
      <trkpt lat="47.62278" lon="0.5475">
        <ele>96</ele>
        <time>2020-10-15T12:43:30Z</time>
      </trkpt>
      <trkpt lat="47.62276" lon="0.54748">
        <ele>97</ele>
        <time>2020-10-15T12:43:33Z</time>
      </trkpt>
      <trkpt lat="47.62275" lon="0.54746">
        <ele>97</ele>
        <time>2020-10-15T12:43:36Z</time>
      </trkpt>
      <trkpt lat="47.62273" lon="0.54744">
        <ele>97</ele>
        <time>2020-10-15T12:43:39Z</time>
      </trkpt>
      <trkpt lat="47.62271" lon="0.54741">
        <ele>97</ele>
        <time>2020-10-15T12:43:41Z</time>
      </trkpt>
      <trkpt lat="47.62269" lon="0.54738">
        <ele>97</ele>
        <time>2020-10-15T12:43:43Z</time>
      </trkpt>
      <trkpt lat="47.62267" lon="0.54735">
        <ele>97</ele>
        <time>2020-10-15T12:43:45Z</time>
      </trkpt>
      <trkpt lat="47.62266" lon="0.54732">
        <ele>97</ele>
        <time>2020-10-15T12:43:47Z</time>
      </trkpt>
      <trkpt lat="47.62265" lon="0.54729">
        <ele>97</ele>
        <time>2020-10-15T12:43:49Z</time>
      </trkpt>
      <trkpt lat="47.62265" lon="0.54726">
        <ele>96</ele>
        <time>2020-10-15T12:43:51Z</time>
      </trkpt>
      <trkpt lat="47.62263" lon="0.54724">
        <ele>96</ele>
        <time>2020-10-15T12:43:53Z</time>
      </trkpt>
      <trkpt lat="47.62262" lon="0.54721">
        <ele>96</ele>
        <time>2020-10-15T12:43:55Z</time>
      </trkpt>
      <trkpt lat="47.6226" lon="0.54719">
        <ele>96</ele>
        <time>2020-10-15T12:43:57Z</time>
      </trkpt>
      <trkpt lat="47.62258" lon="0.54716">
        <ele>96</ele>
        <time>2020-10-15T12:43:59Z</time>
      </trkpt>
      <trkpt lat="47.62255" lon="0.54713">
        <ele>96</ele>
        <time>2020-10-15T12:44:01Z</time>
      </trkpt>
      <trkpt lat="47.62254" lon="0.5471">
        <ele>96</ele>
        <time>2020-10-15T12:44:03Z</time>
      </trkpt>
      <trkpt lat="47.62252" lon="0.54708">
        <ele>96</ele>
        <time>2020-10-15T12:44:05Z</time>
      </trkpt>
      <trkpt lat="47.62251" lon="0.54705">
        <ele>96</ele>
        <time>2020-10-15T12:44:07Z</time>
      </trkpt>
      <trkpt lat="47.6225" lon="0.54701">
        <ele>95</ele>
        <time>2020-10-15T12:44:09Z</time>
      </trkpt>
      <trkpt lat="47.62249" lon="0.54698">
        <ele>95</ele>
        <time>2020-10-15T12:44:10Z</time>
      </trkpt>
      <trkpt lat="47.62248" lon="0.54695">
        <ele>95</ele>
        <time>2020-10-15T12:44:12Z</time>
      </trkpt>
      <trkpt lat="47.62246" lon="0.54692">
        <ele>94</ele>
        <time>2020-10-15T12:44:14Z</time>
      </trkpt>
      <trkpt lat="47.62245" lon="0.54688">
        <ele>94</ele>
        <time>2020-10-15T12:44:16Z</time>
      </trkpt>
      <trkpt lat="47.62243" lon="0.54685">
        <ele>94</ele>
        <time>2020-10-15T12:44:18Z</time>
      </trkpt>
      <trkpt lat="47.62241" lon="0.54683">
        <ele>94</ele>
        <time>2020-10-15T12:44:20Z</time>
      </trkpt>
      <trkpt lat="47.62239" lon="0.5468">
        <ele>94</ele>
        <time>2020-10-15T12:44:22Z</time>
      </trkpt>
      <trkpt lat="47.62238" lon="0.54676">
        <ele>93</ele>
        <time>2020-10-15T12:44:24Z</time>
      </trkpt>
      <trkpt lat="47.62237" lon="0.54672">
        <ele>93</ele>
        <time>2020-10-15T12:44:26Z</time>
      </trkpt>
      <trkpt lat="47.62235" lon="0.54668">
        <ele>93</ele>
        <time>2020-10-15T12:44:28Z</time>
      </trkpt>
      <trkpt lat="47.62234" lon="0.54665">
        <ele>92</ele>
        <time>2020-10-15T12:44:30Z</time>
      </trkpt>
      <trkpt lat="47.62232" lon="0.54661">
        <ele>92</ele>
        <time>2020-10-15T12:44:32Z</time>
      </trkpt>
      <trkpt lat="47.6223" lon="0.54658">
        <ele>92</ele>
        <time>2020-10-15T12:44:34Z</time>
      </trkpt>
      <trkpt lat="47.62229" lon="0.54656">
        <ele>92</ele>
        <time>2020-10-15T12:44:35Z</time>
      </trkpt>
      <trkpt lat="47.62227" lon="0.54652">
        <ele>91</ele>
        <time>2020-10-15T12:44:37Z</time>
      </trkpt>
      <trkpt lat="47.62225" lon="0.54649">
        <ele>91</ele>
        <time>2020-10-15T12:44:39Z</time>
      </trkpt>
      <trkpt lat="47.62224" lon="0.54646">
        <ele>91</ele>
        <time>2020-10-15T12:44:41Z</time>
      </trkpt>
      <trkpt lat="47.62222" lon="0.54643">
        <ele>90</ele>
        <time>2020-10-15T12:44:43Z</time>
      </trkpt>
      <trkpt lat="47.62221" lon="0.54639">
        <ele>89</ele>
        <time>2020-10-15T12:44:45Z</time>
      </trkpt>
      <trkpt lat="47.6222" lon="0.54636">
        <ele>89</ele>
        <time>2020-10-15T12:44:47Z</time>
      </trkpt>
      <trkpt lat="47.62219" lon="0.54632">
        <ele>89</ele>
        <time>2020-10-15T12:44:49Z</time>
      </trkpt>
      <trkpt lat="47.62219" lon="0.54629">
        <ele>89</ele>
        <time>2020-10-15T12:44:51Z</time>
      </trkpt>
      <trkpt lat="47.62218" lon="0.54625">
        <ele>89</ele>
        <time>2020-10-15T12:44:53Z</time>
      </trkpt>
      <trkpt lat="47.62217" lon="0.54621">
        <ele>88</ele>
        <time>2020-10-15T12:44:55Z</time>
      </trkpt>
      <trkpt lat="47.62215" lon="0.54617">
        <ele>88</ele>
        <time>2020-10-15T12:44:57Z</time>
      </trkpt>
      <trkpt lat="47.62214" lon="0.54615">
        <ele>88</ele>
        <time>2020-10-15T12:44:58Z</time>
      </trkpt>
      <trkpt lat="47.62213" lon="0.5461">
        <ele>87</ele>
        <time>2020-10-15T12:45:00Z</time>
      </trkpt>
      <trkpt lat="47.62212" lon="0.54607">
        <ele>87</ele>
        <time>2020-10-15T12:45:02Z</time>
      </trkpt>
      <trkpt lat="47.62211" lon="0.54603">
        <ele>87</ele>
        <time>2020-10-15T12:45:04Z</time>
      </trkpt>
      <trkpt lat="47.6221" lon="0.54599">
        <ele>87</ele>
        <time>2020-10-15T12:45:06Z</time>
      </trkpt>
      <trkpt lat="47.62209" lon="0.54596">
        <ele>87</ele>
        <time>2020-10-15T12:45:08Z</time>
      </trkpt>
      <trkpt lat="47.62209" lon="0.54593">
        <ele>87</ele>
        <time>2020-10-15T12:45:10Z</time>
      </trkpt>
      <trkpt lat="47.62208" lon="0.5459">
        <ele>87</ele>
        <time>2020-10-15T12:45:12Z</time>
      </trkpt>
      <trkpt lat="47.62207" lon="0.54586">
        <ele>87</ele>
        <time>2020-10-15T12:45:14Z</time>
      </trkpt>
      <trkpt lat="47.62206" lon="0.54582">
        <ele>87</ele>
        <time>2020-10-15T12:45:16Z</time>
      </trkpt>
      <trkpt lat="47.62205" lon="0.54578">
        <ele>87</ele>
        <time>2020-10-15T12:45:18Z</time>
      </trkpt>
      <trkpt lat="47.62204" lon="0.54575">
        <ele>87</ele>
        <time>2020-10-15T12:45:20Z</time>
      </trkpt>
      <trkpt lat="47.62203" lon="0.54572">
        <ele>87</ele>
        <time>2020-10-15T12:45:22Z</time>
      </trkpt>
      <trkpt lat="47.62202" lon="0.54568">
        <ele>87</ele>
        <time>2020-10-15T12:45:28Z</time>
      </trkpt>
      <trkpt lat="47.62201" lon="0.54564">
        <ele>87</ele>
        <time>2020-10-15T12:45:30Z</time>
      </trkpt>
      <trkpt lat="47.622" lon="0.5456">
        <ele>87</ele>
        <time>2020-10-15T12:45:32Z</time>
      </trkpt>
      <trkpt lat="47.62199" lon="0.54556">
        <ele>87</ele>
        <time>2020-10-15T12:45:34Z</time>
      </trkpt>
      <trkpt lat="47.62198" lon="0.54553">
        <ele>87</ele>
        <time>2020-10-15T12:45:36Z</time>
      </trkpt>
      <trkpt lat="47.62197" lon="0.54549">
        <ele>87</ele>
        <time>2020-10-15T12:45:38Z</time>
      </trkpt>
      <trkpt lat="47.62196" lon="0.54546">
        <ele>87</ele>
        <time>2020-10-15T12:45:40Z</time>
      </trkpt>
      <trkpt lat="47.62195" lon="0.54542">
        <ele>87</ele>
        <time>2020-10-15T12:45:42Z</time>
      </trkpt>
      <trkpt lat="47.62194" lon="0.54537">
        <ele>88</ele>
        <time>2020-10-15T12:45:44Z</time>
      </trkpt>
      <trkpt lat="47.62193" lon="0.54534">
        <ele>88</ele>
        <time>2020-10-15T12:45:46Z</time>
      </trkpt>
      <trkpt lat="47.62192" lon="0.5453">
        <ele>88</ele>
        <time>2020-10-15T12:45:48Z</time>
      </trkpt>
      <trkpt lat="47.62191" lon="0.54527">
        <ele>88</ele>
        <time>2020-10-15T12:45:50Z</time>
      </trkpt>
      <trkpt lat="47.6219" lon="0.54523">
        <ele>88</ele>
        <time>2020-10-15T12:45:52Z</time>
      </trkpt>
      <trkpt lat="47.62189" lon="0.54519">
        <ele>88</ele>
        <time>2020-10-15T12:45:54Z</time>
      </trkpt>
      <trkpt lat="47.62188" lon="0.54516">
        <ele>88</ele>
        <time>2020-10-15T12:46:13Z</time>
      </trkpt>
      <trkpt lat="47.62187" lon="0.54511">
        <ele>88</ele>
        <time>2020-10-15T12:46:23Z</time>
      </trkpt>
      <trkpt lat="47.62187" lon="0.54508">
        <ele>88</ele>
        <time>2020-10-15T12:46:26Z</time>
      </trkpt>
      <trkpt lat="47.62187" lon="0.54504">
        <ele>88</ele>
        <time>2020-10-15T12:46:29Z</time>
      </trkpt>
      <trkpt lat="47.62186" lon="0.54501">
        <ele>88</ele>
        <time>2020-10-15T12:46:30Z</time>
      </trkpt>
      <trkpt lat="47.62186" lon="0.54496">
        <ele>88</ele>
        <time>2020-10-15T12:46:32Z</time>
      </trkpt>
      <trkpt lat="47.62186" lon="0.54492">
        <ele>88</ele>
        <time>2020-10-15T12:46:35Z</time>
      </trkpt>
      <trkpt lat="47.62185" lon="0.54489">
        <ele>88</ele>
        <time>2020-10-15T12:46:36Z</time>
      </trkpt>
      <trkpt lat="47.62185" lon="0.54485">
        <ele>88</ele>
        <time>2020-10-15T12:46:55Z</time>
      </trkpt>
      <trkpt lat="47.62185" lon="0.54482">
        <ele>88</ele>
        <time>2020-10-15T12:47:03Z</time>
      </trkpt>
      <trkpt lat="47.62184" lon="0.54479">
        <ele>88</ele>
        <time>2020-10-15T12:47:04Z</time>
      </trkpt>
      <trkpt lat="47.62184" lon="0.54475">
        <ele>88</ele>
        <time>2020-10-15T12:47:05Z</time>
      </trkpt>
      <trkpt lat="47.62183" lon="0.54471">
        <ele>88</ele>
        <time>2020-10-15T12:47:06Z</time>
      </trkpt>
      <trkpt lat="47.62183" lon="0.54467">
        <ele>88</ele>
        <time>2020-10-15T12:47:18Z</time>
      </trkpt>
      <trkpt lat="47.62183" lon="0.54463">
        <ele>88</ele>
        <time>2020-10-15T12:47:19Z</time>
      </trkpt>
      <trkpt lat="47.62182" lon="0.54457">
        <ele>88</ele>
        <time>2020-10-15T12:47:20Z</time>
      </trkpt>
      <trkpt lat="47.62176" lon="0.54422">
        <ele>88</ele>
        <time>2020-10-15T12:47:28Z</time>
      </trkpt>
      <trkpt lat="47.62172" lon="0.54404">
        <ele>89</ele>
        <time>2020-10-15T12:47:31Z</time>
      </trkpt>
      <trkpt lat="47.6217" lon="0.54395">
        <ele>89</ele>
        <time>2020-10-15T12:47:32Z</time>
      </trkpt>
      <trkpt lat="47.62169" lon="0.54388">
        <ele>90</ele>
        <time>2020-10-15T12:47:33Z</time>
      </trkpt>
      <trkpt lat="47.62168" lon="0.54384">
        <ele>90</ele>
        <time>2020-10-15T12:47:34Z</time>
      </trkpt>
      <trkpt lat="47.62167" lon="0.54381">
        <ele>90</ele>
        <time>2020-10-15T12:47:36Z</time>
      </trkpt>
      <trkpt lat="47.62167" lon="0.54378">
        <ele>90</ele>
        <time>2020-10-15T12:47:37Z</time>
      </trkpt>
      <trkpt lat="47.62166" lon="0.54375">
        <ele>90</ele>
        <time>2020-10-15T12:47:38Z</time>
      </trkpt>
      <trkpt lat="47.62165" lon="0.54372">
        <ele>90</ele>
        <time>2020-10-15T12:47:44Z</time>
      </trkpt>
      <trkpt lat="47.62164" lon="0.54367">
        <ele>90</ele>
        <time>2020-10-15T12:47:46Z</time>
      </trkpt>
      <trkpt lat="47.62164" lon="0.54362">
        <ele>90</ele>
        <time>2020-10-15T12:48:00Z</time>
      </trkpt>
      <trkpt lat="47.62163" lon="0.54358">
        <ele>91</ele>
        <time>2020-10-15T12:48:01Z</time>
      </trkpt>
      <trkpt lat="47.62163" lon="0.54354">
        <ele>91</ele>
        <time>2020-10-15T12:48:02Z</time>
      </trkpt>
      <trkpt lat="47.62162" lon="0.54351">
        <ele>91</ele>
        <time>2020-10-15T12:48:03Z</time>
      </trkpt>
      <trkpt lat="47.62161" lon="0.54347">
        <ele>91</ele>
        <time>2020-10-15T12:48:04Z</time>
      </trkpt>
      <trkpt lat="47.62161" lon="0.54344">
        <ele>91</ele>
        <time>2020-10-15T12:48:05Z</time>
      </trkpt>
      <trkpt lat="47.62161" lon="0.54341">
        <ele>91</ele>
        <time>2020-10-15T12:48:14Z</time>
      </trkpt>
      <trkpt lat="47.6216" lon="0.54338">
        <ele>91</ele>
        <time>2020-10-15T12:48:15Z</time>
      </trkpt>
      <trkpt lat="47.62159" lon="0.54335">
        <ele>91</ele>
        <time>2020-10-15T12:48:16Z</time>
      </trkpt>
      <trkpt lat="47.62155" lon="0.5431">
        <ele>92</ele>
        <time>2020-10-15T12:48:34Z</time>
      </trkpt>
      <trkpt lat="47.62151" lon="0.54286">
        <ele>93</ele>
        <time>2020-10-15T12:48:44Z</time>
      </trkpt>
      <trkpt lat="47.62149" lon="0.54277">
        <ele>94</ele>
        <time>2020-10-15T12:48:45Z</time>
      </trkpt>
      <trkpt lat="47.62147" lon="0.5427">
        <ele>94</ele>
        <time>2020-10-15T12:48:46Z</time>
      </trkpt>
      <trkpt lat="47.62146" lon="0.54266">
        <ele>94</ele>
        <time>2020-10-15T12:48:47Z</time>
      </trkpt>
      <trkpt lat="47.62145" lon="0.54262">
        <ele>94</ele>
        <time>2020-10-15T12:48:48Z</time>
      </trkpt>
      <trkpt lat="47.62143" lon="0.54258">
        <ele>94</ele>
        <time>2020-10-15T12:48:49Z</time>
      </trkpt>
      <trkpt lat="47.62142" lon="0.54255">
        <ele>94</ele>
        <time>2020-10-15T12:48:50Z</time>
      </trkpt>
      <trkpt lat="47.62141" lon="0.54252">
        <ele>94</ele>
        <time>2020-10-15T12:48:53Z</time>
      </trkpt>
      <trkpt lat="47.6214" lon="0.54248">
        <ele>95</ele>
        <time>2020-10-15T12:48:55Z</time>
      </trkpt>
      <trkpt lat="47.62139" lon="0.54244">
        <ele>95</ele>
        <time>2020-10-15T12:48:57Z</time>
      </trkpt>
      <trkpt lat="47.62138" lon="0.54241">
        <ele>94</ele>
        <time>2020-10-15T12:48:58Z</time>
      </trkpt>
      <trkpt lat="47.62137" lon="0.54239">
        <ele>94</ele>
        <time>2020-10-15T12:48:59Z</time>
      </trkpt>
      <trkpt lat="47.62136" lon="0.54235">
        <ele>94</ele>
        <time>2020-10-15T12:49:01Z</time>
      </trkpt>
      <trkpt lat="47.62135" lon="0.54232">
        <ele>94</ele>
        <time>2020-10-15T12:49:02Z</time>
      </trkpt>
      <trkpt lat="47.62133" lon="0.54228">
        <ele>94</ele>
        <time>2020-10-15T12:49:04Z</time>
      </trkpt>
      <trkpt lat="47.62132" lon="0.54224">
        <ele>94</ele>
        <time>2020-10-15T12:49:06Z</time>
      </trkpt>
      <trkpt lat="47.62129" lon="0.54218">
        <ele>94</ele>
        <time>2020-10-15T12:49:08Z</time>
      </trkpt>
      <trkpt lat="47.62127" lon="0.54214">
        <ele>94</ele>
        <time>2020-10-15T12:49:10Z</time>
      </trkpt>
      <trkpt lat="47.62125" lon="0.54211">
        <ele>94</ele>
        <time>2020-10-15T12:49:12Z</time>
      </trkpt>
      <trkpt lat="47.62123" lon="0.54209">
        <ele>94</ele>
        <time>2020-10-15T12:49:14Z</time>
      </trkpt>
      <trkpt lat="47.62122" lon="0.54206">
        <ele>94</ele>
        <time>2020-10-15T12:49:17Z</time>
      </trkpt>
      <trkpt lat="47.62121" lon="0.54203">
        <ele>94</ele>
        <time>2020-10-15T12:49:19Z</time>
      </trkpt>
      <trkpt lat="47.62119" lon="0.54203">
        <ele>94</ele>
        <time>2020-10-15T12:49:20Z</time>
      </trkpt>
      <trkpt lat="47.62117" lon="0.542">
        <ele>94</ele>
        <time>2020-10-15T12:49:22Z</time>
      </trkpt>
      <trkpt lat="47.62116" lon="0.54196">
        <ele>94</ele>
        <time>2020-10-15T12:49:24Z</time>
      </trkpt>
      <trkpt lat="47.62114" lon="0.54192">
        <ele>95</ele>
        <time>2020-10-15T12:49:26Z</time>
      </trkpt>
      <trkpt lat="47.62112" lon="0.54187">
        <ele>95</ele>
        <time>2020-10-15T12:49:28Z</time>
      </trkpt>
      <trkpt lat="47.62111" lon="0.54183">
        <ele>95</ele>
        <time>2020-10-15T12:49:30Z</time>
      </trkpt>
      <trkpt lat="47.62109" lon="0.5418">
        <ele>95</ele>
        <time>2020-10-15T12:49:32Z</time>
      </trkpt>
      <trkpt lat="47.62108" lon="0.54177">
        <ele>95</ele>
        <time>2020-10-15T12:49:34Z</time>
      </trkpt>
      <trkpt lat="47.62106" lon="0.54173">
        <ele>95</ele>
        <time>2020-10-15T12:49:36Z</time>
      </trkpt>
      <trkpt lat="47.62104" lon="0.5417">
        <ele>95</ele>
        <time>2020-10-15T12:49:38Z</time>
      </trkpt>
      <trkpt lat="47.62102" lon="0.54166">
        <ele>95</ele>
        <time>2020-10-15T12:49:40Z</time>
      </trkpt>
      <trkpt lat="47.62101" lon="0.54162">
        <ele>95</ele>
        <time>2020-10-15T12:49:42Z</time>
      </trkpt>
      <trkpt lat="47.62099" lon="0.54158">
        <ele>95</ele>
        <time>2020-10-15T12:49:44Z</time>
      </trkpt>
      <trkpt lat="47.62097" lon="0.54155">
        <ele>95</ele>
        <time>2020-10-15T12:49:46Z</time>
      </trkpt>
      <trkpt lat="47.62096" lon="0.54152">
        <ele>95</ele>
        <time>2020-10-15T12:49:48Z</time>
      </trkpt>
      <trkpt lat="47.62094" lon="0.54149">
        <ele>95</ele>
        <time>2020-10-15T12:49:50Z</time>
      </trkpt>
      <trkpt lat="47.62093" lon="0.54145">
        <ele>95</ele>
        <time>2020-10-15T12:49:52Z</time>
      </trkpt>
      <trkpt lat="47.62091" lon="0.54142">
        <ele>95</ele>
        <time>2020-10-15T12:49:54Z</time>
      </trkpt>
      <trkpt lat="47.6209" lon="0.54138">
        <ele>95</ele>
        <time>2020-10-15T12:49:56Z</time>
      </trkpt>
      <trkpt lat="47.62088" lon="0.54134">
        <ele>95</ele>
        <time>2020-10-15T12:49:58Z</time>
      </trkpt>
      <trkpt lat="47.62086" lon="0.54129">
        <ele>95</ele>
        <time>2020-10-15T12:50:00Z</time>
      </trkpt>
      <trkpt lat="47.62085" lon="0.54126">
        <ele>95</ele>
        <time>2020-10-15T12:50:01Z</time>
      </trkpt>
      <trkpt lat="47.62084" lon="0.54123">
        <ele>95</ele>
        <time>2020-10-15T12:50:02Z</time>
      </trkpt>
      <trkpt lat="47.62083" lon="0.54121">
        <ele>95</ele>
        <time>2020-10-15T12:50:03Z</time>
      </trkpt>
      <trkpt lat="47.62082" lon="0.54117">
        <ele>95</ele>
        <time>2020-10-15T12:50:05Z</time>
      </trkpt>
      <trkpt lat="47.6208" lon="0.54116">
        <ele>95</ele>
        <time>2020-10-15T12:50:07Z</time>
      </trkpt>
      <trkpt lat="47.62078" lon="0.54113">
        <ele>95</ele>
        <time>2020-10-15T12:50:09Z</time>
      </trkpt>
      <trkpt lat="47.62077" lon="0.5411">
        <ele>95</ele>
        <time>2020-10-15T12:50:10Z</time>
      </trkpt>
      <trkpt lat="47.62076" lon="0.54105">
        <ele>95</ele>
        <time>2020-10-15T12:50:12Z</time>
      </trkpt>
      <trkpt lat="47.62074" lon="0.541">
        <ele>95</ele>
        <time>2020-10-15T12:50:14Z</time>
      </trkpt>
      <trkpt lat="47.6207" lon="0.54098">
        <ele>95</ele>
        <time>2020-10-15T12:50:16Z</time>
      </trkpt>
      <trkpt lat="47.62067" lon="0.54096">
        <ele>95</ele>
        <time>2020-10-15T12:50:18Z</time>
      </trkpt>
      <trkpt lat="47.62065" lon="0.54093">
        <ele>95</ele>
        <time>2020-10-15T12:50:20Z</time>
      </trkpt>
      <trkpt lat="47.62062" lon="0.5409">
        <ele>95</ele>
        <time>2020-10-15T12:50:22Z</time>
      </trkpt>
      <trkpt lat="47.62061" lon="0.54088">
        <ele>95</ele>
        <time>2020-10-15T12:50:23Z</time>
      </trkpt>
      <trkpt lat="47.62059" lon="0.54087">
        <ele>95</ele>
        <time>2020-10-15T12:50:24Z</time>
      </trkpt>
      <trkpt lat="47.62057" lon="0.54085">
        <ele>95</ele>
        <time>2020-10-15T12:50:26Z</time>
      </trkpt>
      <trkpt lat="47.62055" lon="0.54082">
        <ele>96</ele>
        <time>2020-10-15T12:50:28Z</time>
      </trkpt>
      <trkpt lat="47.62053" lon="0.54079">
        <ele>96</ele>
        <time>2020-10-15T12:50:30Z</time>
      </trkpt>
      <trkpt lat="47.62052" lon="0.54076">
        <ele>96</ele>
        <time>2020-10-15T12:50:32Z</time>
      </trkpt>
      <trkpt lat="47.62049" lon="0.54072">
        <ele>96</ele>
        <time>2020-10-15T12:50:34Z</time>
      </trkpt>
      <trkpt lat="47.62048" lon="0.54069">
        <ele>96</ele>
        <time>2020-10-15T12:50:36Z</time>
      </trkpt>
      <trkpt lat="47.62046" lon="0.54066">
        <ele>96</ele>
        <time>2020-10-15T12:50:38Z</time>
      </trkpt>
      <trkpt lat="47.62044" lon="0.54064">
        <ele>96</ele>
        <time>2020-10-15T12:50:40Z</time>
      </trkpt>
      <trkpt lat="47.62042" lon="0.54061">
        <ele>96</ele>
        <time>2020-10-15T12:50:42Z</time>
      </trkpt>
      <trkpt lat="47.6204" lon="0.54057">
        <ele>96</ele>
        <time>2020-10-15T12:50:44Z</time>
      </trkpt>
      <trkpt lat="47.62038" lon="0.54054">
        <ele>97</ele>
        <time>2020-10-15T12:50:46Z</time>
      </trkpt>
      <trkpt lat="47.62036" lon="0.54051">
        <ele>97</ele>
        <time>2020-10-15T12:50:48Z</time>
      </trkpt>
      <trkpt lat="47.62034" lon="0.54048">
        <ele>97</ele>
        <time>2020-10-15T12:50:50Z</time>
      </trkpt>
      <trkpt lat="47.62033" lon="0.54045">
        <ele>97</ele>
        <time>2020-10-15T12:50:52Z</time>
      </trkpt>
      <trkpt lat="47.62032" lon="0.54042">
        <ele>97</ele>
        <time>2020-10-15T12:50:54Z</time>
      </trkpt>
      <trkpt lat="47.6203" lon="0.54039">
        <ele>98</ele>
        <time>2020-10-15T12:50:56Z</time>
      </trkpt>
      <trkpt lat="47.62028" lon="0.54036">
        <ele>98</ele>
        <time>2020-10-15T12:50:58Z</time>
      </trkpt>
      <trkpt lat="47.62027" lon="0.54033">
        <ele>98</ele>
        <time>2020-10-15T12:51:00Z</time>
      </trkpt>
      <trkpt lat="47.62026" lon="0.5403">
        <ele>98</ele>
        <time>2020-10-15T12:51:02Z</time>
      </trkpt>
      <trkpt lat="47.62025" lon="0.54028">
        <ele>99</ele>
        <time>2020-10-15T12:51:04Z</time>
      </trkpt>
      <trkpt lat="47.62024" lon="0.54025">
        <ele>99</ele>
        <time>2020-10-15T12:51:06Z</time>
      </trkpt>
      <trkpt lat="47.62024" lon="0.54021">
        <ele>99</ele>
        <time>2020-10-15T12:51:09Z</time>
      </trkpt>
      <trkpt lat="47.62024" lon="0.54019">
        <ele>99</ele>
        <time>2020-10-15T12:51:13Z</time>
      </trkpt>
      <trkpt lat="47.62023" lon="0.54016">
        <ele>99</ele>
        <time>2020-10-15T12:51:20Z</time>
      </trkpt>
      <trkpt lat="47.62022" lon="0.54014">
        <ele>100</ele>
        <time>2020-10-15T12:51:29Z</time>
      </trkpt>
      <trkpt lat="47.6202" lon="0.54011">
        <ele>100</ele>
        <time>2020-10-15T12:51:34Z</time>
      </trkpt>
      <trkpt lat="47.62019" lon="0.54008">
        <ele>100</ele>
        <time>2020-10-15T12:51:37Z</time>
      </trkpt>
      <trkpt lat="47.62016" lon="0.54007">
        <ele>100</ele>
        <time>2020-10-15T12:51:40Z</time>
      </trkpt>
      <trkpt lat="47.62014" lon="0.54005">
        <ele>100</ele>
        <time>2020-10-15T12:51:42Z</time>
      </trkpt>
      <trkpt lat="47.62013" lon="0.54002">
        <ele>100</ele>
        <time>2020-10-15T12:51:44Z</time>
      </trkpt>
      <trkpt lat="47.62012" lon="0.53999">
        <ele>100</ele>
        <time>2020-10-15T12:51:47Z</time>
      </trkpt>
      <trkpt lat="47.62011" lon="0.53996">
        <ele>100</ele>
        <time>2020-10-15T12:51:49Z</time>
      </trkpt>
      <trkpt lat="47.62009" lon="0.53994">
        <ele>100</ele>
        <time>2020-10-15T12:51:51Z</time>
      </trkpt>
      <trkpt lat="47.62008" lon="0.53991">
        <ele>100</ele>
        <time>2020-10-15T12:51:53Z</time>
      </trkpt>
      <trkpt lat="47.62007" lon="0.53989">
        <ele>100</ele>
        <time>2020-10-15T12:51:55Z</time>
      </trkpt>
      <trkpt lat="47.62006" lon="0.53986">
        <ele>100</ele>
        <time>2020-10-15T12:51:57Z</time>
      </trkpt>
      <trkpt lat="47.62005" lon="0.53983">
        <ele>100</ele>
        <time>2020-10-15T12:51:59Z</time>
      </trkpt>
      <trkpt lat="47.62004" lon="0.5398">
        <ele>100</ele>
        <time>2020-10-15T12:52:01Z</time>
      </trkpt>
      <trkpt lat="47.62003" lon="0.53977">
        <ele>100</ele>
        <time>2020-10-15T12:52:03Z</time>
      </trkpt>
      <trkpt lat="47.62001" lon="0.53974">
        <ele>100</ele>
        <time>2020-10-15T12:52:05Z</time>
      </trkpt>
      <trkpt lat="47.62" lon="0.53971">
        <ele>101</ele>
        <time>2020-10-15T12:52:07Z</time>
      </trkpt>
      <trkpt lat="47.61999" lon="0.53969">
        <ele>101</ele>
        <time>2020-10-15T12:52:10Z</time>
      </trkpt>
      <trkpt lat="47.61997" lon="0.53967">
        <ele>101</ele>
        <time>2020-10-15T12:52:14Z</time>
      </trkpt>
      <trkpt lat="47.61996" lon="0.53964">
        <ele>101</ele>
        <time>2020-10-15T12:52:16Z</time>
      </trkpt>
      <trkpt lat="47.61995" lon="0.53962">
        <ele>101</ele>
        <time>2020-10-15T12:52:18Z</time>
      </trkpt>
      <trkpt lat="47.61994" lon="0.53959">
        <ele>101</ele>
        <time>2020-10-15T12:52:20Z</time>
      </trkpt>
      <trkpt lat="47.61994" lon="0.53956">
        <ele>101</ele>
        <time>2020-10-15T12:52:22Z</time>
      </trkpt>
      <trkpt lat="47.61993" lon="0.53953">
        <ele>101</ele>
        <time>2020-10-15T12:52:24Z</time>
      </trkpt>
      <trkpt lat="47.61992" lon="0.5395">
        <ele>101</ele>
        <time>2020-10-15T12:52:26Z</time>
      </trkpt>
      <trkpt lat="47.61989" lon="0.53947">
        <ele>101</ele>
        <time>2020-10-15T12:52:29Z</time>
      </trkpt>
      <trkpt lat="47.61988" lon="0.53945">
        <ele>101</ele>
        <time>2020-10-15T12:52:31Z</time>
      </trkpt>
      <trkpt lat="47.61987" lon="0.53942">
        <ele>101</ele>
        <time>2020-10-15T12:52:33Z</time>
      </trkpt>
      <trkpt lat="47.61986" lon="0.53939">
        <ele>101</ele>
        <time>2020-10-15T12:52:35Z</time>
      </trkpt>
      <trkpt lat="47.61985" lon="0.53936">
        <ele>101</ele>
        <time>2020-10-15T12:52:37Z</time>
      </trkpt>
      <trkpt lat="47.61984" lon="0.53934">
        <ele>101</ele>
        <time>2020-10-15T12:52:39Z</time>
      </trkpt>
      <trkpt lat="47.61982" lon="0.53931">
        <ele>101</ele>
        <time>2020-10-15T12:52:41Z</time>
      </trkpt>
      <trkpt lat="47.61981" lon="0.53928">
        <ele>101</ele>
        <time>2020-10-15T12:52:44Z</time>
      </trkpt>
      <trkpt lat="47.61979" lon="0.53926">
        <ele>101</ele>
        <time>2020-10-15T12:52:47Z</time>
      </trkpt>
      <trkpt lat="47.61979" lon="0.53923">
        <ele>101</ele>
        <time>2020-10-15T12:52:49Z</time>
      </trkpt>
      <trkpt lat="47.61978" lon="0.5392">
        <ele>101</ele>
        <time>2020-10-15T12:52:51Z</time>
      </trkpt>
      <trkpt lat="47.61977" lon="0.53918">
        <ele>101</ele>
        <time>2020-10-15T12:52:54Z</time>
      </trkpt>
      <trkpt lat="47.61978" lon="0.53921">
        <ele>101</ele>
        <time>2020-10-15T12:52:59Z</time>
      </trkpt>
      <trkpt lat="47.61976" lon="0.53918">
        <ele>101</ele>
        <time>2020-10-15T12:53:09Z</time>
      </trkpt>
      <trkpt lat="47.61975" lon="0.53915">
        <ele>101</ele>
        <time>2020-10-15T12:53:14Z</time>
      </trkpt>
      <trkpt lat="47.61974" lon="0.53912">
        <ele>101</ele>
        <time>2020-10-15T12:53:16Z</time>
      </trkpt>
      <trkpt lat="47.61973" lon="0.53908">
        <ele>101</ele>
        <time>2020-10-15T12:53:19Z</time>
      </trkpt>
      <trkpt lat="47.61972" lon="0.53905">
        <ele>101</ele>
        <time>2020-10-15T12:53:21Z</time>
      </trkpt>
      <trkpt lat="47.61971" lon="0.53901">
        <ele>101</ele>
        <time>2020-10-15T12:53:23Z</time>
      </trkpt>
      <trkpt lat="47.6197" lon="0.53898">
        <ele>101</ele>
        <time>2020-10-15T12:53:25Z</time>
      </trkpt>
      <trkpt lat="47.61969" lon="0.53894">
        <ele>101</ele>
        <time>2020-10-15T12:53:27Z</time>
      </trkpt>
      <trkpt lat="47.61967" lon="0.53891">
        <ele>101</ele>
        <time>2020-10-15T12:53:29Z</time>
      </trkpt>
      <trkpt lat="47.61966" lon="0.53888">
        <ele>101</ele>
        <time>2020-10-15T12:53:31Z</time>
      </trkpt>
      <trkpt lat="47.61966" lon="0.53885">
        <ele>101</ele>
        <time>2020-10-15T12:53:33Z</time>
      </trkpt>
      <trkpt lat="47.61965" lon="0.53882">
        <ele>101</ele>
        <time>2020-10-15T12:53:35Z</time>
      </trkpt>
      <trkpt lat="47.61964" lon="0.53879">
        <ele>101</ele>
        <time>2020-10-15T12:53:37Z</time>
      </trkpt>
      <trkpt lat="47.61963" lon="0.53876">
        <ele>101</ele>
        <time>2020-10-15T12:53:39Z</time>
      </trkpt>
      <trkpt lat="47.61962" lon="0.53873">
        <ele>101</ele>
        <time>2020-10-15T12:53:41Z</time>
      </trkpt>
      <trkpt lat="47.61961" lon="0.5387">
        <ele>101</ele>
        <time>2020-10-15T12:53:43Z</time>
      </trkpt>
      <trkpt lat="47.6196" lon="0.53866">
        <ele>101</ele>
        <time>2020-10-15T12:53:45Z</time>
      </trkpt>
      <trkpt lat="47.6196" lon="0.53864">
        <ele>101</ele>
        <time>2020-10-15T12:53:47Z</time>
      </trkpt>
      <trkpt lat="47.61959" lon="0.53861">
        <ele>101</ele>
        <time>2020-10-15T12:53:49Z</time>
      </trkpt>
      <trkpt lat="47.61958" lon="0.53857">
        <ele>101</ele>
        <time>2020-10-15T12:53:51Z</time>
      </trkpt>
      <trkpt lat="47.61957" lon="0.53854">
        <ele>101</ele>
        <time>2020-10-15T12:53:53Z</time>
      </trkpt>
      <trkpt lat="47.61957" lon="0.53851">
        <ele>101</ele>
        <time>2020-10-15T12:53:55Z</time>
      </trkpt>
      <trkpt lat="47.61956" lon="0.53847">
        <ele>101</ele>
        <time>2020-10-15T12:53:57Z</time>
      </trkpt>
      <trkpt lat="47.61956" lon="0.53844">
        <ele>101</ele>
        <time>2020-10-15T12:53:59Z</time>
      </trkpt>
      <trkpt lat="47.61955" lon="0.5384">
        <ele>101</ele>
        <time>2020-10-15T12:54:01Z</time>
      </trkpt>
      <trkpt lat="47.61955" lon="0.53836">
        <ele>101</ele>
        <time>2020-10-15T12:54:03Z</time>
      </trkpt>
      <trkpt lat="47.61954" lon="0.53832">
        <ele>101</ele>
        <time>2020-10-15T12:54:05Z</time>
      </trkpt>
      <trkpt lat="47.61954" lon="0.53828">
        <ele>101</ele>
        <time>2020-10-15T12:54:07Z</time>
      </trkpt>
      <trkpt lat="47.61953" lon="0.53824">
        <ele>101</ele>
        <time>2020-10-15T12:54:09Z</time>
      </trkpt>
      <trkpt lat="47.61953" lon="0.53821">
        <ele>101</ele>
        <time>2020-10-15T12:54:11Z</time>
      </trkpt>
      <trkpt lat="47.61953" lon="0.53817">
        <ele>101</ele>
        <time>2020-10-15T12:54:13Z</time>
      </trkpt>
      <trkpt lat="47.61952" lon="0.53813">
        <ele>101</ele>
        <time>2020-10-15T12:54:15Z</time>
      </trkpt>
      <trkpt lat="47.61952" lon="0.53809">
        <ele>101</ele>
        <time>2020-10-15T12:54:17Z</time>
      </trkpt>
      <trkpt lat="47.61951" lon="0.53806">
        <ele>101</ele>
        <time>2020-10-15T12:54:19Z</time>
      </trkpt>
      <trkpt lat="47.61951" lon="0.53802">
        <ele>101</ele>
        <time>2020-10-15T12:54:21Z</time>
      </trkpt>
      <trkpt lat="47.6195" lon="0.53798">
        <ele>102</ele>
        <time>2020-10-15T12:54:23Z</time>
      </trkpt>
      <trkpt lat="47.6195" lon="0.53795">
        <ele>102</ele>
        <time>2020-10-15T12:54:25Z</time>
      </trkpt>
      <trkpt lat="47.6195" lon="0.53791">
        <ele>102</ele>
        <time>2020-10-15T12:54:27Z</time>
      </trkpt>
      <trkpt lat="47.61949" lon="0.53788">
        <ele>102</ele>
        <time>2020-10-15T12:54:29Z</time>
      </trkpt>
      <trkpt lat="47.61949" lon="0.53785">
        <ele>102</ele>
        <time>2020-10-15T12:54:31Z</time>
      </trkpt>
      <trkpt lat="47.61949" lon="0.53782">
        <ele>102</ele>
        <time>2020-10-15T12:54:33Z</time>
      </trkpt>
      <trkpt lat="47.61949" lon="0.53779">
        <ele>102</ele>
        <time>2020-10-15T12:54:36Z</time>
      </trkpt>
      <trkpt lat="47.61948" lon="0.53776">
        <ele>102</ele>
        <time>2020-10-15T12:54:38Z</time>
      </trkpt>
      <trkpt lat="47.61948" lon="0.53773">
        <ele>102</ele>
        <time>2020-10-15T12:54:40Z</time>
      </trkpt>
      <trkpt lat="47.61948" lon="0.53769">
        <ele>102</ele>
        <time>2020-10-15T12:54:42Z</time>
      </trkpt>
      <trkpt lat="47.61947" lon="0.53766">
        <ele>102</ele>
        <time>2020-10-15T12:54:44Z</time>
      </trkpt>
      <trkpt lat="47.61947" lon="0.53762">
        <ele>102</ele>
        <time>2020-10-15T12:54:46Z</time>
      </trkpt>
      <trkpt lat="47.61947" lon="0.53758">
        <ele>102</ele>
        <time>2020-10-15T12:54:48Z</time>
      </trkpt>
      <trkpt lat="47.61946" lon="0.53754">
        <ele>102</ele>
        <time>2020-10-15T12:54:50Z</time>
      </trkpt>
      <trkpt lat="47.61946" lon="0.5375">
        <ele>102</ele>
        <time>2020-10-15T12:54:52Z</time>
      </trkpt>
      <trkpt lat="47.61946" lon="0.53746">
        <ele>103</ele>
        <time>2020-10-15T12:54:54Z</time>
      </trkpt>
      <trkpt lat="47.61945" lon="0.53743">
        <ele>103</ele>
        <time>2020-10-15T12:54:56Z</time>
      </trkpt>
      <trkpt lat="47.61945" lon="0.53739">
        <ele>103</ele>
        <time>2020-10-15T12:54:58Z</time>
      </trkpt>
      <trkpt lat="47.61945" lon="0.53735">
        <ele>103</ele>
        <time>2020-10-15T12:55:00Z</time>
      </trkpt>
      <trkpt lat="47.61944" lon="0.53732">
        <ele>103</ele>
        <time>2020-10-15T12:55:02Z</time>
      </trkpt>
      <trkpt lat="47.61944" lon="0.53728">
        <ele>103</ele>
        <time>2020-10-15T12:55:04Z</time>
      </trkpt>
      <trkpt lat="47.61943" lon="0.53724">
        <ele>103</ele>
        <time>2020-10-15T12:55:06Z</time>
      </trkpt>
      <trkpt lat="47.61942" lon="0.53721">
        <ele>103</ele>
        <time>2020-10-15T12:55:08Z</time>
      </trkpt>
      <trkpt lat="47.61942" lon="0.53718">
        <ele>103</ele>
        <time>2020-10-15T12:55:11Z</time>
      </trkpt>
      <trkpt lat="47.61941" lon="0.53715">
        <ele>103</ele>
        <time>2020-10-15T12:55:13Z</time>
      </trkpt>
      <trkpt lat="47.61941" lon="0.53711">
        <ele>103</ele>
        <time>2020-10-15T12:55:15Z</time>
      </trkpt>
      <trkpt lat="47.6194" lon="0.53707">
        <ele>103</ele>
        <time>2020-10-15T12:55:17Z</time>
      </trkpt>
      <trkpt lat="47.6194" lon="0.53703">
        <ele>103</ele>
        <time>2020-10-15T12:55:19Z</time>
      </trkpt>
      <trkpt lat="47.61939" lon="0.537">
        <ele>103</ele>
        <time>2020-10-15T12:55:21Z</time>
      </trkpt>
      <trkpt lat="47.61939" lon="0.53696">
        <ele>103</ele>
        <time>2020-10-15T12:55:23Z</time>
      </trkpt>
      <trkpt lat="47.61938" lon="0.53692">
        <ele>103</ele>
        <time>2020-10-15T12:55:25Z</time>
      </trkpt>
      <trkpt lat="47.61938" lon="0.53688">
        <ele>103</ele>
        <time>2020-10-15T12:55:27Z</time>
      </trkpt>
      <trkpt lat="47.61937" lon="0.53685">
        <ele>103</ele>
        <time>2020-10-15T12:55:29Z</time>
      </trkpt>
      <trkpt lat="47.61937" lon="0.53681">
        <ele>103</ele>
        <time>2020-10-15T12:55:31Z</time>
      </trkpt>
      <trkpt lat="47.61937" lon="0.53678">
        <ele>103</ele>
        <time>2020-10-15T12:55:33Z</time>
      </trkpt>
      <trkpt lat="47.61937" lon="0.53675">
        <ele>103</ele>
        <time>2020-10-15T12:55:35Z</time>
      </trkpt>
      <trkpt lat="47.61936" lon="0.53671">
        <ele>103</ele>
        <time>2020-10-15T12:55:37Z</time>
      </trkpt>
      <trkpt lat="47.61936" lon="0.53667">
        <ele>103</ele>
        <time>2020-10-15T12:55:39Z</time>
      </trkpt>
      <trkpt lat="47.61936" lon="0.53664">
        <ele>104</ele>
        <time>2020-10-15T12:55:41Z</time>
      </trkpt>
      <trkpt lat="47.61935" lon="0.5366">
        <ele>104</ele>
        <time>2020-10-15T12:55:43Z</time>
      </trkpt>
      <trkpt lat="47.61935" lon="0.53657">
        <ele>104</ele>
        <time>2020-10-15T12:55:45Z</time>
      </trkpt>
      <trkpt lat="47.61934" lon="0.53653">
        <ele>104</ele>
        <time>2020-10-15T12:55:47Z</time>
      </trkpt>
      <trkpt lat="47.61934" lon="0.53649">
        <ele>104</ele>
        <time>2020-10-15T12:55:49Z</time>
      </trkpt>
      <trkpt lat="47.61933" lon="0.53646">
        <ele>104</ele>
        <time>2020-10-15T12:55:51Z</time>
      </trkpt>
      <trkpt lat="47.61933" lon="0.53642">
        <ele>104</ele>
        <time>2020-10-15T12:55:53Z</time>
      </trkpt>
      <trkpt lat="47.61932" lon="0.53638">
        <ele>104</ele>
        <time>2020-10-15T12:55:55Z</time>
      </trkpt>
      <trkpt lat="47.61932" lon="0.53634">
        <ele>104</ele>
        <time>2020-10-15T12:55:57Z</time>
      </trkpt>
      <trkpt lat="47.61931" lon="0.5363">
        <ele>104</ele>
        <time>2020-10-15T12:55:59Z</time>
      </trkpt>
      <trkpt lat="47.61931" lon="0.53627">
        <ele>104</ele>
        <time>2020-10-15T12:56:01Z</time>
      </trkpt>
      <trkpt lat="47.6193" lon="0.53624">
        <ele>104</ele>
        <time>2020-10-15T12:56:03Z</time>
      </trkpt>
      <trkpt lat="47.6193" lon="0.5362">
        <ele>104</ele>
        <time>2020-10-15T12:56:05Z</time>
      </trkpt>
      <trkpt lat="47.61929" lon="0.53616">
        <ele>104</ele>
        <time>2020-10-15T12:56:07Z</time>
      </trkpt>
      <trkpt lat="47.61929" lon="0.53613">
        <ele>104</ele>
        <time>2020-10-15T12:56:09Z</time>
      </trkpt>
      <trkpt lat="47.61928" lon="0.53609">
        <ele>103</ele>
        <time>2020-10-15T12:56:11Z</time>
      </trkpt>
      <trkpt lat="47.61928" lon="0.53606">
        <ele>103</ele>
        <time>2020-10-15T12:56:13Z</time>
      </trkpt>
      <trkpt lat="47.61927" lon="0.53603">
        <ele>103</ele>
        <time>2020-10-15T12:56:15Z</time>
      </trkpt>
      <trkpt lat="47.61927" lon="0.53599">
        <ele>103</ele>
        <time>2020-10-15T12:56:17Z</time>
      </trkpt>
      <trkpt lat="47.61926" lon="0.53595">
        <ele>103</ele>
        <time>2020-10-15T12:56:19Z</time>
      </trkpt>
      <trkpt lat="47.61926" lon="0.53592">
        <ele>103</ele>
        <time>2020-10-15T12:56:21Z</time>
      </trkpt>
      <trkpt lat="47.61925" lon="0.53589">
        <ele>103</ele>
        <time>2020-10-15T12:56:23Z</time>
      </trkpt>
      <trkpt lat="47.61925" lon="0.53585">
        <ele>103</ele>
        <time>2020-10-15T12:56:25Z</time>
      </trkpt>
      <trkpt lat="47.61923" lon="0.53587">
        <ele>103</ele>
        <time>2020-10-15T12:56:32Z</time>
      </trkpt>
      <trkpt lat="47.61922" lon="0.53583">
        <ele>103</ele>
        <time>2020-10-15T12:57:02Z</time>
      </trkpt>
      <trkpt lat="47.61922" lon="0.53579">
        <ele>103</ele>
        <time>2020-10-15T12:57:04Z</time>
      </trkpt>
      <trkpt lat="47.61922" lon="0.53575">
        <ele>103</ele>
        <time>2020-10-15T12:57:06Z</time>
      </trkpt>
      <trkpt lat="47.61921" lon="0.53571">
        <ele>103</ele>
        <time>2020-10-15T12:57:08Z</time>
      </trkpt>
      <trkpt lat="47.61921" lon="0.53568">
        <ele>103</ele>
        <time>2020-10-15T12:57:10Z</time>
      </trkpt>
      <trkpt lat="47.6192" lon="0.53564">
        <ele>103</ele>
        <time>2020-10-15T12:57:12Z</time>
      </trkpt>
      <trkpt lat="47.61919" lon="0.5356">
        <ele>103</ele>
        <time>2020-10-15T12:57:14Z</time>
      </trkpt>
      <trkpt lat="47.61918" lon="0.53556">
        <ele>103</ele>
        <time>2020-10-15T12:57:16Z</time>
      </trkpt>
      <trkpt lat="47.61918" lon="0.53552">
        <ele>102</ele>
        <time>2020-10-15T12:57:18Z</time>
      </trkpt>
      <trkpt lat="47.61917" lon="0.53548">
        <ele>102</ele>
        <time>2020-10-15T12:57:20Z</time>
      </trkpt>
      <trkpt lat="47.61916" lon="0.53545">
        <ele>103</ele>
        <time>2020-10-15T12:57:22Z</time>
      </trkpt>
      <trkpt lat="47.61915" lon="0.53541">
        <ele>103</ele>
        <time>2020-10-15T12:57:24Z</time>
      </trkpt>
      <trkpt lat="47.61915" lon="0.53537">
        <ele>103</ele>
        <time>2020-10-15T12:57:26Z</time>
      </trkpt>
      <trkpt lat="47.61914" lon="0.53533">
        <ele>103</ele>
        <time>2020-10-15T12:57:28Z</time>
      </trkpt>
      <trkpt lat="47.61914" lon="0.53529">
        <ele>103</ele>
        <time>2020-10-15T12:57:30Z</time>
      </trkpt>
      <trkpt lat="47.61914" lon="0.53525">
        <ele>103</ele>
        <time>2020-10-15T12:57:32Z</time>
      </trkpt>
      <trkpt lat="47.61913" lon="0.53521">
        <ele>103</ele>
        <time>2020-10-15T12:57:34Z</time>
      </trkpt>
      <trkpt lat="47.61912" lon="0.53517">
        <ele>103</ele>
        <time>2020-10-15T12:57:36Z</time>
      </trkpt>
      <trkpt lat="47.61912" lon="0.53513">
        <ele>103</ele>
        <time>2020-10-15T12:57:38Z</time>
      </trkpt>
      <trkpt lat="47.61911" lon="0.5351">
        <ele>103</ele>
        <time>2020-10-15T12:57:40Z</time>
      </trkpt>
      <trkpt lat="47.61911" lon="0.53506">
        <ele>103</ele>
        <time>2020-10-15T12:57:42Z</time>
      </trkpt>
      <trkpt lat="47.6191" lon="0.53502">
        <ele>103</ele>
        <time>2020-10-15T12:57:44Z</time>
      </trkpt>
      <trkpt lat="47.6191" lon="0.53499">
        <ele>103</ele>
        <time>2020-10-15T12:57:46Z</time>
      </trkpt>
      <trkpt lat="47.61909" lon="0.53495">
        <ele>103</ele>
        <time>2020-10-15T12:57:48Z</time>
      </trkpt>
      <trkpt lat="47.61909" lon="0.53491">
        <ele>103</ele>
        <time>2020-10-15T12:57:50Z</time>
      </trkpt>
      <trkpt lat="47.61908" lon="0.53487">
        <ele>103</ele>
        <time>2020-10-15T12:57:52Z</time>
      </trkpt>
      <trkpt lat="47.61907" lon="0.53483">
        <ele>103</ele>
        <time>2020-10-15T12:57:54Z</time>
      </trkpt>
      <trkpt lat="47.61906" lon="0.5348">
        <ele>103</ele>
        <time>2020-10-15T12:57:56Z</time>
      </trkpt>
      <trkpt lat="47.61905" lon="0.53476">
        <ele>103</ele>
        <time>2020-10-15T12:57:58Z</time>
      </trkpt>
      <trkpt lat="47.61905" lon="0.53472">
        <ele>103</ele>
        <time>2020-10-15T12:58:00Z</time>
      </trkpt>
      <trkpt lat="47.61904" lon="0.53469">
        <ele>103</ele>
        <time>2020-10-15T12:58:02Z</time>
      </trkpt>
      <trkpt lat="47.61904" lon="0.53465">
        <ele>103</ele>
        <time>2020-10-15T12:58:04Z</time>
      </trkpt>
      <trkpt lat="47.61903" lon="0.5346">
        <ele>103</ele>
        <time>2020-10-15T12:58:06Z</time>
      </trkpt>
      <trkpt lat="47.61902" lon="0.53456">
        <ele>102</ele>
        <time>2020-10-15T12:58:08Z</time>
      </trkpt>
      <trkpt lat="47.61902" lon="0.53453">
        <ele>102</ele>
        <time>2020-10-15T12:58:10Z</time>
      </trkpt>
      <trkpt lat="47.61901" lon="0.53448">
        <ele>102</ele>
        <time>2020-10-15T12:58:12Z</time>
      </trkpt>
      <trkpt lat="47.61901" lon="0.53444">
        <ele>102</ele>
        <time>2020-10-15T12:58:14Z</time>
      </trkpt>
      <trkpt lat="47.619" lon="0.53441">
        <ele>102</ele>
        <time>2020-10-15T12:58:15Z</time>
      </trkpt>
      <trkpt lat="47.61899" lon="0.53436">
        <ele>102</ele>
        <time>2020-10-15T12:58:17Z</time>
      </trkpt>
      <trkpt lat="47.61898" lon="0.53432">
        <ele>102</ele>
        <time>2020-10-15T12:58:19Z</time>
      </trkpt>
      <trkpt lat="47.61897" lon="0.53426">
        <ele>102</ele>
        <time>2020-10-15T12:58:21Z</time>
      </trkpt>
      <trkpt lat="47.61896" lon="0.53422">
        <ele>102</ele>
        <time>2020-10-15T12:58:23Z</time>
      </trkpt>
      <trkpt lat="47.61894" lon="0.53417">
        <ele>102</ele>
        <time>2020-10-15T12:58:25Z</time>
      </trkpt>
      <trkpt lat="47.61893" lon="0.53412">
        <ele>102</ele>
        <time>2020-10-15T12:58:27Z</time>
      </trkpt>
      <trkpt lat="47.61892" lon="0.53408">
        <ele>102</ele>
        <time>2020-10-15T12:58:29Z</time>
      </trkpt>
      <trkpt lat="47.61891" lon="0.53403">
        <ele>102</ele>
        <time>2020-10-15T12:58:31Z</time>
      </trkpt>
      <trkpt lat="47.6189" lon="0.53399">
        <ele>102</ele>
        <time>2020-10-15T12:58:33Z</time>
      </trkpt>
      <trkpt lat="47.61889" lon="0.53394">
        <ele>102</ele>
        <time>2020-10-15T12:58:35Z</time>
      </trkpt>
      <trkpt lat="47.61888" lon="0.53389">
        <ele>102</ele>
        <time>2020-10-15T12:58:37Z</time>
      </trkpt>
      <trkpt lat="47.61887" lon="0.53385">
        <ele>102</ele>
        <time>2020-10-15T12:58:39Z</time>
      </trkpt>
      <trkpt lat="47.61886" lon="0.53381">
        <ele>102</ele>
        <time>2020-10-15T12:58:41Z</time>
      </trkpt>
      <trkpt lat="47.61885" lon="0.53376">
        <ele>102</ele>
        <time>2020-10-15T12:58:43Z</time>
      </trkpt>
      <trkpt lat="47.61883" lon="0.53372">
        <ele>102</ele>
        <time>2020-10-15T12:58:45Z</time>
      </trkpt>
      <trkpt lat="47.61883" lon="0.53368">
        <ele>102</ele>
        <time>2020-10-15T12:58:52Z</time>
      </trkpt>
      <trkpt lat="47.61882" lon="0.53365">
        <ele>102</ele>
        <time>2020-10-15T12:58:53Z</time>
      </trkpt>
      <trkpt lat="47.61881" lon="0.53362">
        <ele>102</ele>
        <time>2020-10-15T12:58:54Z</time>
      </trkpt>
      <trkpt lat="47.6188" lon="0.5336">
        <ele>102</ele>
        <time>2020-10-15T12:58:55Z</time>
      </trkpt>
      <trkpt lat="47.6188" lon="0.53357">
        <ele>102</ele>
        <time>2020-10-15T12:58:56Z</time>
      </trkpt>
      <trkpt lat="47.61879" lon="0.53354">
        <ele>102</ele>
        <time>2020-10-15T12:58:57Z</time>
      </trkpt>
      <trkpt lat="47.61878" lon="0.53351">
        <ele>102</ele>
        <time>2020-10-15T12:58:58Z</time>
      </trkpt>
      <trkpt lat="47.61877" lon="0.53349">
        <ele>102</ele>
        <time>2020-10-15T12:58:59Z</time>
      </trkpt>
      <trkpt lat="47.61876" lon="0.53344">
        <ele>102</ele>
        <time>2020-10-15T12:59:01Z</time>
      </trkpt>
      <trkpt lat="47.61874" lon="0.5334">
        <ele>102</ele>
        <time>2020-10-15T12:59:03Z</time>
      </trkpt>
      <trkpt lat="47.61873" lon="0.53335">
        <ele>102</ele>
        <time>2020-10-15T12:59:05Z</time>
      </trkpt>
      <trkpt lat="47.61872" lon="0.53331">
        <ele>102</ele>
        <time>2020-10-15T12:59:07Z</time>
      </trkpt>
      <trkpt lat="47.61871" lon="0.53327">
        <ele>102</ele>
        <time>2020-10-15T12:59:09Z</time>
      </trkpt>
      <trkpt lat="47.6187" lon="0.53324">
        <ele>102</ele>
        <time>2020-10-15T12:59:11Z</time>
      </trkpt>
      <trkpt lat="47.61869" lon="0.53321">
        <ele>102</ele>
        <time>2020-10-15T12:59:13Z</time>
      </trkpt>
      <trkpt lat="47.6187" lon="0.53319">
        <ele>102</ele>
        <time>2020-10-15T12:59:27Z</time>
      </trkpt>
      <trkpt lat="47.61871" lon="0.53318">
        <ele>102</ele>
        <time>2020-10-15T13:00:11Z</time>
      </trkpt>
      <trkpt lat="47.61871" lon="0.53315">
        <ele>102</ele>
        <time>2020-10-15T13:02:17Z</time>
      </trkpt>
      <trkpt lat="47.6187" lon="0.53312">
        <ele>102</ele>
        <time>2020-10-15T13:02:19Z</time>
      </trkpt>
      <trkpt lat="47.6187" lon="0.5331">
        <ele>102</ele>
        <time>2020-10-15T13:02:22Z</time>
      </trkpt>
      <trkpt lat="47.61868" lon="0.53306">
        <ele>102</ele>
        <time>2020-10-15T13:02:25Z</time>
      </trkpt>
      <trkpt lat="47.61868" lon="0.53304">
        <ele>102</ele>
        <time>2020-10-15T13:02:27Z</time>
      </trkpt>
      <trkpt lat="47.61867" lon="0.53301">
        <ele>102</ele>
        <time>2020-10-15T13:02:29Z</time>
      </trkpt>
      <trkpt lat="47.61866" lon="0.53298">
        <ele>102</ele>
        <time>2020-10-15T13:02:31Z</time>
      </trkpt>
      <trkpt lat="47.61865" lon="0.53295">
        <ele>102</ele>
        <time>2020-10-15T13:02:33Z</time>
      </trkpt>
      <trkpt lat="47.61864" lon="0.53292">
        <ele>102</ele>
        <time>2020-10-15T13:02:35Z</time>
      </trkpt>
      <trkpt lat="47.61863" lon="0.53289">
        <ele>102</ele>
        <time>2020-10-15T13:02:37Z</time>
      </trkpt>
      <trkpt lat="47.61863" lon="0.53286">
        <ele>102</ele>
        <time>2020-10-15T13:02:39Z</time>
      </trkpt>
      <trkpt lat="47.61862" lon="0.53282">
        <ele>102</ele>
        <time>2020-10-15T13:02:41Z</time>
      </trkpt>
      <trkpt lat="47.61861" lon="0.53279">
        <ele>102</ele>
        <time>2020-10-15T13:02:43Z</time>
      </trkpt>
      <trkpt lat="47.6186" lon="0.53275">
        <ele>102</ele>
        <time>2020-10-15T13:02:45Z</time>
      </trkpt>
      <trkpt lat="47.61859" lon="0.53272">
        <ele>102</ele>
        <time>2020-10-15T13:02:47Z</time>
      </trkpt>
      <trkpt lat="47.61859" lon="0.53268">
        <ele>102</ele>
        <time>2020-10-15T13:02:49Z</time>
      </trkpt>
      <trkpt lat="47.61858" lon="0.53265">
        <ele>102</ele>
        <time>2020-10-15T13:02:51Z</time>
      </trkpt>
      <trkpt lat="47.61857" lon="0.53261">
        <ele>102</ele>
        <time>2020-10-15T13:02:53Z</time>
      </trkpt>
      <trkpt lat="47.61856" lon="0.53258">
        <ele>102</ele>
        <time>2020-10-15T13:02:55Z</time>
      </trkpt>
      <trkpt lat="47.61855" lon="0.53255">
        <ele>102</ele>
        <time>2020-10-15T13:02:57Z</time>
      </trkpt>
      <trkpt lat="47.61855" lon="0.53251">
        <ele>102</ele>
        <time>2020-10-15T13:02:59Z</time>
      </trkpt>
      <trkpt lat="47.61854" lon="0.53248">
        <ele>102</ele>
        <time>2020-10-15T13:03:01Z</time>
      </trkpt>
      <trkpt lat="47.61853" lon="0.53244">
        <ele>102</ele>
        <time>2020-10-15T13:03:03Z</time>
      </trkpt>
      <trkpt lat="47.61852" lon="0.5324">
        <ele>102</ele>
        <time>2020-10-15T13:03:05Z</time>
      </trkpt>
      <trkpt lat="47.61851" lon="0.53237">
        <ele>102</ele>
        <time>2020-10-15T13:03:07Z</time>
      </trkpt>
      <trkpt lat="47.6185" lon="0.53233">
        <ele>102</ele>
        <time>2020-10-15T13:03:09Z</time>
      </trkpt>
      <trkpt lat="47.61849" lon="0.5323">
        <ele>102</ele>
        <time>2020-10-15T13:03:11Z</time>
      </trkpt>
      <trkpt lat="47.61848" lon="0.53226">
        <ele>102</ele>
        <time>2020-10-15T13:03:13Z</time>
      </trkpt>
      <trkpt lat="47.61847" lon="0.53222">
        <ele>103</ele>
        <time>2020-10-15T13:03:15Z</time>
      </trkpt>
      <trkpt lat="47.61846" lon="0.53218">
        <ele>103</ele>
        <time>2020-10-15T13:03:17Z</time>
      </trkpt>
      <trkpt lat="47.61845" lon="0.53214">
        <ele>103</ele>
        <time>2020-10-15T13:03:19Z</time>
      </trkpt>
      <trkpt lat="47.61844" lon="0.53211">
        <ele>103</ele>
        <time>2020-10-15T13:03:21Z</time>
      </trkpt>
      <trkpt lat="47.61843" lon="0.53208">
        <ele>103</ele>
        <time>2020-10-15T13:03:23Z</time>
      </trkpt>
      <trkpt lat="47.61842" lon="0.53204">
        <ele>103</ele>
        <time>2020-10-15T13:03:25Z</time>
      </trkpt>
      <trkpt lat="47.61842" lon="0.53201">
        <ele>103</ele>
        <time>2020-10-15T13:03:27Z</time>
      </trkpt>
      <trkpt lat="47.61841" lon="0.53197">
        <ele>103</ele>
        <time>2020-10-15T13:03:29Z</time>
      </trkpt>
      <trkpt lat="47.61841" lon="0.53194">
        <ele>102</ele>
        <time>2020-10-15T13:03:31Z</time>
      </trkpt>
      <trkpt lat="47.6184" lon="0.5319">
        <ele>102</ele>
        <time>2020-10-15T13:03:33Z</time>
      </trkpt>
      <trkpt lat="47.6184" lon="0.53186">
        <ele>102</ele>
        <time>2020-10-15T13:03:35Z</time>
      </trkpt>
      <trkpt lat="47.61839" lon="0.53183">
        <ele>102</ele>
        <time>2020-10-15T13:03:37Z</time>
      </trkpt>
      <trkpt lat="47.61838" lon="0.53179">
        <ele>102</ele>
        <time>2020-10-15T13:03:39Z</time>
      </trkpt>
      <trkpt lat="47.61837" lon="0.53175">
        <ele>102</ele>
        <time>2020-10-15T13:03:41Z</time>
      </trkpt>
      <trkpt lat="47.61837" lon="0.53171">
        <ele>102</ele>
        <time>2020-10-15T13:03:43Z</time>
      </trkpt>
      <trkpt lat="47.61836" lon="0.53168">
        <ele>102</ele>
        <time>2020-10-15T13:03:45Z</time>
      </trkpt>
      <trkpt lat="47.61835" lon="0.53164">
        <ele>102</ele>
        <time>2020-10-15T13:03:47Z</time>
      </trkpt>
      <trkpt lat="47.61835" lon="0.53161">
        <ele>102</ele>
        <time>2020-10-15T13:03:49Z</time>
      </trkpt>
      <trkpt lat="47.61835" lon="0.53157">
        <ele>102</ele>
        <time>2020-10-15T13:03:51Z</time>
      </trkpt>
      <trkpt lat="47.61835" lon="0.53153">
        <ele>102</ele>
        <time>2020-10-15T13:03:53Z</time>
      </trkpt>
      <trkpt lat="47.61834" lon="0.53149">
        <ele>102</ele>
        <time>2020-10-15T13:03:55Z</time>
      </trkpt>
      <trkpt lat="47.61833" lon="0.53145">
        <ele>102</ele>
        <time>2020-10-15T13:03:57Z</time>
      </trkpt>
      <trkpt lat="47.61833" lon="0.53141">
        <ele>102</ele>
        <time>2020-10-15T13:03:59Z</time>
      </trkpt>
      <trkpt lat="47.61833" lon="0.53138">
        <ele>102</ele>
        <time>2020-10-15T13:04:01Z</time>
      </trkpt>
      <trkpt lat="47.61833" lon="0.53134">
        <ele>102</ele>
        <time>2020-10-15T13:04:03Z</time>
      </trkpt>
      <trkpt lat="47.61832" lon="0.53131">
        <ele>102</ele>
        <time>2020-10-15T13:04:05Z</time>
      </trkpt>
      <trkpt lat="47.61832" lon="0.53128">
        <ele>102</ele>
        <time>2020-10-15T13:04:07Z</time>
      </trkpt>
      <trkpt lat="47.61831" lon="0.53124">
        <ele>102</ele>
        <time>2020-10-15T13:04:09Z</time>
      </trkpt>
      <trkpt lat="47.61831" lon="0.5312">
        <ele>102</ele>
        <time>2020-10-15T13:04:11Z</time>
      </trkpt>
      <trkpt lat="47.61831" lon="0.53116">
        <ele>102</ele>
        <time>2020-10-15T13:04:13Z</time>
      </trkpt>
      <trkpt lat="47.6183" lon="0.53112">
        <ele>102</ele>
        <time>2020-10-15T13:04:15Z</time>
      </trkpt>
      <trkpt lat="47.61829" lon="0.53108">
        <ele>102</ele>
        <time>2020-10-15T13:04:17Z</time>
      </trkpt>
      <trkpt lat="47.61829" lon="0.53103">
        <ele>102</ele>
        <time>2020-10-15T13:04:19Z</time>
      </trkpt>
      <trkpt lat="47.61829" lon="0.531">
        <ele>102</ele>
        <time>2020-10-15T13:04:21Z</time>
      </trkpt>
      <trkpt lat="47.61828" lon="0.53096">
        <ele>102</ele>
        <time>2020-10-15T13:04:23Z</time>
      </trkpt>
      <trkpt lat="47.61827" lon="0.53092">
        <ele>102</ele>
        <time>2020-10-15T13:04:25Z</time>
      </trkpt>
      <trkpt lat="47.61827" lon="0.53089">
        <ele>102</ele>
        <time>2020-10-15T13:04:27Z</time>
      </trkpt>
      <trkpt lat="47.61826" lon="0.53085">
        <ele>102</ele>
        <time>2020-10-15T13:04:29Z</time>
      </trkpt>
      <trkpt lat="47.61825" lon="0.53081">
        <ele>102</ele>
        <time>2020-10-15T13:04:31Z</time>
      </trkpt>
      <trkpt lat="47.61825" lon="0.53077">
        <ele>102</ele>
        <time>2020-10-15T13:04:33Z</time>
      </trkpt>
      <trkpt lat="47.61825" lon="0.53074">
        <ele>102</ele>
        <time>2020-10-15T13:04:35Z</time>
      </trkpt>
      <trkpt lat="47.61825" lon="0.5307">
        <ele>102</ele>
        <time>2020-10-15T13:04:37Z</time>
      </trkpt>
      <trkpt lat="47.61824" lon="0.53066">
        <ele>102</ele>
        <time>2020-10-15T13:04:39Z</time>
      </trkpt>
      <trkpt lat="47.61824" lon="0.53062">
        <ele>102</ele>
        <time>2020-10-15T13:04:41Z</time>
      </trkpt>
      <trkpt lat="47.61824" lon="0.53058">
        <ele>102</ele>
        <time>2020-10-15T13:04:43Z</time>
      </trkpt>
      <trkpt lat="47.61823" lon="0.53054">
        <ele>103</ele>
        <time>2020-10-15T13:04:45Z</time>
      </trkpt>
      <trkpt lat="47.61823" lon="0.5305">
        <ele>103</ele>
        <time>2020-10-15T13:04:47Z</time>
      </trkpt>
      <trkpt lat="47.61823" lon="0.53045">
        <ele>103</ele>
        <time>2020-10-15T13:04:49Z</time>
      </trkpt>
      <trkpt lat="47.61822" lon="0.53041">
        <ele>103</ele>
        <time>2020-10-15T13:04:51Z</time>
      </trkpt>
      <trkpt lat="47.61822" lon="0.53037">
        <ele>103</ele>
        <time>2020-10-15T13:04:53Z</time>
      </trkpt>
      <trkpt lat="47.61821" lon="0.53034">
        <ele>103</ele>
        <time>2020-10-15T13:04:55Z</time>
      </trkpt>
      <trkpt lat="47.6182" lon="0.5303">
        <ele>103</ele>
        <time>2020-10-15T13:04:57Z</time>
      </trkpt>
      <trkpt lat="47.6182" lon="0.53026">
        <ele>103</ele>
        <time>2020-10-15T13:04:59Z</time>
      </trkpt>
      <trkpt lat="47.61819" lon="0.53022">
        <ele>103</ele>
        <time>2020-10-15T13:05:01Z</time>
      </trkpt>
      <trkpt lat="47.61819" lon="0.53018">
        <ele>103</ele>
        <time>2020-10-15T13:05:03Z</time>
      </trkpt>
      <trkpt lat="47.61819" lon="0.53014">
        <ele>103</ele>
        <time>2020-10-15T13:05:05Z</time>
      </trkpt>
      <trkpt lat="47.61818" lon="0.5301">
        <ele>103</ele>
        <time>2020-10-15T13:05:07Z</time>
      </trkpt>
      <trkpt lat="47.61818" lon="0.53006">
        <ele>103</ele>
        <time>2020-10-15T13:05:09Z</time>
      </trkpt>
      <trkpt lat="47.61818" lon="0.53002">
        <ele>103</ele>
        <time>2020-10-15T13:05:11Z</time>
      </trkpt>
      <trkpt lat="47.61817" lon="0.52998">
        <ele>104</ele>
        <time>2020-10-15T13:05:13Z</time>
      </trkpt>
      <trkpt lat="47.61816" lon="0.52995">
        <ele>104</ele>
        <time>2020-10-15T13:05:15Z</time>
      </trkpt>
      <trkpt lat="47.61816" lon="0.5299">
        <ele>104</ele>
        <time>2020-10-15T13:05:17Z</time>
      </trkpt>
      <trkpt lat="47.61816" lon="0.52986">
        <ele>104</ele>
        <time>2020-10-15T13:05:19Z</time>
      </trkpt>
      <trkpt lat="47.61815" lon="0.52981">
        <ele>104</ele>
        <time>2020-10-15T13:05:21Z</time>
      </trkpt>
      <trkpt lat="47.61815" lon="0.52978">
        <ele>104</ele>
        <time>2020-10-15T13:05:23Z</time>
      </trkpt>
      <trkpt lat="47.61814" lon="0.52974">
        <ele>104</ele>
        <time>2020-10-15T13:05:25Z</time>
      </trkpt>
      <trkpt lat="47.61814" lon="0.5297">
        <ele>104</ele>
        <time>2020-10-15T13:05:27Z</time>
      </trkpt>
      <trkpt lat="47.61813" lon="0.52966">
        <ele>104</ele>
        <time>2020-10-15T13:05:29Z</time>
      </trkpt>
      <trkpt lat="47.61813" lon="0.52962">
        <ele>105</ele>
        <time>2020-10-15T13:05:31Z</time>
      </trkpt>
      <trkpt lat="47.61812" lon="0.52957">
        <ele>105</ele>
        <time>2020-10-15T13:05:33Z</time>
      </trkpt>
      <trkpt lat="47.61812" lon="0.52953">
        <ele>105</ele>
        <time>2020-10-15T13:05:35Z</time>
      </trkpt>
      <trkpt lat="47.61811" lon="0.52949">
        <ele>105</ele>
        <time>2020-10-15T13:05:37Z</time>
      </trkpt>
      <trkpt lat="47.61811" lon="0.52945">
        <ele>105</ele>
        <time>2020-10-15T13:05:39Z</time>
      </trkpt>
      <trkpt lat="47.61811" lon="0.52942">
        <ele>105</ele>
        <time>2020-10-15T13:05:41Z</time>
      </trkpt>
      <trkpt lat="47.6181" lon="0.52938">
        <ele>105</ele>
        <time>2020-10-15T13:05:43Z</time>
      </trkpt>
      <trkpt lat="47.6181" lon="0.52934">
        <ele>105</ele>
        <time>2020-10-15T13:05:45Z</time>
      </trkpt>
      <trkpt lat="47.61809" lon="0.52929">
        <ele>105</ele>
        <time>2020-10-15T13:05:47Z</time>
      </trkpt>
      <trkpt lat="47.61809" lon="0.52925">
        <ele>105</ele>
        <time>2020-10-15T13:05:49Z</time>
      </trkpt>
      <trkpt lat="47.61809" lon="0.52921">
        <ele>105</ele>
        <time>2020-10-15T13:05:51Z</time>
      </trkpt>
      <trkpt lat="47.61809" lon="0.52916">
        <ele>105</ele>
        <time>2020-10-15T13:05:53Z</time>
      </trkpt>
      <trkpt lat="47.61808" lon="0.52913">
        <ele>106</ele>
        <time>2020-10-15T13:05:55Z</time>
      </trkpt>
      <trkpt lat="47.61808" lon="0.52909">
        <ele>106</ele>
        <time>2020-10-15T13:05:57Z</time>
      </trkpt>
      <trkpt lat="47.61807" lon="0.52905">
        <ele>106</ele>
        <time>2020-10-15T13:05:59Z</time>
      </trkpt>
      <trkpt lat="47.61807" lon="0.52901">
        <ele>106</ele>
        <time>2020-10-15T13:06:01Z</time>
      </trkpt>
      <trkpt lat="47.61808" lon="0.52897">
        <ele>106</ele>
        <time>2020-10-15T13:06:03Z</time>
      </trkpt>
      <trkpt lat="47.61808" lon="0.52892">
        <ele>106</ele>
        <time>2020-10-15T13:06:05Z</time>
      </trkpt>
      <trkpt lat="47.61807" lon="0.52887">
        <ele>106</ele>
        <time>2020-10-15T13:06:07Z</time>
      </trkpt>
      <trkpt lat="47.61807" lon="0.52883">
        <ele>106</ele>
        <time>2020-10-15T13:06:09Z</time>
      </trkpt>
      <trkpt lat="47.61807" lon="0.52879">
        <ele>106</ele>
        <time>2020-10-15T13:06:11Z</time>
      </trkpt>
      <trkpt lat="47.61807" lon="0.52874">
        <ele>106</ele>
        <time>2020-10-15T13:06:13Z</time>
      </trkpt>
      <trkpt lat="47.61807" lon="0.5287">
        <ele>106</ele>
        <time>2020-10-15T13:06:15Z</time>
      </trkpt>
      <trkpt lat="47.61806" lon="0.52867">
        <ele>106</ele>
        <time>2020-10-15T13:06:17Z</time>
      </trkpt>
      <trkpt lat="47.61806" lon="0.52863">
        <ele>106</ele>
        <time>2020-10-15T13:06:19Z</time>
      </trkpt>
      <trkpt lat="47.61806" lon="0.52859">
        <ele>106</ele>
        <time>2020-10-15T13:06:21Z</time>
      </trkpt>
      <trkpt lat="47.61806" lon="0.52855">
        <ele>106</ele>
        <time>2020-10-15T13:06:23Z</time>
      </trkpt>
      <trkpt lat="47.61806" lon="0.5285">
        <ele>106</ele>
        <time>2020-10-15T13:06:25Z</time>
      </trkpt>
      <trkpt lat="47.61806" lon="0.52846">
        <ele>106</ele>
        <time>2020-10-15T13:06:27Z</time>
      </trkpt>
      <trkpt lat="47.61805" lon="0.52842">
        <ele>106</ele>
        <time>2020-10-15T13:06:29Z</time>
      </trkpt>
      <trkpt lat="47.61804" lon="0.52838">
        <ele>106</ele>
        <time>2020-10-15T13:06:31Z</time>
      </trkpt>
      <trkpt lat="47.61804" lon="0.52834">
        <ele>106</ele>
        <time>2020-10-15T13:06:33Z</time>
      </trkpt>
      <trkpt lat="47.61804" lon="0.52829">
        <ele>106</ele>
        <time>2020-10-15T13:06:35Z</time>
      </trkpt>
      <trkpt lat="47.61804" lon="0.52825">
        <ele>106</ele>
        <time>2020-10-15T13:06:37Z</time>
      </trkpt>
      <trkpt lat="47.61803" lon="0.52821">
        <ele>106</ele>
        <time>2020-10-15T13:06:39Z</time>
      </trkpt>
      <trkpt lat="47.61803" lon="0.52817">
        <ele>106</ele>
        <time>2020-10-15T13:06:41Z</time>
      </trkpt>
      <trkpt lat="47.61803" lon="0.52812">
        <ele>106</ele>
        <time>2020-10-15T13:06:43Z</time>
      </trkpt>
      <trkpt lat="47.61802" lon="0.52808">
        <ele>106</ele>
        <time>2020-10-15T13:06:45Z</time>
      </trkpt>
      <trkpt lat="47.61802" lon="0.52805">
        <ele>106</ele>
        <time>2020-10-15T13:06:47Z</time>
      </trkpt>
      <trkpt lat="47.61801" lon="0.52801">
        <ele>106</ele>
        <time>2020-10-15T13:06:49Z</time>
      </trkpt>
      <trkpt lat="47.61801" lon="0.52796">
        <ele>106</ele>
        <time>2020-10-15T13:06:51Z</time>
      </trkpt>
      <trkpt lat="47.61801" lon="0.52792">
        <ele>106</ele>
        <time>2020-10-15T13:06:53Z</time>
      </trkpt>
      <trkpt lat="47.61801" lon="0.52787">
        <ele>106</ele>
        <time>2020-10-15T13:06:55Z</time>
      </trkpt>
      <trkpt lat="47.61801" lon="0.52783">
        <ele>106</ele>
        <time>2020-10-15T13:06:57Z</time>
      </trkpt>
      <trkpt lat="47.61801" lon="0.52778">
        <ele>106</ele>
        <time>2020-10-15T13:06:59Z</time>
      </trkpt>
      <trkpt lat="47.618" lon="0.52774">
        <ele>106</ele>
        <time>2020-10-15T13:07:01Z</time>
      </trkpt>
      <trkpt lat="47.618" lon="0.52769">
        <ele>106</ele>
        <time>2020-10-15T13:07:03Z</time>
      </trkpt>
      <trkpt lat="47.61801" lon="0.52765">
        <ele>106</ele>
        <time>2020-10-15T13:07:05Z</time>
      </trkpt>
      <trkpt lat="47.61801" lon="0.5276">
        <ele>106</ele>
        <time>2020-10-15T13:07:07Z</time>
      </trkpt>
      <trkpt lat="47.61801" lon="0.52756">
        <ele>106</ele>
        <time>2020-10-15T13:07:09Z</time>
      </trkpt>
      <trkpt lat="47.61801" lon="0.52751">
        <ele>106</ele>
        <time>2020-10-15T13:07:11Z</time>
      </trkpt>
      <trkpt lat="47.61802" lon="0.52747">
        <ele>106</ele>
        <time>2020-10-15T13:07:13Z</time>
      </trkpt>
      <trkpt lat="47.61802" lon="0.52742">
        <ele>106</ele>
        <time>2020-10-15T13:07:15Z</time>
      </trkpt>
      <trkpt lat="47.61803" lon="0.52738">
        <ele>106</ele>
        <time>2020-10-15T13:07:17Z</time>
      </trkpt>
      <trkpt lat="47.61803" lon="0.52734">
        <ele>106</ele>
        <time>2020-10-15T13:07:19Z</time>
      </trkpt>
      <trkpt lat="47.61803" lon="0.5273">
        <ele>106</ele>
        <time>2020-10-15T13:07:21Z</time>
      </trkpt>
      <trkpt lat="47.61803" lon="0.52726">
        <ele>106</ele>
        <time>2020-10-15T13:07:23Z</time>
      </trkpt>
      <trkpt lat="47.61803" lon="0.52722">
        <ele>106</ele>
        <time>2020-10-15T13:07:25Z</time>
      </trkpt>
      <trkpt lat="47.61803" lon="0.52718">
        <ele>106</ele>
        <time>2020-10-15T13:07:27Z</time>
      </trkpt>
      <trkpt lat="47.61803" lon="0.52714">
        <ele>106</ele>
        <time>2020-10-15T13:07:29Z</time>
      </trkpt>
      <trkpt lat="47.61804" lon="0.5271">
        <ele>106</ele>
        <time>2020-10-15T13:07:31Z</time>
      </trkpt>
      <trkpt lat="47.61804" lon="0.52706">
        <ele>106</ele>
        <time>2020-10-15T13:07:33Z</time>
      </trkpt>
      <trkpt lat="47.61804" lon="0.52702">
        <ele>106</ele>
        <time>2020-10-15T13:07:35Z</time>
      </trkpt>
      <trkpt lat="47.61804" lon="0.52699">
        <ele>106</ele>
        <time>2020-10-15T13:07:37Z</time>
      </trkpt>
      <trkpt lat="47.61804" lon="0.52694">
        <ele>106</ele>
        <time>2020-10-15T13:07:39Z</time>
      </trkpt>
      <trkpt lat="47.61804" lon="0.5269">
        <ele>106</ele>
        <time>2020-10-15T13:07:41Z</time>
      </trkpt>
      <trkpt lat="47.61804" lon="0.52686">
        <ele>106</ele>
        <time>2020-10-15T13:07:43Z</time>
      </trkpt>
      <trkpt lat="47.61803" lon="0.52683">
        <ele>106</ele>
        <time>2020-10-15T13:07:45Z</time>
      </trkpt>
      <trkpt lat="47.61803" lon="0.52679">
        <ele>106</ele>
        <time>2020-10-15T13:07:47Z</time>
      </trkpt>
      <trkpt lat="47.61803" lon="0.52676">
        <ele>106</ele>
        <time>2020-10-15T13:07:49Z</time>
      </trkpt>
      <trkpt lat="47.61803" lon="0.52672">
        <ele>106</ele>
        <time>2020-10-15T13:07:51Z</time>
      </trkpt>
      <trkpt lat="47.61802" lon="0.52668">
        <ele>106</ele>
        <time>2020-10-15T13:07:53Z</time>
      </trkpt>
      <trkpt lat="47.61802" lon="0.52664">
        <ele>107</ele>
        <time>2020-10-15T13:07:55Z</time>
      </trkpt>
      <trkpt lat="47.61801" lon="0.5266">
        <ele>107</ele>
        <time>2020-10-15T13:07:57Z</time>
      </trkpt>
      <trkpt lat="47.61801" lon="0.52657">
        <ele>107</ele>
        <time>2020-10-15T13:07:59Z</time>
      </trkpt>
      <trkpt lat="47.618" lon="0.52654">
        <ele>107</ele>
        <time>2020-10-15T13:08:01Z</time>
      </trkpt>
      <trkpt lat="47.61799" lon="0.52651">
        <ele>108</ele>
        <time>2020-10-15T13:08:03Z</time>
      </trkpt>
      <trkpt lat="47.61799" lon="0.52647">
        <ele>108</ele>
        <time>2020-10-15T13:08:05Z</time>
      </trkpt>
      <trkpt lat="47.61798" lon="0.52644">
        <ele>108</ele>
        <time>2020-10-15T13:08:07Z</time>
      </trkpt>
      <trkpt lat="47.61798" lon="0.5264">
        <ele>108</ele>
        <time>2020-10-15T13:08:09Z</time>
      </trkpt>
      <trkpt lat="47.61797" lon="0.52636">
        <ele>109</ele>
        <time>2020-10-15T13:08:11Z</time>
      </trkpt>
      <trkpt lat="47.61796" lon="0.52632">
        <ele>109</ele>
        <time>2020-10-15T13:08:13Z</time>
      </trkpt>
      <trkpt lat="47.61796" lon="0.52628">
        <ele>109</ele>
        <time>2020-10-15T13:08:15Z</time>
      </trkpt>
      <trkpt lat="47.61795" lon="0.52624">
        <ele>110</ele>
        <time>2020-10-15T13:08:17Z</time>
      </trkpt>
      <trkpt lat="47.61794" lon="0.52619">
        <ele>110</ele>
        <time>2020-10-15T13:08:19Z</time>
      </trkpt>
      <trkpt lat="47.61793" lon="0.52615">
        <ele>110</ele>
        <time>2020-10-15T13:08:21Z</time>
      </trkpt>
      <trkpt lat="47.61793" lon="0.52611">
        <ele>110</ele>
        <time>2020-10-15T13:08:23Z</time>
      </trkpt>
      <trkpt lat="47.61792" lon="0.52608">
        <ele>111</ele>
        <time>2020-10-15T13:08:25Z</time>
      </trkpt>
      <trkpt lat="47.61792" lon="0.52604">
        <ele>111</ele>
        <time>2020-10-15T13:08:27Z</time>
      </trkpt>
      <trkpt lat="47.61791" lon="0.52601">
        <ele>111</ele>
        <time>2020-10-15T13:08:29Z</time>
      </trkpt>
      <trkpt lat="47.6179" lon="0.52598">
        <ele>111</ele>
        <time>2020-10-15T13:08:31Z</time>
      </trkpt>
      <trkpt lat="47.6179" lon="0.52594">
        <ele>111</ele>
        <time>2020-10-15T13:08:33Z</time>
      </trkpt>
      <trkpt lat="47.6179" lon="0.5259">
        <ele>111</ele>
        <time>2020-10-15T13:08:35Z</time>
      </trkpt>
      <trkpt lat="47.61789" lon="0.52586">
        <ele>111</ele>
        <time>2020-10-15T13:08:37Z</time>
      </trkpt>
      <trkpt lat="47.61788" lon="0.52582">
        <ele>111</ele>
        <time>2020-10-15T13:08:39Z</time>
      </trkpt>
      <trkpt lat="47.61788" lon="0.52578">
        <ele>111</ele>
        <time>2020-10-15T13:08:41Z</time>
      </trkpt>
      <trkpt lat="47.61787" lon="0.52574">
        <ele>112</ele>
        <time>2020-10-15T13:08:43Z</time>
      </trkpt>
      <trkpt lat="47.61786" lon="0.52571">
        <ele>112</ele>
        <time>2020-10-15T13:08:45Z</time>
      </trkpt>
      <trkpt lat="47.61786" lon="0.52568">
        <ele>112</ele>
        <time>2020-10-15T13:08:47Z</time>
      </trkpt>
      <trkpt lat="47.61785" lon="0.52565">
        <ele>112</ele>
        <time>2020-10-15T13:08:49Z</time>
      </trkpt>
      <trkpt lat="47.61784" lon="0.52561">
        <ele>112</ele>
        <time>2020-10-15T13:08:51Z</time>
      </trkpt>
      <trkpt lat="47.61783" lon="0.52558">
        <ele>112</ele>
        <time>2020-10-15T13:08:53Z</time>
      </trkpt>
      <trkpt lat="47.61783" lon="0.52554">
        <ele>112</ele>
        <time>2020-10-15T13:08:55Z</time>
      </trkpt>
      <trkpt lat="47.61781" lon="0.5255">
        <ele>112</ele>
        <time>2020-10-15T13:08:57Z</time>
      </trkpt>
      <trkpt lat="47.61781" lon="0.52548">
        <ele>112</ele>
        <time>2020-10-15T13:08:58Z</time>
      </trkpt>
      <trkpt lat="47.6178" lon="0.52543">
        <ele>112</ele>
        <time>2020-10-15T13:09:00Z</time>
      </trkpt>
      <trkpt lat="47.61779" lon="0.52539">
        <ele>112</ele>
        <time>2020-10-15T13:09:02Z</time>
      </trkpt>
      <trkpt lat="47.61778" lon="0.52535">
        <ele>112</ele>
        <time>2020-10-15T13:09:04Z</time>
      </trkpt>
      <trkpt lat="47.61777" lon="0.52531">
        <ele>112</ele>
        <time>2020-10-15T13:09:06Z</time>
      </trkpt>
      <trkpt lat="47.61777" lon="0.52527">
        <ele>112</ele>
        <time>2020-10-15T13:09:08Z</time>
      </trkpt>
      <trkpt lat="47.61776" lon="0.52523">
        <ele>112</ele>
        <time>2020-10-15T13:09:10Z</time>
      </trkpt>
      <trkpt lat="47.61775" lon="0.5252">
        <ele>113</ele>
        <time>2020-10-15T13:09:12Z</time>
      </trkpt>
      <trkpt lat="47.61775" lon="0.52516">
        <ele>113</ele>
        <time>2020-10-15T13:09:14Z</time>
      </trkpt>
      <trkpt lat="47.61774" lon="0.52513">
        <ele>113</ele>
        <time>2020-10-15T13:09:16Z</time>
      </trkpt>
      <trkpt lat="47.61774" lon="0.52509">
        <ele>113</ele>
        <time>2020-10-15T13:09:18Z</time>
      </trkpt>
      <trkpt lat="47.61773" lon="0.52505">
        <ele>113</ele>
        <time>2020-10-15T13:09:20Z</time>
      </trkpt>
      <trkpt lat="47.61773" lon="0.52501">
        <ele>113</ele>
        <time>2020-10-15T13:09:22Z</time>
      </trkpt>
      <trkpt lat="47.61772" lon="0.52497">
        <ele>113</ele>
        <time>2020-10-15T13:09:24Z</time>
      </trkpt>
      <trkpt lat="47.61771" lon="0.52493">
        <ele>113</ele>
        <time>2020-10-15T13:09:26Z</time>
      </trkpt>
      <trkpt lat="47.6177" lon="0.52489">
        <ele>113</ele>
        <time>2020-10-15T13:09:28Z</time>
      </trkpt>
      <trkpt lat="47.6177" lon="0.52485">
        <ele>113</ele>
        <time>2020-10-15T13:09:30Z</time>
      </trkpt>
      <trkpt lat="47.61769" lon="0.52481">
        <ele>113</ele>
        <time>2020-10-15T13:09:32Z</time>
      </trkpt>
      <trkpt lat="47.61768" lon="0.52478">
        <ele>112</ele>
        <time>2020-10-15T13:09:34Z</time>
      </trkpt>
      <trkpt lat="47.61767" lon="0.52475">
        <ele>112</ele>
        <time>2020-10-15T13:09:36Z</time>
      </trkpt>
      <trkpt lat="47.61767" lon="0.5247">
        <ele>112</ele>
        <time>2020-10-15T13:09:38Z</time>
      </trkpt>
      <trkpt lat="47.61767" lon="0.52466">
        <ele>112</ele>
        <time>2020-10-15T13:09:40Z</time>
      </trkpt>
      <trkpt lat="47.61767" lon="0.52463">
        <ele>112</ele>
        <time>2020-10-15T13:09:42Z</time>
      </trkpt>
      <trkpt lat="47.61766" lon="0.52459">
        <ele>112</ele>
        <time>2020-10-15T13:09:44Z</time>
      </trkpt>
      <trkpt lat="47.61766" lon="0.52455">
        <ele>112</ele>
        <time>2020-10-15T13:09:46Z</time>
      </trkpt>
      <trkpt lat="47.61766" lon="0.52451">
        <ele>112</ele>
        <time>2020-10-15T13:09:48Z</time>
      </trkpt>
      <trkpt lat="47.61766" lon="0.52447">
        <ele>112</ele>
        <time>2020-10-15T13:09:50Z</time>
      </trkpt>
      <trkpt lat="47.61766" lon="0.52443">
        <ele>112</ele>
        <time>2020-10-15T13:09:52Z</time>
      </trkpt>
      <trkpt lat="47.61766" lon="0.52439">
        <ele>111</ele>
        <time>2020-10-15T13:09:54Z</time>
      </trkpt>
      <trkpt lat="47.61766" lon="0.52435">
        <ele>111</ele>
        <time>2020-10-15T13:09:56Z</time>
      </trkpt>
      <trkpt lat="47.61766" lon="0.52431">
        <ele>111</ele>
        <time>2020-10-15T13:09:58Z</time>
      </trkpt>
      <trkpt lat="47.61768" lon="0.52427">
        <ele>111</ele>
        <time>2020-10-15T13:10:00Z</time>
      </trkpt>
      <trkpt lat="47.6177" lon="0.52424">
        <ele>111</ele>
        <time>2020-10-15T13:10:02Z</time>
      </trkpt>
      <trkpt lat="47.61772" lon="0.52421">
        <ele>111</ele>
        <time>2020-10-15T13:10:04Z</time>
      </trkpt>
      <trkpt lat="47.61775" lon="0.52419">
        <ele>111</ele>
        <time>2020-10-15T13:10:06Z</time>
      </trkpt>
      <trkpt lat="47.61778" lon="0.52417">
        <ele>112</ele>
        <time>2020-10-15T13:10:08Z</time>
      </trkpt>
      <trkpt lat="47.61781" lon="0.52416">
        <ele>112</ele>
        <time>2020-10-15T13:10:10Z</time>
      </trkpt>
      <trkpt lat="47.61784" lon="0.52416">
        <ele>112</ele>
        <time>2020-10-15T13:10:12Z</time>
      </trkpt>
      <trkpt lat="47.61787" lon="0.52416">
        <ele>112</ele>
        <time>2020-10-15T13:10:14Z</time>
      </trkpt>
      <trkpt lat="47.6179" lon="0.52416">
        <ele>112</ele>
        <time>2020-10-15T13:10:16Z</time>
      </trkpt>
      <trkpt lat="47.61793" lon="0.52415">
        <ele>112</ele>
        <time>2020-10-15T13:10:18Z</time>
      </trkpt>
      <trkpt lat="47.61795" lon="0.52415">
        <ele>112</ele>
        <time>2020-10-15T13:10:20Z</time>
      </trkpt>
      <trkpt lat="47.61798" lon="0.52414">
        <ele>112</ele>
        <time>2020-10-15T13:10:22Z</time>
      </trkpt>
      <trkpt lat="47.61801" lon="0.52414">
        <ele>112</ele>
        <time>2020-10-15T13:10:24Z</time>
      </trkpt>
      <trkpt lat="47.61803" lon="0.52413">
        <ele>112</ele>
        <time>2020-10-15T13:10:26Z</time>
      </trkpt>
      <trkpt lat="47.61806" lon="0.52412">
        <ele>112</ele>
        <time>2020-10-15T13:10:28Z</time>
      </trkpt>
      <trkpt lat="47.61808" lon="0.5241">
        <ele>112</ele>
        <time>2020-10-15T13:10:30Z</time>
      </trkpt>
      <trkpt lat="47.6181" lon="0.52409">
        <ele>112</ele>
        <time>2020-10-15T13:10:32Z</time>
      </trkpt>
      <trkpt lat="47.61813" lon="0.52408">
        <ele>112</ele>
        <time>2020-10-15T13:10:34Z</time>
      </trkpt>
      <trkpt lat="47.61815" lon="0.52407">
        <ele>112</ele>
        <time>2020-10-15T13:10:36Z</time>
      </trkpt>
      <trkpt lat="47.61818" lon="0.52407">
        <ele>112</ele>
        <time>2020-10-15T13:10:38Z</time>
      </trkpt>
      <trkpt lat="47.61821" lon="0.52406">
        <ele>112</ele>
        <time>2020-10-15T13:10:40Z</time>
      </trkpt>
      <trkpt lat="47.61823" lon="0.52405">
        <ele>112</ele>
        <time>2020-10-15T13:10:42Z</time>
      </trkpt>
      <trkpt lat="47.61826" lon="0.52404">
        <ele>111</ele>
        <time>2020-10-15T13:10:44Z</time>
      </trkpt>
      <trkpt lat="47.61828" lon="0.52404">
        <ele>111</ele>
        <time>2020-10-15T13:10:46Z</time>
      </trkpt>
      <trkpt lat="47.61831" lon="0.52403">
        <ele>112</ele>
        <time>2020-10-15T13:10:48Z</time>
      </trkpt>
      <trkpt lat="47.61834" lon="0.52403">
        <ele>112</ele>
        <time>2020-10-15T13:10:50Z</time>
      </trkpt>
      <trkpt lat="47.61836" lon="0.52403">
        <ele>111</ele>
        <time>2020-10-15T13:10:52Z</time>
      </trkpt>
      <trkpt lat="47.61839" lon="0.52403">
        <ele>111</ele>
        <time>2020-10-15T13:10:54Z</time>
      </trkpt>
      <trkpt lat="47.61842" lon="0.52402">
        <ele>111</ele>
        <time>2020-10-15T13:10:56Z</time>
      </trkpt>
      <trkpt lat="47.61844" lon="0.52402">
        <ele>111</ele>
        <time>2020-10-15T13:10:58Z</time>
      </trkpt>
      <trkpt lat="47.61847" lon="0.52401">
        <ele>111</ele>
        <time>2020-10-15T13:11:00Z</time>
      </trkpt>
      <trkpt lat="47.6185" lon="0.524">
        <ele>110</ele>
        <time>2020-10-15T13:11:02Z</time>
      </trkpt>
      <trkpt lat="47.61853" lon="0.524">
        <ele>110</ele>
        <time>2020-10-15T13:11:04Z</time>
      </trkpt>
      <trkpt lat="47.61855" lon="0.52399">
        <ele>110</ele>
        <time>2020-10-15T13:11:06Z</time>
      </trkpt>
      <trkpt lat="47.61858" lon="0.52398">
        <ele>110</ele>
        <time>2020-10-15T13:11:08Z</time>
      </trkpt>
      <trkpt lat="47.6186" lon="0.52396">
        <ele>110</ele>
        <time>2020-10-15T13:11:10Z</time>
      </trkpt>
      <trkpt lat="47.61862" lon="0.52395">
        <ele>110</ele>
        <time>2020-10-15T13:11:12Z</time>
      </trkpt>
      <trkpt lat="47.61865" lon="0.52394">
        <ele>109</ele>
        <time>2020-10-15T13:11:14Z</time>
      </trkpt>
      <trkpt lat="47.61867" lon="0.52393">
        <ele>109</ele>
        <time>2020-10-15T13:11:16Z</time>
      </trkpt>
      <trkpt lat="47.6187" lon="0.52392">
        <ele>109</ele>
        <time>2020-10-15T13:11:18Z</time>
      </trkpt>
      <trkpt lat="47.61872" lon="0.52391">
        <ele>109</ele>
        <time>2020-10-15T13:11:20Z</time>
      </trkpt>
      <trkpt lat="47.61875" lon="0.52389">
        <ele>109</ele>
        <time>2020-10-15T13:11:22Z</time>
      </trkpt>
      <trkpt lat="47.61878" lon="0.52388">
        <ele>108</ele>
        <time>2020-10-15T13:11:24Z</time>
      </trkpt>
      <trkpt lat="47.6188" lon="0.52386">
        <ele>108</ele>
        <time>2020-10-15T13:11:26Z</time>
      </trkpt>
      <trkpt lat="47.61882" lon="0.52385">
        <ele>108</ele>
        <time>2020-10-15T13:11:28Z</time>
      </trkpt>
      <trkpt lat="47.61884" lon="0.52384">
        <ele>108</ele>
        <time>2020-10-15T13:11:30Z</time>
      </trkpt>
      <trkpt lat="47.61885" lon="0.52381">
        <ele>107</ele>
        <time>2020-10-15T13:11:32Z</time>
      </trkpt>
      <trkpt lat="47.61887" lon="0.52379">
        <ele>107</ele>
        <time>2020-10-15T13:11:34Z</time>
      </trkpt>
      <trkpt lat="47.61887" lon="0.52373">
        <ele>107</ele>
        <time>2020-10-15T13:11:36Z</time>
      </trkpt>
      <trkpt lat="47.61888" lon="0.5237">
        <ele>107</ele>
        <time>2020-10-15T13:11:38Z</time>
      </trkpt>
      <trkpt lat="47.61889" lon="0.52367">
        <ele>107</ele>
        <time>2020-10-15T13:11:40Z</time>
      </trkpt>
      <trkpt lat="47.61889" lon="0.52363">
        <ele>107</ele>
        <time>2020-10-15T13:11:43Z</time>
      </trkpt>
      <trkpt lat="47.61889" lon="0.5236">
        <ele>106</ele>
        <time>2020-10-15T13:11:45Z</time>
      </trkpt>
      <trkpt lat="47.61889" lon="0.52357">
        <ele>106</ele>
        <time>2020-10-15T13:11:47Z</time>
      </trkpt>
      <trkpt lat="47.61889" lon="0.52353">
        <ele>106</ele>
        <time>2020-10-15T13:11:49Z</time>
      </trkpt>
      <trkpt lat="47.61888" lon="0.52349">
        <ele>106</ele>
        <time>2020-10-15T13:11:51Z</time>
      </trkpt>
      <trkpt lat="47.61888" lon="0.52345">
        <ele>106</ele>
        <time>2020-10-15T13:11:53Z</time>
      </trkpt>
      <trkpt lat="47.61888" lon="0.52341">
        <ele>106</ele>
        <time>2020-10-15T13:11:55Z</time>
      </trkpt>
      <trkpt lat="47.61888" lon="0.52337">
        <ele>106</ele>
        <time>2020-10-15T13:11:57Z</time>
      </trkpt>
      <trkpt lat="47.61887" lon="0.52333">
        <ele>106</ele>
        <time>2020-10-15T13:11:59Z</time>
      </trkpt>
      <trkpt lat="47.61886" lon="0.5233">
        <ele>106</ele>
        <time>2020-10-15T13:12:02Z</time>
      </trkpt>
      <trkpt lat="47.61887" lon="0.52333">
        <ele>106</ele>
        <time>2020-10-15T13:12:11Z</time>
      </trkpt>
      <trkpt lat="47.61889" lon="0.52335">
        <ele>106</ele>
        <time>2020-10-15T13:13:01Z</time>
      </trkpt>
      <trkpt lat="47.6189" lon="0.52332">
        <ele>106</ele>
        <time>2020-10-15T13:14:14Z</time>
      </trkpt>
      <trkpt lat="47.61889" lon="0.52328">
        <ele>106</ele>
        <time>2020-10-15T13:14:17Z</time>
      </trkpt>
      <trkpt lat="47.61889" lon="0.52325">
        <ele>106</ele>
        <time>2020-10-15T13:14:19Z</time>
      </trkpt>
      <trkpt lat="47.61889" lon="0.52321">
        <ele>106</ele>
        <time>2020-10-15T13:14:21Z</time>
      </trkpt>
      <trkpt lat="47.61889" lon="0.52319">
        <ele>106</ele>
        <time>2020-10-15T13:14:23Z</time>
      </trkpt>
      <trkpt lat="47.61889" lon="0.52316">
        <ele>106</ele>
        <time>2020-10-15T13:14:25Z</time>
      </trkpt>
      <trkpt lat="47.61889" lon="0.52313">
        <ele>106</ele>
        <time>2020-10-15T13:14:27Z</time>
      </trkpt>
      <trkpt lat="47.61888" lon="0.5231">
        <ele>106</ele>
        <time>2020-10-15T13:14:29Z</time>
      </trkpt>
      <trkpt lat="47.61888" lon="0.52306">
        <ele>106</ele>
        <time>2020-10-15T13:14:31Z</time>
      </trkpt>
      <trkpt lat="47.61888" lon="0.52302">
        <ele>106</ele>
        <time>2020-10-15T13:14:33Z</time>
      </trkpt>
      <trkpt lat="47.61888" lon="0.52299">
        <ele>106</ele>
        <time>2020-10-15T13:14:35Z</time>
      </trkpt>
      <trkpt lat="47.61887" lon="0.52296">
        <ele>106</ele>
        <time>2020-10-15T13:14:37Z</time>
      </trkpt>
      <trkpt lat="47.61887" lon="0.52293">
        <ele>106</ele>
        <time>2020-10-15T13:14:39Z</time>
      </trkpt>
      <trkpt lat="47.61887" lon="0.52289">
        <ele>106</ele>
        <time>2020-10-15T13:14:41Z</time>
      </trkpt>
      <trkpt lat="47.61886" lon="0.52285">
        <ele>106</ele>
        <time>2020-10-15T13:14:43Z</time>
      </trkpt>
      <trkpt lat="47.61886" lon="0.52282">
        <ele>106</ele>
        <time>2020-10-15T13:14:45Z</time>
      </trkpt>
      <trkpt lat="47.61886" lon="0.52278">
        <ele>106</ele>
        <time>2020-10-15T13:14:47Z</time>
      </trkpt>
      <trkpt lat="47.61885" lon="0.52275">
        <ele>107</ele>
        <time>2020-10-15T13:14:49Z</time>
      </trkpt>
      <trkpt lat="47.61885" lon="0.52272">
        <ele>107</ele>
        <time>2020-10-15T13:14:51Z</time>
      </trkpt>
      <trkpt lat="47.61884" lon="0.52269">
        <ele>107</ele>
        <time>2020-10-15T13:14:53Z</time>
      </trkpt>
      <trkpt lat="47.61885" lon="0.52265">
        <ele>107</ele>
        <time>2020-10-15T13:14:55Z</time>
      </trkpt>
      <trkpt lat="47.61885" lon="0.52261">
        <ele>107</ele>
        <time>2020-10-15T13:14:57Z</time>
      </trkpt>
      <trkpt lat="47.61885" lon="0.52257">
        <ele>107</ele>
        <time>2020-10-15T13:14:59Z</time>
      </trkpt>
      <trkpt lat="47.61884" lon="0.52254">
        <ele>107</ele>
        <time>2020-10-15T13:15:01Z</time>
      </trkpt>
      <trkpt lat="47.61885" lon="0.52251">
        <ele>107</ele>
        <time>2020-10-15T13:15:03Z</time>
      </trkpt>
      <trkpt lat="47.61884" lon="0.52248">
        <ele>107</ele>
        <time>2020-10-15T13:15:06Z</time>
      </trkpt>
      <trkpt lat="47.61884" lon="0.52244">
        <ele>107</ele>
        <time>2020-10-15T13:15:08Z</time>
      </trkpt>
      <trkpt lat="47.61883" lon="0.52241">
        <ele>107</ele>
        <time>2020-10-15T13:15:10Z</time>
      </trkpt>
      <trkpt lat="47.61883" lon="0.52238">
        <ele>107</ele>
        <time>2020-10-15T13:15:12Z</time>
      </trkpt>
      <trkpt lat="47.61884" lon="0.52236">
        <ele>107</ele>
        <time>2020-10-15T13:15:20Z</time>
      </trkpt>
      <trkpt lat="47.61886" lon="0.52236">
        <ele>107</ele>
        <time>2020-10-15T13:15:24Z</time>
      </trkpt>
      <trkpt lat="47.61884" lon="0.52238">
        <ele>107</ele>
        <time>2020-10-15T13:15:59Z</time>
      </trkpt>
      <trkpt lat="47.61884" lon="0.52234">
        <ele>107</ele>
        <time>2020-10-15T13:17:02Z</time>
      </trkpt>
      <trkpt lat="47.61883" lon="0.5223">
        <ele>107</ele>
        <time>2020-10-15T13:17:09Z</time>
      </trkpt>
      <trkpt lat="47.61883" lon="0.52227">
        <ele>107</ele>
        <time>2020-10-15T13:17:11Z</time>
      </trkpt>
      <trkpt lat="47.61882" lon="0.52223">
        <ele>107</ele>
        <time>2020-10-15T13:17:13Z</time>
      </trkpt>
      <trkpt lat="47.61882" lon="0.52219">
        <ele>107</ele>
        <time>2020-10-15T13:17:15Z</time>
      </trkpt>
      <trkpt lat="47.61882" lon="0.52215">
        <ele>107</ele>
        <time>2020-10-15T13:17:17Z</time>
      </trkpt>
      <trkpt lat="47.61882" lon="0.52211">
        <ele>107</ele>
        <time>2020-10-15T13:17:19Z</time>
      </trkpt>
      <trkpt lat="47.61882" lon="0.52207">
        <ele>107</ele>
        <time>2020-10-15T13:17:21Z</time>
      </trkpt>
      <trkpt lat="47.61882" lon="0.52203">
        <ele>106</ele>
        <time>2020-10-15T13:17:23Z</time>
      </trkpt>
      <trkpt lat="47.61881" lon="0.52198">
        <ele>106</ele>
        <time>2020-10-15T13:17:25Z</time>
      </trkpt>
      <trkpt lat="47.61881" lon="0.52195">
        <ele>106</ele>
        <time>2020-10-15T13:17:27Z</time>
      </trkpt>
      <trkpt lat="47.61881" lon="0.52191">
        <ele>106</ele>
        <time>2020-10-15T13:17:29Z</time>
      </trkpt>
      <trkpt lat="47.61881" lon="0.52187">
        <ele>106</ele>
        <time>2020-10-15T13:17:31Z</time>
      </trkpt>
      <trkpt lat="47.6188" lon="0.52183">
        <ele>106</ele>
        <time>2020-10-15T13:17:33Z</time>
      </trkpt>
      <trkpt lat="47.6188" lon="0.52179">
        <ele>106</ele>
        <time>2020-10-15T13:17:35Z</time>
      </trkpt>
      <trkpt lat="47.61879" lon="0.52176">
        <ele>106</ele>
        <time>2020-10-15T13:17:37Z</time>
      </trkpt>
      <trkpt lat="47.61879" lon="0.52172">
        <ele>106</ele>
        <time>2020-10-15T13:17:39Z</time>
      </trkpt>
      <trkpt lat="47.61879" lon="0.52168">
        <ele>106</ele>
        <time>2020-10-15T13:17:41Z</time>
      </trkpt>
      <trkpt lat="47.61878" lon="0.52164">
        <ele>106</ele>
        <time>2020-10-15T13:17:43Z</time>
      </trkpt>
      <trkpt lat="47.61878" lon="0.5216">
        <ele>106</ele>
        <time>2020-10-15T13:17:45Z</time>
      </trkpt>
      <trkpt lat="47.61878" lon="0.52155">
        <ele>106</ele>
        <time>2020-10-15T13:17:47Z</time>
      </trkpt>
      <trkpt lat="47.61878" lon="0.52152">
        <ele>106</ele>
        <time>2020-10-15T13:17:49Z</time>
      </trkpt>
      <trkpt lat="47.61878" lon="0.52148">
        <ele>106</ele>
        <time>2020-10-15T13:17:51Z</time>
      </trkpt>
      <trkpt lat="47.61878" lon="0.52145">
        <ele>106</ele>
        <time>2020-10-15T13:17:53Z</time>
      </trkpt>
      <trkpt lat="47.61878" lon="0.52141">
        <ele>106</ele>
        <time>2020-10-15T13:17:55Z</time>
      </trkpt>
      <trkpt lat="47.61878" lon="0.52137">
        <ele>106</ele>
        <time>2020-10-15T13:17:57Z</time>
      </trkpt>
      <trkpt lat="47.61878" lon="0.52132">
        <ele>106</ele>
        <time>2020-10-15T13:17:59Z</time>
      </trkpt>
      <trkpt lat="47.61878" lon="0.52128">
        <ele>106</ele>
        <time>2020-10-15T13:18:01Z</time>
      </trkpt>
      <trkpt lat="47.61878" lon="0.52124">
        <ele>106</ele>
        <time>2020-10-15T13:18:03Z</time>
      </trkpt>
      <trkpt lat="47.61878" lon="0.5212">
        <ele>107</ele>
        <time>2020-10-15T13:18:05Z</time>
      </trkpt>
      <trkpt lat="47.61878" lon="0.52116">
        <ele>107</ele>
        <time>2020-10-15T13:18:07Z</time>
      </trkpt>
      <trkpt lat="47.61878" lon="0.52112">
        <ele>107</ele>
        <time>2020-10-15T13:18:09Z</time>
      </trkpt>
      <trkpt lat="47.61878" lon="0.52109">
        <ele>107</ele>
        <time>2020-10-15T13:18:11Z</time>
      </trkpt>
      <trkpt lat="47.61879" lon="0.52106">
        <ele>107</ele>
        <time>2020-10-15T13:18:13Z</time>
      </trkpt>
      <trkpt lat="47.61879" lon="0.52101">
        <ele>107</ele>
        <time>2020-10-15T13:18:15Z</time>
      </trkpt>
      <trkpt lat="47.61879" lon="0.52096">
        <ele>106</ele>
        <time>2020-10-15T13:18:17Z</time>
      </trkpt>
      <trkpt lat="47.61879" lon="0.52092">
        <ele>106</ele>
        <time>2020-10-15T13:18:19Z</time>
      </trkpt>
      <trkpt lat="47.61879" lon="0.52088">
        <ele>106</ele>
        <time>2020-10-15T13:18:21Z</time>
      </trkpt>
      <trkpt lat="47.6188" lon="0.52083">
        <ele>106</ele>
        <time>2020-10-15T13:18:23Z</time>
      </trkpt>
      <trkpt lat="47.61881" lon="0.52079">
        <ele>106</ele>
        <time>2020-10-15T13:18:25Z</time>
      </trkpt>
      <trkpt lat="47.61882" lon="0.52076">
        <ele>106</ele>
        <time>2020-10-15T13:18:27Z</time>
      </trkpt>
      <trkpt lat="47.61882" lon="0.52072">
        <ele>106</ele>
        <time>2020-10-15T13:18:29Z</time>
      </trkpt>
      <trkpt lat="47.61882" lon="0.52068">
        <ele>106</ele>
        <time>2020-10-15T13:18:31Z</time>
      </trkpt>
      <trkpt lat="47.61883" lon="0.52064">
        <ele>106</ele>
        <time>2020-10-15T13:18:33Z</time>
      </trkpt>
      <trkpt lat="47.61882" lon="0.5206">
        <ele>106</ele>
        <time>2020-10-15T13:18:35Z</time>
      </trkpt>
      <trkpt lat="47.61883" lon="0.52056">
        <ele>106</ele>
        <time>2020-10-15T13:18:37Z</time>
      </trkpt>
      <trkpt lat="47.61884" lon="0.52052">
        <ele>106</ele>
        <time>2020-10-15T13:18:39Z</time>
      </trkpt>
      <trkpt lat="47.61884" lon="0.52048">
        <ele>106</ele>
        <time>2020-10-15T13:18:41Z</time>
      </trkpt>
      <trkpt lat="47.61885" lon="0.52045">
        <ele>106</ele>
        <time>2020-10-15T13:18:43Z</time>
      </trkpt>
      <trkpt lat="47.61886" lon="0.52041">
        <ele>106</ele>
        <time>2020-10-15T13:18:45Z</time>
      </trkpt>
      <trkpt lat="47.61887" lon="0.52037">
        <ele>106</ele>
        <time>2020-10-15T13:18:47Z</time>
      </trkpt>
      <trkpt lat="47.6189" lon="0.52037">
        <ele>105</ele>
        <time>2020-10-15T13:18:51Z</time>
      </trkpt>
      <trkpt lat="47.61893" lon="0.52036">
        <ele>105</ele>
        <time>2020-10-15T13:18:53Z</time>
      </trkpt>
      <trkpt lat="47.61895" lon="0.52037">
        <ele>105</ele>
        <time>2020-10-15T13:18:54Z</time>
      </trkpt>
      <trkpt lat="47.61898" lon="0.52037">
        <ele>105</ele>
        <time>2020-10-15T13:18:56Z</time>
      </trkpt>
      <trkpt lat="47.619" lon="0.52038">
        <ele>105</ele>
        <time>2020-10-15T13:18:58Z</time>
      </trkpt>
      <trkpt lat="47.61904" lon="0.5204">
        <ele>105</ele>
        <time>2020-10-15T13:19:00Z</time>
      </trkpt>
      <trkpt lat="47.61907" lon="0.52041">
        <ele>105</ele>
        <time>2020-10-15T13:19:02Z</time>
      </trkpt>
      <trkpt lat="47.61909" lon="0.52043">
        <ele>106</ele>
        <time>2020-10-15T13:19:04Z</time>
      </trkpt>
      <trkpt lat="47.61912" lon="0.52044">
        <ele>106</ele>
        <time>2020-10-15T13:19:06Z</time>
      </trkpt>
      <trkpt lat="47.61915" lon="0.52045">
        <ele>106</ele>
        <time>2020-10-15T13:19:08Z</time>
      </trkpt>
      <trkpt lat="47.61917" lon="0.52046">
        <ele>106</ele>
        <time>2020-10-15T13:19:10Z</time>
      </trkpt>
      <trkpt lat="47.6192" lon="0.52047">
        <ele>106</ele>
        <time>2020-10-15T13:19:12Z</time>
      </trkpt>
      <trkpt lat="47.61923" lon="0.52048">
        <ele>106</ele>
        <time>2020-10-15T13:19:14Z</time>
      </trkpt>
      <trkpt lat="47.61926" lon="0.5205">
        <ele>106</ele>
        <time>2020-10-15T13:19:16Z</time>
      </trkpt>
      <trkpt lat="47.6193" lon="0.5205">
        <ele>106</ele>
        <time>2020-10-15T13:19:18Z</time>
      </trkpt>
      <trkpt lat="47.61932" lon="0.52052">
        <ele>106</ele>
        <time>2020-10-15T13:19:20Z</time>
      </trkpt>
      <trkpt lat="47.61935" lon="0.52054">
        <ele>106</ele>
        <time>2020-10-15T13:19:22Z</time>
      </trkpt>
      <trkpt lat="47.61938" lon="0.52055">
        <ele>106</ele>
        <time>2020-10-15T13:19:24Z</time>
      </trkpt>
      <trkpt lat="47.61941" lon="0.52056">
        <ele>106</ele>
        <time>2020-10-15T13:19:26Z</time>
      </trkpt>
      <trkpt lat="47.61944" lon="0.52057">
        <ele>106</ele>
        <time>2020-10-15T13:19:28Z</time>
      </trkpt>
      <trkpt lat="47.61947" lon="0.52057">
        <ele>106</ele>
        <time>2020-10-15T13:19:30Z</time>
      </trkpt>
      <trkpt lat="47.6195" lon="0.52059">
        <ele>106</ele>
        <time>2020-10-15T13:19:32Z</time>
      </trkpt>
      <trkpt lat="47.61953" lon="0.5206">
        <ele>106</ele>
        <time>2020-10-15T13:19:34Z</time>
      </trkpt>
      <trkpt lat="47.61956" lon="0.52062">
        <ele>106</ele>
        <time>2020-10-15T13:19:36Z</time>
      </trkpt>
      <trkpt lat="47.61959" lon="0.52062">
        <ele>106</ele>
        <time>2020-10-15T13:19:38Z</time>
      </trkpt>
      <trkpt lat="47.61962" lon="0.52062">
        <ele>106</ele>
        <time>2020-10-15T13:19:40Z</time>
      </trkpt>
      <trkpt lat="47.61965" lon="0.52063">
        <ele>106</ele>
        <time>2020-10-15T13:19:42Z</time>
      </trkpt>
      <trkpt lat="47.61968" lon="0.52064">
        <ele>106</ele>
        <time>2020-10-15T13:19:44Z</time>
      </trkpt>
      <trkpt lat="47.61971" lon="0.52064">
        <ele>106</ele>
        <time>2020-10-15T13:19:46Z</time>
      </trkpt>
      <trkpt lat="47.61975" lon="0.52064">
        <ele>106</ele>
        <time>2020-10-15T13:19:48Z</time>
      </trkpt>
      <trkpt lat="47.61978" lon="0.52065">
        <ele>106</ele>
        <time>2020-10-15T13:19:50Z</time>
      </trkpt>
      <trkpt lat="47.61981" lon="0.52065">
        <ele>106</ele>
        <time>2020-10-15T13:19:52Z</time>
      </trkpt>
      <trkpt lat="47.61984" lon="0.52066">
        <ele>106</ele>
        <time>2020-10-15T13:19:54Z</time>
      </trkpt>
      <trkpt lat="47.61987" lon="0.52066">
        <ele>106</ele>
        <time>2020-10-15T13:19:56Z</time>
      </trkpt>
      <trkpt lat="47.6199" lon="0.52066">
        <ele>106</ele>
        <time>2020-10-15T13:19:58Z</time>
      </trkpt>
      <trkpt lat="47.61992" lon="0.52065">
        <ele>106</ele>
        <time>2020-10-15T13:20:00Z</time>
      </trkpt>
      <trkpt lat="47.61995" lon="0.52065">
        <ele>106</ele>
        <time>2020-10-15T13:20:02Z</time>
      </trkpt>
      <trkpt lat="47.61998" lon="0.52066">
        <ele>106</ele>
        <time>2020-10-15T13:20:04Z</time>
      </trkpt>
      <trkpt lat="47.62001" lon="0.52066">
        <ele>106</ele>
        <time>2020-10-15T13:20:06Z</time>
      </trkpt>
      <trkpt lat="47.62004" lon="0.52067">
        <ele>106</ele>
        <time>2020-10-15T13:20:08Z</time>
      </trkpt>
      <trkpt lat="47.62006" lon="0.52067">
        <ele>107</ele>
        <time>2020-10-15T13:20:10Z</time>
      </trkpt>
      <trkpt lat="47.62009" lon="0.52067">
        <ele>107</ele>
        <time>2020-10-15T13:20:12Z</time>
      </trkpt>
      <trkpt lat="47.62012" lon="0.52068">
        <ele>107</ele>
        <time>2020-10-15T13:20:14Z</time>
      </trkpt>
      <trkpt lat="47.62015" lon="0.52068">
        <ele>107</ele>
        <time>2020-10-15T13:20:16Z</time>
      </trkpt>
      <trkpt lat="47.62017" lon="0.52069">
        <ele>107</ele>
        <time>2020-10-15T13:20:18Z</time>
      </trkpt>
      <trkpt lat="47.6202" lon="0.5207">
        <ele>107</ele>
        <time>2020-10-15T13:20:20Z</time>
      </trkpt>
      <trkpt lat="47.62022" lon="0.5207">
        <ele>107</ele>
        <time>2020-10-15T13:20:22Z</time>
      </trkpt>
      <trkpt lat="47.62025" lon="0.5207">
        <ele>107</ele>
        <time>2020-10-15T13:20:24Z</time>
      </trkpt>
      <trkpt lat="47.62027" lon="0.5207">
        <ele>108</ele>
        <time>2020-10-15T13:20:26Z</time>
      </trkpt>
      <trkpt lat="47.6203" lon="0.5207">
        <ele>108</ele>
        <time>2020-10-15T13:20:28Z</time>
      </trkpt>
      <trkpt lat="47.62032" lon="0.5207">
        <ele>108</ele>
        <time>2020-10-15T13:20:30Z</time>
      </trkpt>
      <trkpt lat="47.62035" lon="0.52069">
        <ele>108</ele>
        <time>2020-10-15T13:20:32Z</time>
      </trkpt>
      <trkpt lat="47.62038" lon="0.5207">
        <ele>108</ele>
        <time>2020-10-15T13:20:34Z</time>
      </trkpt>
      <trkpt lat="47.62041" lon="0.5207">
        <ele>108</ele>
        <time>2020-10-15T13:20:36Z</time>
      </trkpt>
      <trkpt lat="47.62044" lon="0.52069">
        <ele>108</ele>
        <time>2020-10-15T13:20:38Z</time>
      </trkpt>
      <trkpt lat="47.62047" lon="0.52069">
        <ele>108</ele>
        <time>2020-10-15T13:20:40Z</time>
      </trkpt>
      <trkpt lat="47.6205" lon="0.52069">
        <ele>108</ele>
        <time>2020-10-15T13:20:42Z</time>
      </trkpt>
      <trkpt lat="47.62053" lon="0.52068">
        <ele>108</ele>
        <time>2020-10-15T13:20:44Z</time>
      </trkpt>
      <trkpt lat="47.62056" lon="0.52069">
        <ele>108</ele>
        <time>2020-10-15T13:20:46Z</time>
      </trkpt>
      <trkpt lat="47.62059" lon="0.52069">
        <ele>108</ele>
        <time>2020-10-15T13:20:48Z</time>
      </trkpt>
      <trkpt lat="47.62062" lon="0.52068">
        <ele>108</ele>
        <time>2020-10-15T13:20:50Z</time>
      </trkpt>
      <trkpt lat="47.62065" lon="0.52067">
        <ele>108</ele>
        <time>2020-10-15T13:20:52Z</time>
      </trkpt>
      <trkpt lat="47.62068" lon="0.52066">
        <ele>108</ele>
        <time>2020-10-15T13:20:54Z</time>
      </trkpt>
      <trkpt lat="47.6207" lon="0.52066">
        <ele>108</ele>
        <time>2020-10-15T13:20:56Z</time>
      </trkpt>
      <trkpt lat="47.62073" lon="0.52066">
        <ele>108</ele>
        <time>2020-10-15T13:20:58Z</time>
      </trkpt>
      <trkpt lat="47.62075" lon="0.52066">
        <ele>108</ele>
        <time>2020-10-15T13:21:00Z</time>
      </trkpt>
      <trkpt lat="47.62078" lon="0.52065">
        <ele>107</ele>
        <time>2020-10-15T13:21:02Z</time>
      </trkpt>
      <trkpt lat="47.6208" lon="0.52064">
        <ele>107</ele>
        <time>2020-10-15T13:21:04Z</time>
      </trkpt>
      <trkpt lat="47.62083" lon="0.52064">
        <ele>107</ele>
        <time>2020-10-15T13:21:06Z</time>
      </trkpt>
      <trkpt lat="47.62085" lon="0.52063">
        <ele>107</ele>
        <time>2020-10-15T13:21:08Z</time>
      </trkpt>
      <trkpt lat="47.62088" lon="0.52062">
        <ele>107</ele>
        <time>2020-10-15T13:21:10Z</time>
      </trkpt>
      <trkpt lat="47.6209" lon="0.5206">
        <ele>106</ele>
        <time>2020-10-15T13:21:12Z</time>
      </trkpt>
      <trkpt lat="47.62093" lon="0.52059">
        <ele>106</ele>
        <time>2020-10-15T13:21:14Z</time>
      </trkpt>
      <trkpt lat="47.62096" lon="0.52058">
        <ele>106</ele>
        <time>2020-10-15T13:21:16Z</time>
      </trkpt>
      <trkpt lat="47.62099" lon="0.52058">
        <ele>106</ele>
        <time>2020-10-15T13:21:18Z</time>
      </trkpt>
      <trkpt lat="47.62102" lon="0.52058">
        <ele>105</ele>
        <time>2020-10-15T13:21:20Z</time>
      </trkpt>
      <trkpt lat="47.62105" lon="0.52057">
        <ele>105</ele>
        <time>2020-10-15T13:21:22Z</time>
      </trkpt>
      <trkpt lat="47.62108" lon="0.52056">
        <ele>105</ele>
        <time>2020-10-15T13:21:24Z</time>
      </trkpt>
      <trkpt lat="47.62111" lon="0.52055">
        <ele>104</ele>
        <time>2020-10-15T13:21:26Z</time>
      </trkpt>
      <trkpt lat="47.62114" lon="0.52055">
        <ele>104</ele>
        <time>2020-10-15T13:21:28Z</time>
      </trkpt>
      <trkpt lat="47.62116" lon="0.52054">
        <ele>104</ele>
        <time>2020-10-15T13:21:30Z</time>
      </trkpt>
      <trkpt lat="47.62119" lon="0.52053">
        <ele>104</ele>
        <time>2020-10-15T13:21:32Z</time>
      </trkpt>
      <trkpt lat="47.62122" lon="0.52054">
        <ele>104</ele>
        <time>2020-10-15T13:21:34Z</time>
      </trkpt>
      <trkpt lat="47.62125" lon="0.52053">
        <ele>104</ele>
        <time>2020-10-15T13:21:36Z</time>
      </trkpt>
      <trkpt lat="47.62127" lon="0.52052">
        <ele>104</ele>
        <time>2020-10-15T13:21:38Z</time>
      </trkpt>
      <trkpt lat="47.6213" lon="0.52051">
        <ele>104</ele>
        <time>2020-10-15T13:21:40Z</time>
      </trkpt>
      <trkpt lat="47.62132" lon="0.5205">
        <ele>104</ele>
        <time>2020-10-15T13:21:42Z</time>
      </trkpt>
      <trkpt lat="47.62134" lon="0.52049">
        <ele>104</ele>
        <time>2020-10-15T13:21:44Z</time>
      </trkpt>
      <trkpt lat="47.62137" lon="0.52048">
        <ele>104</ele>
        <time>2020-10-15T13:21:46Z</time>
      </trkpt>
      <trkpt lat="47.6214" lon="0.52048">
        <ele>104</ele>
        <time>2020-10-15T13:21:48Z</time>
      </trkpt>
      <trkpt lat="47.62143" lon="0.52049">
        <ele>104</ele>
        <time>2020-10-15T13:21:50Z</time>
      </trkpt>
      <trkpt lat="47.62146" lon="0.52048">
        <ele>104</ele>
        <time>2020-10-15T13:21:52Z</time>
      </trkpt>
      <trkpt lat="47.62148" lon="0.52048">
        <ele>104</ele>
        <time>2020-10-15T13:21:54Z</time>
      </trkpt>
      <trkpt lat="47.62151" lon="0.52047">
        <ele>104</ele>
        <time>2020-10-15T13:21:56Z</time>
      </trkpt>
      <trkpt lat="47.62153" lon="0.52047">
        <ele>104</ele>
        <time>2020-10-15T13:21:58Z</time>
      </trkpt>
      <trkpt lat="47.62156" lon="0.52047">
        <ele>104</ele>
        <time>2020-10-15T13:22:00Z</time>
      </trkpt>
      <trkpt lat="47.62159" lon="0.52047">
        <ele>104</ele>
        <time>2020-10-15T13:22:02Z</time>
      </trkpt>
      <trkpt lat="47.62162" lon="0.52047">
        <ele>104</ele>
        <time>2020-10-15T13:22:04Z</time>
      </trkpt>
      <trkpt lat="47.62165" lon="0.52046">
        <ele>104</ele>
        <time>2020-10-15T13:22:06Z</time>
      </trkpt>
      <trkpt lat="47.62168" lon="0.52046">
        <ele>103</ele>
        <time>2020-10-15T13:22:08Z</time>
      </trkpt>
      <trkpt lat="47.62171" lon="0.52046">
        <ele>103</ele>
        <time>2020-10-15T13:22:10Z</time>
      </trkpt>
      <trkpt lat="47.62173" lon="0.52045">
        <ele>103</ele>
        <time>2020-10-15T13:22:12Z</time>
      </trkpt>
      <trkpt lat="47.62175" lon="0.52044">
        <ele>103</ele>
        <time>2020-10-15T13:22:14Z</time>
      </trkpt>
      <trkpt lat="47.62178" lon="0.52044">
        <ele>103</ele>
        <time>2020-10-15T13:22:16Z</time>
      </trkpt>
      <trkpt lat="47.62181" lon="0.52044">
        <ele>103</ele>
        <time>2020-10-15T13:22:18Z</time>
      </trkpt>
      <trkpt lat="47.62183" lon="0.52043">
        <ele>103</ele>
        <time>2020-10-15T13:22:20Z</time>
      </trkpt>
      <trkpt lat="47.62186" lon="0.52043">
        <ele>103</ele>
        <time>2020-10-15T13:22:22Z</time>
      </trkpt>
      <trkpt lat="47.62189" lon="0.52043">
        <ele>103</ele>
        <time>2020-10-15T13:22:24Z</time>
      </trkpt>
      <trkpt lat="47.62192" lon="0.52042">
        <ele>103</ele>
        <time>2020-10-15T13:22:26Z</time>
      </trkpt>
      <trkpt lat="47.62194" lon="0.52041">
        <ele>103</ele>
        <time>2020-10-15T13:22:28Z</time>
      </trkpt>
      <trkpt lat="47.62197" lon="0.52041">
        <ele>103</ele>
        <time>2020-10-15T13:22:30Z</time>
      </trkpt>
      <trkpt lat="47.622" lon="0.52041">
        <ele>103</ele>
        <time>2020-10-15T13:22:32Z</time>
      </trkpt>
      <trkpt lat="47.62203" lon="0.52041">
        <ele>103</ele>
        <time>2020-10-15T13:22:34Z</time>
      </trkpt>
      <trkpt lat="47.62205" lon="0.5204">
        <ele>103</ele>
        <time>2020-10-15T13:22:36Z</time>
      </trkpt>
      <trkpt lat="47.62208" lon="0.5204">
        <ele>103</ele>
        <time>2020-10-15T13:22:38Z</time>
      </trkpt>
      <trkpt lat="47.6221" lon="0.52039">
        <ele>103</ele>
        <time>2020-10-15T13:22:40Z</time>
      </trkpt>
      <trkpt lat="47.62212" lon="0.52038">
        <ele>103</ele>
        <time>2020-10-15T13:22:42Z</time>
      </trkpt>
      <trkpt lat="47.62214" lon="0.52037">
        <ele>103</ele>
        <time>2020-10-15T13:22:44Z</time>
      </trkpt>
      <trkpt lat="47.62216" lon="0.52036">
        <ele>103</ele>
        <time>2020-10-15T13:22:46Z</time>
      </trkpt>
      <trkpt lat="47.62218" lon="0.52035">
        <ele>103</ele>
        <time>2020-10-15T13:22:49Z</time>
      </trkpt>
      <trkpt lat="47.6222" lon="0.52034">
        <ele>103</ele>
        <time>2020-10-15T13:22:52Z</time>
      </trkpt>
      <trkpt lat="47.62222" lon="0.52034">
        <ele>103</ele>
        <time>2020-10-15T13:22:55Z</time>
      </trkpt>
      <trkpt lat="47.62225" lon="0.52035">
        <ele>103</ele>
        <time>2020-10-15T13:22:58Z</time>
      </trkpt>
      <trkpt lat="47.62227" lon="0.52037">
        <ele>103</ele>
        <time>2020-10-15T13:23:00Z</time>
      </trkpt>
      <trkpt lat="47.62229" lon="0.52039">
        <ele>103</ele>
        <time>2020-10-15T13:23:02Z</time>
      </trkpt>
      <trkpt lat="47.62232" lon="0.5204">
        <ele>103</ele>
        <time>2020-10-15T13:23:04Z</time>
      </trkpt>
      <trkpt lat="47.62234" lon="0.52041">
        <ele>103</ele>
        <time>2020-10-15T13:23:06Z</time>
      </trkpt>
      <trkpt lat="47.62235" lon="0.52042">
        <ele>103</ele>
        <time>2020-10-15T13:23:08Z</time>
      </trkpt>
      <trkpt lat="47.62237" lon="0.52044">
        <ele>103</ele>
        <time>2020-10-15T13:23:10Z</time>
      </trkpt>
      <trkpt lat="47.6224" lon="0.52045">
        <ele>103</ele>
        <time>2020-10-15T13:23:12Z</time>
      </trkpt>
      <trkpt lat="47.62242" lon="0.52046">
        <ele>103</ele>
        <time>2020-10-15T13:23:14Z</time>
      </trkpt>
      <trkpt lat="47.62244" lon="0.52049">
        <ele>103</ele>
        <time>2020-10-15T13:23:16Z</time>
      </trkpt>
      <trkpt lat="47.62247" lon="0.52051">
        <ele>103</ele>
        <time>2020-10-15T13:23:18Z</time>
      </trkpt>
      <trkpt lat="47.6225" lon="0.52053">
        <ele>103</ele>
        <time>2020-10-15T13:23:20Z</time>
      </trkpt>
      <trkpt lat="47.62253" lon="0.52054">
        <ele>103</ele>
        <time>2020-10-15T13:23:22Z</time>
      </trkpt>
      <trkpt lat="47.62255" lon="0.52056">
        <ele>103</ele>
        <time>2020-10-15T13:23:24Z</time>
      </trkpt>
      <trkpt lat="47.62258" lon="0.52059">
        <ele>103</ele>
        <time>2020-10-15T13:23:26Z</time>
      </trkpt>
      <trkpt lat="47.6226" lon="0.52061">
        <ele>103</ele>
        <time>2020-10-15T13:23:28Z</time>
      </trkpt>
      <trkpt lat="47.62262" lon="0.52063">
        <ele>103</ele>
        <time>2020-10-15T13:23:30Z</time>
      </trkpt>
      <trkpt lat="47.62264" lon="0.52064">
        <ele>103</ele>
        <time>2020-10-15T13:23:32Z</time>
      </trkpt>
      <trkpt lat="47.62267" lon="0.52067">
        <ele>103</ele>
        <time>2020-10-15T13:23:34Z</time>
      </trkpt>
      <trkpt lat="47.62269" lon="0.5207">
        <ele>103</ele>
        <time>2020-10-15T13:23:36Z</time>
      </trkpt>
      <trkpt lat="47.62271" lon="0.52071">
        <ele>103</ele>
        <time>2020-10-15T13:23:38Z</time>
      </trkpt>
      <trkpt lat="47.62273" lon="0.52073">
        <ele>103</ele>
        <time>2020-10-15T13:23:40Z</time>
      </trkpt>
      <trkpt lat="47.62275" lon="0.52075">
        <ele>103</ele>
        <time>2020-10-15T13:23:42Z</time>
      </trkpt>
      <trkpt lat="47.62277" lon="0.52078">
        <ele>103</ele>
        <time>2020-10-15T13:23:44Z</time>
      </trkpt>
      <trkpt lat="47.62279" lon="0.52081">
        <ele>104</ele>
        <time>2020-10-15T13:23:46Z</time>
      </trkpt>
      <trkpt lat="47.62281" lon="0.52083">
        <ele>104</ele>
        <time>2020-10-15T13:23:48Z</time>
      </trkpt>
      <trkpt lat="47.62283" lon="0.52085">
        <ele>104</ele>
        <time>2020-10-15T13:23:50Z</time>
      </trkpt>
      <trkpt lat="47.62285" lon="0.52087">
        <ele>104</ele>
        <time>2020-10-15T13:23:52Z</time>
      </trkpt>
      <trkpt lat="47.62288" lon="0.5209">
        <ele>104</ele>
        <time>2020-10-15T13:23:54Z</time>
      </trkpt>
      <trkpt lat="47.6229" lon="0.52093">
        <ele>104</ele>
        <time>2020-10-15T13:23:56Z</time>
      </trkpt>
      <trkpt lat="47.62292" lon="0.52096">
        <ele>104</ele>
        <time>2020-10-15T13:23:58Z</time>
      </trkpt>
      <trkpt lat="47.62294" lon="0.52098">
        <ele>104</ele>
        <time>2020-10-15T13:24:00Z</time>
      </trkpt>
      <trkpt lat="47.62296" lon="0.52101">
        <ele>104</ele>
        <time>2020-10-15T13:24:02Z</time>
      </trkpt>
      <trkpt lat="47.62298" lon="0.52103">
        <ele>104</ele>
        <time>2020-10-15T13:24:04Z</time>
      </trkpt>
      <trkpt lat="47.623" lon="0.52106">
        <ele>104</ele>
        <time>2020-10-15T13:24:06Z</time>
      </trkpt>
      <trkpt lat="47.62302" lon="0.52108">
        <ele>104</ele>
        <time>2020-10-15T13:24:08Z</time>
      </trkpt>
      <trkpt lat="47.62304" lon="0.52111">
        <ele>104</ele>
        <time>2020-10-15T13:24:10Z</time>
      </trkpt>
      <trkpt lat="47.62306" lon="0.52114">
        <ele>104</ele>
        <time>2020-10-15T13:24:12Z</time>
      </trkpt>
      <trkpt lat="47.62308" lon="0.52117">
        <ele>104</ele>
        <time>2020-10-15T13:24:14Z</time>
      </trkpt>
      <trkpt lat="47.6231" lon="0.5212">
        <ele>104</ele>
        <time>2020-10-15T13:24:16Z</time>
      </trkpt>
      <trkpt lat="47.62312" lon="0.52123">
        <ele>104</ele>
        <time>2020-10-15T13:24:18Z</time>
      </trkpt>
      <trkpt lat="47.62314" lon="0.52125">
        <ele>104</ele>
        <time>2020-10-15T13:24:20Z</time>
      </trkpt>
      <trkpt lat="47.62316" lon="0.52128">
        <ele>104</ele>
        <time>2020-10-15T13:24:22Z</time>
      </trkpt>
      <trkpt lat="47.62317" lon="0.5213">
        <ele>104</ele>
        <time>2020-10-15T13:24:24Z</time>
      </trkpt>
      <trkpt lat="47.62319" lon="0.52132">
        <ele>104</ele>
        <time>2020-10-15T13:24:26Z</time>
      </trkpt>
      <trkpt lat="47.62321" lon="0.52135">
        <ele>104</ele>
        <time>2020-10-15T13:24:28Z</time>
      </trkpt>
      <trkpt lat="47.62323" lon="0.52138">
        <ele>104</ele>
        <time>2020-10-15T13:24:30Z</time>
      </trkpt>
      <trkpt lat="47.62324" lon="0.5214">
        <ele>104</ele>
        <time>2020-10-15T13:24:32Z</time>
      </trkpt>
      <trkpt lat="47.62326" lon="0.52143">
        <ele>104</ele>
        <time>2020-10-15T13:24:34Z</time>
      </trkpt>
      <trkpt lat="47.62328" lon="0.52146">
        <ele>104</ele>
        <time>2020-10-15T13:24:36Z</time>
      </trkpt>
      <trkpt lat="47.6233" lon="0.52148">
        <ele>104</ele>
        <time>2020-10-15T13:24:38Z</time>
      </trkpt>
      <trkpt lat="47.62332" lon="0.52151">
        <ele>104</ele>
        <time>2020-10-15T13:24:40Z</time>
      </trkpt>
      <trkpt lat="47.62333" lon="0.52154">
        <ele>104</ele>
        <time>2020-10-15T13:24:42Z</time>
      </trkpt>
      <trkpt lat="47.62335" lon="0.52157">
        <ele>104</ele>
        <time>2020-10-15T13:24:44Z</time>
      </trkpt>
      <trkpt lat="47.62337" lon="0.52159">
        <ele>104</ele>
        <time>2020-10-15T13:24:46Z</time>
      </trkpt>
      <trkpt lat="47.62339" lon="0.52162">
        <ele>104</ele>
        <time>2020-10-15T13:24:48Z</time>
      </trkpt>
      <trkpt lat="47.62341" lon="0.52165">
        <ele>104</ele>
        <time>2020-10-15T13:24:50Z</time>
      </trkpt>
      <trkpt lat="47.62343" lon="0.52168">
        <ele>104</ele>
        <time>2020-10-15T13:24:52Z</time>
      </trkpt>
      <trkpt lat="47.62345" lon="0.5217">
        <ele>104</ele>
        <time>2020-10-15T13:24:54Z</time>
      </trkpt>
      <trkpt lat="47.62347" lon="0.52173">
        <ele>104</ele>
        <time>2020-10-15T13:24:56Z</time>
      </trkpt>
      <trkpt lat="47.62349" lon="0.52177">
        <ele>104</ele>
        <time>2020-10-15T13:24:58Z</time>
      </trkpt>
      <trkpt lat="47.62351" lon="0.52179">
        <ele>104</ele>
        <time>2020-10-15T13:25:00Z</time>
      </trkpt>
      <trkpt lat="47.62353" lon="0.52181">
        <ele>104</ele>
        <time>2020-10-15T13:25:02Z</time>
      </trkpt>
      <trkpt lat="47.62355" lon="0.52184">
        <ele>104</ele>
        <time>2020-10-15T13:25:04Z</time>
      </trkpt>
      <trkpt lat="47.62357" lon="0.52187">
        <ele>104</ele>
        <time>2020-10-15T13:25:06Z</time>
      </trkpt>
      <trkpt lat="47.6236" lon="0.5219">
        <ele>104</ele>
        <time>2020-10-15T13:25:08Z</time>
      </trkpt>
      <trkpt lat="47.62362" lon="0.52193">
        <ele>104</ele>
        <time>2020-10-15T13:25:10Z</time>
      </trkpt>
      <trkpt lat="47.62364" lon="0.52196">
        <ele>104</ele>
        <time>2020-10-15T13:25:12Z</time>
      </trkpt>
      <trkpt lat="47.62366" lon="0.52198">
        <ele>104</ele>
        <time>2020-10-15T13:25:14Z</time>
      </trkpt>
      <trkpt lat="47.62368" lon="0.522">
        <ele>104</ele>
        <time>2020-10-15T13:25:16Z</time>
      </trkpt>
      <trkpt lat="47.6237" lon="0.52202">
        <ele>104</ele>
        <time>2020-10-15T13:25:18Z</time>
      </trkpt>
      <trkpt lat="47.62372" lon="0.52203">
        <ele>104</ele>
        <time>2020-10-15T13:25:20Z</time>
      </trkpt>
      <trkpt lat="47.62374" lon="0.52205">
        <ele>104</ele>
        <time>2020-10-15T13:25:22Z</time>
      </trkpt>
      <trkpt lat="47.62376" lon="0.52207">
        <ele>104</ele>
        <time>2020-10-15T13:25:24Z</time>
      </trkpt>
      <trkpt lat="47.62378" lon="0.52209">
        <ele>104</ele>
        <time>2020-10-15T13:25:26Z</time>
      </trkpt>
      <trkpt lat="47.62381" lon="0.52211">
        <ele>104</ele>
        <time>2020-10-15T13:25:28Z</time>
      </trkpt>
      <trkpt lat="47.62383" lon="0.52213">
        <ele>104</ele>
        <time>2020-10-15T13:25:30Z</time>
      </trkpt>
      <trkpt lat="47.62386" lon="0.52215">
        <ele>104</ele>
        <time>2020-10-15T13:25:32Z</time>
      </trkpt>
      <trkpt lat="47.62388" lon="0.52217">
        <ele>104</ele>
        <time>2020-10-15T13:25:34Z</time>
      </trkpt>
      <trkpt lat="47.62391" lon="0.52219">
        <ele>104</ele>
        <time>2020-10-15T13:25:36Z</time>
      </trkpt>
      <trkpt lat="47.62394" lon="0.52221">
        <ele>104</ele>
        <time>2020-10-15T13:25:38Z</time>
      </trkpt>
      <trkpt lat="47.62396" lon="0.52223">
        <ele>104</ele>
        <time>2020-10-15T13:25:40Z</time>
      </trkpt>
      <trkpt lat="47.62399" lon="0.52225">
        <ele>104</ele>
        <time>2020-10-15T13:25:42Z</time>
      </trkpt>
      <trkpt lat="47.62401" lon="0.52227">
        <ele>104</ele>
        <time>2020-10-15T13:25:44Z</time>
      </trkpt>
      <trkpt lat="47.62403" lon="0.52228">
        <ele>104</ele>
        <time>2020-10-15T13:25:46Z</time>
      </trkpt>
      <trkpt lat="47.62405" lon="0.5223">
        <ele>104</ele>
        <time>2020-10-15T13:25:48Z</time>
      </trkpt>
      <trkpt lat="47.62408" lon="0.52231">
        <ele>104</ele>
        <time>2020-10-15T13:25:50Z</time>
      </trkpt>
      <trkpt lat="47.6241" lon="0.52233">
        <ele>104</ele>
        <time>2020-10-15T13:25:52Z</time>
      </trkpt>
      <trkpt lat="47.62413" lon="0.52235">
        <ele>104</ele>
        <time>2020-10-15T13:25:54Z</time>
      </trkpt>
      <trkpt lat="47.62416" lon="0.52237">
        <ele>104</ele>
        <time>2020-10-15T13:25:56Z</time>
      </trkpt>
      <trkpt lat="47.62418" lon="0.52238">
        <ele>105</ele>
        <time>2020-10-15T13:25:58Z</time>
      </trkpt>
      <trkpt lat="47.6242" lon="0.5224">
        <ele>105</ele>
        <time>2020-10-15T13:26:00Z</time>
      </trkpt>
      <trkpt lat="47.62422" lon="0.52242">
        <ele>105</ele>
        <time>2020-10-15T13:26:02Z</time>
      </trkpt>
      <trkpt lat="47.62425" lon="0.52244">
        <ele>105</ele>
        <time>2020-10-15T13:26:04Z</time>
      </trkpt>
      <trkpt lat="47.62427" lon="0.52246">
        <ele>105</ele>
        <time>2020-10-15T13:26:06Z</time>
      </trkpt>
      <trkpt lat="47.62429" lon="0.52248">
        <ele>105</ele>
        <time>2020-10-15T13:26:08Z</time>
      </trkpt>
      <trkpt lat="47.62431" lon="0.5225">
        <ele>105</ele>
        <time>2020-10-15T13:26:10Z</time>
      </trkpt>
      <trkpt lat="47.62433" lon="0.52253">
        <ele>105</ele>
        <time>2020-10-15T13:26:12Z</time>
      </trkpt>
      <trkpt lat="47.62435" lon="0.52254">
        <ele>105</ele>
        <time>2020-10-15T13:26:14Z</time>
      </trkpt>
      <trkpt lat="47.62437" lon="0.52255">
        <ele>105</ele>
        <time>2020-10-15T13:26:16Z</time>
      </trkpt>
      <trkpt lat="47.62436" lon="0.52253">
        <ele>105</ele>
        <time>2020-10-15T13:26:38Z</time>
      </trkpt>
      <trkpt lat="47.62437" lon="0.52256">
        <ele>105</ele>
        <time>2020-10-15T13:26:52Z</time>
      </trkpt>
      <trkpt lat="47.62438" lon="0.52258">
        <ele>105</ele>
        <time>2020-10-15T13:26:55Z</time>
      </trkpt>
      <trkpt lat="47.6244" lon="0.52256">
        <ele>105</ele>
        <time>2020-10-15T13:26:59Z</time>
      </trkpt>
      <trkpt lat="47.62441" lon="0.5226">
        <ele>105</ele>
        <time>2020-10-15T13:27:20Z</time>
      </trkpt>
      <trkpt lat="47.62443" lon="0.52263">
        <ele>105</ele>
        <time>2020-10-15T13:27:22Z</time>
      </trkpt>
      <trkpt lat="47.62445" lon="0.52266">
        <ele>104</ele>
        <time>2020-10-15T13:27:24Z</time>
      </trkpt>
      <trkpt lat="47.62447" lon="0.52268">
        <ele>104</ele>
        <time>2020-10-15T13:27:26Z</time>
      </trkpt>
      <trkpt lat="47.62449" lon="0.5227">
        <ele>104</ele>
        <time>2020-10-15T13:27:28Z</time>
      </trkpt>
      <trkpt lat="47.62451" lon="0.52272">
        <ele>104</ele>
        <time>2020-10-15T13:27:30Z</time>
      </trkpt>
      <trkpt lat="47.62453" lon="0.52274">
        <ele>104</ele>
        <time>2020-10-15T13:27:32Z</time>
      </trkpt>
      <trkpt lat="47.62455" lon="0.52275">
        <ele>104</ele>
        <time>2020-10-15T13:27:34Z</time>
      </trkpt>
      <trkpt lat="47.62457" lon="0.52277">
        <ele>104</ele>
        <time>2020-10-15T13:27:36Z</time>
      </trkpt>
      <trkpt lat="47.6246" lon="0.52279">
        <ele>104</ele>
        <time>2020-10-15T13:27:38Z</time>
      </trkpt>
      <trkpt lat="47.62463" lon="0.52281">
        <ele>104</ele>
        <time>2020-10-15T13:27:40Z</time>
      </trkpt>
      <trkpt lat="47.62465" lon="0.52283">
        <ele>104</ele>
        <time>2020-10-15T13:27:42Z</time>
      </trkpt>
      <trkpt lat="47.62467" lon="0.52285">
        <ele>104</ele>
        <time>2020-10-15T13:27:44Z</time>
      </trkpt>
      <trkpt lat="47.62469" lon="0.52287">
        <ele>104</ele>
        <time>2020-10-15T13:27:46Z</time>
      </trkpt>
      <trkpt lat="47.62471" lon="0.52289">
        <ele>104</ele>
        <time>2020-10-15T13:27:48Z</time>
      </trkpt>
      <trkpt lat="47.62473" lon="0.52291">
        <ele>104</ele>
        <time>2020-10-15T13:27:50Z</time>
      </trkpt>
      <trkpt lat="47.62475" lon="0.52293">
        <ele>104</ele>
        <time>2020-10-15T13:27:52Z</time>
      </trkpt>
      <trkpt lat="47.62477" lon="0.52295">
        <ele>104</ele>
        <time>2020-10-15T13:27:54Z</time>
      </trkpt>
      <trkpt lat="47.62479" lon="0.52297">
        <ele>104</ele>
        <time>2020-10-15T13:27:56Z</time>
      </trkpt>
      <trkpt lat="47.6248" lon="0.52299">
        <ele>104</ele>
        <time>2020-10-15T13:27:58Z</time>
      </trkpt>
      <trkpt lat="47.62482" lon="0.52301">
        <ele>104</ele>
        <time>2020-10-15T13:28:00Z</time>
      </trkpt>
      <trkpt lat="47.62484" lon="0.52303">
        <ele>104</ele>
        <time>2020-10-15T13:28:02Z</time>
      </trkpt>
      <trkpt lat="47.62486" lon="0.52305">
        <ele>104</ele>
        <time>2020-10-15T13:28:04Z</time>
      </trkpt>
      <trkpt lat="47.62488" lon="0.52307">
        <ele>104</ele>
        <time>2020-10-15T13:28:06Z</time>
      </trkpt>
      <trkpt lat="47.6249" lon="0.52309">
        <ele>104</ele>
        <time>2020-10-15T13:28:08Z</time>
      </trkpt>
      <trkpt lat="47.62492" lon="0.52312">
        <ele>104</ele>
        <time>2020-10-15T13:28:10Z</time>
      </trkpt>
      <trkpt lat="47.62494" lon="0.52314">
        <ele>104</ele>
        <time>2020-10-15T13:28:12Z</time>
      </trkpt>
      <trkpt lat="47.62495" lon="0.52316">
        <ele>104</ele>
        <time>2020-10-15T13:28:14Z</time>
      </trkpt>
      <trkpt lat="47.62497" lon="0.52319">
        <ele>104</ele>
        <time>2020-10-15T13:28:16Z</time>
      </trkpt>
      <trkpt lat="47.62499" lon="0.52321">
        <ele>104</ele>
        <time>2020-10-15T13:28:18Z</time>
      </trkpt>
      <trkpt lat="47.62501" lon="0.52323">
        <ele>104</ele>
        <time>2020-10-15T13:28:20Z</time>
      </trkpt>
      <trkpt lat="47.62502" lon="0.52325">
        <ele>104</ele>
        <time>2020-10-15T13:28:22Z</time>
      </trkpt>
      <trkpt lat="47.62504" lon="0.52328">
        <ele>104</ele>
        <time>2020-10-15T13:28:25Z</time>
      </trkpt>
      <trkpt lat="47.62506" lon="0.5233">
        <ele>104</ele>
        <time>2020-10-15T13:28:28Z</time>
      </trkpt>
      <trkpt lat="47.62507" lon="0.52333">
        <ele>104</ele>
        <time>2020-10-15T13:28:42Z</time>
      </trkpt>
      <trkpt lat="47.62509" lon="0.52335">
        <ele>104</ele>
        <time>2020-10-15T13:28:44Z</time>
      </trkpt>
      <trkpt lat="47.6251" lon="0.52337">
        <ele>104</ele>
        <time>2020-10-15T13:28:46Z</time>
      </trkpt>
      <trkpt lat="47.62512" lon="0.5234">
        <ele>104</ele>
        <time>2020-10-15T13:28:48Z</time>
      </trkpt>
      <trkpt lat="47.62514" lon="0.52342">
        <ele>104</ele>
        <time>2020-10-15T13:28:50Z</time>
      </trkpt>
      <trkpt lat="47.62516" lon="0.52345">
        <ele>104</ele>
        <time>2020-10-15T13:28:52Z</time>
      </trkpt>
      <trkpt lat="47.62518" lon="0.52347">
        <ele>104</ele>
        <time>2020-10-15T13:28:54Z</time>
      </trkpt>
      <trkpt lat="47.62519" lon="0.5235">
        <ele>104</ele>
        <time>2020-10-15T13:28:56Z</time>
      </trkpt>
      <trkpt lat="47.62521" lon="0.52353">
        <ele>104</ele>
        <time>2020-10-15T13:28:58Z</time>
      </trkpt>
      <trkpt lat="47.62522" lon="0.52356">
        <ele>104</ele>
        <time>2020-10-15T13:29:00Z</time>
      </trkpt>
      <trkpt lat="47.62524" lon="0.52359">
        <ele>104</ele>
        <time>2020-10-15T13:29:02Z</time>
      </trkpt>
      <trkpt lat="47.62526" lon="0.52361">
        <ele>104</ele>
        <time>2020-10-15T13:29:04Z</time>
      </trkpt>
      <trkpt lat="47.62527" lon="0.52364">
        <ele>104</ele>
        <time>2020-10-15T13:29:06Z</time>
      </trkpt>
      <trkpt lat="47.62529" lon="0.52367">
        <ele>103</ele>
        <time>2020-10-15T13:29:08Z</time>
      </trkpt>
      <trkpt lat="47.62531" lon="0.5237">
        <ele>103</ele>
        <time>2020-10-15T13:29:10Z</time>
      </trkpt>
      <trkpt lat="47.62533" lon="0.52373">
        <ele>103</ele>
        <time>2020-10-15T13:29:12Z</time>
      </trkpt>
      <trkpt lat="47.62535" lon="0.52376">
        <ele>103</ele>
        <time>2020-10-15T13:29:14Z</time>
      </trkpt>
      <trkpt lat="47.62537" lon="0.52379">
        <ele>103</ele>
        <time>2020-10-15T13:29:16Z</time>
      </trkpt>
      <trkpt lat="47.62538" lon="0.52381">
        <ele>103</ele>
        <time>2020-10-15T13:29:18Z</time>
      </trkpt>
      <trkpt lat="47.6254" lon="0.52384">
        <ele>103</ele>
        <time>2020-10-15T13:29:20Z</time>
      </trkpt>
      <trkpt lat="47.62541" lon="0.52388">
        <ele>103</ele>
        <time>2020-10-15T13:29:22Z</time>
      </trkpt>
      <trkpt lat="47.62543" lon="0.5239">
        <ele>103</ele>
        <time>2020-10-15T13:29:24Z</time>
      </trkpt>
      <trkpt lat="47.62544" lon="0.52393">
        <ele>103</ele>
        <time>2020-10-15T13:29:26Z</time>
      </trkpt>
      <trkpt lat="47.62546" lon="0.52397">
        <ele>103</ele>
        <time>2020-10-15T13:29:28Z</time>
      </trkpt>
      <trkpt lat="47.62547" lon="0.524">
        <ele>103</ele>
        <time>2020-10-15T13:29:30Z</time>
      </trkpt>
      <trkpt lat="47.62549" lon="0.52403">
        <ele>103</ele>
        <time>2020-10-15T13:29:32Z</time>
      </trkpt>
      <trkpt lat="47.6255" lon="0.52406">
        <ele>103</ele>
        <time>2020-10-15T13:29:34Z</time>
      </trkpt>
      <trkpt lat="47.62551" lon="0.52409">
        <ele>103</ele>
        <time>2020-10-15T13:29:36Z</time>
      </trkpt>
      <trkpt lat="47.62553" lon="0.52412">
        <ele>103</ele>
        <time>2020-10-15T13:29:38Z</time>
      </trkpt>
      <trkpt lat="47.62553" lon="0.52415">
        <ele>103</ele>
        <time>2020-10-15T13:29:40Z</time>
      </trkpt>
      <trkpt lat="47.62555" lon="0.52419">
        <ele>103</ele>
        <time>2020-10-15T13:29:42Z</time>
      </trkpt>
      <trkpt lat="47.62556" lon="0.52422">
        <ele>103</ele>
        <time>2020-10-15T13:29:44Z</time>
      </trkpt>
      <trkpt lat="47.62558" lon="0.52425">
        <ele>103</ele>
        <time>2020-10-15T13:29:46Z</time>
      </trkpt>
      <trkpt lat="47.62558" lon="0.52428">
        <ele>103</ele>
        <time>2020-10-15T13:29:48Z</time>
      </trkpt>
      <trkpt lat="47.62559" lon="0.5243">
        <ele>103</ele>
        <time>2020-10-15T13:29:50Z</time>
      </trkpt>
      <trkpt lat="47.6256" lon="0.52433">
        <ele>103</ele>
        <time>2020-10-15T13:29:52Z</time>
      </trkpt>
      <trkpt lat="47.6256" lon="0.52437">
        <ele>103</ele>
        <time>2020-10-15T13:29:54Z</time>
      </trkpt>
      <trkpt lat="47.62561" lon="0.5244">
        <ele>103</ele>
        <time>2020-10-15T13:29:56Z</time>
      </trkpt>
      <trkpt lat="47.62562" lon="0.52444">
        <ele>103</ele>
        <time>2020-10-15T13:29:58Z</time>
      </trkpt>
      <trkpt lat="47.62563" lon="0.52448">
        <ele>103</ele>
        <time>2020-10-15T13:30:00Z</time>
      </trkpt>
      <trkpt lat="47.62564" lon="0.52451">
        <ele>103</ele>
        <time>2020-10-15T13:30:02Z</time>
      </trkpt>
      <trkpt lat="47.62565" lon="0.52455">
        <ele>103</ele>
        <time>2020-10-15T13:30:04Z</time>
      </trkpt>
      <trkpt lat="47.62567" lon="0.52459">
        <ele>103</ele>
        <time>2020-10-15T13:30:06Z</time>
      </trkpt>
      <trkpt lat="47.62568" lon="0.52463">
        <ele>103</ele>
        <time>2020-10-15T13:30:08Z</time>
      </trkpt>
      <trkpt lat="47.62569" lon="0.52466">
        <ele>103</ele>
        <time>2020-10-15T13:30:10Z</time>
      </trkpt>
      <trkpt lat="47.6257" lon="0.5247">
        <ele>103</ele>
        <time>2020-10-15T13:30:12Z</time>
      </trkpt>
      <trkpt lat="47.62571" lon="0.52474">
        <ele>102</ele>
        <time>2020-10-15T13:30:14Z</time>
      </trkpt>
      <trkpt lat="47.62572" lon="0.52478">
        <ele>102</ele>
        <time>2020-10-15T13:30:16Z</time>
      </trkpt>
      <trkpt lat="47.62572" lon="0.52481">
        <ele>102</ele>
        <time>2020-10-15T13:30:18Z</time>
      </trkpt>
      <trkpt lat="47.62573" lon="0.52485">
        <ele>102</ele>
        <time>2020-10-15T13:30:20Z</time>
      </trkpt>
      <trkpt lat="47.62574" lon="0.52488">
        <ele>102</ele>
        <time>2020-10-15T13:30:22Z</time>
      </trkpt>
      <trkpt lat="47.62575" lon="0.52491">
        <ele>102</ele>
        <time>2020-10-15T13:30:24Z</time>
      </trkpt>
      <trkpt lat="47.62576" lon="0.52495">
        <ele>102</ele>
        <time>2020-10-15T13:30:26Z</time>
      </trkpt>
      <trkpt lat="47.62577" lon="0.52499">
        <ele>102</ele>
        <time>2020-10-15T13:30:28Z</time>
      </trkpt>
      <trkpt lat="47.62577" lon="0.52503">
        <ele>102</ele>
        <time>2020-10-15T13:30:30Z</time>
      </trkpt>
      <trkpt lat="47.62578" lon="0.52506">
        <ele>102</ele>
        <time>2020-10-15T13:30:32Z</time>
      </trkpt>
      <trkpt lat="47.62579" lon="0.5251">
        <ele>102</ele>
        <time>2020-10-15T13:30:34Z</time>
      </trkpt>
      <trkpt lat="47.6258" lon="0.52514">
        <ele>102</ele>
        <time>2020-10-15T13:30:36Z</time>
      </trkpt>
      <trkpt lat="47.6258" lon="0.52517">
        <ele>102</ele>
        <time>2020-10-15T13:30:38Z</time>
      </trkpt>
      <trkpt lat="47.62581" lon="0.5252">
        <ele>102</ele>
        <time>2020-10-15T13:30:40Z</time>
      </trkpt>
      <trkpt lat="47.62582" lon="0.52524">
        <ele>102</ele>
        <time>2020-10-15T13:30:42Z</time>
      </trkpt>
      <trkpt lat="47.62583" lon="0.52528">
        <ele>102</ele>
        <time>2020-10-15T13:30:44Z</time>
      </trkpt>
      <trkpt lat="47.62584" lon="0.52532">
        <ele>102</ele>
        <time>2020-10-15T13:30:46Z</time>
      </trkpt>
      <trkpt lat="47.62584" lon="0.52536">
        <ele>102</ele>
        <time>2020-10-15T13:30:48Z</time>
      </trkpt>
      <trkpt lat="47.62585" lon="0.52539">
        <ele>102</ele>
        <time>2020-10-15T13:30:50Z</time>
      </trkpt>
      <trkpt lat="47.62586" lon="0.52543">
        <ele>102</ele>
        <time>2020-10-15T13:30:52Z</time>
      </trkpt>
      <trkpt lat="47.62587" lon="0.52546">
        <ele>102</ele>
        <time>2020-10-15T13:30:54Z</time>
      </trkpt>
      <trkpt lat="47.62587" lon="0.5255">
        <ele>102</ele>
        <time>2020-10-15T13:30:56Z</time>
      </trkpt>
      <trkpt lat="47.62588" lon="0.52553">
        <ele>102</ele>
        <time>2020-10-15T13:30:58Z</time>
      </trkpt>
      <trkpt lat="47.62589" lon="0.52557">
        <ele>102</ele>
        <time>2020-10-15T13:31:00Z</time>
      </trkpt>
      <trkpt lat="47.6259" lon="0.5256">
        <ele>102</ele>
        <time>2020-10-15T13:31:02Z</time>
      </trkpt>
      <trkpt lat="47.62591" lon="0.52564">
        <ele>102</ele>
        <time>2020-10-15T13:31:04Z</time>
      </trkpt>
      <trkpt lat="47.62592" lon="0.52567">
        <ele>102</ele>
        <time>2020-10-15T13:31:06Z</time>
      </trkpt>
      <trkpt lat="47.62592" lon="0.52571">
        <ele>102</ele>
        <time>2020-10-15T13:31:09Z</time>
      </trkpt>
      <trkpt lat="47.62594" lon="0.52574">
        <ele>102</ele>
        <time>2020-10-15T13:31:11Z</time>
      </trkpt>
      <trkpt lat="47.62595" lon="0.52577">
        <ele>102</ele>
        <time>2020-10-15T13:31:13Z</time>
      </trkpt>
      <trkpt lat="47.62596" lon="0.52581">
        <ele>102</ele>
        <time>2020-10-15T13:31:15Z</time>
      </trkpt>
      <trkpt lat="47.62597" lon="0.52585">
        <ele>103</ele>
        <time>2020-10-15T13:31:17Z</time>
      </trkpt>
      <trkpt lat="47.62598" lon="0.52589">
        <ele>103</ele>
        <time>2020-10-15T13:31:19Z</time>
      </trkpt>
      <trkpt lat="47.62599" lon="0.52592">
        <ele>103</ele>
        <time>2020-10-15T13:31:21Z</time>
      </trkpt>
      <trkpt lat="47.626" lon="0.52596">
        <ele>103</ele>
        <time>2020-10-15T13:31:23Z</time>
      </trkpt>
      <trkpt lat="47.62601" lon="0.526">
        <ele>103</ele>
        <time>2020-10-15T13:31:25Z</time>
      </trkpt>
      <trkpt lat="47.62602" lon="0.52604">
        <ele>103</ele>
        <time>2020-10-15T13:31:27Z</time>
      </trkpt>
      <trkpt lat="47.62603" lon="0.52608">
        <ele>103</ele>
        <time>2020-10-15T13:31:29Z</time>
      </trkpt>
      <trkpt lat="47.62604" lon="0.52612">
        <ele>103</ele>
        <time>2020-10-15T13:31:31Z</time>
      </trkpt>
      <trkpt lat="47.62605" lon="0.52615">
        <ele>103</ele>
        <time>2020-10-15T13:31:33Z</time>
      </trkpt>
      <trkpt lat="47.62606" lon="0.52619">
        <ele>103</ele>
        <time>2020-10-15T13:31:35Z</time>
      </trkpt>
      <trkpt lat="47.62606" lon="0.52622">
        <ele>103</ele>
        <time>2020-10-15T13:31:37Z</time>
      </trkpt>
      <trkpt lat="47.62607" lon="0.52625">
        <ele>103</ele>
        <time>2020-10-15T13:31:39Z</time>
      </trkpt>
      <trkpt lat="47.62608" lon="0.52629">
        <ele>103</ele>
        <time>2020-10-15T13:31:41Z</time>
      </trkpt>
      <trkpt lat="47.62609" lon="0.52632">
        <ele>103</ele>
        <time>2020-10-15T13:31:43Z</time>
      </trkpt>
      <trkpt lat="47.6261" lon="0.52635">
        <ele>103</ele>
        <time>2020-10-15T13:31:45Z</time>
      </trkpt>
      <trkpt lat="47.62611" lon="0.52638">
        <ele>103</ele>
        <time>2020-10-15T13:31:47Z</time>
      </trkpt>
      <trkpt lat="47.62612" lon="0.52642">
        <ele>103</ele>
        <time>2020-10-15T13:31:49Z</time>
      </trkpt>
      <trkpt lat="47.62614" lon="0.52645">
        <ele>103</ele>
        <time>2020-10-15T13:31:51Z</time>
      </trkpt>
      <trkpt lat="47.62615" lon="0.52648">
        <ele>103</ele>
        <time>2020-10-15T13:31:53Z</time>
      </trkpt>
      <trkpt lat="47.62616" lon="0.52651">
        <ele>103</ele>
        <time>2020-10-15T13:31:55Z</time>
      </trkpt>
      <trkpt lat="47.62618" lon="0.52654">
        <ele>103</ele>
        <time>2020-10-15T13:31:57Z</time>
      </trkpt>
      <trkpt lat="47.62619" lon="0.52657">
        <ele>103</ele>
        <time>2020-10-15T13:31:59Z</time>
      </trkpt>
      <trkpt lat="47.6262" lon="0.5266">
        <ele>103</ele>
        <time>2020-10-15T13:32:01Z</time>
      </trkpt>
      <trkpt lat="47.62621" lon="0.52663">
        <ele>103</ele>
        <time>2020-10-15T13:32:03Z</time>
      </trkpt>
      <trkpt lat="47.62623" lon="0.52666">
        <ele>103</ele>
        <time>2020-10-15T13:32:05Z</time>
      </trkpt>
      <trkpt lat="47.62624" lon="0.52669">
        <ele>103</ele>
        <time>2020-10-15T13:32:07Z</time>
      </trkpt>
      <trkpt lat="47.62626" lon="0.52672">
        <ele>103</ele>
        <time>2020-10-15T13:32:09Z</time>
      </trkpt>
      <trkpt lat="47.62627" lon="0.52675">
        <ele>103</ele>
        <time>2020-10-15T13:32:11Z</time>
      </trkpt>
      <trkpt lat="47.62629" lon="0.52678">
        <ele>103</ele>
        <time>2020-10-15T13:32:13Z</time>
      </trkpt>
      <trkpt lat="47.6263" lon="0.52682">
        <ele>103</ele>
        <time>2020-10-15T13:32:15Z</time>
      </trkpt>
      <trkpt lat="47.62632" lon="0.52685">
        <ele>103</ele>
        <time>2020-10-15T13:32:17Z</time>
      </trkpt>
      <trkpt lat="47.62634" lon="0.52688">
        <ele>103</ele>
        <time>2020-10-15T13:32:19Z</time>
      </trkpt>
      <trkpt lat="47.62635" lon="0.52692">
        <ele>103</ele>
        <time>2020-10-15T13:32:21Z</time>
      </trkpt>
      <trkpt lat="47.62637" lon="0.52695">
        <ele>103</ele>
        <time>2020-10-15T13:32:23Z</time>
      </trkpt>
      <trkpt lat="47.62639" lon="0.52698">
        <ele>103</ele>
        <time>2020-10-15T13:32:25Z</time>
      </trkpt>
      <trkpt lat="47.62641" lon="0.52702">
        <ele>103</ele>
        <time>2020-10-15T13:32:27Z</time>
      </trkpt>
      <trkpt lat="47.62643" lon="0.52705">
        <ele>103</ele>
        <time>2020-10-15T13:32:29Z</time>
      </trkpt>
      <trkpt lat="47.62644" lon="0.52709">
        <ele>103</ele>
        <time>2020-10-15T13:32:31Z</time>
      </trkpt>
      <trkpt lat="47.62646" lon="0.52713">
        <ele>103</ele>
        <time>2020-10-15T13:32:33Z</time>
      </trkpt>
      <trkpt lat="47.62648" lon="0.52716">
        <ele>103</ele>
        <time>2020-10-15T13:32:35Z</time>
      </trkpt>
      <trkpt lat="47.62649" lon="0.52719">
        <ele>103</ele>
        <time>2020-10-15T13:32:37Z</time>
      </trkpt>
      <trkpt lat="47.6265" lon="0.52723">
        <ele>103</ele>
        <time>2020-10-15T13:32:39Z</time>
      </trkpt>
      <trkpt lat="47.62652" lon="0.52726">
        <ele>103</ele>
        <time>2020-10-15T13:32:41Z</time>
      </trkpt>
      <trkpt lat="47.62653" lon="0.52728">
        <ele>103</ele>
        <time>2020-10-15T13:32:44Z</time>
      </trkpt>
      <trkpt lat="47.62655" lon="0.52731">
        <ele>103</ele>
        <time>2020-10-15T13:32:47Z</time>
      </trkpt>
      <trkpt lat="47.62656" lon="0.52735">
        <ele>103</ele>
        <time>2020-10-15T13:32:49Z</time>
      </trkpt>
      <trkpt lat="47.62658" lon="0.52738">
        <ele>103</ele>
        <time>2020-10-15T13:32:51Z</time>
      </trkpt>
      <trkpt lat="47.6266" lon="0.52741">
        <ele>103</ele>
        <time>2020-10-15T13:32:53Z</time>
      </trkpt>
      <trkpt lat="47.62662" lon="0.52745">
        <ele>103</ele>
        <time>2020-10-15T13:32:55Z</time>
      </trkpt>
      <trkpt lat="47.62663" lon="0.52748">
        <ele>103</ele>
        <time>2020-10-15T13:32:57Z</time>
      </trkpt>
      <trkpt lat="47.62665" lon="0.52751">
        <ele>103</ele>
        <time>2020-10-15T13:32:59Z</time>
      </trkpt>
      <trkpt lat="47.62666" lon="0.52754">
        <ele>102</ele>
        <time>2020-10-15T13:33:01Z</time>
      </trkpt>
      <trkpt lat="47.62667" lon="0.52757">
        <ele>102</ele>
        <time>2020-10-15T13:33:03Z</time>
      </trkpt>
      <trkpt lat="47.62669" lon="0.5276">
        <ele>102</ele>
        <time>2020-10-15T13:33:05Z</time>
      </trkpt>
      <trkpt lat="47.62671" lon="0.52763">
        <ele>102</ele>
        <time>2020-10-15T13:33:07Z</time>
      </trkpt>
      <trkpt lat="47.62673" lon="0.52766">
        <ele>102</ele>
        <time>2020-10-15T13:33:09Z</time>
      </trkpt>
      <trkpt lat="47.62675" lon="0.52768">
        <ele>102</ele>
        <time>2020-10-15T13:33:11Z</time>
      </trkpt>
      <trkpt lat="47.62677" lon="0.52771">
        <ele>101</ele>
        <time>2020-10-15T13:33:13Z</time>
      </trkpt>
      <trkpt lat="47.62678" lon="0.52774">
        <ele>101</ele>
        <time>2020-10-15T13:33:15Z</time>
      </trkpt>
      <trkpt lat="47.62679" lon="0.52777">
        <ele>101</ele>
        <time>2020-10-15T13:33:17Z</time>
      </trkpt>
      <trkpt lat="47.62681" lon="0.5278">
        <ele>101</ele>
        <time>2020-10-15T13:33:19Z</time>
      </trkpt>
      <trkpt lat="47.62682" lon="0.52784">
        <ele>101</ele>
        <time>2020-10-15T13:33:21Z</time>
      </trkpt>
      <trkpt lat="47.62683" lon="0.52787">
        <ele>101</ele>
        <time>2020-10-15T13:33:23Z</time>
      </trkpt>
      <trkpt lat="47.62685" lon="0.5279">
        <ele>101</ele>
        <time>2020-10-15T13:33:25Z</time>
      </trkpt>
      <trkpt lat="47.62687" lon="0.52793">
        <ele>101</ele>
        <time>2020-10-15T13:33:27Z</time>
      </trkpt>
      <trkpt lat="47.62688" lon="0.52796">
        <ele>101</ele>
        <time>2020-10-15T13:33:29Z</time>
      </trkpt>
      <trkpt lat="47.6269" lon="0.52799">
        <ele>101</ele>
        <time>2020-10-15T13:33:31Z</time>
      </trkpt>
      <trkpt lat="47.62692" lon="0.52802">
        <ele>101</ele>
        <time>2020-10-15T13:33:33Z</time>
      </trkpt>
      <trkpt lat="47.62693" lon="0.52805">
        <ele>101</ele>
        <time>2020-10-15T13:33:35Z</time>
      </trkpt>
      <trkpt lat="47.62695" lon="0.52808">
        <ele>101</ele>
        <time>2020-10-15T13:33:37Z</time>
      </trkpt>
      <trkpt lat="47.62697" lon="0.5281">
        <ele>101</ele>
        <time>2020-10-15T13:33:39Z</time>
      </trkpt>
      <trkpt lat="47.62698" lon="0.52813">
        <ele>101</ele>
        <time>2020-10-15T13:33:41Z</time>
      </trkpt>
      <trkpt lat="47.627" lon="0.52816">
        <ele>101</ele>
        <time>2020-10-15T13:33:43Z</time>
      </trkpt>
      <trkpt lat="47.62702" lon="0.52819">
        <ele>101</ele>
        <time>2020-10-15T13:33:45Z</time>
      </trkpt>
      <trkpt lat="47.62704" lon="0.52822">
        <ele>101</ele>
        <time>2020-10-15T13:33:47Z</time>
      </trkpt>
      <trkpt lat="47.62705" lon="0.52826">
        <ele>101</ele>
        <time>2020-10-15T13:33:49Z</time>
      </trkpt>
      <trkpt lat="47.62707" lon="0.52829">
        <ele>101</ele>
        <time>2020-10-15T13:33:51Z</time>
      </trkpt>
      <trkpt lat="47.62709" lon="0.52831">
        <ele>101</ele>
        <time>2020-10-15T13:33:53Z</time>
      </trkpt>
      <trkpt lat="47.62711" lon="0.52834">
        <ele>101</ele>
        <time>2020-10-15T13:33:55Z</time>
      </trkpt>
      <trkpt lat="47.62713" lon="0.52837">
        <ele>101</ele>
        <time>2020-10-15T13:33:57Z</time>
      </trkpt>
      <trkpt lat="47.62714" lon="0.5284">
        <ele>101</ele>
        <time>2020-10-15T13:33:59Z</time>
      </trkpt>
      <trkpt lat="47.62716" lon="0.52843">
        <ele>101</ele>
        <time>2020-10-15T13:34:01Z</time>
      </trkpt>
      <trkpt lat="47.62718" lon="0.52846">
        <ele>101</ele>
        <time>2020-10-15T13:34:03Z</time>
      </trkpt>
      <trkpt lat="47.6272" lon="0.52848">
        <ele>101</ele>
        <time>2020-10-15T13:34:05Z</time>
      </trkpt>
      <trkpt lat="47.62723" lon="0.52851">
        <ele>101</ele>
        <time>2020-10-15T13:34:07Z</time>
      </trkpt>
      <trkpt lat="47.62724" lon="0.52855">
        <ele>101</ele>
        <time>2020-10-15T13:34:09Z</time>
      </trkpt>
      <trkpt lat="47.62726" lon="0.52858">
        <ele>101</ele>
        <time>2020-10-15T13:34:11Z</time>
      </trkpt>
      <trkpt lat="47.62728" lon="0.52861">
        <ele>101</ele>
        <time>2020-10-15T13:34:13Z</time>
      </trkpt>
      <trkpt lat="47.62731" lon="0.52863">
        <ele>101</ele>
        <time>2020-10-15T13:34:15Z</time>
      </trkpt>
      <trkpt lat="47.62734" lon="0.52864">
        <ele>101</ele>
        <time>2020-10-15T13:34:17Z</time>
      </trkpt>
      <trkpt lat="47.62737" lon="0.52863">
        <ele>101</ele>
        <time>2020-10-15T13:34:19Z</time>
      </trkpt>
      <trkpt lat="47.6274" lon="0.52862">
        <ele>101</ele>
        <time>2020-10-15T13:34:21Z</time>
      </trkpt>
      <trkpt lat="47.62743" lon="0.5286">
        <ele>101</ele>
        <time>2020-10-15T13:34:23Z</time>
      </trkpt>
      <trkpt lat="47.62746" lon="0.52858">
        <ele>101</ele>
        <time>2020-10-15T13:34:25Z</time>
      </trkpt>
      <trkpt lat="47.62748" lon="0.52856">
        <ele>101</ele>
        <time>2020-10-15T13:34:27Z</time>
      </trkpt>
      <trkpt lat="47.62751" lon="0.52853">
        <ele>101</ele>
        <time>2020-10-15T13:34:29Z</time>
      </trkpt>
      <trkpt lat="47.62753" lon="0.5285">
        <ele>101</ele>
        <time>2020-10-15T13:34:31Z</time>
      </trkpt>
      <trkpt lat="47.62755" lon="0.52847">
        <ele>101</ele>
        <time>2020-10-15T13:34:33Z</time>
      </trkpt>
      <trkpt lat="47.62757" lon="0.52844">
        <ele>101</ele>
        <time>2020-10-15T13:34:35Z</time>
      </trkpt>
      <trkpt lat="47.62759" lon="0.52842">
        <ele>101</ele>
        <time>2020-10-15T13:34:37Z</time>
      </trkpt>
      <trkpt lat="47.62761" lon="0.52839">
        <ele>101</ele>
        <time>2020-10-15T13:34:39Z</time>
      </trkpt>
      <trkpt lat="47.62763" lon="0.52836">
        <ele>101</ele>
        <time>2020-10-15T13:34:41Z</time>
      </trkpt>
      <trkpt lat="47.62765" lon="0.52834">
        <ele>101</ele>
        <time>2020-10-15T13:34:43Z</time>
      </trkpt>
      <trkpt lat="47.62767" lon="0.52831">
        <ele>101</ele>
        <time>2020-10-15T13:34:45Z</time>
      </trkpt>
      <trkpt lat="47.62769" lon="0.52829">
        <ele>101</ele>
        <time>2020-10-15T13:34:47Z</time>
      </trkpt>
      <trkpt lat="47.62771" lon="0.52826">
        <ele>101</ele>
        <time>2020-10-15T13:34:49Z</time>
      </trkpt>
      <trkpt lat="47.62773" lon="0.52824">
        <ele>101</ele>
        <time>2020-10-15T13:34:51Z</time>
      </trkpt>
      <trkpt lat="47.62776" lon="0.52822">
        <ele>101</ele>
        <time>2020-10-15T13:34:53Z</time>
      </trkpt>
      <trkpt lat="47.62778" lon="0.52819">
        <ele>102</ele>
        <time>2020-10-15T13:34:55Z</time>
      </trkpt>
      <trkpt lat="47.6278" lon="0.52817">
        <ele>102</ele>
        <time>2020-10-15T13:34:57Z</time>
      </trkpt>
      <trkpt lat="47.62781" lon="0.52815">
        <ele>102</ele>
        <time>2020-10-15T13:34:59Z</time>
      </trkpt>
      <trkpt lat="47.62784" lon="0.52813">
        <ele>102</ele>
        <time>2020-10-15T13:35:01Z</time>
      </trkpt>
      <trkpt lat="47.62786" lon="0.5281">
        <ele>102</ele>
        <time>2020-10-15T13:35:03Z</time>
      </trkpt>
      <trkpt lat="47.62788" lon="0.52807">
        <ele>102</ele>
        <time>2020-10-15T13:35:05Z</time>
      </trkpt>
      <trkpt lat="47.6279" lon="0.52805">
        <ele>103</ele>
        <time>2020-10-15T13:35:07Z</time>
      </trkpt>
      <trkpt lat="47.62792" lon="0.52803">
        <ele>103</ele>
        <time>2020-10-15T13:35:09Z</time>
      </trkpt>
      <trkpt lat="47.62794" lon="0.528">
        <ele>103</ele>
        <time>2020-10-15T13:35:11Z</time>
      </trkpt>
      <trkpt lat="47.62796" lon="0.52797">
        <ele>103</ele>
        <time>2020-10-15T13:35:13Z</time>
      </trkpt>
      <trkpt lat="47.62797" lon="0.52795">
        <ele>103</ele>
        <time>2020-10-15T13:35:15Z</time>
      </trkpt>
      <trkpt lat="47.62799" lon="0.52794">
        <ele>103</ele>
        <time>2020-10-15T13:35:17Z</time>
      </trkpt>
      <trkpt lat="47.62801" lon="0.52792">
        <ele>103</ele>
        <time>2020-10-15T13:35:19Z</time>
      </trkpt>
      <trkpt lat="47.62803" lon="0.5279">
        <ele>103</ele>
        <time>2020-10-15T13:35:21Z</time>
      </trkpt>
      <trkpt lat="47.62805" lon="0.52788">
        <ele>103</ele>
        <time>2020-10-15T13:35:24Z</time>
      </trkpt>
      <trkpt lat="47.62806" lon="0.52786">
        <ele>103</ele>
        <time>2020-10-15T13:35:26Z</time>
      </trkpt>
      <trkpt lat="47.62807" lon="0.52784">
        <ele>103</ele>
        <time>2020-10-15T13:35:29Z</time>
      </trkpt>
      <trkpt lat="47.62807" lon="0.52781">
        <ele>103</ele>
        <time>2020-10-15T13:35:57Z</time>
      </trkpt>
      <trkpt lat="47.6281" lon="0.5278">
        <ele>103</ele>
        <time>2020-10-15T13:36:00Z</time>
      </trkpt>
      <trkpt lat="47.62811" lon="0.52778">
        <ele>103</ele>
        <time>2020-10-15T13:36:09Z</time>
      </trkpt>
      <trkpt lat="47.62813" lon="0.52777">
        <ele>103</ele>
        <time>2020-10-15T13:36:24Z</time>
      </trkpt>
      <trkpt lat="47.62815" lon="0.52776">
        <ele>103</ele>
        <time>2020-10-15T13:36:27Z</time>
      </trkpt>
      <trkpt lat="47.62817" lon="0.52773">
        <ele>103</ele>
        <time>2020-10-15T13:36:30Z</time>
      </trkpt>
      <trkpt lat="47.62819" lon="0.52772">
        <ele>103</ele>
        <time>2020-10-15T13:36:32Z</time>
      </trkpt>
      <trkpt lat="47.62821" lon="0.52769">
        <ele>103</ele>
        <time>2020-10-15T13:36:35Z</time>
      </trkpt>
      <trkpt lat="47.62823" lon="0.52768">
        <ele>103</ele>
        <time>2020-10-15T13:36:37Z</time>
      </trkpt>
      <trkpt lat="47.62825" lon="0.52767">
        <ele>103</ele>
        <time>2020-10-15T13:36:39Z</time>
      </trkpt>
      <trkpt lat="47.62827" lon="0.52765">
        <ele>103</ele>
        <time>2020-10-15T13:36:41Z</time>
      </trkpt>
      <trkpt lat="47.62828" lon="0.52763">
        <ele>103</ele>
        <time>2020-10-15T13:36:43Z</time>
      </trkpt>
      <trkpt lat="47.6283" lon="0.52762">
        <ele>103</ele>
        <time>2020-10-15T13:36:45Z</time>
      </trkpt>
      <trkpt lat="47.62832" lon="0.5276">
        <ele>103</ele>
        <time>2020-10-15T13:36:47Z</time>
      </trkpt>
      <trkpt lat="47.62833" lon="0.52758">
        <ele>103</ele>
        <time>2020-10-15T13:36:49Z</time>
      </trkpt>
      <trkpt lat="47.62835" lon="0.52757">
        <ele>103</ele>
        <time>2020-10-15T13:36:51Z</time>
      </trkpt>
      <trkpt lat="47.62837" lon="0.52755">
        <ele>103</ele>
        <time>2020-10-15T13:36:53Z</time>
      </trkpt>
      <trkpt lat="47.62838" lon="0.52754">
        <ele>103</ele>
        <time>2020-10-15T13:36:55Z</time>
      </trkpt>
      <trkpt lat="47.62841" lon="0.52753">
        <ele>103</ele>
        <time>2020-10-15T13:36:57Z</time>
      </trkpt>
      <trkpt lat="47.62843" lon="0.5275">
        <ele>103</ele>
        <time>2020-10-15T13:37:00Z</time>
      </trkpt>
      <trkpt lat="47.62844" lon="0.52749">
        <ele>103</ele>
        <time>2020-10-15T13:37:03Z</time>
      </trkpt>
      <trkpt lat="47.62846" lon="0.52746">
        <ele>103</ele>
        <time>2020-10-15T13:37:06Z</time>
      </trkpt>
      <trkpt lat="47.62849" lon="0.52745">
        <ele>103</ele>
        <time>2020-10-15T13:37:08Z</time>
      </trkpt>
      <trkpt lat="47.62851" lon="0.52742">
        <ele>103</ele>
        <time>2020-10-15T13:37:10Z</time>
      </trkpt>
      <trkpt lat="47.62853" lon="0.5274">
        <ele>103</ele>
        <time>2020-10-15T13:37:12Z</time>
      </trkpt>
      <trkpt lat="47.62855" lon="0.52737">
        <ele>103</ele>
        <time>2020-10-15T13:37:14Z</time>
      </trkpt>
      <trkpt lat="47.62857" lon="0.52735">
        <ele>103</ele>
        <time>2020-10-15T13:37:16Z</time>
      </trkpt>
      <trkpt lat="47.62859" lon="0.52733">
        <ele>103</ele>
        <time>2020-10-15T13:37:18Z</time>
      </trkpt>
      <trkpt lat="47.62861" lon="0.5273">
        <ele>103</ele>
        <time>2020-10-15T13:37:20Z</time>
      </trkpt>
      <trkpt lat="47.62863" lon="0.52728">
        <ele>103</ele>
        <time>2020-10-15T13:37:22Z</time>
      </trkpt>
      <trkpt lat="47.62864" lon="0.52726">
        <ele>103</ele>
        <time>2020-10-15T13:37:24Z</time>
      </trkpt>
      <trkpt lat="47.62866" lon="0.52724">
        <ele>103</ele>
        <time>2020-10-15T13:37:26Z</time>
      </trkpt>
      <trkpt lat="47.62866" lon="0.5272">
        <ele>104</ele>
        <time>2020-10-15T13:37:27Z</time>
      </trkpt>
      <trkpt lat="47.62866" lon="0.52717">
        <ele>104</ele>
        <time>2020-10-15T13:37:28Z</time>
      </trkpt>
      <trkpt lat="47.62866" lon="0.52714">
        <ele>104</ele>
        <time>2020-10-15T13:37:29Z</time>
      </trkpt>
      <trkpt lat="47.62868" lon="0.5271">
        <ele>104</ele>
        <time>2020-10-15T13:37:31Z</time>
      </trkpt>
      <trkpt lat="47.62869" lon="0.52707">
        <ele>104</ele>
        <time>2020-10-15T13:37:33Z</time>
      </trkpt>
      <trkpt lat="47.6287" lon="0.52702">
        <ele>104</ele>
        <time>2020-10-15T13:37:35Z</time>
      </trkpt>
      <trkpt lat="47.6287" lon="0.52699">
        <ele>104</ele>
        <time>2020-10-15T13:37:37Z</time>
      </trkpt>
      <trkpt lat="47.62871" lon="0.52695">
        <ele>104</ele>
        <time>2020-10-15T13:37:39Z</time>
      </trkpt>
      <trkpt lat="47.62872" lon="0.52692">
        <ele>105</ele>
        <time>2020-10-15T13:37:42Z</time>
      </trkpt>
      <trkpt lat="47.62873" lon="0.52689">
        <ele>105</ele>
        <time>2020-10-15T13:37:45Z</time>
      </trkpt>
      <trkpt lat="47.62873" lon="0.52686">
        <ele>105</ele>
        <time>2020-10-15T13:37:47Z</time>
      </trkpt>
      <trkpt lat="47.62872" lon="0.52683">
        <ele>105</ele>
        <time>2020-10-15T13:37:50Z</time>
      </trkpt>
      <trkpt lat="47.62871" lon="0.5268">
        <ele>105</ele>
        <time>2020-10-15T13:37:53Z</time>
      </trkpt>
      <trkpt lat="47.62869" lon="0.52678">
        <ele>105</ele>
        <time>2020-10-15T13:37:55Z</time>
      </trkpt>
      <trkpt lat="47.62868" lon="0.52676">
        <ele>105</ele>
        <time>2020-10-15T13:37:57Z</time>
      </trkpt>
      <trkpt lat="47.62867" lon="0.52673">
        <ele>105</ele>
        <time>2020-10-15T13:37:59Z</time>
      </trkpt>
      <trkpt lat="47.62865" lon="0.52671">
        <ele>105</ele>
        <time>2020-10-15T13:38:01Z</time>
      </trkpt>
      <trkpt lat="47.62864" lon="0.52669">
        <ele>105</ele>
        <time>2020-10-15T13:38:03Z</time>
      </trkpt>
      <trkpt lat="47.62863" lon="0.52666">
        <ele>105</ele>
        <time>2020-10-15T13:38:05Z</time>
      </trkpt>
      <trkpt lat="47.62862" lon="0.52663">
        <ele>105</ele>
        <time>2020-10-15T13:38:07Z</time>
      </trkpt>
      <trkpt lat="47.6286" lon="0.52659">
        <ele>105</ele>
        <time>2020-10-15T13:38:09Z</time>
      </trkpt>
      <trkpt lat="47.62859" lon="0.52655">
        <ele>105</ele>
        <time>2020-10-15T13:38:11Z</time>
      </trkpt>
      <trkpt lat="47.62857" lon="0.52651">
        <ele>105</ele>
        <time>2020-10-15T13:38:13Z</time>
      </trkpt>
      <trkpt lat="47.62856" lon="0.52647">
        <ele>105</ele>
        <time>2020-10-15T13:38:15Z</time>
      </trkpt>
      <trkpt lat="47.62854" lon="0.52644">
        <ele>105</ele>
        <time>2020-10-15T13:38:17Z</time>
      </trkpt>
      <trkpt lat="47.62853" lon="0.52641">
        <ele>105</ele>
        <time>2020-10-15T13:38:19Z</time>
      </trkpt>
      <trkpt lat="47.62852" lon="0.52637">
        <ele>105</ele>
        <time>2020-10-15T13:38:21Z</time>
      </trkpt>
      <trkpt lat="47.62852" lon="0.52634">
        <ele>105</ele>
        <time>2020-10-15T13:38:23Z</time>
      </trkpt>
      <trkpt lat="47.62851" lon="0.5263">
        <ele>105</ele>
        <time>2020-10-15T13:38:25Z</time>
      </trkpt>
      <trkpt lat="47.6285" lon="0.52627">
        <ele>105</ele>
        <time>2020-10-15T13:38:27Z</time>
      </trkpt>
      <trkpt lat="47.62849" lon="0.52623">
        <ele>105</ele>
        <time>2020-10-15T13:38:29Z</time>
      </trkpt>
      <trkpt lat="47.62847" lon="0.52619">
        <ele>105</ele>
        <time>2020-10-15T13:38:31Z</time>
      </trkpt>
      <trkpt lat="47.62846" lon="0.52615">
        <ele>105</ele>
        <time>2020-10-15T13:38:33Z</time>
      </trkpt>
      <trkpt lat="47.62845" lon="0.52612">
        <ele>105</ele>
        <time>2020-10-15T13:38:35Z</time>
      </trkpt>
      <trkpt lat="47.62843" lon="0.52609">
        <ele>105</ele>
        <time>2020-10-15T13:38:37Z</time>
      </trkpt>
      <trkpt lat="47.62842" lon="0.52606">
        <ele>105</ele>
        <time>2020-10-15T13:38:39Z</time>
      </trkpt>
      <trkpt lat="47.6284" lon="0.52603">
        <ele>105</ele>
        <time>2020-10-15T13:38:41Z</time>
      </trkpt>
      <trkpt lat="47.62839" lon="0.526">
        <ele>105</ele>
        <time>2020-10-15T13:38:43Z</time>
      </trkpt>
      <trkpt lat="47.62837" lon="0.52597">
        <ele>105</ele>
        <time>2020-10-15T13:38:45Z</time>
      </trkpt>
      <trkpt lat="47.62836" lon="0.52594">
        <ele>105</ele>
        <time>2020-10-15T13:38:47Z</time>
      </trkpt>
      <trkpt lat="47.62834" lon="0.52593">
        <ele>105</ele>
        <time>2020-10-15T13:38:49Z</time>
      </trkpt>
      <trkpt lat="47.62832" lon="0.52589">
        <ele>105</ele>
        <time>2020-10-15T13:38:51Z</time>
      </trkpt>
      <trkpt lat="47.62831" lon="0.52586">
        <ele>105</ele>
        <time>2020-10-15T13:38:53Z</time>
      </trkpt>
      <trkpt lat="47.62829" lon="0.52583">
        <ele>105</ele>
        <time>2020-10-15T13:38:55Z</time>
      </trkpt>
      <trkpt lat="47.62828" lon="0.5258">
        <ele>105</ele>
        <time>2020-10-15T13:38:57Z</time>
      </trkpt>
      <trkpt lat="47.62826" lon="0.52576">
        <ele>105</ele>
        <time>2020-10-15T13:38:59Z</time>
      </trkpt>
      <trkpt lat="47.62825" lon="0.52573">
        <ele>105</ele>
        <time>2020-10-15T13:39:01Z</time>
      </trkpt>
      <trkpt lat="47.62824" lon="0.5257">
        <ele>105</ele>
        <time>2020-10-15T13:39:03Z</time>
      </trkpt>
      <trkpt lat="47.62822" lon="0.52567">
        <ele>105</ele>
        <time>2020-10-15T13:39:05Z</time>
      </trkpt>
      <trkpt lat="47.62821" lon="0.52564">
        <ele>105</ele>
        <time>2020-10-15T13:39:07Z</time>
      </trkpt>
      <trkpt lat="47.6282" lon="0.52561">
        <ele>105</ele>
        <time>2020-10-15T13:39:09Z</time>
      </trkpt>
      <trkpt lat="47.62819" lon="0.52558">
        <ele>105</ele>
        <time>2020-10-15T13:39:11Z</time>
      </trkpt>
      <trkpt lat="47.62818" lon="0.52555">
        <ele>106</ele>
        <time>2020-10-15T13:39:13Z</time>
      </trkpt>
      <trkpt lat="47.62817" lon="0.52552">
        <ele>106</ele>
        <time>2020-10-15T13:39:15Z</time>
      </trkpt>
      <trkpt lat="47.62816" lon="0.52549">
        <ele>106</ele>
        <time>2020-10-15T13:39:17Z</time>
      </trkpt>
      <trkpt lat="47.62814" lon="0.52546">
        <ele>106</ele>
        <time>2020-10-15T13:39:19Z</time>
      </trkpt>
      <trkpt lat="47.62813" lon="0.52543">
        <ele>106</ele>
        <time>2020-10-15T13:39:21Z</time>
      </trkpt>
      <trkpt lat="47.62812" lon="0.5254">
        <ele>106</ele>
        <time>2020-10-15T13:39:23Z</time>
      </trkpt>
      <trkpt lat="47.62811" lon="0.52537">
        <ele>106</ele>
        <time>2020-10-15T13:39:25Z</time>
      </trkpt>
      <trkpt lat="47.6281" lon="0.52533">
        <ele>106</ele>
        <time>2020-10-15T13:39:27Z</time>
      </trkpt>
      <trkpt lat="47.62809" lon="0.5253">
        <ele>106</ele>
        <time>2020-10-15T13:39:29Z</time>
      </trkpt>
      <trkpt lat="47.62808" lon="0.52527">
        <ele>107</ele>
        <time>2020-10-15T13:39:31Z</time>
      </trkpt>
      <trkpt lat="47.62808" lon="0.52523">
        <ele>107</ele>
        <time>2020-10-15T13:39:33Z</time>
      </trkpt>
      <trkpt lat="47.62807" lon="0.5252">
        <ele>107</ele>
        <time>2020-10-15T13:39:35Z</time>
      </trkpt>
      <trkpt lat="47.62807" lon="0.52516">
        <ele>107</ele>
        <time>2020-10-15T13:39:37Z</time>
      </trkpt>
      <trkpt lat="47.62807" lon="0.52514">
        <ele>107</ele>
        <time>2020-10-15T13:39:39Z</time>
      </trkpt>
      <trkpt lat="47.62806" lon="0.52511">
        <ele>107</ele>
        <time>2020-10-15T13:39:41Z</time>
      </trkpt>
      <trkpt lat="47.62806" lon="0.52507">
        <ele>107</ele>
        <time>2020-10-15T13:39:43Z</time>
      </trkpt>
      <trkpt lat="47.62806" lon="0.52503">
        <ele>107</ele>
        <time>2020-10-15T13:39:45Z</time>
      </trkpt>
      <trkpt lat="47.62806" lon="0.52501">
        <ele>107</ele>
        <time>2020-10-15T13:39:47Z</time>
      </trkpt>
      <trkpt lat="47.62806" lon="0.52497">
        <ele>107</ele>
        <time>2020-10-15T13:39:49Z</time>
      </trkpt>
      <trkpt lat="47.62806" lon="0.52493">
        <ele>107</ele>
        <time>2020-10-15T13:39:51Z</time>
      </trkpt>
      <trkpt lat="47.62806" lon="0.5249">
        <ele>107</ele>
        <time>2020-10-15T13:39:53Z</time>
      </trkpt>
      <trkpt lat="47.62806" lon="0.52486">
        <ele>107</ele>
        <time>2020-10-15T13:39:55Z</time>
      </trkpt>
      <trkpt lat="47.62807" lon="0.52482">
        <ele>107</ele>
        <time>2020-10-15T13:39:57Z</time>
      </trkpt>
      <trkpt lat="47.62807" lon="0.52479">
        <ele>107</ele>
        <time>2020-10-15T13:39:59Z</time>
      </trkpt>
      <trkpt lat="47.62808" lon="0.52475">
        <ele>107</ele>
        <time>2020-10-15T13:40:01Z</time>
      </trkpt>
      <trkpt lat="47.62809" lon="0.52472">
        <ele>107</ele>
        <time>2020-10-15T13:40:03Z</time>
      </trkpt>
      <trkpt lat="47.62811" lon="0.5247">
        <ele>107</ele>
        <time>2020-10-15T13:40:10Z</time>
      </trkpt>
      <trkpt lat="47.62811" lon="0.52467">
        <ele>107</ele>
        <time>2020-10-15T13:40:12Z</time>
      </trkpt>
      <trkpt lat="47.62813" lon="0.52464">
        <ele>107</ele>
        <time>2020-10-15T13:40:14Z</time>
      </trkpt>
      <trkpt lat="47.62814" lon="0.5246">
        <ele>107</ele>
        <time>2020-10-15T13:40:16Z</time>
      </trkpt>
      <trkpt lat="47.62815" lon="0.52457">
        <ele>107</ele>
        <time>2020-10-15T13:40:18Z</time>
      </trkpt>
      <trkpt lat="47.62816" lon="0.52454">
        <ele>107</ele>
        <time>2020-10-15T13:40:20Z</time>
      </trkpt>
      <trkpt lat="47.62818" lon="0.52451">
        <ele>107</ele>
        <time>2020-10-15T13:40:22Z</time>
      </trkpt>
      <trkpt lat="47.6282" lon="0.52448">
        <ele>107</ele>
        <time>2020-10-15T13:40:24Z</time>
      </trkpt>
      <trkpt lat="47.62822" lon="0.52446">
        <ele>107</ele>
        <time>2020-10-15T13:40:26Z</time>
      </trkpt>
      <trkpt lat="47.62823" lon="0.52443">
        <ele>107</ele>
        <time>2020-10-15T13:40:28Z</time>
      </trkpt>
      <trkpt lat="47.62825" lon="0.5244">
        <ele>107</ele>
        <time>2020-10-15T13:40:30Z</time>
      </trkpt>
      <trkpt lat="47.62827" lon="0.52438">
        <ele>107</ele>
        <time>2020-10-15T13:40:32Z</time>
      </trkpt>
      <trkpt lat="47.62828" lon="0.52435">
        <ele>107</ele>
        <time>2020-10-15T13:40:34Z</time>
      </trkpt>
      <trkpt lat="47.6283" lon="0.52433">
        <ele>107</ele>
        <time>2020-10-15T13:40:36Z</time>
      </trkpt>
      <trkpt lat="47.62832" lon="0.5243">
        <ele>107</ele>
        <time>2020-10-15T13:40:38Z</time>
      </trkpt>
      <trkpt lat="47.62834" lon="0.52428">
        <ele>108</ele>
        <time>2020-10-15T13:40:40Z</time>
      </trkpt>
      <trkpt lat="47.62836" lon="0.52425">
        <ele>108</ele>
        <time>2020-10-15T13:40:42Z</time>
      </trkpt>
      <trkpt lat="47.62838" lon="0.52423">
        <ele>108</ele>
        <time>2020-10-15T13:40:44Z</time>
      </trkpt>
      <trkpt lat="47.62841" lon="0.5242">
        <ele>108</ele>
        <time>2020-10-15T13:40:46Z</time>
      </trkpt>
      <trkpt lat="47.62843" lon="0.52418">
        <ele>108</ele>
        <time>2020-10-15T13:40:48Z</time>
      </trkpt>
      <trkpt lat="47.62845" lon="0.52415">
        <ele>108</ele>
        <time>2020-10-15T13:40:50Z</time>
      </trkpt>
      <trkpt lat="47.62847" lon="0.52413">
        <ele>108</ele>
        <time>2020-10-15T13:40:52Z</time>
      </trkpt>
      <trkpt lat="47.62849" lon="0.5241">
        <ele>108</ele>
        <time>2020-10-15T13:40:54Z</time>
      </trkpt>
      <trkpt lat="47.62851" lon="0.52408">
        <ele>108</ele>
        <time>2020-10-15T13:40:56Z</time>
      </trkpt>
      <trkpt lat="47.62854" lon="0.52405">
        <ele>108</ele>
        <time>2020-10-15T13:40:58Z</time>
      </trkpt>
      <trkpt lat="47.62856" lon="0.52403">
        <ele>108</ele>
        <time>2020-10-15T13:41:00Z</time>
      </trkpt>
      <trkpt lat="47.62858" lon="0.524">
        <ele>108</ele>
        <time>2020-10-15T13:41:02Z</time>
      </trkpt>
      <trkpt lat="47.6286" lon="0.52398">
        <ele>108</ele>
        <time>2020-10-15T13:41:04Z</time>
      </trkpt>
      <trkpt lat="47.62862" lon="0.52396">
        <ele>108</ele>
        <time>2020-10-15T13:41:06Z</time>
      </trkpt>
      <trkpt lat="47.62864" lon="0.52393">
        <ele>108</ele>
        <time>2020-10-15T13:41:08Z</time>
      </trkpt>
      <trkpt lat="47.62866" lon="0.52391">
        <ele>108</ele>
        <time>2020-10-15T13:41:10Z</time>
      </trkpt>
      <trkpt lat="47.62868" lon="0.52388">
        <ele>108</ele>
        <time>2020-10-15T13:41:12Z</time>
      </trkpt>
      <trkpt lat="47.62869" lon="0.52385">
        <ele>108</ele>
        <time>2020-10-15T13:41:14Z</time>
      </trkpt>
      <trkpt lat="47.62871" lon="0.52383">
        <ele>108</ele>
        <time>2020-10-15T13:41:16Z</time>
      </trkpt>
      <trkpt lat="47.62873" lon="0.52381">
        <ele>108</ele>
        <time>2020-10-15T13:41:18Z</time>
      </trkpt>
      <trkpt lat="47.62875" lon="0.52379">
        <ele>108</ele>
        <time>2020-10-15T13:41:20Z</time>
      </trkpt>
      <trkpt lat="47.62877" lon="0.52377">
        <ele>108</ele>
        <time>2020-10-15T13:41:22Z</time>
      </trkpt>
      <trkpt lat="47.62879" lon="0.52374">
        <ele>108</ele>
        <time>2020-10-15T13:41:24Z</time>
      </trkpt>
      <trkpt lat="47.62881" lon="0.52372">
        <ele>108</ele>
        <time>2020-10-15T13:41:26Z</time>
      </trkpt>
      <trkpt lat="47.62883" lon="0.5237">
        <ele>108</ele>
        <time>2020-10-15T13:41:28Z</time>
      </trkpt>
      <trkpt lat="47.62885" lon="0.52367">
        <ele>108</ele>
        <time>2020-10-15T13:41:30Z</time>
      </trkpt>
      <trkpt lat="47.62887" lon="0.52365">
        <ele>108</ele>
        <time>2020-10-15T13:41:32Z</time>
      </trkpt>
      <trkpt lat="47.6289" lon="0.52363">
        <ele>107</ele>
        <time>2020-10-15T13:41:34Z</time>
      </trkpt>
      <trkpt lat="47.62892" lon="0.52361">
        <ele>107</ele>
        <time>2020-10-15T13:41:36Z</time>
      </trkpt>
      <trkpt lat="47.62894" lon="0.52358">
        <ele>107</ele>
        <time>2020-10-15T13:41:38Z</time>
      </trkpt>
      <trkpt lat="47.62896" lon="0.52356">
        <ele>107</ele>
        <time>2020-10-15T13:41:40Z</time>
      </trkpt>
      <trkpt lat="47.62899" lon="0.52354">
        <ele>107</ele>
        <time>2020-10-15T13:41:42Z</time>
      </trkpt>
      <trkpt lat="47.629" lon="0.52351">
        <ele>107</ele>
        <time>2020-10-15T13:41:44Z</time>
      </trkpt>
      <trkpt lat="47.62903" lon="0.52349">
        <ele>106</ele>
        <time>2020-10-15T13:41:46Z</time>
      </trkpt>
      <trkpt lat="47.62905" lon="0.52347">
        <ele>106</ele>
        <time>2020-10-15T13:41:48Z</time>
      </trkpt>
      <trkpt lat="47.62907" lon="0.52346">
        <ele>106</ele>
        <time>2020-10-15T13:41:50Z</time>
      </trkpt>
      <trkpt lat="47.62909" lon="0.52346">
        <ele>106</ele>
        <time>2020-10-15T13:41:52Z</time>
      </trkpt>
      <trkpt lat="47.62911" lon="0.52346">
        <ele>105</ele>
        <time>2020-10-15T13:41:54Z</time>
      </trkpt>
      <trkpt lat="47.62914" lon="0.52346">
        <ele>105</ele>
        <time>2020-10-15T13:41:56Z</time>
      </trkpt>
      <trkpt lat="47.62916" lon="0.52347">
        <ele>105</ele>
        <time>2020-10-15T13:41:58Z</time>
      </trkpt>
      <trkpt lat="47.62917" lon="0.52348">
        <ele>105</ele>
        <time>2020-10-15T13:42:00Z</time>
      </trkpt>
      <trkpt lat="47.6292" lon="0.52349">
        <ele>105</ele>
        <time>2020-10-15T13:42:03Z</time>
      </trkpt>
      <trkpt lat="47.62922" lon="0.5235">
        <ele>105</ele>
        <time>2020-10-15T13:42:06Z</time>
      </trkpt>
      <trkpt lat="47.62924" lon="0.52351">
        <ele>105</ele>
        <time>2020-10-15T13:42:08Z</time>
      </trkpt>
      <trkpt lat="47.62926" lon="0.52352">
        <ele>105</ele>
        <time>2020-10-15T13:42:10Z</time>
      </trkpt>
      <trkpt lat="47.62928" lon="0.52352">
        <ele>105</ele>
        <time>2020-10-15T13:42:12Z</time>
      </trkpt>
      <trkpt lat="47.6293" lon="0.52354">
        <ele>105</ele>
        <time>2020-10-15T13:42:17Z</time>
      </trkpt>
      <trkpt lat="47.62933" lon="0.52355">
        <ele>105</ele>
        <time>2020-10-15T13:42:19Z</time>
      </trkpt>
      <trkpt lat="47.62935" lon="0.52356">
        <ele>105</ele>
        <time>2020-10-15T13:42:21Z</time>
      </trkpt>
      <trkpt lat="47.62937" lon="0.52357">
        <ele>105</ele>
        <time>2020-10-15T13:42:23Z</time>
      </trkpt>
      <trkpt lat="47.62939" lon="0.52357">
        <ele>105</ele>
        <time>2020-10-15T13:42:25Z</time>
      </trkpt>
      <trkpt lat="47.62942" lon="0.52358">
        <ele>104</ele>
        <time>2020-10-15T13:42:27Z</time>
      </trkpt>
      <trkpt lat="47.62944" lon="0.52359">
        <ele>104</ele>
        <time>2020-10-15T13:42:29Z</time>
      </trkpt>
      <trkpt lat="47.62947" lon="0.5236">
        <ele>104</ele>
        <time>2020-10-15T13:42:31Z</time>
      </trkpt>
      <trkpt lat="47.6295" lon="0.5236">
        <ele>104</ele>
        <time>2020-10-15T13:42:33Z</time>
      </trkpt>
      <trkpt lat="47.62953" lon="0.52361">
        <ele>104</ele>
        <time>2020-10-15T13:42:35Z</time>
      </trkpt>
      <trkpt lat="47.62956" lon="0.52362">
        <ele>104</ele>
        <time>2020-10-15T13:42:37Z</time>
      </trkpt>
      <trkpt lat="47.62958" lon="0.52363">
        <ele>104</ele>
        <time>2020-10-15T13:42:39Z</time>
      </trkpt>
      <trkpt lat="47.62961" lon="0.52364">
        <ele>104</ele>
        <time>2020-10-15T13:42:41Z</time>
      </trkpt>
      <trkpt lat="47.62964" lon="0.52365">
        <ele>104</ele>
        <time>2020-10-15T13:42:43Z</time>
      </trkpt>
      <trkpt lat="47.62966" lon="0.52366">
        <ele>104</ele>
        <time>2020-10-15T13:42:45Z</time>
      </trkpt>
      <trkpt lat="47.62969" lon="0.52367">
        <ele>104</ele>
        <time>2020-10-15T13:42:47Z</time>
      </trkpt>
      <trkpt lat="47.62971" lon="0.52368">
        <ele>104</ele>
        <time>2020-10-15T13:42:49Z</time>
      </trkpt>
      <trkpt lat="47.62973" lon="0.52369">
        <ele>103</ele>
        <time>2020-10-15T13:42:51Z</time>
      </trkpt>
      <trkpt lat="47.62975" lon="0.5237">
        <ele>103</ele>
        <time>2020-10-15T13:42:53Z</time>
      </trkpt>
      <trkpt lat="47.62978" lon="0.52371">
        <ele>103</ele>
        <time>2020-10-15T13:42:55Z</time>
      </trkpt>
      <trkpt lat="47.62981" lon="0.52371">
        <ele>103</ele>
        <time>2020-10-15T13:42:57Z</time>
      </trkpt>
      <trkpt lat="47.62984" lon="0.52372">
        <ele>103</ele>
        <time>2020-10-15T13:42:59Z</time>
      </trkpt>
      <trkpt lat="47.62987" lon="0.52373">
        <ele>103</ele>
        <time>2020-10-15T13:43:01Z</time>
      </trkpt>
      <trkpt lat="47.62989" lon="0.52374">
        <ele>103</ele>
        <time>2020-10-15T13:43:03Z</time>
      </trkpt>
      <trkpt lat="47.62991" lon="0.52375">
        <ele>102</ele>
        <time>2020-10-15T13:43:05Z</time>
      </trkpt>
      <trkpt lat="47.62994" lon="0.52376">
        <ele>102</ele>
        <time>2020-10-15T13:43:07Z</time>
      </trkpt>
      <trkpt lat="47.62996" lon="0.52377">
        <ele>102</ele>
        <time>2020-10-15T13:43:09Z</time>
      </trkpt>
      <trkpt lat="47.62999" lon="0.52378">
        <ele>102</ele>
        <time>2020-10-15T13:43:11Z</time>
      </trkpt>
      <trkpt lat="47.63001" lon="0.52379">
        <ele>102</ele>
        <time>2020-10-15T13:43:13Z</time>
      </trkpt>
      <trkpt lat="47.63004" lon="0.5238">
        <ele>102</ele>
        <time>2020-10-15T13:43:15Z</time>
      </trkpt>
      <trkpt lat="47.63007" lon="0.5238">
        <ele>102</ele>
        <time>2020-10-15T13:43:17Z</time>
      </trkpt>
      <trkpt lat="47.6301" lon="0.5238">
        <ele>102</ele>
        <time>2020-10-15T13:43:19Z</time>
      </trkpt>
      <trkpt lat="47.63012" lon="0.52381">
        <ele>102</ele>
        <time>2020-10-15T13:43:21Z</time>
      </trkpt>
      <trkpt lat="47.63015" lon="0.52382">
        <ele>102</ele>
        <time>2020-10-15T13:43:23Z</time>
      </trkpt>
      <trkpt lat="47.63018" lon="0.52383">
        <ele>102</ele>
        <time>2020-10-15T13:43:25Z</time>
      </trkpt>
      <trkpt lat="47.63019" lon="0.52384">
        <ele>102</ele>
        <time>2020-10-15T13:43:27Z</time>
      </trkpt>
      <trkpt lat="47.63022" lon="0.52385">
        <ele>102</ele>
        <time>2020-10-15T13:43:29Z</time>
      </trkpt>
      <trkpt lat="47.63024" lon="0.52385">
        <ele>102</ele>
        <time>2020-10-15T13:43:31Z</time>
      </trkpt>
      <trkpt lat="47.63027" lon="0.52386">
        <ele>102</ele>
        <time>2020-10-15T13:43:33Z</time>
      </trkpt>
      <trkpt lat="47.6303" lon="0.52387">
        <ele>101</ele>
        <time>2020-10-15T13:43:35Z</time>
      </trkpt>
      <trkpt lat="47.63032" lon="0.52388">
        <ele>101</ele>
        <time>2020-10-15T13:43:37Z</time>
      </trkpt>
      <trkpt lat="47.63035" lon="0.52389">
        <ele>101</ele>
        <time>2020-10-15T13:43:39Z</time>
      </trkpt>
      <trkpt lat="47.63037" lon="0.52391">
        <ele>101</ele>
        <time>2020-10-15T13:43:41Z</time>
      </trkpt>
      <trkpt lat="47.6304" lon="0.52392">
        <ele>101</ele>
        <time>2020-10-15T13:43:43Z</time>
      </trkpt>
      <trkpt lat="47.63042" lon="0.52393">
        <ele>101</ele>
        <time>2020-10-15T13:43:45Z</time>
      </trkpt>
      <trkpt lat="47.63045" lon="0.52395">
        <ele>101</ele>
        <time>2020-10-15T13:43:47Z</time>
      </trkpt>
      <trkpt lat="47.63047" lon="0.52396">
        <ele>101</ele>
        <time>2020-10-15T13:43:49Z</time>
      </trkpt>
      <trkpt lat="47.63049" lon="0.52397">
        <ele>101</ele>
        <time>2020-10-15T13:43:51Z</time>
      </trkpt>
      <trkpt lat="47.63052" lon="0.52398">
        <ele>101</ele>
        <time>2020-10-15T13:43:53Z</time>
      </trkpt>
      <trkpt lat="47.63054" lon="0.52399">
        <ele>101</ele>
        <time>2020-10-15T13:43:55Z</time>
      </trkpt>
      <trkpt lat="47.63057" lon="0.524">
        <ele>101</ele>
        <time>2020-10-15T13:43:57Z</time>
      </trkpt>
      <trkpt lat="47.63059" lon="0.52401">
        <ele>101</ele>
        <time>2020-10-15T13:43:59Z</time>
      </trkpt>
      <trkpt lat="47.63062" lon="0.52402">
        <ele>101</ele>
        <time>2020-10-15T13:44:01Z</time>
      </trkpt>
      <trkpt lat="47.63065" lon="0.52403">
        <ele>101</ele>
        <time>2020-10-15T13:44:03Z</time>
      </trkpt>
      <trkpt lat="47.63067" lon="0.52404">
        <ele>101</ele>
        <time>2020-10-15T13:44:05Z</time>
      </trkpt>
      <trkpt lat="47.6307" lon="0.52405">
        <ele>101</ele>
        <time>2020-10-15T13:44:07Z</time>
      </trkpt>
      <trkpt lat="47.63072" lon="0.52406">
        <ele>101</ele>
        <time>2020-10-15T13:44:08Z</time>
      </trkpt>
      <trkpt lat="47.63075" lon="0.52407">
        <ele>101</ele>
        <time>2020-10-15T13:44:10Z</time>
      </trkpt>
      <trkpt lat="47.63078" lon="0.52408">
        <ele>101</ele>
        <time>2020-10-15T13:44:12Z</time>
      </trkpt>
      <trkpt lat="47.63081" lon="0.52409">
        <ele>101</ele>
        <time>2020-10-15T13:44:14Z</time>
      </trkpt>
      <trkpt lat="47.63083" lon="0.5241">
        <ele>101</ele>
        <time>2020-10-15T13:44:16Z</time>
      </trkpt>
      <trkpt lat="47.63086" lon="0.52411">
        <ele>100</ele>
        <time>2020-10-15T13:44:18Z</time>
      </trkpt>
      <trkpt lat="47.63089" lon="0.52412">
        <ele>100</ele>
        <time>2020-10-15T13:44:20Z</time>
      </trkpt>
      <trkpt lat="47.63092" lon="0.52413">
        <ele>100</ele>
        <time>2020-10-15T13:44:22Z</time>
      </trkpt>
      <trkpt lat="47.63094" lon="0.52413">
        <ele>100</ele>
        <time>2020-10-15T13:44:24Z</time>
      </trkpt>
      <trkpt lat="47.63096" lon="0.52413">
        <ele>100</ele>
        <time>2020-10-15T13:44:25Z</time>
      </trkpt>
      <trkpt lat="47.63099" lon="0.52414">
        <ele>100</ele>
        <time>2020-10-15T13:44:27Z</time>
      </trkpt>
      <trkpt lat="47.63102" lon="0.52414">
        <ele>100</ele>
        <time>2020-10-15T13:44:29Z</time>
      </trkpt>
      <trkpt lat="47.63104" lon="0.52416">
        <ele>100</ele>
        <time>2020-10-15T13:44:31Z</time>
      </trkpt>
      <trkpt lat="47.63107" lon="0.52417">
        <ele>100</ele>
        <time>2020-10-15T13:44:33Z</time>
      </trkpt>
      <trkpt lat="47.6311" lon="0.52418">
        <ele>100</ele>
        <time>2020-10-15T13:44:35Z</time>
      </trkpt>
      <trkpt lat="47.63112" lon="0.52419">
        <ele>100</ele>
        <time>2020-10-15T13:44:37Z</time>
      </trkpt>
      <trkpt lat="47.63115" lon="0.5242">
        <ele>100</ele>
        <time>2020-10-15T13:44:39Z</time>
      </trkpt>
      <trkpt lat="47.63117" lon="0.52421">
        <ele>100</ele>
        <time>2020-10-15T13:44:41Z</time>
      </trkpt>
      <trkpt lat="47.6312" lon="0.52422">
        <ele>100</ele>
        <time>2020-10-15T13:44:43Z</time>
      </trkpt>
      <trkpt lat="47.63123" lon="0.52423">
        <ele>100</ele>
        <time>2020-10-15T13:44:45Z</time>
      </trkpt>
      <trkpt lat="47.63126" lon="0.52425">
        <ele>100</ele>
        <time>2020-10-15T13:44:47Z</time>
      </trkpt>
      <trkpt lat="47.63129" lon="0.52426">
        <ele>100</ele>
        <time>2020-10-15T13:44:49Z</time>
      </trkpt>
      <trkpt lat="47.63131" lon="0.52427">
        <ele>100</ele>
        <time>2020-10-15T13:44:51Z</time>
      </trkpt>
      <trkpt lat="47.63134" lon="0.52428">
        <ele>100</ele>
        <time>2020-10-15T13:44:53Z</time>
      </trkpt>
      <trkpt lat="47.63136" lon="0.52428">
        <ele>100</ele>
        <time>2020-10-15T13:44:55Z</time>
      </trkpt>
      <trkpt lat="47.63139" lon="0.52429">
        <ele>99</ele>
        <time>2020-10-15T13:44:57Z</time>
      </trkpt>
      <trkpt lat="47.63142" lon="0.5243">
        <ele>99</ele>
        <time>2020-10-15T13:44:59Z</time>
      </trkpt>
      <trkpt lat="47.63144" lon="0.52431">
        <ele>99</ele>
        <time>2020-10-15T13:45:01Z</time>
      </trkpt>
      <trkpt lat="47.63147" lon="0.52432">
        <ele>99</ele>
        <time>2020-10-15T13:45:03Z</time>
      </trkpt>
      <trkpt lat="47.63151" lon="0.52433">
        <ele>99</ele>
        <time>2020-10-15T13:45:05Z</time>
      </trkpt>
      <trkpt lat="47.63153" lon="0.52435">
        <ele>99</ele>
        <time>2020-10-15T13:45:07Z</time>
      </trkpt>
      <trkpt lat="47.63157" lon="0.52436">
        <ele>99</ele>
        <time>2020-10-15T13:45:09Z</time>
      </trkpt>
      <trkpt lat="47.6316" lon="0.52436">
        <ele>99</ele>
        <time>2020-10-15T13:45:11Z</time>
      </trkpt>
      <trkpt lat="47.63163" lon="0.52437">
        <ele>99</ele>
        <time>2020-10-15T13:45:13Z</time>
      </trkpt>
      <trkpt lat="47.63166" lon="0.52438">
        <ele>99</ele>
        <time>2020-10-15T13:45:15Z</time>
      </trkpt>
      <trkpt lat="47.63169" lon="0.52439">
        <ele>99</ele>
        <time>2020-10-15T13:45:17Z</time>
      </trkpt>
      <trkpt lat="47.63172" lon="0.5244">
        <ele>99</ele>
        <time>2020-10-15T13:45:19Z</time>
      </trkpt>
      <trkpt lat="47.63176" lon="0.5244">
        <ele>99</ele>
        <time>2020-10-15T13:45:21Z</time>
      </trkpt>
      <trkpt lat="47.63179" lon="0.52442">
        <ele>99</ele>
        <time>2020-10-15T13:45:23Z</time>
      </trkpt>
      <trkpt lat="47.63182" lon="0.52442">
        <ele>99</ele>
        <time>2020-10-15T13:45:25Z</time>
      </trkpt>
      <trkpt lat="47.63185" lon="0.52443">
        <ele>99</ele>
        <time>2020-10-15T13:45:27Z</time>
      </trkpt>
      <trkpt lat="47.63188" lon="0.52444">
        <ele>99</ele>
        <time>2020-10-15T13:45:29Z</time>
      </trkpt>
      <trkpt lat="47.63191" lon="0.52445">
        <ele>100</ele>
        <time>2020-10-15T13:45:31Z</time>
      </trkpt>
      <trkpt lat="47.63193" lon="0.52446">
        <ele>100</ele>
        <time>2020-10-15T13:45:33Z</time>
      </trkpt>
      <trkpt lat="47.63196" lon="0.52447">
        <ele>99</ele>
        <time>2020-10-15T13:45:35Z</time>
      </trkpt>
      <trkpt lat="47.63199" lon="0.52448">
        <ele>99</ele>
        <time>2020-10-15T13:45:37Z</time>
      </trkpt>
      <trkpt lat="47.63202" lon="0.52449">
        <ele>99</ele>
        <time>2020-10-15T13:45:39Z</time>
      </trkpt>
      <trkpt lat="47.63205" lon="0.5245">
        <ele>99</ele>
        <time>2020-10-15T13:45:41Z</time>
      </trkpt>
      <trkpt lat="47.63209" lon="0.52451">
        <ele>99</ele>
        <time>2020-10-15T13:45:43Z</time>
      </trkpt>
      <trkpt lat="47.63211" lon="0.52451">
        <ele>99</ele>
        <time>2020-10-15T13:45:44Z</time>
      </trkpt>
      <trkpt lat="47.63214" lon="0.52452">
        <ele>99</ele>
        <time>2020-10-15T13:45:46Z</time>
      </trkpt>
      <trkpt lat="47.63217" lon="0.52453">
        <ele>99</ele>
        <time>2020-10-15T13:45:48Z</time>
      </trkpt>
      <trkpt lat="47.6322" lon="0.52455">
        <ele>99</ele>
        <time>2020-10-15T13:45:50Z</time>
      </trkpt>
      <trkpt lat="47.63222" lon="0.52456">
        <ele>99</ele>
        <time>2020-10-15T13:45:52Z</time>
      </trkpt>
      <trkpt lat="47.63225" lon="0.52456">
        <ele>98</ele>
        <time>2020-10-15T13:45:54Z</time>
      </trkpt>
      <trkpt lat="47.63227" lon="0.52458">
        <ele>98</ele>
        <time>2020-10-15T13:45:56Z</time>
      </trkpt>
      <trkpt lat="47.6323" lon="0.52459">
        <ele>98</ele>
        <time>2020-10-15T13:45:58Z</time>
      </trkpt>
      <trkpt lat="47.63233" lon="0.5246">
        <ele>98</ele>
        <time>2020-10-15T13:46:00Z</time>
      </trkpt>
      <trkpt lat="47.63235" lon="0.52462">
        <ele>98</ele>
        <time>2020-10-15T13:46:02Z</time>
      </trkpt>
      <trkpt lat="47.63238" lon="0.52462">
        <ele>98</ele>
        <time>2020-10-15T13:46:04Z</time>
      </trkpt>
      <trkpt lat="47.6324" lon="0.52463">
        <ele>98</ele>
        <time>2020-10-15T13:46:06Z</time>
      </trkpt>
      <trkpt lat="47.63243" lon="0.52464">
        <ele>98</ele>
        <time>2020-10-15T13:46:08Z</time>
      </trkpt>
      <trkpt lat="47.63246" lon="0.52466">
        <ele>98</ele>
        <time>2020-10-15T13:46:10Z</time>
      </trkpt>
      <trkpt lat="47.63249" lon="0.52467">
        <ele>98</ele>
        <time>2020-10-15T13:46:12Z</time>
      </trkpt>
      <trkpt lat="47.63253" lon="0.52468">
        <ele>97</ele>
        <time>2020-10-15T13:46:14Z</time>
      </trkpt>
      <trkpt lat="47.63256" lon="0.52469">
        <ele>97</ele>
        <time>2020-10-15T13:46:16Z</time>
      </trkpt>
      <trkpt lat="47.63259" lon="0.5247">
        <ele>97</ele>
        <time>2020-10-15T13:46:18Z</time>
      </trkpt>
      <trkpt lat="47.63262" lon="0.52471">
        <ele>97</ele>
        <time>2020-10-15T13:46:20Z</time>
      </trkpt>
      <trkpt lat="47.63265" lon="0.52472">
        <ele>97</ele>
        <time>2020-10-15T13:46:22Z</time>
      </trkpt>
      <trkpt lat="47.63268" lon="0.52473">
        <ele>97</ele>
        <time>2020-10-15T13:46:24Z</time>
      </trkpt>
      <trkpt lat="47.63272" lon="0.52475">
        <ele>97</ele>
        <time>2020-10-15T13:46:26Z</time>
      </trkpt>
      <trkpt lat="47.63275" lon="0.52476">
        <ele>97</ele>
        <time>2020-10-15T13:46:28Z</time>
      </trkpt>
      <trkpt lat="47.63278" lon="0.52477">
        <ele>97</ele>
        <time>2020-10-15T13:46:30Z</time>
      </trkpt>
      <trkpt lat="47.63281" lon="0.52479">
        <ele>97</ele>
        <time>2020-10-15T13:46:32Z</time>
      </trkpt>
      <trkpt lat="47.63283" lon="0.5248">
        <ele>97</ele>
        <time>2020-10-15T13:46:33Z</time>
      </trkpt>
      <trkpt lat="47.63286" lon="0.5248">
        <ele>97</ele>
        <time>2020-10-15T13:46:35Z</time>
      </trkpt>
      <trkpt lat="47.63289" lon="0.52482">
        <ele>97</ele>
        <time>2020-10-15T13:46:37Z</time>
      </trkpt>
      <trkpt lat="47.63292" lon="0.52483">
        <ele>97</ele>
        <time>2020-10-15T13:46:39Z</time>
      </trkpt>
      <trkpt lat="47.63296" lon="0.52484">
        <ele>97</ele>
        <time>2020-10-15T13:46:41Z</time>
      </trkpt>
      <trkpt lat="47.63297" lon="0.52484">
        <ele>97</ele>
        <time>2020-10-15T13:46:42Z</time>
      </trkpt>
      <trkpt lat="47.633" lon="0.52485">
        <ele>97</ele>
        <time>2020-10-15T13:46:44Z</time>
      </trkpt>
      <trkpt lat="47.63303" lon="0.52486">
        <ele>97</ele>
        <time>2020-10-15T13:46:46Z</time>
      </trkpt>
      <trkpt lat="47.63306" lon="0.52488">
        <ele>96</ele>
        <time>2020-10-15T13:46:48Z</time>
      </trkpt>
      <trkpt lat="47.63308" lon="0.52489">
        <ele>96</ele>
        <time>2020-10-15T13:46:49Z</time>
      </trkpt>
      <trkpt lat="47.63311" lon="0.52491">
        <ele>96</ele>
        <time>2020-10-15T13:46:51Z</time>
      </trkpt>
      <trkpt lat="47.63313" lon="0.52492">
        <ele>96</ele>
        <time>2020-10-15T13:46:53Z</time>
      </trkpt>
      <trkpt lat="47.63316" lon="0.52493">
        <ele>96</ele>
        <time>2020-10-15T13:46:55Z</time>
      </trkpt>
      <trkpt lat="47.63318" lon="0.52495">
        <ele>96</ele>
        <time>2020-10-15T13:46:57Z</time>
      </trkpt>
      <trkpt lat="47.63321" lon="0.52495">
        <ele>96</ele>
        <time>2020-10-15T13:46:59Z</time>
      </trkpt>
      <trkpt lat="47.63323" lon="0.52497">
        <ele>96</ele>
        <time>2020-10-15T13:47:01Z</time>
      </trkpt>
      <trkpt lat="47.63326" lon="0.52498">
        <ele>96</ele>
        <time>2020-10-15T13:47:03Z</time>
      </trkpt>
      <trkpt lat="47.63329" lon="0.52499">
        <ele>96</ele>
        <time>2020-10-15T13:47:05Z</time>
      </trkpt>
      <trkpt lat="47.63332" lon="0.525">
        <ele>96</ele>
        <time>2020-10-15T13:47:07Z</time>
      </trkpt>
      <trkpt lat="47.63334" lon="0.52501">
        <ele>97</ele>
        <time>2020-10-15T13:47:09Z</time>
      </trkpt>
      <trkpt lat="47.63336" lon="0.52502">
        <ele>96</ele>
        <time>2020-10-15T13:47:11Z</time>
      </trkpt>
      <trkpt lat="47.63339" lon="0.52503">
        <ele>96</ele>
        <time>2020-10-15T13:47:13Z</time>
      </trkpt>
      <trkpt lat="47.63342" lon="0.52504">
        <ele>96</ele>
        <time>2020-10-15T13:47:15Z</time>
      </trkpt>
      <trkpt lat="47.63344" lon="0.52505">
        <ele>96</ele>
        <time>2020-10-15T13:47:17Z</time>
      </trkpt>
      <trkpt lat="47.63347" lon="0.52506">
        <ele>96</ele>
        <time>2020-10-15T13:47:19Z</time>
      </trkpt>
      <trkpt lat="47.63349" lon="0.52507">
        <ele>96</ele>
        <time>2020-10-15T13:47:21Z</time>
      </trkpt>
      <trkpt lat="47.63352" lon="0.52508">
        <ele>96</ele>
        <time>2020-10-15T13:47:23Z</time>
      </trkpt>
      <trkpt lat="47.63355" lon="0.52509">
        <ele>96</ele>
        <time>2020-10-15T13:47:25Z</time>
      </trkpt>
      <trkpt lat="47.63358" lon="0.5251">
        <ele>96</ele>
        <time>2020-10-15T13:47:27Z</time>
      </trkpt>
      <trkpt lat="47.6336" lon="0.52511">
        <ele>96</ele>
        <time>2020-10-15T13:47:29Z</time>
      </trkpt>
      <trkpt lat="47.63363" lon="0.52511">
        <ele>96</ele>
        <time>2020-10-15T13:47:31Z</time>
      </trkpt>
      <trkpt lat="47.63367" lon="0.52513">
        <ele>96</ele>
        <time>2020-10-15T13:47:33Z</time>
      </trkpt>
      <trkpt lat="47.6337" lon="0.52514">
        <ele>96</ele>
        <time>2020-10-15T13:47:35Z</time>
      </trkpt>
      <trkpt lat="47.63372" lon="0.52515">
        <ele>96</ele>
        <time>2020-10-15T13:47:37Z</time>
      </trkpt>
      <trkpt lat="47.63375" lon="0.52516">
        <ele>96</ele>
        <time>2020-10-15T13:47:39Z</time>
      </trkpt>
      <trkpt lat="47.63378" lon="0.52517">
        <ele>96</ele>
        <time>2020-10-15T13:47:41Z</time>
      </trkpt>
      <trkpt lat="47.63381" lon="0.52518">
        <ele>96</ele>
        <time>2020-10-15T13:47:43Z</time>
      </trkpt>
      <trkpt lat="47.63384" lon="0.52519">
        <ele>96</ele>
        <time>2020-10-15T13:47:45Z</time>
      </trkpt>
      <trkpt lat="47.63387" lon="0.52521">
        <ele>96</ele>
        <time>2020-10-15T13:47:47Z</time>
      </trkpt>
      <trkpt lat="47.6339" lon="0.52522">
        <ele>96</ele>
        <time>2020-10-15T13:47:49Z</time>
      </trkpt>
      <trkpt lat="47.63392" lon="0.52523">
        <ele>96</ele>
        <time>2020-10-15T13:47:51Z</time>
      </trkpt>
      <trkpt lat="47.63395" lon="0.52524">
        <ele>96</ele>
        <time>2020-10-15T13:47:53Z</time>
      </trkpt>
      <trkpt lat="47.63398" lon="0.52525">
        <ele>96</ele>
        <time>2020-10-15T13:47:55Z</time>
      </trkpt>
      <trkpt lat="47.634" lon="0.52526">
        <ele>96</ele>
        <time>2020-10-15T13:47:57Z</time>
      </trkpt>
      <trkpt lat="47.63403" lon="0.52527">
        <ele>96</ele>
        <time>2020-10-15T13:47:59Z</time>
      </trkpt>
      <trkpt lat="47.63405" lon="0.52528">
        <ele>97</ele>
        <time>2020-10-15T13:48:01Z</time>
      </trkpt>
      <trkpt lat="47.63408" lon="0.52529">
        <ele>97</ele>
        <time>2020-10-15T13:48:03Z</time>
      </trkpt>
      <trkpt lat="47.6341" lon="0.5253">
        <ele>97</ele>
        <time>2020-10-15T13:48:05Z</time>
      </trkpt>
      <trkpt lat="47.63413" lon="0.52531">
        <ele>97</ele>
        <time>2020-10-15T13:48:07Z</time>
      </trkpt>
      <trkpt lat="47.63416" lon="0.52532">
        <ele>97</ele>
        <time>2020-10-15T13:48:09Z</time>
      </trkpt>
      <trkpt lat="47.63418" lon="0.52533">
        <ele>97</ele>
        <time>2020-10-15T13:48:11Z</time>
      </trkpt>
      <trkpt lat="47.63421" lon="0.52534">
        <ele>97</ele>
        <time>2020-10-15T13:48:13Z</time>
      </trkpt>
      <trkpt lat="47.63423" lon="0.52534">
        <ele>97</ele>
        <time>2020-10-15T13:48:15Z</time>
      </trkpt>
      <trkpt lat="47.63425" lon="0.52535">
        <ele>97</ele>
        <time>2020-10-15T13:48:17Z</time>
      </trkpt>
      <trkpt lat="47.63428" lon="0.52536">
        <ele>97</ele>
        <time>2020-10-15T13:48:19Z</time>
      </trkpt>
      <trkpt lat="47.63431" lon="0.52537">
        <ele>97</ele>
        <time>2020-10-15T13:48:21Z</time>
      </trkpt>
      <trkpt lat="47.63434" lon="0.52538">
        <ele>97</ele>
        <time>2020-10-15T13:48:23Z</time>
      </trkpt>
      <trkpt lat="47.63436" lon="0.5254">
        <ele>97</ele>
        <time>2020-10-15T13:48:25Z</time>
      </trkpt>
      <trkpt lat="47.63439" lon="0.5254">
        <ele>97</ele>
        <time>2020-10-15T13:48:27Z</time>
      </trkpt>
      <trkpt lat="47.63442" lon="0.52541">
        <ele>97</ele>
        <time>2020-10-15T13:48:29Z</time>
      </trkpt>
      <trkpt lat="47.63444" lon="0.52542">
        <ele>96</ele>
        <time>2020-10-15T13:48:31Z</time>
      </trkpt>
      <trkpt lat="47.63447" lon="0.52543">
        <ele>96</ele>
        <time>2020-10-15T13:48:33Z</time>
      </trkpt>
      <trkpt lat="47.63449" lon="0.52544">
        <ele>96</ele>
        <time>2020-10-15T13:48:35Z</time>
      </trkpt>
      <trkpt lat="47.63452" lon="0.52545">
        <ele>96</ele>
        <time>2020-10-15T13:48:37Z</time>
      </trkpt>
      <trkpt lat="47.63454" lon="0.52546">
        <ele>96</ele>
        <time>2020-10-15T13:48:39Z</time>
      </trkpt>
      <trkpt lat="47.63457" lon="0.52546">
        <ele>96</ele>
        <time>2020-10-15T13:48:41Z</time>
      </trkpt>
      <trkpt lat="47.63459" lon="0.52546">
        <ele>96</ele>
        <time>2020-10-15T13:48:43Z</time>
      </trkpt>
      <trkpt lat="47.63461" lon="0.52547">
        <ele>96</ele>
        <time>2020-10-15T13:48:45Z</time>
      </trkpt>
      <trkpt lat="47.63464" lon="0.52547">
        <ele>96</ele>
        <time>2020-10-15T13:48:47Z</time>
      </trkpt>
      <trkpt lat="47.63467" lon="0.52547">
        <ele>96</ele>
        <time>2020-10-15T13:48:49Z</time>
      </trkpt>
      <trkpt lat="47.6347" lon="0.52547">
        <ele>96</ele>
        <time>2020-10-15T13:48:51Z</time>
      </trkpt>
      <trkpt lat="47.63472" lon="0.52548">
        <ele>96</ele>
        <time>2020-10-15T13:48:53Z</time>
      </trkpt>
      <trkpt lat="47.63475" lon="0.52548">
        <ele>95</ele>
        <time>2020-10-15T13:48:55Z</time>
      </trkpt>
      <trkpt lat="47.63477" lon="0.52548">
        <ele>95</ele>
        <time>2020-10-15T13:48:57Z</time>
      </trkpt>
      <trkpt lat="47.6348" lon="0.52548">
        <ele>95</ele>
        <time>2020-10-15T13:48:59Z</time>
      </trkpt>
      <trkpt lat="47.63483" lon="0.52548">
        <ele>95</ele>
        <time>2020-10-15T13:49:01Z</time>
      </trkpt>
      <trkpt lat="47.63485" lon="0.52548">
        <ele>95</ele>
        <time>2020-10-15T13:49:03Z</time>
      </trkpt>
      <trkpt lat="47.63488" lon="0.52547">
        <ele>95</ele>
        <time>2020-10-15T13:49:05Z</time>
      </trkpt>
      <trkpt lat="47.63491" lon="0.52547">
        <ele>95</ele>
        <time>2020-10-15T13:49:07Z</time>
      </trkpt>
      <trkpt lat="47.63493" lon="0.52547">
        <ele>95</ele>
        <time>2020-10-15T13:49:09Z</time>
      </trkpt>
      <trkpt lat="47.63496" lon="0.52547">
        <ele>95</ele>
        <time>2020-10-15T13:49:11Z</time>
      </trkpt>
      <trkpt lat="47.63498" lon="0.52546">
        <ele>95</ele>
        <time>2020-10-15T13:49:13Z</time>
      </trkpt>
      <trkpt lat="47.63501" lon="0.52545">
        <ele>95</ele>
        <time>2020-10-15T13:49:15Z</time>
      </trkpt>
      <trkpt lat="47.63504" lon="0.52544">
        <ele>95</ele>
        <time>2020-10-15T13:49:17Z</time>
      </trkpt>
      <trkpt lat="47.63506" lon="0.52543">
        <ele>95</ele>
        <time>2020-10-15T13:49:19Z</time>
      </trkpt>
      <trkpt lat="47.63509" lon="0.52542">
        <ele>95</ele>
        <time>2020-10-15T13:49:21Z</time>
      </trkpt>
      <trkpt lat="47.63511" lon="0.52541">
        <ele>95</ele>
        <time>2020-10-15T13:49:23Z</time>
      </trkpt>
      <trkpt lat="47.63514" lon="0.5254">
        <ele>95</ele>
        <time>2020-10-15T13:49:25Z</time>
      </trkpt>
      <trkpt lat="47.63517" lon="0.52539">
        <ele>95</ele>
        <time>2020-10-15T13:49:27Z</time>
      </trkpt>
      <trkpt lat="47.63519" lon="0.52538">
        <ele>95</ele>
        <time>2020-10-15T13:49:29Z</time>
      </trkpt>
      <trkpt lat="47.63522" lon="0.52537">
        <ele>95</ele>
        <time>2020-10-15T13:49:31Z</time>
      </trkpt>
      <trkpt lat="47.63524" lon="0.52535">
        <ele>95</ele>
        <time>2020-10-15T13:49:33Z</time>
      </trkpt>
      <trkpt lat="47.63526" lon="0.52534">
        <ele>95</ele>
        <time>2020-10-15T13:49:35Z</time>
      </trkpt>
      <trkpt lat="47.63528" lon="0.52533">
        <ele>95</ele>
        <time>2020-10-15T13:49:37Z</time>
      </trkpt>
      <trkpt lat="47.6353" lon="0.52531">
        <ele>95</ele>
        <time>2020-10-15T13:49:39Z</time>
      </trkpt>
      <trkpt lat="47.63532" lon="0.52531">
        <ele>95</ele>
        <time>2020-10-15T13:49:41Z</time>
      </trkpt>
      <trkpt lat="47.63534" lon="0.5253">
        <ele>95</ele>
        <time>2020-10-15T13:49:44Z</time>
      </trkpt>
      <trkpt lat="47.63535" lon="0.52529">
        <ele>95</ele>
        <time>2020-10-15T13:49:46Z</time>
      </trkpt>
      <trkpt lat="47.63537" lon="0.52528">
        <ele>95</ele>
        <time>2020-10-15T13:49:48Z</time>
      </trkpt>
      <trkpt lat="47.63539" lon="0.52528">
        <ele>94</ele>
        <time>2020-10-15T13:49:50Z</time>
      </trkpt>
      <trkpt lat="47.63541" lon="0.52526">
        <ele>94</ele>
        <time>2020-10-15T13:49:52Z</time>
      </trkpt>
      <trkpt lat="47.63544" lon="0.52524">
        <ele>94</ele>
        <time>2020-10-15T13:49:54Z</time>
      </trkpt>
      <trkpt lat="47.63546" lon="0.52522">
        <ele>94</ele>
        <time>2020-10-15T13:49:56Z</time>
      </trkpt>
      <trkpt lat="47.63549" lon="0.5252">
        <ele>94</ele>
        <time>2020-10-15T13:49:58Z</time>
      </trkpt>
      <trkpt lat="47.63551" lon="0.52519">
        <ele>94</ele>
        <time>2020-10-15T13:50:00Z</time>
      </trkpt>
      <trkpt lat="47.63554" lon="0.52519">
        <ele>94</ele>
        <time>2020-10-15T13:50:02Z</time>
      </trkpt>
      <trkpt lat="47.63556" lon="0.52518">
        <ele>94</ele>
        <time>2020-10-15T13:50:04Z</time>
      </trkpt>
      <trkpt lat="47.63559" lon="0.52516">
        <ele>94</ele>
        <time>2020-10-15T13:50:06Z</time>
      </trkpt>
      <trkpt lat="47.63561" lon="0.52514">
        <ele>94</ele>
        <time>2020-10-15T13:50:08Z</time>
      </trkpt>
      <trkpt lat="47.63563" lon="0.52511">
        <ele>94</ele>
        <time>2020-10-15T13:50:10Z</time>
      </trkpt>
      <trkpt lat="47.63566" lon="0.5251">
        <ele>94</ele>
        <time>2020-10-15T13:50:12Z</time>
      </trkpt>
      <trkpt lat="47.63568" lon="0.52509">
        <ele>94</ele>
        <time>2020-10-15T13:50:14Z</time>
      </trkpt>
      <trkpt lat="47.63571" lon="0.52507">
        <ele>94</ele>
        <time>2020-10-15T13:50:16Z</time>
      </trkpt>
      <trkpt lat="47.63573" lon="0.52506">
        <ele>94</ele>
        <time>2020-10-15T13:50:18Z</time>
      </trkpt>
      <trkpt lat="47.63575" lon="0.52504">
        <ele>94</ele>
        <time>2020-10-15T13:50:20Z</time>
      </trkpt>
      <trkpt lat="47.63578" lon="0.52503">
        <ele>94</ele>
        <time>2020-10-15T13:50:22Z</time>
      </trkpt>
      <trkpt lat="47.6358" lon="0.52501">
        <ele>94</ele>
        <time>2020-10-15T13:50:24Z</time>
      </trkpt>
      <trkpt lat="47.63583" lon="0.52499">
        <ele>93</ele>
        <time>2020-10-15T13:50:26Z</time>
      </trkpt>
      <trkpt lat="47.63585" lon="0.52498">
        <ele>93</ele>
        <time>2020-10-15T13:50:28Z</time>
      </trkpt>
      <trkpt lat="47.63587" lon="0.52496">
        <ele>93</ele>
        <time>2020-10-15T13:50:30Z</time>
      </trkpt>
      <trkpt lat="47.6359" lon="0.52495">
        <ele>93</ele>
        <time>2020-10-15T13:50:32Z</time>
      </trkpt>
      <trkpt lat="47.63592" lon="0.52493">
        <ele>93</ele>
        <time>2020-10-15T13:50:34Z</time>
      </trkpt>
      <trkpt lat="47.63594" lon="0.52492">
        <ele>93</ele>
        <time>2020-10-15T13:50:36Z</time>
      </trkpt>
      <trkpt lat="47.63596" lon="0.52491">
        <ele>93</ele>
        <time>2020-10-15T13:50:38Z</time>
      </trkpt>
      <trkpt lat="47.636" lon="0.5249">
        <ele>93</ele>
        <time>2020-10-15T13:50:40Z</time>
      </trkpt>
      <trkpt lat="47.63602" lon="0.52487">
        <ele>93</ele>
        <time>2020-10-15T13:50:42Z</time>
      </trkpt>
      <trkpt lat="47.63604" lon="0.52486">
        <ele>93</ele>
        <time>2020-10-15T13:50:44Z</time>
      </trkpt>
      <trkpt lat="47.63607" lon="0.52485">
        <ele>93</ele>
        <time>2020-10-15T13:50:46Z</time>
      </trkpt>
      <trkpt lat="47.63609" lon="0.52483">
        <ele>93</ele>
        <time>2020-10-15T13:50:48Z</time>
      </trkpt>
      <trkpt lat="47.63611" lon="0.5248">
        <ele>93</ele>
        <time>2020-10-15T13:50:50Z</time>
      </trkpt>
      <trkpt lat="47.63614" lon="0.52479">
        <ele>93</ele>
        <time>2020-10-15T13:50:52Z</time>
      </trkpt>
      <trkpt lat="47.63617" lon="0.52477">
        <ele>92</ele>
        <time>2020-10-15T13:50:54Z</time>
      </trkpt>
      <trkpt lat="47.63619" lon="0.52475">
        <ele>92</ele>
        <time>2020-10-15T13:50:56Z</time>
      </trkpt>
      <trkpt lat="47.63621" lon="0.52473">
        <ele>92</ele>
        <time>2020-10-15T13:50:58Z</time>
      </trkpt>
      <trkpt lat="47.63623" lon="0.52471">
        <ele>92</ele>
        <time>2020-10-15T13:51:00Z</time>
      </trkpt>
      <trkpt lat="47.63626" lon="0.52469">
        <ele>92</ele>
        <time>2020-10-15T13:51:02Z</time>
      </trkpt>
      <trkpt lat="47.63628" lon="0.52467">
        <ele>92</ele>
        <time>2020-10-15T13:51:04Z</time>
      </trkpt>
      <trkpt lat="47.63631" lon="0.52466">
        <ele>91</ele>
        <time>2020-10-15T13:51:06Z</time>
      </trkpt>
      <trkpt lat="47.63633" lon="0.52464">
        <ele>91</ele>
        <time>2020-10-15T13:51:08Z</time>
      </trkpt>
      <trkpt lat="47.63636" lon="0.52463">
        <ele>91</ele>
        <time>2020-10-15T13:51:10Z</time>
      </trkpt>
      <trkpt lat="47.63639" lon="0.52462">
        <ele>91</ele>
        <time>2020-10-15T13:51:12Z</time>
      </trkpt>
      <trkpt lat="47.63641" lon="0.52461">
        <ele>91</ele>
        <time>2020-10-15T13:51:14Z</time>
      </trkpt>
      <trkpt lat="47.63643" lon="0.52459">
        <ele>91</ele>
        <time>2020-10-15T13:51:16Z</time>
      </trkpt>
      <trkpt lat="47.63646" lon="0.52457">
        <ele>91</ele>
        <time>2020-10-15T13:51:18Z</time>
      </trkpt>
      <trkpt lat="47.63648" lon="0.52456">
        <ele>92</ele>
        <time>2020-10-15T13:51:20Z</time>
      </trkpt>
      <trkpt lat="47.6365" lon="0.52454">
        <ele>92</ele>
        <time>2020-10-15T13:51:22Z</time>
      </trkpt>
      <trkpt lat="47.63652" lon="0.52452">
        <ele>92</ele>
        <time>2020-10-15T13:51:24Z</time>
      </trkpt>
      <trkpt lat="47.63655" lon="0.5245">
        <ele>92</ele>
        <time>2020-10-15T13:51:26Z</time>
      </trkpt>
      <trkpt lat="47.63657" lon="0.52447">
        <ele>92</ele>
        <time>2020-10-15T13:51:28Z</time>
      </trkpt>
      <trkpt lat="47.6366" lon="0.52445">
        <ele>92</ele>
        <time>2020-10-15T13:51:30Z</time>
      </trkpt>
      <trkpt lat="47.63662" lon="0.52443">
        <ele>92</ele>
        <time>2020-10-15T13:51:32Z</time>
      </trkpt>
      <trkpt lat="47.63665" lon="0.52441">
        <ele>92</ele>
        <time>2020-10-15T13:51:34Z</time>
      </trkpt>
      <trkpt lat="47.63668" lon="0.5244">
        <ele>92</ele>
        <time>2020-10-15T13:51:36Z</time>
      </trkpt>
      <trkpt lat="47.63671" lon="0.52438">
        <ele>92</ele>
        <time>2020-10-15T13:51:38Z</time>
      </trkpt>
      <trkpt lat="47.63673" lon="0.52436">
        <ele>92</ele>
        <time>2020-10-15T13:51:40Z</time>
      </trkpt>
      <trkpt lat="47.63676" lon="0.52435">
        <ele>92</ele>
        <time>2020-10-15T13:51:42Z</time>
      </trkpt>
      <trkpt lat="47.63678" lon="0.52434">
        <ele>93</ele>
        <time>2020-10-15T13:51:44Z</time>
      </trkpt>
      <trkpt lat="47.63681" lon="0.52433">
        <ele>93</ele>
        <time>2020-10-15T13:51:46Z</time>
      </trkpt>
      <trkpt lat="47.63684" lon="0.52431">
        <ele>93</ele>
        <time>2020-10-15T13:51:48Z</time>
      </trkpt>
      <trkpt lat="47.63686" lon="0.52429">
        <ele>93</ele>
        <time>2020-10-15T13:51:50Z</time>
      </trkpt>
      <trkpt lat="47.63688" lon="0.52426">
        <ele>93</ele>
        <time>2020-10-15T13:51:52Z</time>
      </trkpt>
      <trkpt lat="47.6369" lon="0.52424">
        <ele>93</ele>
        <time>2020-10-15T13:51:54Z</time>
      </trkpt>
      <trkpt lat="47.63693" lon="0.52422">
        <ele>93</ele>
        <time>2020-10-15T13:51:56Z</time>
      </trkpt>
      <trkpt lat="47.63695" lon="0.5242">
        <ele>93</ele>
        <time>2020-10-15T13:51:58Z</time>
      </trkpt>
      <trkpt lat="47.63698" lon="0.52419">
        <ele>93</ele>
        <time>2020-10-15T13:52:00Z</time>
      </trkpt>
      <trkpt lat="47.63701" lon="0.52417">
        <ele>93</ele>
        <time>2020-10-15T13:52:02Z</time>
      </trkpt>
      <trkpt lat="47.63703" lon="0.52415">
        <ele>93</ele>
        <time>2020-10-15T13:52:04Z</time>
      </trkpt>
      <trkpt lat="47.63706" lon="0.52414">
        <ele>93</ele>
        <time>2020-10-15T13:52:06Z</time>
      </trkpt>
      <trkpt lat="47.63707" lon="0.52413">
        <ele>93</ele>
        <time>2020-10-15T13:52:08Z</time>
      </trkpt>
      <trkpt lat="47.63708" lon="0.52411">
        <ele>92</ele>
        <time>2020-10-15T13:52:11Z</time>
      </trkpt>
      <trkpt lat="47.6371" lon="0.5241">
        <ele>92</ele>
        <time>2020-10-15T13:52:13Z</time>
      </trkpt>
      <trkpt lat="47.63713" lon="0.52409">
        <ele>92</ele>
        <time>2020-10-15T13:52:15Z</time>
      </trkpt>
      <trkpt lat="47.63716" lon="0.52408">
        <ele>92</ele>
        <time>2020-10-15T13:52:17Z</time>
      </trkpt>
      <trkpt lat="47.63719" lon="0.52407">
        <ele>92</ele>
        <time>2020-10-15T13:52:19Z</time>
      </trkpt>
      <trkpt lat="47.63721" lon="0.52405">
        <ele>92</ele>
        <time>2020-10-15T13:52:21Z</time>
      </trkpt>
      <trkpt lat="47.63724" lon="0.52403">
        <ele>92</ele>
        <time>2020-10-15T13:52:23Z</time>
      </trkpt>
      <trkpt lat="47.63726" lon="0.52402">
        <ele>92</ele>
        <time>2020-10-15T13:52:25Z</time>
      </trkpt>
      <trkpt lat="47.6373" lon="0.52401">
        <ele>92</ele>
        <time>2020-10-15T13:52:27Z</time>
      </trkpt>
      <trkpt lat="47.63732" lon="0.52399">
        <ele>92</ele>
        <time>2020-10-15T13:52:29Z</time>
      </trkpt>
      <trkpt lat="47.63734" lon="0.52397">
        <ele>92</ele>
        <time>2020-10-15T13:52:31Z</time>
      </trkpt>
      <trkpt lat="47.63737" lon="0.52396">
        <ele>92</ele>
        <time>2020-10-15T13:52:33Z</time>
      </trkpt>
      <trkpt lat="47.6374" lon="0.52395">
        <ele>92</ele>
        <time>2020-10-15T13:52:35Z</time>
      </trkpt>
      <trkpt lat="47.63743" lon="0.52393">
        <ele>92</ele>
        <time>2020-10-15T13:52:37Z</time>
      </trkpt>
      <trkpt lat="47.63746" lon="0.52392">
        <ele>92</ele>
        <time>2020-10-15T13:52:39Z</time>
      </trkpt>
      <trkpt lat="47.63749" lon="0.52391">
        <ele>92</ele>
        <time>2020-10-15T13:52:41Z</time>
      </trkpt>
      <trkpt lat="47.63752" lon="0.52391">
        <ele>92</ele>
        <time>2020-10-15T13:52:43Z</time>
      </trkpt>
      <trkpt lat="47.63754" lon="0.5239">
        <ele>92</ele>
        <time>2020-10-15T13:52:45Z</time>
      </trkpt>
      <trkpt lat="47.63757" lon="0.52389">
        <ele>92</ele>
        <time>2020-10-15T13:52:47Z</time>
      </trkpt>
      <trkpt lat="47.6376" lon="0.52389">
        <ele>91</ele>
        <time>2020-10-15T13:52:49Z</time>
      </trkpt>
      <trkpt lat="47.63762" lon="0.52388">
        <ele>91</ele>
        <time>2020-10-15T13:52:51Z</time>
      </trkpt>
      <trkpt lat="47.63765" lon="0.52387">
        <ele>91</ele>
        <time>2020-10-15T13:52:53Z</time>
      </trkpt>
      <trkpt lat="47.63768" lon="0.52387">
        <ele>91</ele>
        <time>2020-10-15T13:52:55Z</time>
      </trkpt>
      <trkpt lat="47.63772" lon="0.52386">
        <ele>91</ele>
        <time>2020-10-15T13:52:57Z</time>
      </trkpt>
      <trkpt lat="47.63774" lon="0.52386">
        <ele>91</ele>
        <time>2020-10-15T13:52:59Z</time>
      </trkpt>
      <trkpt lat="47.63778" lon="0.52386">
        <ele>91</ele>
        <time>2020-10-15T13:53:01Z</time>
      </trkpt>
      <trkpt lat="47.63781" lon="0.52386">
        <ele>91</ele>
        <time>2020-10-15T13:53:03Z</time>
      </trkpt>
      <trkpt lat="47.63784" lon="0.52387">
        <ele>91</ele>
        <time>2020-10-15T13:53:05Z</time>
      </trkpt>
      <trkpt lat="47.63788" lon="0.52388">
        <ele>91</ele>
        <time>2020-10-15T13:53:07Z</time>
      </trkpt>
      <trkpt lat="47.63791" lon="0.52388">
        <ele>91</ele>
        <time>2020-10-15T13:53:09Z</time>
      </trkpt>
      <trkpt lat="47.63794" lon="0.52388">
        <ele>91</ele>
        <time>2020-10-15T13:53:11Z</time>
      </trkpt>
      <trkpt lat="47.63797" lon="0.52388">
        <ele>91</ele>
        <time>2020-10-15T13:53:13Z</time>
      </trkpt>
      <trkpt lat="47.638" lon="0.52388">
        <ele>91</ele>
        <time>2020-10-15T13:53:15Z</time>
      </trkpt>
      <trkpt lat="47.63803" lon="0.52389">
        <ele>91</ele>
        <time>2020-10-15T13:53:17Z</time>
      </trkpt>
      <trkpt lat="47.63806" lon="0.52389">
        <ele>91</ele>
        <time>2020-10-15T13:53:19Z</time>
      </trkpt>
      <trkpt lat="47.63808" lon="0.52388">
        <ele>91</ele>
        <time>2020-10-15T13:53:21Z</time>
      </trkpt>
      <trkpt lat="47.63811" lon="0.52388">
        <ele>91</ele>
        <time>2020-10-15T13:53:23Z</time>
      </trkpt>
      <trkpt lat="47.63813" lon="0.52388">
        <ele>91</ele>
        <time>2020-10-15T13:53:25Z</time>
      </trkpt>
      <trkpt lat="47.63816" lon="0.52388">
        <ele>91</ele>
        <time>2020-10-15T13:53:27Z</time>
      </trkpt>
      <trkpt lat="47.63819" lon="0.52388">
        <ele>91</ele>
        <time>2020-10-15T13:53:29Z</time>
      </trkpt>
      <trkpt lat="47.63822" lon="0.52388">
        <ele>91</ele>
        <time>2020-10-15T13:53:31Z</time>
      </trkpt>
      <trkpt lat="47.63824" lon="0.52389">
        <ele>91</ele>
        <time>2020-10-15T13:53:33Z</time>
      </trkpt>
      <trkpt lat="47.63827" lon="0.52389">
        <ele>91</ele>
        <time>2020-10-15T13:53:35Z</time>
      </trkpt>
      <trkpt lat="47.6383" lon="0.52389">
        <ele>91</ele>
        <time>2020-10-15T13:53:37Z</time>
      </trkpt>
      <trkpt lat="47.63833" lon="0.52389">
        <ele>91</ele>
        <time>2020-10-15T13:53:39Z</time>
      </trkpt>
      <trkpt lat="47.63835" lon="0.52389">
        <ele>90</ele>
        <time>2020-10-15T13:53:41Z</time>
      </trkpt>
      <trkpt lat="47.63838" lon="0.5239">
        <ele>90</ele>
        <time>2020-10-15T13:53:43Z</time>
      </trkpt>
      <trkpt lat="47.63841" lon="0.5239">
        <ele>90</ele>
        <time>2020-10-15T13:53:45Z</time>
      </trkpt>
      <trkpt lat="47.63844" lon="0.5239">
        <ele>90</ele>
        <time>2020-10-15T13:53:47Z</time>
      </trkpt>
      <trkpt lat="47.63847" lon="0.5239">
        <ele>90</ele>
        <time>2020-10-15T13:53:49Z</time>
      </trkpt>
      <trkpt lat="47.63849" lon="0.52392">
        <ele>90</ele>
        <time>2020-10-15T13:53:51Z</time>
      </trkpt>
      <trkpt lat="47.63852" lon="0.52393">
        <ele>90</ele>
        <time>2020-10-15T13:53:53Z</time>
      </trkpt>
      <trkpt lat="47.63856" lon="0.52394">
        <ele>90</ele>
        <time>2020-10-15T13:53:55Z</time>
      </trkpt>
      <trkpt lat="47.63858" lon="0.52394">
        <ele>90</ele>
        <time>2020-10-15T13:53:57Z</time>
      </trkpt>
      <trkpt lat="47.63861" lon="0.52395">
        <ele>90</ele>
        <time>2020-10-15T13:53:59Z</time>
      </trkpt>
      <trkpt lat="47.63864" lon="0.52396">
        <ele>90</ele>
        <time>2020-10-15T13:54:01Z</time>
      </trkpt>
      <trkpt lat="47.63866" lon="0.52397">
        <ele>90</ele>
        <time>2020-10-15T13:54:03Z</time>
      </trkpt>
      <trkpt lat="47.63868" lon="0.52398">
        <ele>90</ele>
        <time>2020-10-15T13:54:05Z</time>
      </trkpt>
      <trkpt lat="47.63871" lon="0.52399">
        <ele>89</ele>
        <time>2020-10-15T13:54:07Z</time>
      </trkpt>
      <trkpt lat="47.63874" lon="0.524">
        <ele>89</ele>
        <time>2020-10-15T13:54:09Z</time>
      </trkpt>
      <trkpt lat="47.63877" lon="0.52401">
        <ele>89</ele>
        <time>2020-10-15T13:54:11Z</time>
      </trkpt>
      <trkpt lat="47.63879" lon="0.52403">
        <ele>89</ele>
        <time>2020-10-15T13:54:13Z</time>
      </trkpt>
      <trkpt lat="47.63881" lon="0.52406">
        <ele>89</ele>
        <time>2020-10-15T13:54:15Z</time>
      </trkpt>
      <trkpt lat="47.63883" lon="0.5241">
        <ele>89</ele>
        <time>2020-10-15T13:54:17Z</time>
      </trkpt>
      <trkpt lat="47.63884" lon="0.52414">
        <ele>90</ele>
        <time>2020-10-15T13:54:19Z</time>
      </trkpt>
      <trkpt lat="47.63883" lon="0.52417">
        <ele>90</ele>
        <time>2020-10-15T13:54:21Z</time>
      </trkpt>
      <trkpt lat="47.63882" lon="0.52419">
        <ele>90</ele>
        <time>2020-10-15T13:54:23Z</time>
      </trkpt>
      <trkpt lat="47.6388" lon="0.5242">
        <ele>90</ele>
        <time>2020-10-15T13:54:25Z</time>
      </trkpt>
      <trkpt lat="47.63878" lon="0.52421">
        <ele>90</ele>
        <time>2020-10-15T13:54:28Z</time>
      </trkpt>
      <trkpt lat="47.63876" lon="0.52423">
        <ele>90</ele>
        <time>2020-10-15T13:54:32Z</time>
      </trkpt>
      <trkpt lat="47.63876" lon="0.52426">
        <ele>90</ele>
        <time>2020-10-15T13:54:45Z</time>
      </trkpt>
      <trkpt lat="47.63877" lon="0.52423">
        <ele>90</ele>
        <time>2020-10-15T13:55:04Z</time>
      </trkpt>
      <trkpt lat="47.63879" lon="0.5242">
        <ele>90</ele>
        <time>2020-10-15T13:55:06Z</time>
      </trkpt>
      <trkpt lat="47.63882" lon="0.52419">
        <ele>90</ele>
        <time>2020-10-15T13:55:08Z</time>
      </trkpt>
      <trkpt lat="47.63885" lon="0.52419">
        <ele>90</ele>
        <time>2020-10-15T13:55:10Z</time>
      </trkpt>
      <trkpt lat="47.63886" lon="0.52422">
        <ele>90</ele>
        <time>2020-10-15T13:55:11Z</time>
      </trkpt>
      <trkpt lat="47.63888" lon="0.52423">
        <ele>90</ele>
        <time>2020-10-15T13:55:12Z</time>
      </trkpt>
      <trkpt lat="47.63889" lon="0.52425">
        <ele>89</ele>
        <time>2020-10-15T13:55:13Z</time>
      </trkpt>
      <trkpt lat="47.63891" lon="0.52429">
        <ele>89</ele>
        <time>2020-10-15T13:55:15Z</time>
      </trkpt>
      <trkpt lat="47.63893" lon="0.52432">
        <ele>89</ele>
        <time>2020-10-15T13:55:17Z</time>
      </trkpt>
      <trkpt lat="47.63895" lon="0.52436">
        <ele>89</ele>
        <time>2020-10-15T13:55:19Z</time>
      </trkpt>
      <trkpt lat="47.63896" lon="0.52439">
        <ele>89</ele>
        <time>2020-10-15T13:55:21Z</time>
      </trkpt>
      <trkpt lat="47.63897" lon="0.52442">
        <ele>89</ele>
        <time>2020-10-15T13:55:23Z</time>
      </trkpt>
      <trkpt lat="47.63898" lon="0.52445">
        <ele>89</ele>
        <time>2020-10-15T13:55:25Z</time>
      </trkpt>
      <trkpt lat="47.63898" lon="0.52448">
        <ele>89</ele>
        <time>2020-10-15T13:55:28Z</time>
      </trkpt>
      <trkpt lat="47.63899" lon="0.52451">
        <ele>89</ele>
        <time>2020-10-15T13:55:30Z</time>
      </trkpt>
      <trkpt lat="47.639" lon="0.52454">
        <ele>89</ele>
        <time>2020-10-15T13:55:32Z</time>
      </trkpt>
      <trkpt lat="47.63898" lon="0.52456">
        <ele>89</ele>
        <time>2020-10-15T13:55:40Z</time>
      </trkpt>
      <trkpt lat="47.639" lon="0.52459">
        <ele>89</ele>
        <time>2020-10-15T13:55:43Z</time>
      </trkpt>
      <trkpt lat="47.639" lon="0.52462">
        <ele>88</ele>
        <time>2020-10-15T13:55:45Z</time>
      </trkpt>
      <trkpt lat="47.63901" lon="0.52465">
        <ele>88</ele>
        <time>2020-10-15T13:55:48Z</time>
      </trkpt>
      <trkpt lat="47.63902" lon="0.52468">
        <ele>88</ele>
        <time>2020-10-15T13:56:03Z</time>
      </trkpt>
      <trkpt lat="47.63903" lon="0.5247">
        <ele>88</ele>
        <time>2020-10-15T13:56:06Z</time>
      </trkpt>
      <trkpt lat="47.63904" lon="0.52473">
        <ele>88</ele>
        <time>2020-10-15T13:56:10Z</time>
      </trkpt>
      <trkpt lat="47.63905" lon="0.52476">
        <ele>88</ele>
        <time>2020-10-15T13:56:13Z</time>
      </trkpt>
      <trkpt lat="47.63906" lon="0.52479">
        <ele>88</ele>
        <time>2020-10-15T13:56:16Z</time>
      </trkpt>
      <trkpt lat="47.63907" lon="0.52482">
        <ele>88</ele>
        <time>2020-10-15T13:56:19Z</time>
      </trkpt>
      <trkpt lat="47.63909" lon="0.52486">
        <ele>88</ele>
        <time>2020-10-15T13:56:22Z</time>
      </trkpt>
      <trkpt lat="47.63909" lon="0.52488">
        <ele>87</ele>
        <time>2020-10-15T13:56:24Z</time>
      </trkpt>
      <trkpt lat="47.6391" lon="0.52491">
        <ele>87</ele>
        <time>2020-10-15T13:56:26Z</time>
      </trkpt>
      <trkpt lat="47.63911" lon="0.52494">
        <ele>87</ele>
        <time>2020-10-15T13:56:28Z</time>
      </trkpt>
      <trkpt lat="47.63912" lon="0.52497">
        <ele>87</ele>
        <time>2020-10-15T13:56:30Z</time>
      </trkpt>
      <trkpt lat="47.63913" lon="0.525">
        <ele>87</ele>
        <time>2020-10-15T13:56:32Z</time>
      </trkpt>
      <trkpt lat="47.63914" lon="0.52502">
        <ele>87</ele>
        <time>2020-10-15T13:56:34Z</time>
      </trkpt>
      <trkpt lat="47.63916" lon="0.52505">
        <ele>87</ele>
        <time>2020-10-15T13:56:36Z</time>
      </trkpt>
      <trkpt lat="47.63917" lon="0.52508">
        <ele>86</ele>
        <time>2020-10-15T13:56:38Z</time>
      </trkpt>
      <trkpt lat="47.63918" lon="0.52511">
        <ele>86</ele>
        <time>2020-10-15T13:56:40Z</time>
      </trkpt>
      <trkpt lat="47.63919" lon="0.52514">
        <ele>86</ele>
        <time>2020-10-15T13:56:42Z</time>
      </trkpt>
      <trkpt lat="47.63919" lon="0.52517">
        <ele>86</ele>
        <time>2020-10-15T13:56:44Z</time>
      </trkpt>
      <trkpt lat="47.63921" lon="0.52521">
        <ele>86</ele>
        <time>2020-10-15T13:56:46Z</time>
      </trkpt>
      <trkpt lat="47.63922" lon="0.52524">
        <ele>86</ele>
        <time>2020-10-15T13:56:48Z</time>
      </trkpt>
      <trkpt lat="47.63923" lon="0.52527">
        <ele>86</ele>
        <time>2020-10-15T13:56:50Z</time>
      </trkpt>
      <trkpt lat="47.63924" lon="0.52531">
        <ele>86</ele>
        <time>2020-10-15T13:56:52Z</time>
      </trkpt>
      <trkpt lat="47.63925" lon="0.52534">
        <ele>86</ele>
        <time>2020-10-15T13:56:54Z</time>
      </trkpt>
      <trkpt lat="47.63926" lon="0.52537">
        <ele>86</ele>
        <time>2020-10-15T13:56:56Z</time>
      </trkpt>
      <trkpt lat="47.63927" lon="0.5254">
        <ele>86</ele>
        <time>2020-10-15T13:56:58Z</time>
      </trkpt>
      <trkpt lat="47.63928" lon="0.52543">
        <ele>86</ele>
        <time>2020-10-15T13:57:00Z</time>
      </trkpt>
      <trkpt lat="47.63929" lon="0.52547">
        <ele>85</ele>
        <time>2020-10-15T13:57:02Z</time>
      </trkpt>
      <trkpt lat="47.6393" lon="0.5255">
        <ele>85</ele>
        <time>2020-10-15T13:57:04Z</time>
      </trkpt>
      <trkpt lat="47.63931" lon="0.52553">
        <ele>85</ele>
        <time>2020-10-15T13:57:06Z</time>
      </trkpt>
      <trkpt lat="47.63933" lon="0.52556">
        <ele>85</ele>
        <time>2020-10-15T13:57:08Z</time>
      </trkpt>
      <trkpt lat="47.63934" lon="0.52559">
        <ele>85</ele>
        <time>2020-10-15T13:57:10Z</time>
      </trkpt>
      <trkpt lat="47.63935" lon="0.52563">
        <ele>85</ele>
        <time>2020-10-15T13:57:12Z</time>
      </trkpt>
      <trkpt lat="47.63936" lon="0.52566">
        <ele>84</ele>
        <time>2020-10-15T13:57:14Z</time>
      </trkpt>
      <trkpt lat="47.63937" lon="0.52569">
        <ele>84</ele>
        <time>2020-10-15T13:57:16Z</time>
      </trkpt>
      <trkpt lat="47.63939" lon="0.52572">
        <ele>84</ele>
        <time>2020-10-15T13:57:18Z</time>
      </trkpt>
      <trkpt lat="47.6394" lon="0.52576">
        <ele>84</ele>
        <time>2020-10-15T13:57:20Z</time>
      </trkpt>
      <trkpt lat="47.63941" lon="0.5258">
        <ele>84</ele>
        <time>2020-10-15T13:57:22Z</time>
      </trkpt>
      <trkpt lat="47.63942" lon="0.52584">
        <ele>84</ele>
        <time>2020-10-15T13:57:24Z</time>
      </trkpt>
      <trkpt lat="47.63943" lon="0.52587">
        <ele>83</ele>
        <time>2020-10-15T13:57:26Z</time>
      </trkpt>
      <trkpt lat="47.63944" lon="0.52591">
        <ele>83</ele>
        <time>2020-10-15T13:57:28Z</time>
      </trkpt>
      <trkpt lat="47.63945" lon="0.52595">
        <ele>83</ele>
        <time>2020-10-15T13:57:30Z</time>
      </trkpt>
      <trkpt lat="47.63946" lon="0.52599">
        <ele>82</ele>
        <time>2020-10-15T13:57:32Z</time>
      </trkpt>
      <trkpt lat="47.63947" lon="0.52603">
        <ele>82</ele>
        <time>2020-10-15T13:57:34Z</time>
      </trkpt>
      <trkpt lat="47.63948" lon="0.52607">
        <ele>82</ele>
        <time>2020-10-15T13:57:36Z</time>
      </trkpt>
      <trkpt lat="47.63949" lon="0.5261">
        <ele>82</ele>
        <time>2020-10-15T13:57:38Z</time>
      </trkpt>
      <trkpt lat="47.6395" lon="0.52614">
        <ele>82</ele>
        <time>2020-10-15T13:57:40Z</time>
      </trkpt>
      <trkpt lat="47.63952" lon="0.52618">
        <ele>82</ele>
        <time>2020-10-15T13:57:42Z</time>
      </trkpt>
      <trkpt lat="47.63953" lon="0.52622">
        <ele>82</ele>
        <time>2020-10-15T13:57:44Z</time>
      </trkpt>
      <trkpt lat="47.63954" lon="0.52625">
        <ele>82</ele>
        <time>2020-10-15T13:57:46Z</time>
      </trkpt>
      <trkpt lat="47.63955" lon="0.52628">
        <ele>82</ele>
        <time>2020-10-15T13:57:48Z</time>
      </trkpt>
      <trkpt lat="47.63957" lon="0.52633">
        <ele>82</ele>
        <time>2020-10-15T13:57:50Z</time>
      </trkpt>
      <trkpt lat="47.63958" lon="0.52637">
        <ele>82</ele>
        <time>2020-10-15T13:57:52Z</time>
      </trkpt>
      <trkpt lat="47.63959" lon="0.52641">
        <ele>82</ele>
        <time>2020-10-15T13:57:54Z</time>
      </trkpt>
      <trkpt lat="47.6396" lon="0.52644">
        <ele>82</ele>
        <time>2020-10-15T13:57:56Z</time>
      </trkpt>
      <trkpt lat="47.6396" lon="0.52647">
        <ele>82</ele>
        <time>2020-10-15T13:57:58Z</time>
      </trkpt>
      <trkpt lat="47.63961" lon="0.52651">
        <ele>82</ele>
        <time>2020-10-15T13:58:00Z</time>
      </trkpt>
      <trkpt lat="47.63962" lon="0.52655">
        <ele>82</ele>
        <time>2020-10-15T13:58:02Z</time>
      </trkpt>
      <trkpt lat="47.63963" lon="0.52659">
        <ele>82</ele>
        <time>2020-10-15T13:58:04Z</time>
      </trkpt>
      <trkpt lat="47.63964" lon="0.52662">
        <ele>82</ele>
        <time>2020-10-15T13:58:06Z</time>
      </trkpt>
      <trkpt lat="47.63965" lon="0.52666">
        <ele>82</ele>
        <time>2020-10-15T13:58:08Z</time>
      </trkpt>
      <trkpt lat="47.63966" lon="0.5267">
        <ele>82</ele>
        <time>2020-10-15T13:58:10Z</time>
      </trkpt>
      <trkpt lat="47.63967" lon="0.52673">
        <ele>82</ele>
        <time>2020-10-15T13:58:12Z</time>
      </trkpt>
      <trkpt lat="47.63968" lon="0.52677">
        <ele>82</ele>
        <time>2020-10-15T13:58:14Z</time>
      </trkpt>
      <trkpt lat="47.63968" lon="0.52681">
        <ele>83</ele>
        <time>2020-10-15T13:58:16Z</time>
      </trkpt>
      <trkpt lat="47.63969" lon="0.52684">
        <ele>83</ele>
        <time>2020-10-15T13:58:18Z</time>
      </trkpt>
      <trkpt lat="47.6397" lon="0.52687">
        <ele>83</ele>
        <time>2020-10-15T13:58:20Z</time>
      </trkpt>
      <trkpt lat="47.63971" lon="0.52691">
        <ele>83</ele>
        <time>2020-10-15T13:58:22Z</time>
      </trkpt>
      <trkpt lat="47.63972" lon="0.52694">
        <ele>83</ele>
        <time>2020-10-15T13:58:24Z</time>
      </trkpt>
      <trkpt lat="47.63973" lon="0.52698">
        <ele>84</ele>
        <time>2020-10-15T13:58:26Z</time>
      </trkpt>
      <trkpt lat="47.63974" lon="0.52701">
        <ele>84</ele>
        <time>2020-10-15T13:58:28Z</time>
      </trkpt>
      <trkpt lat="47.63976" lon="0.52704">
        <ele>84</ele>
        <time>2020-10-15T13:58:30Z</time>
      </trkpt>
      <trkpt lat="47.63977" lon="0.52708">
        <ele>84</ele>
        <time>2020-10-15T13:58:32Z</time>
      </trkpt>
      <trkpt lat="47.63979" lon="0.52711">
        <ele>84</ele>
        <time>2020-10-15T13:58:34Z</time>
      </trkpt>
      <trkpt lat="47.63981" lon="0.52714">
        <ele>84</ele>
        <time>2020-10-15T13:58:36Z</time>
      </trkpt>
      <trkpt lat="47.63984" lon="0.52716">
        <ele>84</ele>
        <time>2020-10-15T13:58:38Z</time>
      </trkpt>
      <trkpt lat="47.63986" lon="0.52718">
        <ele>83</ele>
        <time>2020-10-15T13:58:40Z</time>
      </trkpt>
      <trkpt lat="47.63988" lon="0.52719">
        <ele>83</ele>
        <time>2020-10-15T13:58:42Z</time>
      </trkpt>
      <trkpt lat="47.63991" lon="0.52721">
        <ele>83</ele>
        <time>2020-10-15T13:58:44Z</time>
      </trkpt>
      <trkpt lat="47.63993" lon="0.52722">
        <ele>83</ele>
        <time>2020-10-15T13:58:46Z</time>
      </trkpt>
      <trkpt lat="47.63995" lon="0.52724">
        <ele>83</ele>
        <time>2020-10-15T13:58:48Z</time>
      </trkpt>
      <trkpt lat="47.63997" lon="0.52725">
        <ele>83</ele>
        <time>2020-10-15T13:58:50Z</time>
      </trkpt>
      <trkpt lat="47.64" lon="0.52726">
        <ele>82</ele>
        <time>2020-10-15T13:58:52Z</time>
      </trkpt>
      <trkpt lat="47.64003" lon="0.52726">
        <ele>82</ele>
        <time>2020-10-15T13:58:54Z</time>
      </trkpt>
      <trkpt lat="47.64005" lon="0.52726">
        <ele>82</ele>
        <time>2020-10-15T13:58:56Z</time>
      </trkpt>
      <trkpt lat="47.64008" lon="0.52726">
        <ele>82</ele>
        <time>2020-10-15T13:58:58Z</time>
      </trkpt>
      <trkpt lat="47.6401" lon="0.52725">
        <ele>82</ele>
        <time>2020-10-15T13:59:00Z</time>
      </trkpt>
      <trkpt lat="47.64012" lon="0.52726">
        <ele>82</ele>
        <time>2020-10-15T13:59:02Z</time>
      </trkpt>
      <trkpt lat="47.64015" lon="0.52726">
        <ele>82</ele>
        <time>2020-10-15T13:59:04Z</time>
      </trkpt>
      <trkpt lat="47.64017" lon="0.52726">
        <ele>82</ele>
        <time>2020-10-15T13:59:06Z</time>
      </trkpt>
      <trkpt lat="47.6402" lon="0.52726">
        <ele>82</ele>
        <time>2020-10-15T13:59:08Z</time>
      </trkpt>
      <trkpt lat="47.64023" lon="0.52726">
        <ele>82</ele>
        <time>2020-10-15T13:59:10Z</time>
      </trkpt>
      <trkpt lat="47.64025" lon="0.52726">
        <ele>82</ele>
        <time>2020-10-15T13:59:13Z</time>
      </trkpt>
      <trkpt lat="47.64027" lon="0.52728">
        <ele>82</ele>
        <time>2020-10-15T13:59:31Z</time>
      </trkpt>
      <trkpt lat="47.64029" lon="0.5273">
        <ele>82</ele>
        <time>2020-10-15T13:59:33Z</time>
      </trkpt>
      <trkpt lat="47.64031" lon="0.52731">
        <ele>82</ele>
        <time>2020-10-15T13:59:35Z</time>
      </trkpt>
      <trkpt lat="47.64034" lon="0.52732">
        <ele>82</ele>
        <time>2020-10-15T13:59:37Z</time>
      </trkpt>
      <trkpt lat="47.64036" lon="0.52733">
        <ele>82</ele>
        <time>2020-10-15T13:59:39Z</time>
      </trkpt>
      <trkpt lat="47.64038" lon="0.52734">
        <ele>82</ele>
        <time>2020-10-15T13:59:41Z</time>
      </trkpt>
      <trkpt lat="47.64041" lon="0.52735">
        <ele>81</ele>
        <time>2020-10-15T13:59:43Z</time>
      </trkpt>
      <trkpt lat="47.64043" lon="0.52736">
        <ele>81</ele>
        <time>2020-10-15T13:59:45Z</time>
      </trkpt>
      <trkpt lat="47.64045" lon="0.52737">
        <ele>81</ele>
        <time>2020-10-15T13:59:47Z</time>
      </trkpt>
      <trkpt lat="47.64047" lon="0.52739">
        <ele>81</ele>
        <time>2020-10-15T13:59:49Z</time>
      </trkpt>
      <trkpt lat="47.64049" lon="0.5274">
        <ele>81</ele>
        <time>2020-10-15T13:59:51Z</time>
      </trkpt>
      <trkpt lat="47.64051" lon="0.52742">
        <ele>81</ele>
        <time>2020-10-15T13:59:53Z</time>
      </trkpt>
      <trkpt lat="47.64053" lon="0.52744">
        <ele>81</ele>
        <time>2020-10-15T13:59:55Z</time>
      </trkpt>
      <trkpt lat="47.64054" lon="0.52746">
        <ele>81</ele>
        <time>2020-10-15T13:59:57Z</time>
      </trkpt>
      <trkpt lat="47.64056" lon="0.52748">
        <ele>81</ele>
        <time>2020-10-15T13:59:59Z</time>
      </trkpt>
      <trkpt lat="47.64058" lon="0.5275">
        <ele>81</ele>
        <time>2020-10-15T14:00:01Z</time>
      </trkpt>
      <trkpt lat="47.6406" lon="0.52752">
        <ele>81</ele>
        <time>2020-10-15T14:00:03Z</time>
      </trkpt>
      <trkpt lat="47.64062" lon="0.52754">
        <ele>81</ele>
        <time>2020-10-15T14:00:05Z</time>
      </trkpt>
      <trkpt lat="47.64065" lon="0.52756">
        <ele>81</ele>
        <time>2020-10-15T14:00:07Z</time>
      </trkpt>
      <trkpt lat="47.64067" lon="0.52758">
        <ele>81</ele>
        <time>2020-10-15T14:00:09Z</time>
      </trkpt>
      <trkpt lat="47.64069" lon="0.5276">
        <ele>81</ele>
        <time>2020-10-15T14:00:11Z</time>
      </trkpt>
      <trkpt lat="47.64071" lon="0.52763">
        <ele>81</ele>
        <time>2020-10-15T14:00:13Z</time>
      </trkpt>
      <trkpt lat="47.64073" lon="0.52766">
        <ele>81</ele>
        <time>2020-10-15T14:00:15Z</time>
      </trkpt>
      <trkpt lat="47.64075" lon="0.52768">
        <ele>81</ele>
        <time>2020-10-15T14:00:17Z</time>
      </trkpt>
      <trkpt lat="47.64077" lon="0.5277">
        <ele>81</ele>
        <time>2020-10-15T14:00:19Z</time>
      </trkpt>
      <trkpt lat="47.64079" lon="0.52773">
        <ele>81</ele>
        <time>2020-10-15T14:00:21Z</time>
      </trkpt>
      <trkpt lat="47.64081" lon="0.52775">
        <ele>81</ele>
        <time>2020-10-15T14:00:23Z</time>
      </trkpt>
      <trkpt lat="47.64083" lon="0.52777">
        <ele>81</ele>
        <time>2020-10-15T14:00:25Z</time>
      </trkpt>
      <trkpt lat="47.64085" lon="0.5278">
        <ele>82</ele>
        <time>2020-10-15T14:00:27Z</time>
      </trkpt>
      <trkpt lat="47.64088" lon="0.52782">
        <ele>82</ele>
        <time>2020-10-15T14:00:29Z</time>
      </trkpt>
      <trkpt lat="47.6409" lon="0.52785">
        <ele>82</ele>
        <time>2020-10-15T14:00:31Z</time>
      </trkpt>
      <trkpt lat="47.64092" lon="0.52788">
        <ele>82</ele>
        <time>2020-10-15T14:00:33Z</time>
      </trkpt>
      <trkpt lat="47.64094" lon="0.5279">
        <ele>82</ele>
        <time>2020-10-15T14:00:35Z</time>
      </trkpt>
      <trkpt lat="47.64097" lon="0.52792">
        <ele>82</ele>
        <time>2020-10-15T14:00:37Z</time>
      </trkpt>
      <trkpt lat="47.64099" lon="0.52794">
        <ele>82</ele>
        <time>2020-10-15T14:00:39Z</time>
      </trkpt>
      <trkpt lat="47.64101" lon="0.52796">
        <ele>82</ele>
        <time>2020-10-15T14:00:41Z</time>
      </trkpt>
      <trkpt lat="47.64104" lon="0.52798">
        <ele>82</ele>
        <time>2020-10-15T14:00:43Z</time>
      </trkpt>
      <trkpt lat="47.64107" lon="0.52799">
        <ele>82</ele>
        <time>2020-10-15T14:00:45Z</time>
      </trkpt>
      <trkpt lat="47.64109" lon="0.528">
        <ele>81</ele>
        <time>2020-10-15T14:00:47Z</time>
      </trkpt>
      <trkpt lat="47.64112" lon="0.52801">
        <ele>81</ele>
        <time>2020-10-15T14:00:49Z</time>
      </trkpt>
      <trkpt lat="47.64114" lon="0.52802">
        <ele>81</ele>
        <time>2020-10-15T14:00:51Z</time>
      </trkpt>
      <trkpt lat="47.64117" lon="0.52802">
        <ele>81</ele>
        <time>2020-10-15T14:00:53Z</time>
      </trkpt>
      <trkpt lat="47.64119" lon="0.52803">
        <ele>81</ele>
        <time>2020-10-15T14:00:55Z</time>
      </trkpt>
      <trkpt lat="47.64122" lon="0.52804">
        <ele>80</ele>
        <time>2020-10-15T14:00:57Z</time>
      </trkpt>
      <trkpt lat="47.64125" lon="0.52804">
        <ele>80</ele>
        <time>2020-10-15T14:00:59Z</time>
      </trkpt>
      <trkpt lat="47.64128" lon="0.52804">
        <ele>80</ele>
        <time>2020-10-15T14:01:01Z</time>
      </trkpt>
      <trkpt lat="47.6413" lon="0.52804">
        <ele>79</ele>
        <time>2020-10-15T14:01:03Z</time>
      </trkpt>
      <trkpt lat="47.64133" lon="0.52804">
        <ele>79</ele>
        <time>2020-10-15T14:01:05Z</time>
      </trkpt>
      <trkpt lat="47.64135" lon="0.52804">
        <ele>79</ele>
        <time>2020-10-15T14:01:07Z</time>
      </trkpt>
      <trkpt lat="47.64138" lon="0.52803">
        <ele>79</ele>
        <time>2020-10-15T14:01:09Z</time>
      </trkpt>
      <trkpt lat="47.64141" lon="0.52803">
        <ele>78</ele>
        <time>2020-10-15T14:01:11Z</time>
      </trkpt>
      <trkpt lat="47.64143" lon="0.52802">
        <ele>78</ele>
        <time>2020-10-15T14:01:13Z</time>
      </trkpt>
      <trkpt lat="47.64146" lon="0.52802">
        <ele>77</ele>
        <time>2020-10-15T14:01:15Z</time>
      </trkpt>
      <trkpt lat="47.64149" lon="0.52801">
        <ele>77</ele>
        <time>2020-10-15T14:01:17Z</time>
      </trkpt>
      <trkpt lat="47.64151" lon="0.52801">
        <ele>77</ele>
        <time>2020-10-15T14:01:19Z</time>
      </trkpt>
      <trkpt lat="47.64154" lon="0.528">
        <ele>76</ele>
        <time>2020-10-15T14:01:21Z</time>
      </trkpt>
      <trkpt lat="47.64157" lon="0.528">
        <ele>76</ele>
        <time>2020-10-15T14:01:23Z</time>
      </trkpt>
      <trkpt lat="47.64159" lon="0.52799">
        <ele>76</ele>
        <time>2020-10-15T14:01:25Z</time>
      </trkpt>
      <trkpt lat="47.64162" lon="0.52799">
        <ele>75</ele>
        <time>2020-10-15T14:01:27Z</time>
      </trkpt>
      <trkpt lat="47.64164" lon="0.52798">
        <ele>75</ele>
        <time>2020-10-15T14:01:29Z</time>
      </trkpt>
      <trkpt lat="47.64167" lon="0.52798">
        <ele>74</ele>
        <time>2020-10-15T14:01:31Z</time>
      </trkpt>
      <trkpt lat="47.6417" lon="0.52797">
        <ele>74</ele>
        <time>2020-10-15T14:01:33Z</time>
      </trkpt>
      <trkpt lat="47.64172" lon="0.52797">
        <ele>74</ele>
        <time>2020-10-15T14:01:35Z</time>
      </trkpt>
      <trkpt lat="47.64175" lon="0.52797">
        <ele>74</ele>
        <time>2020-10-15T14:01:37Z</time>
      </trkpt>
      <trkpt lat="47.64178" lon="0.52796">
        <ele>74</ele>
        <time>2020-10-15T14:01:39Z</time>
      </trkpt>
      <trkpt lat="47.64181" lon="0.52795">
        <ele>74</ele>
        <time>2020-10-15T14:01:41Z</time>
      </trkpt>
      <trkpt lat="47.64183" lon="0.52795">
        <ele>73</ele>
        <time>2020-10-15T14:01:43Z</time>
      </trkpt>
      <trkpt lat="47.64186" lon="0.52794">
        <ele>73</ele>
        <time>2020-10-15T14:01:45Z</time>
      </trkpt>
      <trkpt lat="47.64188" lon="0.52793">
        <ele>73</ele>
        <time>2020-10-15T14:01:47Z</time>
      </trkpt>
      <trkpt lat="47.64191" lon="0.52792">
        <ele>73</ele>
        <time>2020-10-15T14:01:49Z</time>
      </trkpt>
      <trkpt lat="47.64194" lon="0.52791">
        <ele>72</ele>
        <time>2020-10-15T14:01:51Z</time>
      </trkpt>
      <trkpt lat="47.64196" lon="0.52789">
        <ele>72</ele>
        <time>2020-10-15T14:01:53Z</time>
      </trkpt>
      <trkpt lat="47.64199" lon="0.52788">
        <ele>72</ele>
        <time>2020-10-15T14:01:55Z</time>
      </trkpt>
      <trkpt lat="47.64202" lon="0.52787">
        <ele>72</ele>
        <time>2020-10-15T14:01:57Z</time>
      </trkpt>
      <trkpt lat="47.64204" lon="0.52786">
        <ele>72</ele>
        <time>2020-10-15T14:01:59Z</time>
      </trkpt>
      <trkpt lat="47.64207" lon="0.52785">
        <ele>72</ele>
        <time>2020-10-15T14:02:01Z</time>
      </trkpt>
      <trkpt lat="47.64209" lon="0.52783">
        <ele>72</ele>
        <time>2020-10-15T14:02:03Z</time>
      </trkpt>
      <trkpt lat="47.64212" lon="0.52782">
        <ele>72</ele>
        <time>2020-10-15T14:02:05Z</time>
      </trkpt>
      <trkpt lat="47.64214" lon="0.52781">
        <ele>72</ele>
        <time>2020-10-15T14:02:07Z</time>
      </trkpt>
      <trkpt lat="47.64216" lon="0.52781">
        <ele>72</ele>
        <time>2020-10-15T14:02:09Z</time>
      </trkpt>
      <trkpt lat="47.64219" lon="0.5278">
        <ele>72</ele>
        <time>2020-10-15T14:02:11Z</time>
      </trkpt>
      <trkpt lat="47.64222" lon="0.52779">
        <ele>72</ele>
        <time>2020-10-15T14:02:13Z</time>
      </trkpt>
      <trkpt lat="47.64225" lon="0.52778">
        <ele>71</ele>
        <time>2020-10-15T14:02:15Z</time>
      </trkpt>
      <trkpt lat="47.64228" lon="0.52777">
        <ele>71</ele>
        <time>2020-10-15T14:02:17Z</time>
      </trkpt>
      <trkpt lat="47.6423" lon="0.52776">
        <ele>71</ele>
        <time>2020-10-15T14:02:19Z</time>
      </trkpt>
      <trkpt lat="47.64233" lon="0.52775">
        <ele>71</ele>
        <time>2020-10-15T14:02:21Z</time>
      </trkpt>
      <trkpt lat="47.64235" lon="0.52774">
        <ele>71</ele>
        <time>2020-10-15T14:02:23Z</time>
      </trkpt>
      <trkpt lat="47.64237" lon="0.52774">
        <ele>71</ele>
        <time>2020-10-15T14:02:25Z</time>
      </trkpt>
      <trkpt lat="47.6424" lon="0.52773">
        <ele>71</ele>
        <time>2020-10-15T14:02:27Z</time>
      </trkpt>
      <trkpt lat="47.64243" lon="0.52772">
        <ele>71</ele>
        <time>2020-10-15T14:02:29Z</time>
      </trkpt>
      <trkpt lat="47.64245" lon="0.52772">
        <ele>71</ele>
        <time>2020-10-15T14:02:31Z</time>
      </trkpt>
      <trkpt lat="47.64248" lon="0.5277">
        <ele>71</ele>
        <time>2020-10-15T14:02:33Z</time>
      </trkpt>
      <trkpt lat="47.64251" lon="0.52769">
        <ele>70</ele>
        <time>2020-10-15T14:02:35Z</time>
      </trkpt>
      <trkpt lat="47.64253" lon="0.52769">
        <ele>70</ele>
        <time>2020-10-15T14:02:37Z</time>
      </trkpt>
      <trkpt lat="47.64256" lon="0.52768">
        <ele>70</ele>
        <time>2020-10-15T14:02:39Z</time>
      </trkpt>
      <trkpt lat="47.64259" lon="0.52767">
        <ele>70</ele>
        <time>2020-10-15T14:02:41Z</time>
      </trkpt>
      <trkpt lat="47.64262" lon="0.52766">
        <ele>70</ele>
        <time>2020-10-15T14:02:43Z</time>
      </trkpt>
      <trkpt lat="47.64265" lon="0.52766">
        <ele>70</ele>
        <time>2020-10-15T14:02:45Z</time>
      </trkpt>
      <trkpt lat="47.64268" lon="0.52764">
        <ele>70</ele>
        <time>2020-10-15T14:02:47Z</time>
      </trkpt>
      <trkpt lat="47.6427" lon="0.52763">
        <ele>70</ele>
        <time>2020-10-15T14:02:49Z</time>
      </trkpt>
      <trkpt lat="47.64273" lon="0.52763">
        <ele>70</ele>
        <time>2020-10-15T14:02:51Z</time>
      </trkpt>
      <trkpt lat="47.64275" lon="0.52762">
        <ele>70</ele>
        <time>2020-10-15T14:02:53Z</time>
      </trkpt>
      <trkpt lat="47.64278" lon="0.52761">
        <ele>70</ele>
        <time>2020-10-15T14:02:55Z</time>
      </trkpt>
      <trkpt lat="47.64281" lon="0.5276">
        <ele>70</ele>
        <time>2020-10-15T14:02:57Z</time>
      </trkpt>
      <trkpt lat="47.64284" lon="0.52759">
        <ele>70</ele>
        <time>2020-10-15T14:02:59Z</time>
      </trkpt>
      <trkpt lat="47.64286" lon="0.52758">
        <ele>70</ele>
        <time>2020-10-15T14:03:01Z</time>
      </trkpt>
      <trkpt lat="47.64289" lon="0.52756">
        <ele>70</ele>
        <time>2020-10-15T14:03:03Z</time>
      </trkpt>
      <trkpt lat="47.64291" lon="0.52755">
        <ele>70</ele>
        <time>2020-10-15T14:03:05Z</time>
      </trkpt>
      <trkpt lat="47.64293" lon="0.52754">
        <ele>70</ele>
        <time>2020-10-15T14:03:07Z</time>
      </trkpt>
      <trkpt lat="47.64295" lon="0.52753">
        <ele>70</ele>
        <time>2020-10-15T14:03:09Z</time>
      </trkpt>
      <trkpt lat="47.64298" lon="0.52752">
        <ele>70</ele>
        <time>2020-10-15T14:03:11Z</time>
      </trkpt>
      <trkpt lat="47.643" lon="0.52751">
        <ele>70</ele>
        <time>2020-10-15T14:03:13Z</time>
      </trkpt>
      <trkpt lat="47.64303" lon="0.52749">
        <ele>71</ele>
        <time>2020-10-15T14:03:15Z</time>
      </trkpt>
      <trkpt lat="47.64306" lon="0.52749">
        <ele>71</ele>
        <time>2020-10-15T14:03:17Z</time>
      </trkpt>
      <trkpt lat="47.64308" lon="0.52747">
        <ele>70</ele>
        <time>2020-10-15T14:03:19Z</time>
      </trkpt>
      <trkpt lat="47.64311" lon="0.52747">
        <ele>70</ele>
        <time>2020-10-15T14:03:21Z</time>
      </trkpt>
      <trkpt lat="47.64314" lon="0.52747">
        <ele>70</ele>
        <time>2020-10-15T14:03:23Z</time>
      </trkpt>
      <trkpt lat="47.64316" lon="0.52745">
        <ele>70</ele>
        <time>2020-10-15T14:03:25Z</time>
      </trkpt>
      <trkpt lat="47.64319" lon="0.52745">
        <ele>70</ele>
        <time>2020-10-15T14:03:27Z</time>
      </trkpt>
      <trkpt lat="47.64321" lon="0.52743">
        <ele>70</ele>
        <time>2020-10-15T14:03:29Z</time>
      </trkpt>
      <trkpt lat="47.64324" lon="0.52743">
        <ele>70</ele>
        <time>2020-10-15T14:03:31Z</time>
      </trkpt>
      <trkpt lat="47.64326" lon="0.52742">
        <ele>70</ele>
        <time>2020-10-15T14:03:33Z</time>
      </trkpt>
      <trkpt lat="47.64328" lon="0.52741">
        <ele>70</ele>
        <time>2020-10-15T14:03:35Z</time>
      </trkpt>
      <trkpt lat="47.6433" lon="0.5274">
        <ele>70</ele>
        <time>2020-10-15T14:03:37Z</time>
      </trkpt>
      <trkpt lat="47.64333" lon="0.52739">
        <ele>70</ele>
        <time>2020-10-15T14:03:39Z</time>
      </trkpt>
      <trkpt lat="47.64335" lon="0.52738">
        <ele>70</ele>
        <time>2020-10-15T14:03:41Z</time>
      </trkpt>
      <trkpt lat="47.64338" lon="0.52737">
        <ele>70</ele>
        <time>2020-10-15T14:03:43Z</time>
      </trkpt>
      <trkpt lat="47.6434" lon="0.52736">
        <ele>70</ele>
        <time>2020-10-15T14:03:45Z</time>
      </trkpt>
      <trkpt lat="47.64342" lon="0.52736">
        <ele>70</ele>
        <time>2020-10-15T14:03:47Z</time>
      </trkpt>
      <trkpt lat="47.64344" lon="0.52735">
        <ele>70</ele>
        <time>2020-10-15T14:03:49Z</time>
      </trkpt>
      <trkpt lat="47.64347" lon="0.52734">
        <ele>70</ele>
        <time>2020-10-15T14:03:51Z</time>
      </trkpt>
      <trkpt lat="47.64349" lon="0.52733">
        <ele>70</ele>
        <time>2020-10-15T14:03:53Z</time>
      </trkpt>
      <trkpt lat="47.64352" lon="0.52732">
        <ele>70</ele>
        <time>2020-10-15T14:03:55Z</time>
      </trkpt>
      <trkpt lat="47.64355" lon="0.52731">
        <ele>70</ele>
        <time>2020-10-15T14:03:57Z</time>
      </trkpt>
      <trkpt lat="47.64357" lon="0.52731">
        <ele>70</ele>
        <time>2020-10-15T14:03:58Z</time>
      </trkpt>
      <trkpt lat="47.6436" lon="0.52731">
        <ele>70</ele>
        <time>2020-10-15T14:04:00Z</time>
      </trkpt>
      <trkpt lat="47.64363" lon="0.52731">
        <ele>69</ele>
        <time>2020-10-15T14:04:02Z</time>
      </trkpt>
      <trkpt lat="47.64366" lon="0.5273">
        <ele>69</ele>
        <time>2020-10-15T14:04:04Z</time>
      </trkpt>
      <trkpt lat="47.64368" lon="0.52729">
        <ele>69</ele>
        <time>2020-10-15T14:04:06Z</time>
      </trkpt>
      <trkpt lat="47.64371" lon="0.52728">
        <ele>69</ele>
        <time>2020-10-15T14:04:08Z</time>
      </trkpt>
      <trkpt lat="47.64373" lon="0.52728">
        <ele>69</ele>
        <time>2020-10-15T14:04:10Z</time>
      </trkpt>
      <trkpt lat="47.64376" lon="0.52726">
        <ele>69</ele>
        <time>2020-10-15T14:04:12Z</time>
      </trkpt>
      <trkpt lat="47.64378" lon="0.52724">
        <ele>69</ele>
        <time>2020-10-15T14:04:14Z</time>
      </trkpt>
      <trkpt lat="47.6438" lon="0.52722">
        <ele>69</ele>
        <time>2020-10-15T14:04:16Z</time>
      </trkpt>
      <trkpt lat="47.64382" lon="0.52721">
        <ele>69</ele>
        <time>2020-10-15T14:04:18Z</time>
      </trkpt>
      <trkpt lat="47.64385" lon="0.52719">
        <ele>69</ele>
        <time>2020-10-15T14:04:20Z</time>
      </trkpt>
      <trkpt lat="47.64387" lon="0.52718">
        <ele>69</ele>
        <time>2020-10-15T14:04:22Z</time>
      </trkpt>
      <trkpt lat="47.6439" lon="0.52717">
        <ele>69</ele>
        <time>2020-10-15T14:04:24Z</time>
      </trkpt>
      <trkpt lat="47.64392" lon="0.52715">
        <ele>69</ele>
        <time>2020-10-15T14:04:26Z</time>
      </trkpt>
      <trkpt lat="47.64395" lon="0.52714">
        <ele>69</ele>
        <time>2020-10-15T14:04:28Z</time>
      </trkpt>
      <trkpt lat="47.64397" lon="0.52712">
        <ele>69</ele>
        <time>2020-10-15T14:04:30Z</time>
      </trkpt>
      <trkpt lat="47.644" lon="0.52711">
        <ele>69</ele>
        <time>2020-10-15T14:04:32Z</time>
      </trkpt>
      <trkpt lat="47.64402" lon="0.5271">
        <ele>69</ele>
        <time>2020-10-15T14:04:34Z</time>
      </trkpt>
      <trkpt lat="47.64404" lon="0.52708">
        <ele>69</ele>
        <time>2020-10-15T14:04:36Z</time>
      </trkpt>
      <trkpt lat="47.64406" lon="0.52706">
        <ele>69</ele>
        <time>2020-10-15T14:04:38Z</time>
      </trkpt>
      <trkpt lat="47.64409" lon="0.52704">
        <ele>69</ele>
        <time>2020-10-15T14:04:40Z</time>
      </trkpt>
      <trkpt lat="47.64411" lon="0.52703">
        <ele>69</ele>
        <time>2020-10-15T14:04:42Z</time>
      </trkpt>
      <trkpt lat="47.64414" lon="0.52701">
        <ele>69</ele>
        <time>2020-10-15T14:04:44Z</time>
      </trkpt>
      <trkpt lat="47.64416" lon="0.527">
        <ele>69</ele>
        <time>2020-10-15T14:04:46Z</time>
      </trkpt>
      <trkpt lat="47.64419" lon="0.52699">
        <ele>69</ele>
        <time>2020-10-15T14:04:48Z</time>
      </trkpt>
      <trkpt lat="47.64422" lon="0.52698">
        <ele>69</ele>
        <time>2020-10-15T14:04:50Z</time>
      </trkpt>
      <trkpt lat="47.64424" lon="0.52696">
        <ele>69</ele>
        <time>2020-10-15T14:04:52Z</time>
      </trkpt>
      <trkpt lat="47.64426" lon="0.52695">
        <ele>69</ele>
        <time>2020-10-15T14:04:54Z</time>
      </trkpt>
      <trkpt lat="47.64429" lon="0.52694">
        <ele>70</ele>
        <time>2020-10-15T14:04:56Z</time>
      </trkpt>
      <trkpt lat="47.64432" lon="0.52693">
        <ele>70</ele>
        <time>2020-10-15T14:04:58Z</time>
      </trkpt>
      <trkpt lat="47.64434" lon="0.52693">
        <ele>70</ele>
        <time>2020-10-15T14:05:00Z</time>
      </trkpt>
      <trkpt lat="47.64437" lon="0.52693">
        <ele>70</ele>
        <time>2020-10-15T14:05:02Z</time>
      </trkpt>
      <trkpt lat="47.6444" lon="0.52693">
        <ele>70</ele>
        <time>2020-10-15T14:05:04Z</time>
      </trkpt>
      <trkpt lat="47.64443" lon="0.52692">
        <ele>70</ele>
        <time>2020-10-15T14:05:06Z</time>
      </trkpt>
      <trkpt lat="47.64446" lon="0.52692">
        <ele>70</ele>
        <time>2020-10-15T14:05:08Z</time>
      </trkpt>
      <trkpt lat="47.64448" lon="0.52692">
        <ele>70</ele>
        <time>2020-10-15T14:05:10Z</time>
      </trkpt>
      <trkpt lat="47.6445" lon="0.52692">
        <ele>70</ele>
        <time>2020-10-15T14:05:12Z</time>
      </trkpt>
      <trkpt lat="47.64453" lon="0.52692">
        <ele>70</ele>
        <time>2020-10-15T14:05:14Z</time>
      </trkpt>
      <trkpt lat="47.64456" lon="0.52693">
        <ele>70</ele>
        <time>2020-10-15T14:05:16Z</time>
      </trkpt>
      <trkpt lat="47.64459" lon="0.52694">
        <ele>70</ele>
        <time>2020-10-15T14:05:18Z</time>
      </trkpt>
      <trkpt lat="47.64461" lon="0.52695">
        <ele>69</ele>
        <time>2020-10-15T14:05:20Z</time>
      </trkpt>
      <trkpt lat="47.64464" lon="0.52695">
        <ele>69</ele>
        <time>2020-10-15T14:05:22Z</time>
      </trkpt>
      <trkpt lat="47.64467" lon="0.52696">
        <ele>69</ele>
        <time>2020-10-15T14:05:24Z</time>
      </trkpt>
      <trkpt lat="47.6447" lon="0.52697">
        <ele>69</ele>
        <time>2020-10-15T14:05:26Z</time>
      </trkpt>
      <trkpt lat="47.64472" lon="0.52698">
        <ele>69</ele>
        <time>2020-10-15T14:05:28Z</time>
      </trkpt>
      <trkpt lat="47.64475" lon="0.52699">
        <ele>69</ele>
        <time>2020-10-15T14:05:30Z</time>
      </trkpt>
      <trkpt lat="47.64477" lon="0.527">
        <ele>69</ele>
        <time>2020-10-15T14:05:32Z</time>
      </trkpt>
      <trkpt lat="47.6448" lon="0.52701">
        <ele>69</ele>
        <time>2020-10-15T14:05:34Z</time>
      </trkpt>
      <trkpt lat="47.64482" lon="0.52702">
        <ele>69</ele>
        <time>2020-10-15T14:05:36Z</time>
      </trkpt>
      <trkpt lat="47.64484" lon="0.52701">
        <ele>69</ele>
        <time>2020-10-15T14:05:38Z</time>
      </trkpt>
      <trkpt lat="47.64487" lon="0.527">
        <ele>69</ele>
        <time>2020-10-15T14:05:40Z</time>
      </trkpt>
      <trkpt lat="47.64489" lon="0.527">
        <ele>69</ele>
        <time>2020-10-15T14:05:42Z</time>
      </trkpt>
      <trkpt lat="47.64492" lon="0.52699">
        <ele>69</ele>
        <time>2020-10-15T14:05:44Z</time>
      </trkpt>
      <trkpt lat="47.64495" lon="0.52699">
        <ele>69</ele>
        <time>2020-10-15T14:05:46Z</time>
      </trkpt>
      <trkpt lat="47.64497" lon="0.52699">
        <ele>69</ele>
        <time>2020-10-15T14:05:47Z</time>
      </trkpt>
      <trkpt lat="47.645" lon="0.52699">
        <ele>69</ele>
        <time>2020-10-15T14:05:49Z</time>
      </trkpt>
      <trkpt lat="47.64502" lon="0.52699">
        <ele>69</ele>
        <time>2020-10-15T14:05:51Z</time>
      </trkpt>
      <trkpt lat="47.64504" lon="0.52698">
        <ele>70</ele>
        <time>2020-10-15T14:05:53Z</time>
      </trkpt>
      <trkpt lat="47.64507" lon="0.52699">
        <ele>70</ele>
        <time>2020-10-15T14:05:55Z</time>
      </trkpt>
      <trkpt lat="47.64509" lon="0.52699">
        <ele>70</ele>
        <time>2020-10-15T14:05:57Z</time>
      </trkpt>
      <trkpt lat="47.64512" lon="0.52699">
        <ele>70</ele>
        <time>2020-10-15T14:05:59Z</time>
      </trkpt>
      <trkpt lat="47.64515" lon="0.52699">
        <ele>70</ele>
        <time>2020-10-15T14:06:01Z</time>
      </trkpt>
      <trkpt lat="47.64518" lon="0.52699">
        <ele>70</ele>
        <time>2020-10-15T14:06:03Z</time>
      </trkpt>
      <trkpt lat="47.6452" lon="0.52699">
        <ele>70</ele>
        <time>2020-10-15T14:06:05Z</time>
      </trkpt>
      <trkpt lat="47.64523" lon="0.527">
        <ele>70</ele>
        <time>2020-10-15T14:06:07Z</time>
      </trkpt>
      <trkpt lat="47.64526" lon="0.52701">
        <ele>70</ele>
        <time>2020-10-15T14:06:09Z</time>
      </trkpt>
      <trkpt lat="47.64529" lon="0.52701">
        <ele>70</ele>
        <time>2020-10-15T14:06:11Z</time>
      </trkpt>
      <trkpt lat="47.64532" lon="0.52702">
        <ele>71</ele>
        <time>2020-10-15T14:06:13Z</time>
      </trkpt>
      <trkpt lat="47.64534" lon="0.52702">
        <ele>71</ele>
        <time>2020-10-15T14:06:15Z</time>
      </trkpt>
      <trkpt lat="47.64537" lon="0.52702">
        <ele>71</ele>
        <time>2020-10-15T14:06:17Z</time>
      </trkpt>
      <trkpt lat="47.64539" lon="0.52701">
        <ele>71</ele>
        <time>2020-10-15T14:06:19Z</time>
      </trkpt>
      <trkpt lat="47.6454" lon="0.52701">
        <ele>71</ele>
        <time>2020-10-15T14:06:21Z</time>
      </trkpt>
      <trkpt lat="47.64542" lon="0.52701">
        <ele>71</ele>
        <time>2020-10-15T14:06:25Z</time>
      </trkpt>
      <trkpt lat="47.64544" lon="0.52699">
        <ele>71</ele>
        <time>2020-10-15T14:06:32Z</time>
      </trkpt>
      <trkpt lat="47.64544" lon="0.52696">
        <ele>72</ele>
        <time>2020-10-15T14:06:49Z</time>
      </trkpt>
      <trkpt lat="47.64543" lon="0.52693">
        <ele>72</ele>
        <time>2020-10-15T14:06:58Z</time>
      </trkpt>
      <trkpt lat="47.64542" lon="0.5269">
        <ele>72</ele>
        <time>2020-10-15T14:07:01Z</time>
      </trkpt>
      <trkpt lat="47.64541" lon="0.52688">
        <ele>72</ele>
        <time>2020-10-15T14:07:06Z</time>
      </trkpt>
      <trkpt lat="47.64543" lon="0.52689">
        <ele>72</ele>
        <time>2020-10-15T14:07:12Z</time>
      </trkpt>
      <trkpt lat="47.64545" lon="0.52691">
        <ele>72</ele>
        <time>2020-10-15T14:07:27Z</time>
      </trkpt>
      <trkpt lat="47.64546" lon="0.52694">
        <ele>72</ele>
        <time>2020-10-15T14:07:30Z</time>
      </trkpt>
      <trkpt lat="47.64545" lon="0.52696">
        <ele>72</ele>
        <time>2020-10-15T14:07:42Z</time>
      </trkpt>
      <trkpt lat="47.64545" lon="0.52699">
        <ele>71</ele>
        <time>2020-10-15T14:07:48Z</time>
      </trkpt>
      <trkpt lat="47.64545" lon="0.52702">
        <ele>71</ele>
        <time>2020-10-15T14:07:51Z</time>
      </trkpt>
      <trkpt lat="47.64547" lon="0.52705">
        <ele>71</ele>
        <time>2020-10-15T14:07:54Z</time>
      </trkpt>
      <trkpt lat="47.64549" lon="0.52706">
        <ele>71</ele>
        <time>2020-10-15T14:07:57Z</time>
      </trkpt>
      <trkpt lat="47.64551" lon="0.52709">
        <ele>71</ele>
        <time>2020-10-15T14:08:00Z</time>
      </trkpt>
      <trkpt lat="47.64552" lon="0.52711">
        <ele>71</ele>
        <time>2020-10-15T14:08:03Z</time>
      </trkpt>
      <trkpt lat="47.64554" lon="0.52714">
        <ele>71</ele>
        <time>2020-10-15T14:08:06Z</time>
      </trkpt>
      <trkpt lat="47.64556" lon="0.52716">
        <ele>71</ele>
        <time>2020-10-15T14:08:08Z</time>
      </trkpt>
      <trkpt lat="47.64558" lon="0.52718">
        <ele>71</ele>
        <time>2020-10-15T14:08:11Z</time>
      </trkpt>
      <trkpt lat="47.6456" lon="0.5272">
        <ele>71</ele>
        <time>2020-10-15T14:08:13Z</time>
      </trkpt>
      <trkpt lat="47.64562" lon="0.52722">
        <ele>70</ele>
        <time>2020-10-15T14:08:15Z</time>
      </trkpt>
      <trkpt lat="47.64563" lon="0.52724">
        <ele>70</ele>
        <time>2020-10-15T14:08:17Z</time>
      </trkpt>
      <trkpt lat="47.64565" lon="0.52725">
        <ele>70</ele>
        <time>2020-10-15T14:08:19Z</time>
      </trkpt>
      <trkpt lat="47.64567" lon="0.52727">
        <ele>70</ele>
        <time>2020-10-15T14:08:21Z</time>
      </trkpt>
      <trkpt lat="47.64568" lon="0.5273">
        <ele>70</ele>
        <time>2020-10-15T14:08:23Z</time>
      </trkpt>
      <trkpt lat="47.64569" lon="0.52733">
        <ele>70</ele>
        <time>2020-10-15T14:08:29Z</time>
      </trkpt>
      <trkpt lat="47.6457" lon="0.52736">
        <ele>70</ele>
        <time>2020-10-15T14:08:33Z</time>
      </trkpt>
      <trkpt lat="47.64572" lon="0.52736">
        <ele>70</ele>
        <time>2020-10-15T14:08:36Z</time>
      </trkpt>
      <trkpt lat="47.64574" lon="0.52737">
        <ele>70</ele>
        <time>2020-10-15T14:08:38Z</time>
      </trkpt>
      <trkpt lat="47.64576" lon="0.52739">
        <ele>70</ele>
        <time>2020-10-15T14:08:40Z</time>
      </trkpt>
      <trkpt lat="47.64578" lon="0.52741">
        <ele>70</ele>
        <time>2020-10-15T14:08:42Z</time>
      </trkpt>
      <trkpt lat="47.6458" lon="0.52742">
        <ele>70</ele>
        <time>2020-10-15T14:08:44Z</time>
      </trkpt>
      <trkpt lat="47.64582" lon="0.52744">
        <ele>70</ele>
        <time>2020-10-15T14:08:46Z</time>
      </trkpt>
      <trkpt lat="47.64583" lon="0.52745">
        <ele>70</ele>
        <time>2020-10-15T14:08:48Z</time>
      </trkpt>
      <trkpt lat="47.64586" lon="0.52748">
        <ele>70</ele>
        <time>2020-10-15T14:08:51Z</time>
      </trkpt>
      <trkpt lat="47.64588" lon="0.52749">
        <ele>70</ele>
        <time>2020-10-15T14:08:53Z</time>
      </trkpt>
      <trkpt lat="47.6459" lon="0.52751">
        <ele>69</ele>
        <time>2020-10-15T14:08:55Z</time>
      </trkpt>
      <trkpt lat="47.64592" lon="0.52753">
        <ele>69</ele>
        <time>2020-10-15T14:08:57Z</time>
      </trkpt>
      <trkpt lat="47.64594" lon="0.52754">
        <ele>69</ele>
        <time>2020-10-15T14:08:59Z</time>
      </trkpt>
      <trkpt lat="47.64597" lon="0.52756">
        <ele>69</ele>
        <time>2020-10-15T14:09:01Z</time>
      </trkpt>
      <trkpt lat="47.64599" lon="0.52757">
        <ele>69</ele>
        <time>2020-10-15T14:09:03Z</time>
      </trkpt>
      <trkpt lat="47.64601" lon="0.52758">
        <ele>69</ele>
        <time>2020-10-15T14:09:05Z</time>
      </trkpt>
      <trkpt lat="47.64603" lon="0.5276">
        <ele>69</ele>
        <time>2020-10-15T14:09:07Z</time>
      </trkpt>
      <trkpt lat="47.64605" lon="0.52761">
        <ele>69</ele>
        <time>2020-10-15T14:09:09Z</time>
      </trkpt>
      <trkpt lat="47.64606" lon="0.52763">
        <ele>69</ele>
        <time>2020-10-15T14:09:11Z</time>
      </trkpt>
      <trkpt lat="47.64609" lon="0.52764">
        <ele>68</ele>
        <time>2020-10-15T14:09:13Z</time>
      </trkpt>
      <trkpt lat="47.64612" lon="0.52766">
        <ele>68</ele>
        <time>2020-10-15T14:09:15Z</time>
      </trkpt>
      <trkpt lat="47.64614" lon="0.52768">
        <ele>68</ele>
        <time>2020-10-15T14:09:17Z</time>
      </trkpt>
      <trkpt lat="47.64616" lon="0.52771">
        <ele>68</ele>
        <time>2020-10-15T14:09:19Z</time>
      </trkpt>
      <trkpt lat="47.64618" lon="0.52773">
        <ele>68</ele>
        <time>2020-10-15T14:09:21Z</time>
      </trkpt>
      <trkpt lat="47.64621" lon="0.52775">
        <ele>68</ele>
        <time>2020-10-15T14:09:23Z</time>
      </trkpt>
      <trkpt lat="47.64623" lon="0.52778">
        <ele>68</ele>
        <time>2020-10-15T14:09:25Z</time>
      </trkpt>
      <trkpt lat="47.64626" lon="0.52779">
        <ele>67</ele>
        <time>2020-10-15T14:09:27Z</time>
      </trkpt>
      <trkpt lat="47.64628" lon="0.52781">
        <ele>67</ele>
        <time>2020-10-15T14:09:29Z</time>
      </trkpt>
      <trkpt lat="47.6463" lon="0.52782">
        <ele>67</ele>
        <time>2020-10-15T14:09:32Z</time>
      </trkpt>
      <trkpt lat="47.64632" lon="0.52784">
        <ele>67</ele>
        <time>2020-10-15T14:09:34Z</time>
      </trkpt>
      <trkpt lat="47.64634" lon="0.52786">
        <ele>67</ele>
        <time>2020-10-15T14:09:36Z</time>
      </trkpt>
      <trkpt lat="47.64636" lon="0.52788">
        <ele>67</ele>
        <time>2020-10-15T14:09:38Z</time>
      </trkpt>
      <trkpt lat="47.64638" lon="0.5279">
        <ele>67</ele>
        <time>2020-10-15T14:09:40Z</time>
      </trkpt>
      <trkpt lat="47.64641" lon="0.52792">
        <ele>67</ele>
        <time>2020-10-15T14:09:42Z</time>
      </trkpt>
      <trkpt lat="47.64643" lon="0.52793">
        <ele>67</ele>
        <time>2020-10-15T14:09:44Z</time>
      </trkpt>
      <trkpt lat="47.64645" lon="0.52794">
        <ele>67</ele>
        <time>2020-10-15T14:09:46Z</time>
      </trkpt>
      <trkpt lat="47.64647" lon="0.52795">
        <ele>67</ele>
        <time>2020-10-15T14:09:48Z</time>
      </trkpt>
      <trkpt lat="47.6465" lon="0.52796">
        <ele>68</ele>
        <time>2020-10-15T14:09:50Z</time>
      </trkpt>
      <trkpt lat="47.64652" lon="0.52798">
        <ele>68</ele>
        <time>2020-10-15T14:09:52Z</time>
      </trkpt>
      <trkpt lat="47.64655" lon="0.52799">
        <ele>68</ele>
        <time>2020-10-15T14:09:54Z</time>
      </trkpt>
      <trkpt lat="47.64658" lon="0.528">
        <ele>68</ele>
        <time>2020-10-15T14:09:56Z</time>
      </trkpt>
      <trkpt lat="47.6466" lon="0.528">
        <ele>68</ele>
        <time>2020-10-15T14:09:58Z</time>
      </trkpt>
      <trkpt lat="47.64662" lon="0.52801">
        <ele>68</ele>
        <time>2020-10-15T14:10:00Z</time>
      </trkpt>
      <trkpt lat="47.64664" lon="0.52803">
        <ele>68</ele>
        <time>2020-10-15T14:10:02Z</time>
      </trkpt>
      <trkpt lat="47.64666" lon="0.52804">
        <ele>69</ele>
        <time>2020-10-15T14:10:04Z</time>
      </trkpt>
      <trkpt lat="47.64669" lon="0.52804">
        <ele>69</ele>
        <time>2020-10-15T14:10:06Z</time>
      </trkpt>
      <trkpt lat="47.64672" lon="0.52805">
        <ele>69</ele>
        <time>2020-10-15T14:10:08Z</time>
      </trkpt>
      <trkpt lat="47.64675" lon="0.52805">
        <ele>69</ele>
        <time>2020-10-15T14:10:10Z</time>
      </trkpt>
      <trkpt lat="47.64678" lon="0.52806">
        <ele>69</ele>
        <time>2020-10-15T14:10:12Z</time>
      </trkpt>
      <trkpt lat="47.6468" lon="0.52806">
        <ele>69</ele>
        <time>2020-10-15T14:10:14Z</time>
      </trkpt>
      <trkpt lat="47.64683" lon="0.52806">
        <ele>69</ele>
        <time>2020-10-15T14:10:16Z</time>
      </trkpt>
      <trkpt lat="47.64685" lon="0.52806">
        <ele>69</ele>
        <time>2020-10-15T14:10:18Z</time>
      </trkpt>
      <trkpt lat="47.64688" lon="0.52806">
        <ele>69</ele>
        <time>2020-10-15T14:10:20Z</time>
      </trkpt>
      <trkpt lat="47.6469" lon="0.52806">
        <ele>69</ele>
        <time>2020-10-15T14:10:21Z</time>
      </trkpt>
      <trkpt lat="47.64692" lon="0.52805">
        <ele>69</ele>
        <time>2020-10-15T14:10:23Z</time>
      </trkpt>
      <trkpt lat="47.64695" lon="0.52805">
        <ele>70</ele>
        <time>2020-10-15T14:10:25Z</time>
      </trkpt>
      <trkpt lat="47.64696" lon="0.52805">
        <ele>69</ele>
        <time>2020-10-15T14:10:27Z</time>
      </trkpt>
      <trkpt lat="47.64699" lon="0.52806">
        <ele>69</ele>
        <time>2020-10-15T14:10:29Z</time>
      </trkpt>
      <trkpt lat="47.64701" lon="0.52806">
        <ele>69</ele>
        <time>2020-10-15T14:10:31Z</time>
      </trkpt>
      <trkpt lat="47.64704" lon="0.52806">
        <ele>69</ele>
        <time>2020-10-15T14:10:33Z</time>
      </trkpt>
      <trkpt lat="47.64706" lon="0.52806">
        <ele>69</ele>
        <time>2020-10-15T14:10:35Z</time>
      </trkpt>
      <trkpt lat="47.6471" lon="0.52805">
        <ele>69</ele>
        <time>2020-10-15T14:10:37Z</time>
      </trkpt>
      <trkpt lat="47.64713" lon="0.52805">
        <ele>69</ele>
        <time>2020-10-15T14:10:39Z</time>
      </trkpt>
      <trkpt lat="47.64715" lon="0.52804">
        <ele>69</ele>
        <time>2020-10-15T14:10:41Z</time>
      </trkpt>
      <trkpt lat="47.64717" lon="0.52803">
        <ele>69</ele>
        <time>2020-10-15T14:10:44Z</time>
      </trkpt>
      <trkpt lat="47.6472" lon="0.52801">
        <ele>69</ele>
        <time>2020-10-15T14:10:46Z</time>
      </trkpt>
      <trkpt lat="47.64722" lon="0.52799">
        <ele>69</ele>
        <time>2020-10-15T14:10:48Z</time>
      </trkpt>
      <trkpt lat="47.64724" lon="0.52797">
        <ele>68</ele>
        <time>2020-10-15T14:10:50Z</time>
      </trkpt>
      <trkpt lat="47.64727" lon="0.52796">
        <ele>68</ele>
        <time>2020-10-15T14:10:52Z</time>
      </trkpt>
      <trkpt lat="47.64729" lon="0.52795">
        <ele>68</ele>
        <time>2020-10-15T14:10:54Z</time>
      </trkpt>
      <trkpt lat="47.64732" lon="0.52795">
        <ele>67</ele>
        <time>2020-10-15T14:10:56Z</time>
      </trkpt>
      <trkpt lat="47.64734" lon="0.52798">
        <ele>67</ele>
        <time>2020-10-15T14:10:58Z</time>
      </trkpt>
      <trkpt lat="47.64737" lon="0.52798">
        <ele>67</ele>
        <time>2020-10-15T14:11:00Z</time>
      </trkpt>
      <trkpt lat="47.64738" lon="0.52798">
        <ele>67</ele>
        <time>2020-10-15T14:11:02Z</time>
      </trkpt>
      <trkpt lat="47.6474" lon="0.52798">
        <ele>67</ele>
        <time>2020-10-15T14:11:04Z</time>
      </trkpt>
      <trkpt lat="47.64743" lon="0.52799">
        <ele>66</ele>
        <time>2020-10-15T14:11:06Z</time>
      </trkpt>
      <trkpt lat="47.64746" lon="0.528">
        <ele>66</ele>
        <time>2020-10-15T14:11:08Z</time>
      </trkpt>
      <trkpt lat="47.64749" lon="0.52801">
        <ele>66</ele>
        <time>2020-10-15T14:11:10Z</time>
      </trkpt>
      <trkpt lat="47.64752" lon="0.52803">
        <ele>65</ele>
        <time>2020-10-15T14:11:12Z</time>
      </trkpt>
      <trkpt lat="47.64755" lon="0.52804">
        <ele>65</ele>
        <time>2020-10-15T14:11:14Z</time>
      </trkpt>
      <trkpt lat="47.64757" lon="0.52806">
        <ele>65</ele>
        <time>2020-10-15T14:11:16Z</time>
      </trkpt>
      <trkpt lat="47.6476" lon="0.52807">
        <ele>64</ele>
        <time>2020-10-15T14:11:18Z</time>
      </trkpt>
      <trkpt lat="47.64762" lon="0.52808">
        <ele>64</ele>
        <time>2020-10-15T14:11:20Z</time>
      </trkpt>
      <trkpt lat="47.64765" lon="0.52809">
        <ele>64</ele>
        <time>2020-10-15T14:11:22Z</time>
      </trkpt>
      <trkpt lat="47.64767" lon="0.5281">
        <ele>63</ele>
        <time>2020-10-15T14:11:24Z</time>
      </trkpt>
      <trkpt lat="47.6477" lon="0.52811">
        <ele>63</ele>
        <time>2020-10-15T14:11:26Z</time>
      </trkpt>
      <trkpt lat="47.64772" lon="0.52812">
        <ele>63</ele>
        <time>2020-10-15T14:11:27Z</time>
      </trkpt>
      <trkpt lat="47.64775" lon="0.52814">
        <ele>62</ele>
        <time>2020-10-15T14:11:29Z</time>
      </trkpt>
      <trkpt lat="47.64778" lon="0.52815">
        <ele>62</ele>
        <time>2020-10-15T14:11:31Z</time>
      </trkpt>
      <trkpt lat="47.64781" lon="0.52817">
        <ele>62</ele>
        <time>2020-10-15T14:11:33Z</time>
      </trkpt>
      <trkpt lat="47.64783" lon="0.52818">
        <ele>62</ele>
        <time>2020-10-15T14:11:35Z</time>
      </trkpt>
      <trkpt lat="47.64786" lon="0.52819">
        <ele>62</ele>
        <time>2020-10-15T14:11:37Z</time>
      </trkpt>
      <trkpt lat="47.64789" lon="0.5282">
        <ele>62</ele>
        <time>2020-10-15T14:11:39Z</time>
      </trkpt>
      <trkpt lat="47.64792" lon="0.5282">
        <ele>62</ele>
        <time>2020-10-15T14:11:41Z</time>
      </trkpt>
      <trkpt lat="47.64795" lon="0.5282">
        <ele>62</ele>
        <time>2020-10-15T14:11:43Z</time>
      </trkpt>
      <trkpt lat="47.64797" lon="0.52821">
        <ele>62</ele>
        <time>2020-10-15T14:11:45Z</time>
      </trkpt>
      <trkpt lat="47.648" lon="0.52822">
        <ele>62</ele>
        <time>2020-10-15T14:11:47Z</time>
      </trkpt>
      <trkpt lat="47.64802" lon="0.52822">
        <ele>62</ele>
        <time>2020-10-15T14:11:49Z</time>
      </trkpt>
      <trkpt lat="47.64804" lon="0.52823">
        <ele>62</ele>
        <time>2020-10-15T14:11:51Z</time>
      </trkpt>
      <trkpt lat="47.64807" lon="0.52824">
        <ele>62</ele>
        <time>2020-10-15T14:11:53Z</time>
      </trkpt>
      <trkpt lat="47.6481" lon="0.52824">
        <ele>62</ele>
        <time>2020-10-15T14:11:55Z</time>
      </trkpt>
      <trkpt lat="47.64812" lon="0.52824">
        <ele>62</ele>
        <time>2020-10-15T14:11:57Z</time>
      </trkpt>
      <trkpt lat="47.64815" lon="0.52824">
        <ele>62</ele>
        <time>2020-10-15T14:11:59Z</time>
      </trkpt>
      <trkpt lat="47.64818" lon="0.52825">
        <ele>62</ele>
        <time>2020-10-15T14:12:01Z</time>
      </trkpt>
      <trkpt lat="47.64821" lon="0.52825">
        <ele>63</ele>
        <time>2020-10-15T14:12:03Z</time>
      </trkpt>
      <trkpt lat="47.64824" lon="0.52826">
        <ele>63</ele>
        <time>2020-10-15T14:12:05Z</time>
      </trkpt>
      <trkpt lat="47.64827" lon="0.52827">
        <ele>63</ele>
        <time>2020-10-15T14:12:07Z</time>
      </trkpt>
      <trkpt lat="47.6483" lon="0.52828">
        <ele>63</ele>
        <time>2020-10-15T14:12:09Z</time>
      </trkpt>
      <trkpt lat="47.64832" lon="0.52829">
        <ele>63</ele>
        <time>2020-10-15T14:12:11Z</time>
      </trkpt>
      <trkpt lat="47.64835" lon="0.5283">
        <ele>63</ele>
        <time>2020-10-15T14:12:13Z</time>
      </trkpt>
      <trkpt lat="47.64837" lon="0.52831">
        <ele>63</ele>
        <time>2020-10-15T14:12:15Z</time>
      </trkpt>
      <trkpt lat="47.64839" lon="0.52832">
        <ele>63</ele>
        <time>2020-10-15T14:12:17Z</time>
      </trkpt>
      <trkpt lat="47.64841" lon="0.52833">
        <ele>63</ele>
        <time>2020-10-15T14:12:19Z</time>
      </trkpt>
      <trkpt lat="47.64844" lon="0.52834">
        <ele>63</ele>
        <time>2020-10-15T14:12:21Z</time>
      </trkpt>
      <trkpt lat="47.64846" lon="0.52834">
        <ele>63</ele>
        <time>2020-10-15T14:12:23Z</time>
      </trkpt>
      <trkpt lat="47.64849" lon="0.52834">
        <ele>63</ele>
        <time>2020-10-15T14:12:25Z</time>
      </trkpt>
      <trkpt lat="47.64851" lon="0.52834">
        <ele>63</ele>
        <time>2020-10-15T14:12:27Z</time>
      </trkpt>
      <trkpt lat="47.64854" lon="0.52834">
        <ele>63</ele>
        <time>2020-10-15T14:12:29Z</time>
      </trkpt>
      <trkpt lat="47.64856" lon="0.52835">
        <ele>63</ele>
        <time>2020-10-15T14:12:31Z</time>
      </trkpt>
      <trkpt lat="47.64858" lon="0.52836">
        <ele>63</ele>
        <time>2020-10-15T14:12:33Z</time>
      </trkpt>
      <trkpt lat="47.6486" lon="0.52836">
        <ele>63</ele>
        <time>2020-10-15T14:12:35Z</time>
      </trkpt>
      <trkpt lat="47.64862" lon="0.52837">
        <ele>64</ele>
        <time>2020-10-15T14:12:37Z</time>
      </trkpt>
      <trkpt lat="47.64864" lon="0.52837">
        <ele>64</ele>
        <time>2020-10-15T14:12:39Z</time>
      </trkpt>
      <trkpt lat="47.64866" lon="0.52838">
        <ele>64</ele>
        <time>2020-10-15T14:12:41Z</time>
      </trkpt>
      <trkpt lat="47.64869" lon="0.52839">
        <ele>64</ele>
        <time>2020-10-15T14:12:43Z</time>
      </trkpt>
      <trkpt lat="47.64871" lon="0.52838">
        <ele>64</ele>
        <time>2020-10-15T14:12:45Z</time>
      </trkpt>
      <trkpt lat="47.64874" lon="0.52838">
        <ele>64</ele>
        <time>2020-10-15T14:12:47Z</time>
      </trkpt>
      <trkpt lat="47.64876" lon="0.52837">
        <ele>64</ele>
        <time>2020-10-15T14:12:49Z</time>
      </trkpt>
      <trkpt lat="47.64879" lon="0.52837">
        <ele>64</ele>
        <time>2020-10-15T14:12:51Z</time>
      </trkpt>
      <trkpt lat="47.64881" lon="0.52837">
        <ele>64</ele>
        <time>2020-10-15T14:12:53Z</time>
      </trkpt>
      <trkpt lat="47.64884" lon="0.52836">
        <ele>64</ele>
        <time>2020-10-15T14:12:55Z</time>
      </trkpt>
      <trkpt lat="47.64886" lon="0.52837">
        <ele>64</ele>
        <time>2020-10-15T14:12:57Z</time>
      </trkpt>
      <trkpt lat="47.64889" lon="0.52838">
        <ele>64</ele>
        <time>2020-10-15T14:12:59Z</time>
      </trkpt>
      <trkpt lat="47.64891" lon="0.5284">
        <ele>64</ele>
        <time>2020-10-15T14:13:01Z</time>
      </trkpt>
      <trkpt lat="47.64893" lon="0.52842">
        <ele>64</ele>
        <time>2020-10-15T14:13:03Z</time>
      </trkpt>
      <trkpt lat="47.64896" lon="0.52845">
        <ele>64</ele>
        <time>2020-10-15T14:13:05Z</time>
      </trkpt>
      <trkpt lat="47.64897" lon="0.52849">
        <ele>64</ele>
        <time>2020-10-15T14:13:07Z</time>
      </trkpt>
      <trkpt lat="47.64899" lon="0.52852">
        <ele>64</ele>
        <time>2020-10-15T14:13:09Z</time>
      </trkpt>
      <trkpt lat="47.649" lon="0.52856">
        <ele>64</ele>
        <time>2020-10-15T14:13:11Z</time>
      </trkpt>
      <trkpt lat="47.64902" lon="0.52859">
        <ele>64</ele>
        <time>2020-10-15T14:13:13Z</time>
      </trkpt>
      <trkpt lat="47.64904" lon="0.52863">
        <ele>64</ele>
        <time>2020-10-15T14:13:15Z</time>
      </trkpt>
      <trkpt lat="47.64905" lon="0.52865">
        <ele>64</ele>
        <time>2020-10-15T14:13:17Z</time>
      </trkpt>
      <trkpt lat="47.64906" lon="0.52869">
        <ele>64</ele>
        <time>2020-10-15T14:13:20Z</time>
      </trkpt>
      <trkpt lat="47.64908" lon="0.52872">
        <ele>64</ele>
        <time>2020-10-15T14:13:22Z</time>
      </trkpt>
      <trkpt lat="47.64909" lon="0.52875">
        <ele>64</ele>
        <time>2020-10-15T14:13:24Z</time>
      </trkpt>
      <trkpt lat="47.64911" lon="0.52877">
        <ele>64</ele>
        <time>2020-10-15T14:13:26Z</time>
      </trkpt>
      <trkpt lat="47.64912" lon="0.5288">
        <ele>64</ele>
        <time>2020-10-15T14:13:28Z</time>
      </trkpt>
      <trkpt lat="47.64914" lon="0.52883">
        <ele>64</ele>
        <time>2020-10-15T14:13:30Z</time>
      </trkpt>
      <trkpt lat="47.64915" lon="0.52886">
        <ele>64</ele>
        <time>2020-10-15T14:13:32Z</time>
      </trkpt>
      <trkpt lat="47.64917" lon="0.52888">
        <ele>65</ele>
        <time>2020-10-15T14:13:34Z</time>
      </trkpt>
      <trkpt lat="47.64918" lon="0.52891">
        <ele>65</ele>
        <time>2020-10-15T14:13:36Z</time>
      </trkpt>
      <trkpt lat="47.6492" lon="0.52893">
        <ele>65</ele>
        <time>2020-10-15T14:13:38Z</time>
      </trkpt>
      <trkpt lat="47.64921" lon="0.52897">
        <ele>65</ele>
        <time>2020-10-15T14:13:40Z</time>
      </trkpt>
      <trkpt lat="47.64923" lon="0.529">
        <ele>65</ele>
        <time>2020-10-15T14:13:42Z</time>
      </trkpt>
      <trkpt lat="47.64924" lon="0.52902">
        <ele>65</ele>
        <time>2020-10-15T14:13:44Z</time>
      </trkpt>
      <trkpt lat="47.64926" lon="0.52905">
        <ele>65</ele>
        <time>2020-10-15T14:13:46Z</time>
      </trkpt>
      <trkpt lat="47.64927" lon="0.52906">
        <ele>65</ele>
        <time>2020-10-15T14:13:48Z</time>
      </trkpt>
      <trkpt lat="47.64929" lon="0.52909">
        <ele>65</ele>
        <time>2020-10-15T14:13:50Z</time>
      </trkpt>
      <trkpt lat="47.6493" lon="0.52911">
        <ele>65</ele>
        <time>2020-10-15T14:13:52Z</time>
      </trkpt>
      <trkpt lat="47.64931" lon="0.52914">
        <ele>66</ele>
        <time>2020-10-15T14:13:58Z</time>
      </trkpt>
      <trkpt lat="47.64933" lon="0.52917">
        <ele>66</ele>
        <time>2020-10-15T14:14:01Z</time>
      </trkpt>
      <trkpt lat="47.64935" lon="0.5292">
        <ele>66</ele>
        <time>2020-10-15T14:14:04Z</time>
      </trkpt>
      <trkpt lat="47.64936" lon="0.5292">
        <ele>66</ele>
        <time>2020-10-15T14:14:09Z</time>
      </trkpt>
      <trkpt lat="47.64938" lon="0.52918">
        <ele>66</ele>
        <time>2020-10-15T14:14:13Z</time>
      </trkpt>
      <trkpt lat="47.6494" lon="0.52915">
        <ele>66</ele>
        <time>2020-10-15T14:14:16Z</time>
      </trkpt>
      <trkpt lat="47.64942" lon="0.52913">
        <ele>66</ele>
        <time>2020-10-15T14:14:19Z</time>
      </trkpt>
      <trkpt lat="47.64943" lon="0.52909">
        <ele>66</ele>
        <time>2020-10-15T14:14:23Z</time>
      </trkpt>
      <trkpt lat="47.64944" lon="0.52908">
        <ele>66</ele>
        <time>2020-10-15T14:14:26Z</time>
      </trkpt>
      <trkpt lat="47.64946" lon="0.5291">
        <ele>67</ele>
        <time>2020-10-15T14:14:28Z</time>
      </trkpt>
      <trkpt lat="47.64948" lon="0.52913">
        <ele>67</ele>
        <time>2020-10-15T14:14:30Z</time>
      </trkpt>
      <trkpt lat="47.6495" lon="0.52914">
        <ele>67</ele>
        <time>2020-10-15T14:14:33Z</time>
      </trkpt>
      <trkpt lat="47.64952" lon="0.52916">
        <ele>67</ele>
        <time>2020-10-15T14:14:35Z</time>
      </trkpt>
      <trkpt lat="47.64953" lon="0.52918">
        <ele>67</ele>
        <time>2020-10-15T14:14:37Z</time>
      </trkpt>
      <trkpt lat="47.64956" lon="0.52919">
        <ele>67</ele>
        <time>2020-10-15T14:14:39Z</time>
      </trkpt>
      <trkpt lat="47.64958" lon="0.5292">
        <ele>68</ele>
        <time>2020-10-15T14:14:42Z</time>
      </trkpt>
      <trkpt lat="47.6496" lon="0.5292">
        <ele>68</ele>
        <time>2020-10-15T14:14:44Z</time>
      </trkpt>
      <trkpt lat="47.64962" lon="0.5292">
        <ele>68</ele>
        <time>2020-10-15T14:14:46Z</time>
      </trkpt>
      <trkpt lat="47.64964" lon="0.5292">
        <ele>68</ele>
        <time>2020-10-15T14:14:48Z</time>
      </trkpt>
      <trkpt lat="47.64966" lon="0.52921">
        <ele>68</ele>
        <time>2020-10-15T14:14:50Z</time>
      </trkpt>
      <trkpt lat="47.64969" lon="0.52922">
        <ele>68</ele>
        <time>2020-10-15T14:14:52Z</time>
      </trkpt>
      <trkpt lat="47.64971" lon="0.52923">
        <ele>69</ele>
        <time>2020-10-15T14:14:54Z</time>
      </trkpt>
      <trkpt lat="47.64974" lon="0.52924">
        <ele>69</ele>
        <time>2020-10-15T14:14:56Z</time>
      </trkpt>
      <trkpt lat="47.64977" lon="0.52925">
        <ele>69</ele>
        <time>2020-10-15T14:14:58Z</time>
      </trkpt>
      <trkpt lat="47.64978" lon="0.52929">
        <ele>69</ele>
        <time>2020-10-15T14:15:00Z</time>
      </trkpt>
      <trkpt lat="47.64979" lon="0.52932">
        <ele>69</ele>
        <time>2020-10-15T14:15:01Z</time>
      </trkpt>
      <trkpt lat="47.64979" lon="0.52935">
        <ele>69</ele>
        <time>2020-10-15T14:15:02Z</time>
      </trkpt>
      <trkpt lat="47.64981" lon="0.52939">
        <ele>70</ele>
        <time>2020-10-15T14:15:04Z</time>
      </trkpt>
      <trkpt lat="47.64982" lon="0.52941">
        <ele>70</ele>
        <time>2020-10-15T14:15:06Z</time>
      </trkpt>
      <trkpt lat="47.64984" lon="0.52944">
        <ele>70</ele>
        <time>2020-10-15T14:15:08Z</time>
      </trkpt>
      <trkpt lat="47.64986" lon="0.52946">
        <ele>70</ele>
        <time>2020-10-15T14:15:10Z</time>
      </trkpt>
      <trkpt lat="47.64988" lon="0.52948">
        <ele>70</ele>
        <time>2020-10-15T14:15:15Z</time>
      </trkpt>
      <trkpt lat="47.64989" lon="0.5295">
        <ele>70</ele>
        <time>2020-10-15T14:15:17Z</time>
      </trkpt>
      <trkpt lat="47.64991" lon="0.52952">
        <ele>70</ele>
        <time>2020-10-15T14:15:19Z</time>
      </trkpt>
      <trkpt lat="47.64993" lon="0.52954">
        <ele>71</ele>
        <time>2020-10-15T14:15:21Z</time>
      </trkpt>
      <trkpt lat="47.64994" lon="0.52956">
        <ele>71</ele>
        <time>2020-10-15T14:15:24Z</time>
      </trkpt>
      <trkpt lat="47.64996" lon="0.52959">
        <ele>71</ele>
        <time>2020-10-15T14:15:32Z</time>
      </trkpt>
      <trkpt lat="47.64998" lon="0.52962">
        <ele>71</ele>
        <time>2020-10-15T14:15:34Z</time>
      </trkpt>
      <trkpt lat="47.65" lon="0.52964">
        <ele>71</ele>
        <time>2020-10-15T14:15:36Z</time>
      </trkpt>
      <trkpt lat="47.65002" lon="0.52966">
        <ele>71</ele>
        <time>2020-10-15T14:15:38Z</time>
      </trkpt>
      <trkpt lat="47.65004" lon="0.52969">
        <ele>72</ele>
        <time>2020-10-15T14:15:40Z</time>
      </trkpt>
      <trkpt lat="47.65007" lon="0.5297">
        <ele>72</ele>
        <time>2020-10-15T14:15:42Z</time>
      </trkpt>
      <trkpt lat="47.6501" lon="0.52971">
        <ele>72</ele>
        <time>2020-10-15T14:15:44Z</time>
      </trkpt>
      <trkpt lat="47.65012" lon="0.52973">
        <ele>72</ele>
        <time>2020-10-15T14:15:46Z</time>
      </trkpt>
      <trkpt lat="47.65014" lon="0.52974">
        <ele>73</ele>
        <time>2020-10-15T14:15:48Z</time>
      </trkpt>
      <trkpt lat="47.65016" lon="0.52976">
        <ele>73</ele>
        <time>2020-10-15T14:15:50Z</time>
      </trkpt>
      <trkpt lat="47.65018" lon="0.52976">
        <ele>73</ele>
        <time>2020-10-15T14:15:52Z</time>
      </trkpt>
      <trkpt lat="47.65021" lon="0.52976">
        <ele>73</ele>
        <time>2020-10-15T14:15:54Z</time>
      </trkpt>
      <trkpt lat="47.65024" lon="0.52976">
        <ele>73</ele>
        <time>2020-10-15T14:15:56Z</time>
      </trkpt>
      <trkpt lat="47.65027" lon="0.52976">
        <ele>74</ele>
        <time>2020-10-15T14:15:58Z</time>
      </trkpt>
      <trkpt lat="47.6503" lon="0.52975">
        <ele>74</ele>
        <time>2020-10-15T14:16:00Z</time>
      </trkpt>
      <trkpt lat="47.65032" lon="0.52975">
        <ele>74</ele>
        <time>2020-10-15T14:16:02Z</time>
      </trkpt>
      <trkpt lat="47.65035" lon="0.52975">
        <ele>74</ele>
        <time>2020-10-15T14:16:04Z</time>
      </trkpt>
      <trkpt lat="47.65038" lon="0.52976">
        <ele>74</ele>
        <time>2020-10-15T14:16:06Z</time>
      </trkpt>
      <trkpt lat="47.65041" lon="0.52976">
        <ele>75</ele>
        <time>2020-10-15T14:16:08Z</time>
      </trkpt>
      <trkpt lat="47.65043" lon="0.52976">
        <ele>75</ele>
        <time>2020-10-15T14:16:11Z</time>
      </trkpt>
      <trkpt lat="47.65046" lon="0.52976">
        <ele>75</ele>
        <time>2020-10-15T14:16:13Z</time>
      </trkpt>
      <trkpt lat="47.65048" lon="0.52975">
        <ele>75</ele>
        <time>2020-10-15T14:16:15Z</time>
      </trkpt>
      <trkpt lat="47.65051" lon="0.52975">
        <ele>75</ele>
        <time>2020-10-15T14:16:17Z</time>
      </trkpt>
      <trkpt lat="47.65053" lon="0.52974">
        <ele>75</ele>
        <time>2020-10-15T14:16:19Z</time>
      </trkpt>
      <trkpt lat="47.65056" lon="0.52975">
        <ele>76</ele>
        <time>2020-10-15T14:16:21Z</time>
      </trkpt>
      <trkpt lat="47.65059" lon="0.52974">
        <ele>76</ele>
        <time>2020-10-15T14:16:23Z</time>
      </trkpt>
      <trkpt lat="47.65061" lon="0.52973">
        <ele>76</ele>
        <time>2020-10-15T14:16:25Z</time>
      </trkpt>
      <trkpt lat="47.65063" lon="0.52972">
        <ele>77</ele>
        <time>2020-10-15T14:16:27Z</time>
      </trkpt>
      <trkpt lat="47.65066" lon="0.52972">
        <ele>77</ele>
        <time>2020-10-15T14:16:29Z</time>
      </trkpt>
      <trkpt lat="47.65068" lon="0.52971">
        <ele>77</ele>
        <time>2020-10-15T14:16:31Z</time>
      </trkpt>
      <trkpt lat="47.65071" lon="0.52971">
        <ele>78</ele>
        <time>2020-10-15T14:16:33Z</time>
      </trkpt>
      <trkpt lat="47.65073" lon="0.52972">
        <ele>78</ele>
        <time>2020-10-15T14:16:35Z</time>
      </trkpt>
      <trkpt lat="47.65076" lon="0.52974">
        <ele>78</ele>
        <time>2020-10-15T14:16:37Z</time>
      </trkpt>
      <trkpt lat="47.65078" lon="0.52975">
        <ele>79</ele>
        <time>2020-10-15T14:16:38Z</time>
      </trkpt>
      <trkpt lat="47.6508" lon="0.52978">
        <ele>79</ele>
        <time>2020-10-15T14:16:40Z</time>
      </trkpt>
      <trkpt lat="47.65082" lon="0.5298">
        <ele>79</ele>
        <time>2020-10-15T14:16:42Z</time>
      </trkpt>
      <trkpt lat="47.65084" lon="0.52984">
        <ele>80</ele>
        <time>2020-10-15T14:16:44Z</time>
      </trkpt>
      <trkpt lat="47.65087" lon="0.52987">
        <ele>80</ele>
        <time>2020-10-15T14:16:46Z</time>
      </trkpt>
      <trkpt lat="47.65089" lon="0.5299">
        <ele>80</ele>
        <time>2020-10-15T14:16:48Z</time>
      </trkpt>
      <trkpt lat="47.65091" lon="0.52992">
        <ele>80</ele>
        <time>2020-10-15T14:16:50Z</time>
      </trkpt>
      <trkpt lat="47.65092" lon="0.52995">
        <ele>81</ele>
        <time>2020-10-15T14:16:52Z</time>
      </trkpt>
      <trkpt lat="47.65094" lon="0.52997">
        <ele>81</ele>
        <time>2020-10-15T14:16:54Z</time>
      </trkpt>
      <trkpt lat="47.65097" lon="0.52998">
        <ele>81</ele>
        <time>2020-10-15T14:16:56Z</time>
      </trkpt>
      <trkpt lat="47.65099" lon="0.52997">
        <ele>81</ele>
        <time>2020-10-15T14:16:59Z</time>
      </trkpt>
      <trkpt lat="47.65101" lon="0.52996">
        <ele>82</ele>
        <time>2020-10-15T14:17:02Z</time>
      </trkpt>
      <trkpt lat="47.65102" lon="0.52993">
        <ele>82</ele>
        <time>2020-10-15T14:17:06Z</time>
      </trkpt>
      <trkpt lat="47.65101" lon="0.5299">
        <ele>82</ele>
        <time>2020-10-15T14:17:09Z</time>
      </trkpt>
      <trkpt lat="47.65101" lon="0.52986">
        <ele>82</ele>
        <time>2020-10-15T14:17:11Z</time>
      </trkpt>
      <trkpt lat="47.65101" lon="0.52982">
        <ele>82</ele>
        <time>2020-10-15T14:17:13Z</time>
      </trkpt>
      <trkpt lat="47.651" lon="0.52979">
        <ele>82</ele>
        <time>2020-10-15T14:17:15Z</time>
      </trkpt>
      <trkpt lat="47.65099" lon="0.52976">
        <ele>82</ele>
        <time>2020-10-15T14:17:17Z</time>
      </trkpt>
      <trkpt lat="47.65099" lon="0.52973">
        <ele>82</ele>
        <time>2020-10-15T14:17:19Z</time>
      </trkpt>
      <trkpt lat="47.65098" lon="0.52969">
        <ele>82</ele>
        <time>2020-10-15T14:17:22Z</time>
      </trkpt>
      <trkpt lat="47.65098" lon="0.52967">
        <ele>82</ele>
        <time>2020-10-15T14:17:24Z</time>
      </trkpt>
      <trkpt lat="47.65097" lon="0.52963">
        <ele>82</ele>
        <time>2020-10-15T14:17:26Z</time>
      </trkpt>
      <trkpt lat="47.65097" lon="0.5296">
        <ele>82</ele>
        <time>2020-10-15T14:17:28Z</time>
      </trkpt>
      <trkpt lat="47.65096" lon="0.52957">
        <ele>82</ele>
        <time>2020-10-15T14:17:30Z</time>
      </trkpt>
      <trkpt lat="47.65095" lon="0.52953">
        <ele>82</ele>
        <time>2020-10-15T14:17:32Z</time>
      </trkpt>
      <trkpt lat="47.65094" lon="0.5295">
        <ele>82</ele>
        <time>2020-10-15T14:17:34Z</time>
      </trkpt>
      <trkpt lat="47.65093" lon="0.52947">
        <ele>82</ele>
        <time>2020-10-15T14:17:36Z</time>
      </trkpt>
      <trkpt lat="47.65092" lon="0.52944">
        <ele>82</ele>
        <time>2020-10-15T14:17:38Z</time>
      </trkpt>
      <trkpt lat="47.65091" lon="0.52941">
        <ele>81</ele>
        <time>2020-10-15T14:17:40Z</time>
      </trkpt>
      <trkpt lat="47.6509" lon="0.52938">
        <ele>81</ele>
        <time>2020-10-15T14:17:42Z</time>
      </trkpt>
      <trkpt lat="47.6509" lon="0.52934">
        <ele>81</ele>
        <time>2020-10-15T14:17:44Z</time>
      </trkpt>
      <trkpt lat="47.6509" lon="0.5293">
        <ele>81</ele>
        <time>2020-10-15T14:17:46Z</time>
      </trkpt>
      <trkpt lat="47.65091" lon="0.52925">
        <ele>81</ele>
        <time>2020-10-15T14:17:48Z</time>
      </trkpt>
      <trkpt lat="47.65091" lon="0.52922">
        <ele>81</ele>
        <time>2020-10-15T14:17:50Z</time>
      </trkpt>
      <trkpt lat="47.65092" lon="0.52919">
        <ele>81</ele>
        <time>2020-10-15T14:17:53Z</time>
      </trkpt>
      <trkpt lat="47.65092" lon="0.52915">
        <ele>81</ele>
        <time>2020-10-15T14:17:56Z</time>
      </trkpt>
      <trkpt lat="47.65093" lon="0.52912">
        <ele>81</ele>
        <time>2020-10-15T14:17:59Z</time>
      </trkpt>
      <trkpt lat="47.65093" lon="0.52909">
        <ele>81</ele>
        <time>2020-10-15T14:18:02Z</time>
      </trkpt>
      <trkpt lat="47.65094" lon="0.52906">
        <ele>81</ele>
        <time>2020-10-15T14:18:04Z</time>
      </trkpt>
      <trkpt lat="47.65094" lon="0.52903">
        <ele>81</ele>
        <time>2020-10-15T14:18:06Z</time>
      </trkpt>
      <trkpt lat="47.65095" lon="0.529">
        <ele>81</ele>
        <time>2020-10-15T14:18:09Z</time>
      </trkpt>
      <trkpt lat="47.65096" lon="0.52897">
        <ele>81</ele>
        <time>2020-10-15T14:18:11Z</time>
      </trkpt>
      <trkpt lat="47.65098" lon="0.52895">
        <ele>81</ele>
        <time>2020-10-15T14:18:13Z</time>
      </trkpt>
      <trkpt lat="47.651" lon="0.52893">
        <ele>82</ele>
        <time>2020-10-15T14:18:15Z</time>
      </trkpt>
      <trkpt lat="47.65102" lon="0.52893">
        <ele>82</ele>
        <time>2020-10-15T14:18:19Z</time>
      </trkpt>
      <trkpt lat="47.65104" lon="0.52891">
        <ele>82</ele>
        <time>2020-10-15T14:18:30Z</time>
      </trkpt>
      <trkpt lat="47.65105" lon="0.5289">
        <ele>82</ele>
        <time>2020-10-15T14:18:32Z</time>
      </trkpt>
      <trkpt lat="47.65108" lon="0.52888">
        <ele>83</ele>
        <time>2020-10-15T14:18:43Z</time>
      </trkpt>
      <trkpt lat="47.65109" lon="0.52886">
        <ele>83</ele>
        <time>2020-10-15T14:18:45Z</time>
      </trkpt>
      <trkpt lat="47.65112" lon="0.52884">
        <ele>83</ele>
        <time>2020-10-15T14:18:47Z</time>
      </trkpt>
      <trkpt lat="47.65114" lon="0.52882">
        <ele>84</ele>
        <time>2020-10-15T14:18:49Z</time>
      </trkpt>
      <trkpt lat="47.65116" lon="0.52879">
        <ele>84</ele>
        <time>2020-10-15T14:18:51Z</time>
      </trkpt>
      <trkpt lat="47.65117" lon="0.52877">
        <ele>84</ele>
        <time>2020-10-15T14:18:53Z</time>
      </trkpt>
      <trkpt lat="47.6512" lon="0.52875">
        <ele>84</ele>
        <time>2020-10-15T14:18:56Z</time>
      </trkpt>
      <trkpt lat="47.65122" lon="0.52872">
        <ele>84</ele>
        <time>2020-10-15T14:18:58Z</time>
      </trkpt>
      <trkpt lat="47.65124" lon="0.5287">
        <ele>84</ele>
        <time>2020-10-15T14:19:00Z</time>
      </trkpt>
      <trkpt lat="47.65126" lon="0.52868">
        <ele>84</ele>
        <time>2020-10-15T14:19:02Z</time>
      </trkpt>
      <trkpt lat="47.65128" lon="0.52866">
        <ele>85</ele>
        <time>2020-10-15T14:19:04Z</time>
      </trkpt>
      <trkpt lat="47.65129" lon="0.52863">
        <ele>85</ele>
        <time>2020-10-15T14:19:18Z</time>
      </trkpt>
      <trkpt lat="47.65131" lon="0.52864">
        <ele>85</ele>
        <time>2020-10-15T14:19:22Z</time>
      </trkpt>
      <trkpt lat="47.65133" lon="0.52862">
        <ele>85</ele>
        <time>2020-10-15T14:19:24Z</time>
      </trkpt>
      <trkpt lat="47.65135" lon="0.5286">
        <ele>85</ele>
        <time>2020-10-15T14:19:26Z</time>
      </trkpt>
      <trkpt lat="47.65135" lon="0.52858">
        <ele>85</ele>
        <time>2020-10-15T14:19:28Z</time>
      </trkpt>
      <trkpt lat="47.65136" lon="0.52854">
        <ele>85</ele>
        <time>2020-10-15T14:19:30Z</time>
      </trkpt>
      <trkpt lat="47.65136" lon="0.5285">
        <ele>84</ele>
        <time>2020-10-15T14:19:32Z</time>
      </trkpt>
      <trkpt lat="47.65137" lon="0.52846">
        <ele>84</ele>
        <time>2020-10-15T14:19:34Z</time>
      </trkpt>
      <trkpt lat="47.65137" lon="0.52842">
        <ele>84</ele>
        <time>2020-10-15T14:19:36Z</time>
      </trkpt>
      <trkpt lat="47.65137" lon="0.52839">
        <ele>84</ele>
        <time>2020-10-15T14:19:38Z</time>
      </trkpt>
      <trkpt lat="47.65138" lon="0.52835">
        <ele>84</ele>
        <time>2020-10-15T14:19:40Z</time>
      </trkpt>
      <trkpt lat="47.65139" lon="0.52831">
        <ele>83</ele>
        <time>2020-10-15T14:19:42Z</time>
      </trkpt>
      <trkpt lat="47.65141" lon="0.52829">
        <ele>83</ele>
        <time>2020-10-15T14:19:44Z</time>
      </trkpt>
      <trkpt lat="47.65142" lon="0.52826">
        <ele>83</ele>
        <time>2020-10-15T14:19:46Z</time>
      </trkpt>
      <trkpt lat="47.65143" lon="0.52821">
        <ele>83</ele>
        <time>2020-10-15T14:19:48Z</time>
      </trkpt>
      <trkpt lat="47.65143" lon="0.52819">
        <ele>82</ele>
        <time>2020-10-15T14:19:49Z</time>
      </trkpt>
      <trkpt lat="47.65145" lon="0.52816">
        <ele>82</ele>
        <time>2020-10-15T14:19:51Z</time>
      </trkpt>
      <trkpt lat="47.65147" lon="0.52814">
        <ele>82</ele>
        <time>2020-10-15T14:19:53Z</time>
      </trkpt>
      <trkpt lat="47.65148" lon="0.52812">
        <ele>82</ele>
        <time>2020-10-15T14:19:55Z</time>
      </trkpt>
      <trkpt lat="47.6515" lon="0.52809">
        <ele>82</ele>
        <time>2020-10-15T14:19:57Z</time>
      </trkpt>
      <trkpt lat="47.65153" lon="0.52808">
        <ele>82</ele>
        <time>2020-10-15T14:19:59Z</time>
      </trkpt>
      <trkpt lat="47.65155" lon="0.52806">
        <ele>82</ele>
        <time>2020-10-15T14:20:01Z</time>
      </trkpt>
      <trkpt lat="47.65156" lon="0.52804">
        <ele>82</ele>
        <time>2020-10-15T14:20:03Z</time>
      </trkpt>
      <trkpt lat="47.65157" lon="0.52801">
        <ele>81</ele>
        <time>2020-10-15T14:20:05Z</time>
      </trkpt>
      <trkpt lat="47.65159" lon="0.52799">
        <ele>81</ele>
        <time>2020-10-15T14:20:07Z</time>
      </trkpt>
      <trkpt lat="47.65161" lon="0.52797">
        <ele>81</ele>
        <time>2020-10-15T14:20:09Z</time>
      </trkpt>
      <trkpt lat="47.65163" lon="0.52795">
        <ele>81</ele>
        <time>2020-10-15T14:20:11Z</time>
      </trkpt>
      <trkpt lat="47.65164" lon="0.52793">
        <ele>81</ele>
        <time>2020-10-15T14:20:13Z</time>
      </trkpt>
      <trkpt lat="47.65166" lon="0.52791">
        <ele>80</ele>
        <time>2020-10-15T14:20:15Z</time>
      </trkpt>
      <trkpt lat="47.65168" lon="0.5279">
        <ele>80</ele>
        <time>2020-10-15T14:20:17Z</time>
      </trkpt>
      <trkpt lat="47.6517" lon="0.52789">
        <ele>80</ele>
        <time>2020-10-15T14:20:20Z</time>
      </trkpt>
      <trkpt lat="47.65172" lon="0.52786">
        <ele>80</ele>
        <time>2020-10-15T14:20:23Z</time>
      </trkpt>
      <trkpt lat="47.65173" lon="0.52783">
        <ele>80</ele>
        <time>2020-10-15T14:20:30Z</time>
      </trkpt>
      <trkpt lat="47.65175" lon="0.52782">
        <ele>79</ele>
        <time>2020-10-15T14:20:32Z</time>
      </trkpt>
      <trkpt lat="47.65177" lon="0.52781">
        <ele>79</ele>
        <time>2020-10-15T14:20:35Z</time>
      </trkpt>
      <trkpt lat="47.6518" lon="0.5278">
        <ele>79</ele>
        <time>2020-10-15T14:20:38Z</time>
      </trkpt>
      <trkpt lat="47.65182" lon="0.52778">
        <ele>79</ele>
        <time>2020-10-15T14:20:40Z</time>
      </trkpt>
      <trkpt lat="47.65184" lon="0.52776">
        <ele>79</ele>
        <time>2020-10-15T14:20:42Z</time>
      </trkpt>
      <trkpt lat="47.65186" lon="0.52774">
        <ele>79</ele>
        <time>2020-10-15T14:20:44Z</time>
      </trkpt>
      <trkpt lat="47.65188" lon="0.52772">
        <ele>78</ele>
        <time>2020-10-15T14:20:46Z</time>
      </trkpt>
      <trkpt lat="47.65189" lon="0.52771">
        <ele>78</ele>
        <time>2020-10-15T14:20:48Z</time>
      </trkpt>
      <trkpt lat="47.65191" lon="0.5277">
        <ele>78</ele>
        <time>2020-10-15T14:20:50Z</time>
      </trkpt>
      <trkpt lat="47.65193" lon="0.52766">
        <ele>78</ele>
        <time>2020-10-15T14:20:54Z</time>
      </trkpt>
      <trkpt lat="47.65195" lon="0.52765">
        <ele>78</ele>
        <time>2020-10-15T14:20:57Z</time>
      </trkpt>
      <trkpt lat="47.65197" lon="0.52763">
        <ele>77</ele>
        <time>2020-10-15T14:20:59Z</time>
      </trkpt>
      <trkpt lat="47.65199" lon="0.52761">
        <ele>77</ele>
        <time>2020-10-15T14:21:01Z</time>
      </trkpt>
      <trkpt lat="47.65201" lon="0.52759">
        <ele>77</ele>
        <time>2020-10-15T14:21:03Z</time>
      </trkpt>
      <trkpt lat="47.65204" lon="0.52757">
        <ele>77</ele>
        <time>2020-10-15T14:21:05Z</time>
      </trkpt>
      <trkpt lat="47.65206" lon="0.52755">
        <ele>77</ele>
        <time>2020-10-15T14:21:07Z</time>
      </trkpt>
      <trkpt lat="47.65209" lon="0.52754">
        <ele>77</ele>
        <time>2020-10-15T14:21:09Z</time>
      </trkpt>
      <trkpt lat="47.65211" lon="0.52752">
        <ele>76</ele>
        <time>2020-10-15T14:21:11Z</time>
      </trkpt>
      <trkpt lat="47.65214" lon="0.52752">
        <ele>76</ele>
        <time>2020-10-15T14:21:13Z</time>
      </trkpt>
      <trkpt lat="47.65216" lon="0.5275">
        <ele>76</ele>
        <time>2020-10-15T14:21:15Z</time>
      </trkpt>
      <trkpt lat="47.65219" lon="0.5275">
        <ele>76</ele>
        <time>2020-10-15T14:21:17Z</time>
      </trkpt>
      <trkpt lat="47.65221" lon="0.5275">
        <ele>77</ele>
        <time>2020-10-15T14:21:19Z</time>
      </trkpt>
      <trkpt lat="47.65224" lon="0.52751">
        <ele>77</ele>
        <time>2020-10-15T14:21:21Z</time>
      </trkpt>
      <trkpt lat="47.65227" lon="0.52752">
        <ele>77</ele>
        <time>2020-10-15T14:21:23Z</time>
      </trkpt>
      <trkpt lat="47.6523" lon="0.52753">
        <ele>77</ele>
        <time>2020-10-15T14:21:25Z</time>
      </trkpt>
      <trkpt lat="47.65232" lon="0.52754">
        <ele>77</ele>
        <time>2020-10-15T14:21:27Z</time>
      </trkpt>
      <trkpt lat="47.65234" lon="0.52755">
        <ele>77</ele>
        <time>2020-10-15T14:21:29Z</time>
      </trkpt>
      <trkpt lat="47.65237" lon="0.52756">
        <ele>77</ele>
        <time>2020-10-15T14:21:31Z</time>
      </trkpt>
      <trkpt lat="47.6524" lon="0.52756">
        <ele>77</ele>
        <time>2020-10-15T14:21:33Z</time>
      </trkpt>
      <trkpt lat="47.65242" lon="0.52756">
        <ele>77</ele>
        <time>2020-10-15T14:21:35Z</time>
      </trkpt>
      <trkpt lat="47.65245" lon="0.52756">
        <ele>77</ele>
        <time>2020-10-15T14:21:37Z</time>
      </trkpt>
      <trkpt lat="47.65247" lon="0.52757">
        <ele>77</ele>
        <time>2020-10-15T14:21:39Z</time>
      </trkpt>
      <trkpt lat="47.65249" lon="0.52757">
        <ele>77</ele>
        <time>2020-10-15T14:21:41Z</time>
      </trkpt>
      <trkpt lat="47.65251" lon="0.52757">
        <ele>77</ele>
        <time>2020-10-15T14:21:43Z</time>
      </trkpt>
      <trkpt lat="47.65254" lon="0.52757">
        <ele>77</ele>
        <time>2020-10-15T14:21:45Z</time>
      </trkpt>
      <trkpt lat="47.65257" lon="0.52756">
        <ele>77</ele>
        <time>2020-10-15T14:21:47Z</time>
      </trkpt>
      <trkpt lat="47.65259" lon="0.52756">
        <ele>77</ele>
        <time>2020-10-15T14:21:49Z</time>
      </trkpt>
      <trkpt lat="47.65262" lon="0.52754">
        <ele>77</ele>
        <time>2020-10-15T14:21:51Z</time>
      </trkpt>
      <trkpt lat="47.65265" lon="0.52753">
        <ele>77</ele>
        <time>2020-10-15T14:21:53Z</time>
      </trkpt>
      <trkpt lat="47.65267" lon="0.52752">
        <ele>77</ele>
        <time>2020-10-15T14:21:55Z</time>
      </trkpt>
      <trkpt lat="47.6527" lon="0.52751">
        <ele>77</ele>
        <time>2020-10-15T14:21:57Z</time>
      </trkpt>
      <trkpt lat="47.65273" lon="0.5275">
        <ele>77</ele>
        <time>2020-10-15T14:21:59Z</time>
      </trkpt>
      <trkpt lat="47.65276" lon="0.52749">
        <ele>77</ele>
        <time>2020-10-15T14:22:01Z</time>
      </trkpt>
      <trkpt lat="47.65278" lon="0.52748">
        <ele>77</ele>
        <time>2020-10-15T14:22:03Z</time>
      </trkpt>
      <trkpt lat="47.65281" lon="0.52747">
        <ele>77</ele>
        <time>2020-10-15T14:22:05Z</time>
      </trkpt>
      <trkpt lat="47.65284" lon="0.52746">
        <ele>77</ele>
        <time>2020-10-15T14:22:07Z</time>
      </trkpt>
      <trkpt lat="47.65287" lon="0.52745">
        <ele>77</ele>
        <time>2020-10-15T14:22:09Z</time>
      </trkpt>
      <trkpt lat="47.65289" lon="0.52745">
        <ele>78</ele>
        <time>2020-10-15T14:22:11Z</time>
      </trkpt>
      <trkpt lat="47.65292" lon="0.52747">
        <ele>78</ele>
        <time>2020-10-15T14:22:13Z</time>
      </trkpt>
      <trkpt lat="47.65295" lon="0.52749">
        <ele>78</ele>
        <time>2020-10-15T14:22:15Z</time>
      </trkpt>
      <trkpt lat="47.65297" lon="0.52752">
        <ele>78</ele>
        <time>2020-10-15T14:22:17Z</time>
      </trkpt>
      <trkpt lat="47.65299" lon="0.52754">
        <ele>78</ele>
        <time>2020-10-15T14:22:19Z</time>
      </trkpt>
      <trkpt lat="47.653" lon="0.52757">
        <ele>79</ele>
        <time>2020-10-15T14:22:21Z</time>
      </trkpt>
      <trkpt lat="47.65302" lon="0.5276">
        <ele>79</ele>
        <time>2020-10-15T14:22:23Z</time>
      </trkpt>
      <trkpt lat="47.65304" lon="0.52763">
        <ele>79</ele>
        <time>2020-10-15T14:22:25Z</time>
      </trkpt>
      <trkpt lat="47.65305" lon="0.52766">
        <ele>79</ele>
        <time>2020-10-15T14:22:27Z</time>
      </trkpt>
      <trkpt lat="47.65306" lon="0.52769">
        <ele>79</ele>
        <time>2020-10-15T14:22:29Z</time>
      </trkpt>
      <trkpt lat="47.65308" lon="0.52772">
        <ele>79</ele>
        <time>2020-10-15T14:22:31Z</time>
      </trkpt>
      <trkpt lat="47.6531" lon="0.52775">
        <ele>79</ele>
        <time>2020-10-15T14:22:33Z</time>
      </trkpt>
      <trkpt lat="47.65312" lon="0.52777">
        <ele>79</ele>
        <time>2020-10-15T14:22:35Z</time>
      </trkpt>
      <trkpt lat="47.65314" lon="0.5278">
        <ele>80</ele>
        <time>2020-10-15T14:22:37Z</time>
      </trkpt>
      <trkpt lat="47.65316" lon="0.52782">
        <ele>80</ele>
        <time>2020-10-15T14:22:39Z</time>
      </trkpt>
      <trkpt lat="47.65318" lon="0.52783">
        <ele>80</ele>
        <time>2020-10-15T14:22:41Z</time>
      </trkpt>
      <trkpt lat="47.6532" lon="0.52785">
        <ele>80</ele>
        <time>2020-10-15T14:22:43Z</time>
      </trkpt>
      <trkpt lat="47.65322" lon="0.52786">
        <ele>80</ele>
        <time>2020-10-15T14:22:45Z</time>
      </trkpt>
      <trkpt lat="47.65324" lon="0.52787">
        <ele>80</ele>
        <time>2020-10-15T14:22:47Z</time>
      </trkpt>
      <trkpt lat="47.65327" lon="0.52789">
        <ele>80</ele>
        <time>2020-10-15T14:22:49Z</time>
      </trkpt>
      <trkpt lat="47.65331" lon="0.52791">
        <ele>80</ele>
        <time>2020-10-15T14:22:51Z</time>
      </trkpt>
      <trkpt lat="47.65333" lon="0.52793">
        <ele>80</ele>
        <time>2020-10-15T14:22:53Z</time>
      </trkpt>
      <trkpt lat="47.65336" lon="0.52795">
        <ele>80</ele>
        <time>2020-10-15T14:22:55Z</time>
      </trkpt>
      <trkpt lat="47.65338" lon="0.52796">
        <ele>80</ele>
        <time>2020-10-15T14:22:57Z</time>
      </trkpt>
      <trkpt lat="47.65341" lon="0.52798">
        <ele>80</ele>
        <time>2020-10-15T14:22:59Z</time>
      </trkpt>
      <trkpt lat="47.65343" lon="0.528">
        <ele>80</ele>
        <time>2020-10-15T14:23:01Z</time>
      </trkpt>
      <trkpt lat="47.65345" lon="0.52802">
        <ele>80</ele>
        <time>2020-10-15T14:23:03Z</time>
      </trkpt>
      <trkpt lat="47.65347" lon="0.52803">
        <ele>79</ele>
        <time>2020-10-15T14:23:05Z</time>
      </trkpt>
      <trkpt lat="47.6535" lon="0.52807">
        <ele>79</ele>
        <time>2020-10-15T14:23:08Z</time>
      </trkpt>
      <trkpt lat="47.65351" lon="0.5281">
        <ele>80</ele>
        <time>2020-10-15T14:23:10Z</time>
      </trkpt>
      <trkpt lat="47.65352" lon="0.52812">
        <ele>80</ele>
        <time>2020-10-15T14:23:20Z</time>
      </trkpt>
      <trkpt lat="47.65354" lon="0.52814">
        <ele>80</ele>
        <time>2020-10-15T14:23:22Z</time>
      </trkpt>
      <trkpt lat="47.65356" lon="0.52816">
        <ele>80</ele>
        <time>2020-10-15T14:23:24Z</time>
      </trkpt>
      <trkpt lat="47.65358" lon="0.52819">
        <ele>80</ele>
        <time>2020-10-15T14:23:26Z</time>
      </trkpt>
      <trkpt lat="47.6536" lon="0.52822">
        <ele>80</ele>
        <time>2020-10-15T14:23:28Z</time>
      </trkpt>
      <trkpt lat="47.65363" lon="0.52825">
        <ele>80</ele>
        <time>2020-10-15T14:23:30Z</time>
      </trkpt>
      <trkpt lat="47.65365" lon="0.52827">
        <ele>80</ele>
        <time>2020-10-15T14:23:32Z</time>
      </trkpt>
      <trkpt lat="47.65367" lon="0.5283">
        <ele>80</ele>
        <time>2020-10-15T14:23:34Z</time>
      </trkpt>
      <trkpt lat="47.65369" lon="0.52832">
        <ele>79</ele>
        <time>2020-10-15T14:23:36Z</time>
      </trkpt>
      <trkpt lat="47.65372" lon="0.52834">
        <ele>79</ele>
        <time>2020-10-15T14:23:38Z</time>
      </trkpt>
      <trkpt lat="47.65375" lon="0.52836">
        <ele>79</ele>
        <time>2020-10-15T14:23:40Z</time>
      </trkpt>
      <trkpt lat="47.65376" lon="0.52839">
        <ele>79</ele>
        <time>2020-10-15T14:23:42Z</time>
      </trkpt>
      <trkpt lat="47.65378" lon="0.52843">
        <ele>80</ele>
        <time>2020-10-15T14:23:44Z</time>
      </trkpt>
      <trkpt lat="47.6538" lon="0.52847">
        <ele>80</ele>
        <time>2020-10-15T14:23:46Z</time>
      </trkpt>
      <trkpt lat="47.65381" lon="0.52849">
        <ele>80</ele>
        <time>2020-10-15T14:23:47Z</time>
      </trkpt>
      <trkpt lat="47.65382" lon="0.52852">
        <ele>80</ele>
        <time>2020-10-15T14:23:48Z</time>
      </trkpt>
      <trkpt lat="47.65382" lon="0.52854">
        <ele>80</ele>
        <time>2020-10-15T14:23:49Z</time>
      </trkpt>
      <trkpt lat="47.65384" lon="0.52858">
        <ele>80</ele>
        <time>2020-10-15T14:23:51Z</time>
      </trkpt>
      <trkpt lat="47.65385" lon="0.52863">
        <ele>80</ele>
        <time>2020-10-15T14:23:53Z</time>
      </trkpt>
      <trkpt lat="47.65386" lon="0.52868">
        <ele>80</ele>
        <time>2020-10-15T14:23:55Z</time>
      </trkpt>
      <trkpt lat="47.65387" lon="0.52873">
        <ele>80</ele>
        <time>2020-10-15T14:23:57Z</time>
      </trkpt>
      <trkpt lat="47.65388" lon="0.52877">
        <ele>80</ele>
        <time>2020-10-15T14:23:59Z</time>
      </trkpt>
      <trkpt lat="47.65389" lon="0.5288">
        <ele>80</ele>
        <time>2020-10-15T14:24:01Z</time>
      </trkpt>
      <trkpt lat="47.6539" lon="0.52884">
        <ele>79</ele>
        <time>2020-10-15T14:24:03Z</time>
      </trkpt>
      <trkpt lat="47.65391" lon="0.52887">
        <ele>79</ele>
        <time>2020-10-15T14:24:05Z</time>
      </trkpt>
      <trkpt lat="47.65392" lon="0.52891">
        <ele>79</ele>
        <time>2020-10-15T14:24:07Z</time>
      </trkpt>
      <trkpt lat="47.65392" lon="0.52894">
        <ele>79</ele>
        <time>2020-10-15T14:24:09Z</time>
      </trkpt>
      <trkpt lat="47.65393" lon="0.52898">
        <ele>79</ele>
        <time>2020-10-15T14:24:11Z</time>
      </trkpt>
      <trkpt lat="47.65394" lon="0.52902">
        <ele>79</ele>
        <time>2020-10-15T14:24:13Z</time>
      </trkpt>
      <trkpt lat="47.65393" lon="0.52906">
        <ele>79</ele>
        <time>2020-10-15T14:24:15Z</time>
      </trkpt>
      <trkpt lat="47.65395" lon="0.5291">
        <ele>79</ele>
        <time>2020-10-15T14:24:17Z</time>
      </trkpt>
      <trkpt lat="47.65396" lon="0.52912">
        <ele>78</ele>
        <time>2020-10-15T14:24:19Z</time>
      </trkpt>
      <trkpt lat="47.65397" lon="0.52915">
        <ele>78</ele>
        <time>2020-10-15T14:24:21Z</time>
      </trkpt>
      <trkpt lat="47.65399" lon="0.52919">
        <ele>78</ele>
        <time>2020-10-15T14:24:23Z</time>
      </trkpt>
      <trkpt lat="47.654" lon="0.52921">
        <ele>78</ele>
        <time>2020-10-15T14:24:25Z</time>
      </trkpt>
      <trkpt lat="47.65402" lon="0.52924">
        <ele>77</ele>
        <time>2020-10-15T14:24:27Z</time>
      </trkpt>
      <trkpt lat="47.65403" lon="0.52927">
        <ele>77</ele>
        <time>2020-10-15T14:24:29Z</time>
      </trkpt>
      <trkpt lat="47.65405" lon="0.52929">
        <ele>77</ele>
        <time>2020-10-15T14:24:31Z</time>
      </trkpt>
      <trkpt lat="47.65407" lon="0.52931">
        <ele>76</ele>
        <time>2020-10-15T14:24:33Z</time>
      </trkpt>
      <trkpt lat="47.65409" lon="0.52934">
        <ele>76</ele>
        <time>2020-10-15T14:24:35Z</time>
      </trkpt>
      <trkpt lat="47.65411" lon="0.52936">
        <ele>76</ele>
        <time>2020-10-15T14:24:37Z</time>
      </trkpt>
      <trkpt lat="47.65413" lon="0.52939">
        <ele>75</ele>
        <time>2020-10-15T14:24:39Z</time>
      </trkpt>
      <trkpt lat="47.65415" lon="0.52941">
        <ele>75</ele>
        <time>2020-10-15T14:24:41Z</time>
      </trkpt>
      <trkpt lat="47.65417" lon="0.52943">
        <ele>74</ele>
        <time>2020-10-15T14:24:43Z</time>
      </trkpt>
      <trkpt lat="47.65419" lon="0.52945">
        <ele>74</ele>
        <time>2020-10-15T14:24:45Z</time>
      </trkpt>
      <trkpt lat="47.6542" lon="0.52947">
        <ele>74</ele>
        <time>2020-10-15T14:24:48Z</time>
      </trkpt>
      <trkpt lat="47.65422" lon="0.52948">
        <ele>74</ele>
        <time>2020-10-15T14:24:50Z</time>
      </trkpt>
      <trkpt lat="47.65424" lon="0.5295">
        <ele>73</ele>
        <time>2020-10-15T14:24:52Z</time>
      </trkpt>
      <trkpt lat="47.65426" lon="0.52952">
        <ele>73</ele>
        <time>2020-10-15T14:24:54Z</time>
      </trkpt>
      <trkpt lat="47.65427" lon="0.52955">
        <ele>73</ele>
        <time>2020-10-15T14:24:56Z</time>
      </trkpt>
      <trkpt lat="47.65429" lon="0.52958">
        <ele>73</ele>
        <time>2020-10-15T14:24:58Z</time>
      </trkpt>
      <trkpt lat="47.6543" lon="0.52961">
        <ele>73</ele>
        <time>2020-10-15T14:25:00Z</time>
      </trkpt>
      <trkpt lat="47.65432" lon="0.52963">
        <ele>73</ele>
        <time>2020-10-15T14:25:02Z</time>
      </trkpt>
      <trkpt lat="47.65434" lon="0.52966">
        <ele>73</ele>
        <time>2020-10-15T14:25:04Z</time>
      </trkpt>
      <trkpt lat="47.65435" lon="0.52968">
        <ele>73</ele>
        <time>2020-10-15T14:25:06Z</time>
      </trkpt>
      <trkpt lat="47.65437" lon="0.52971">
        <ele>73</ele>
        <time>2020-10-15T14:25:08Z</time>
      </trkpt>
      <trkpt lat="47.65438" lon="0.52974">
        <ele>73</ele>
        <time>2020-10-15T14:25:10Z</time>
      </trkpt>
      <trkpt lat="47.6544" lon="0.52977">
        <ele>73</ele>
        <time>2020-10-15T14:25:12Z</time>
      </trkpt>
      <trkpt lat="47.65441" lon="0.5298">
        <ele>73</ele>
        <time>2020-10-15T14:25:14Z</time>
      </trkpt>
      <trkpt lat="47.65443" lon="0.52983">
        <ele>73</ele>
        <time>2020-10-15T14:25:16Z</time>
      </trkpt>
      <trkpt lat="47.65445" lon="0.52986">
        <ele>73</ele>
        <time>2020-10-15T14:25:18Z</time>
      </trkpt>
      <trkpt lat="47.65447" lon="0.52989">
        <ele>73</ele>
        <time>2020-10-15T14:25:20Z</time>
      </trkpt>
      <trkpt lat="47.65448" lon="0.52992">
        <ele>73</ele>
        <time>2020-10-15T14:25:22Z</time>
      </trkpt>
      <trkpt lat="47.6545" lon="0.52995">
        <ele>73</ele>
        <time>2020-10-15T14:25:24Z</time>
      </trkpt>
      <trkpt lat="47.65452" lon="0.52999">
        <ele>74</ele>
        <time>2020-10-15T14:25:26Z</time>
      </trkpt>
      <trkpt lat="47.65453" lon="0.53002">
        <ele>74</ele>
        <time>2020-10-15T14:25:28Z</time>
      </trkpt>
      <trkpt lat="47.65454" lon="0.53005">
        <ele>74</ele>
        <time>2020-10-15T14:25:30Z</time>
      </trkpt>
      <trkpt lat="47.65456" lon="0.53008">
        <ele>74</ele>
        <time>2020-10-15T14:25:32Z</time>
      </trkpt>
      <trkpt lat="47.65457" lon="0.53011">
        <ele>74</ele>
        <time>2020-10-15T14:25:34Z</time>
      </trkpt>
      <trkpt lat="47.65459" lon="0.53014">
        <ele>74</ele>
        <time>2020-10-15T14:25:36Z</time>
      </trkpt>
      <trkpt lat="47.6546" lon="0.53017">
        <ele>74</ele>
        <time>2020-10-15T14:25:38Z</time>
      </trkpt>
      <trkpt lat="47.65462" lon="0.5302">
        <ele>74</ele>
        <time>2020-10-15T14:25:40Z</time>
      </trkpt>
      <trkpt lat="47.65462" lon="0.53024">
        <ele>74</ele>
        <time>2020-10-15T14:25:42Z</time>
      </trkpt>
      <trkpt lat="47.65463" lon="0.53028">
        <ele>74</ele>
        <time>2020-10-15T14:25:44Z</time>
      </trkpt>
      <trkpt lat="47.65464" lon="0.53031">
        <ele>74</ele>
        <time>2020-10-15T14:25:46Z</time>
      </trkpt>
      <trkpt lat="47.65465" lon="0.53033">
        <ele>74</ele>
        <time>2020-10-15T14:25:48Z</time>
      </trkpt>
      <trkpt lat="47.65467" lon="0.53036">
        <ele>74</ele>
        <time>2020-10-15T14:25:50Z</time>
      </trkpt>
      <trkpt lat="47.65469" lon="0.53039">
        <ele>74</ele>
        <time>2020-10-15T14:25:52Z</time>
      </trkpt>
      <trkpt lat="47.6547" lon="0.53042">
        <ele>74</ele>
        <time>2020-10-15T14:25:54Z</time>
      </trkpt>
      <trkpt lat="47.65472" lon="0.53044">
        <ele>74</ele>
        <time>2020-10-15T14:25:56Z</time>
      </trkpt>
      <trkpt lat="47.65474" lon="0.53047">
        <ele>74</ele>
        <time>2020-10-15T14:25:58Z</time>
      </trkpt>
      <trkpt lat="47.65476" lon="0.5305">
        <ele>74</ele>
        <time>2020-10-15T14:26:00Z</time>
      </trkpt>
      <trkpt lat="47.65477" lon="0.53052">
        <ele>74</ele>
        <time>2020-10-15T14:26:02Z</time>
      </trkpt>
      <trkpt lat="47.65478" lon="0.53055">
        <ele>74</ele>
        <time>2020-10-15T14:26:04Z</time>
      </trkpt>
      <trkpt lat="47.6548" lon="0.53058">
        <ele>75</ele>
        <time>2020-10-15T14:26:06Z</time>
      </trkpt>
      <trkpt lat="47.65481" lon="0.53061">
        <ele>75</ele>
        <time>2020-10-15T14:26:08Z</time>
      </trkpt>
      <trkpt lat="47.65482" lon="0.53063">
        <ele>75</ele>
        <time>2020-10-15T14:26:10Z</time>
      </trkpt>
      <trkpt lat="47.65484" lon="0.53065">
        <ele>75</ele>
        <time>2020-10-15T14:26:12Z</time>
      </trkpt>
      <trkpt lat="47.65485" lon="0.53068">
        <ele>75</ele>
        <time>2020-10-15T14:26:14Z</time>
      </trkpt>
      <trkpt lat="47.65486" lon="0.53071">
        <ele>75</ele>
        <time>2020-10-15T14:26:16Z</time>
      </trkpt>
      <trkpt lat="47.65487" lon="0.53075">
        <ele>74</ele>
        <time>2020-10-15T14:26:18Z</time>
      </trkpt>
      <trkpt lat="47.65488" lon="0.53078">
        <ele>74</ele>
        <time>2020-10-15T14:26:20Z</time>
      </trkpt>
      <trkpt lat="47.65489" lon="0.53081">
        <ele>74</ele>
        <time>2020-10-15T14:26:21Z</time>
      </trkpt>
      <trkpt lat="47.6549" lon="0.53085">
        <ele>74</ele>
        <time>2020-10-15T14:26:23Z</time>
      </trkpt>
      <trkpt lat="47.65491" lon="0.53089">
        <ele>75</ele>
        <time>2020-10-15T14:26:25Z</time>
      </trkpt>
      <trkpt lat="47.65492" lon="0.53093">
        <ele>75</ele>
        <time>2020-10-15T14:26:27Z</time>
      </trkpt>
      <trkpt lat="47.65493" lon="0.53098">
        <ele>75</ele>
        <time>2020-10-15T14:26:29Z</time>
      </trkpt>
      <trkpt lat="47.65495" lon="0.53102">
        <ele>75</ele>
        <time>2020-10-15T14:26:31Z</time>
      </trkpt>
      <trkpt lat="47.65496" lon="0.53106">
        <ele>75</ele>
        <time>2020-10-15T14:26:33Z</time>
      </trkpt>
      <trkpt lat="47.65497" lon="0.5311">
        <ele>75</ele>
        <time>2020-10-15T14:26:35Z</time>
      </trkpt>
      <trkpt lat="47.65498" lon="0.53115">
        <ele>75</ele>
        <time>2020-10-15T14:26:37Z</time>
      </trkpt>
      <trkpt lat="47.65499" lon="0.53118">
        <ele>75</ele>
        <time>2020-10-15T14:26:39Z</time>
      </trkpt>
      <trkpt lat="47.65501" lon="0.53121">
        <ele>75</ele>
        <time>2020-10-15T14:26:41Z</time>
      </trkpt>
      <trkpt lat="47.65502" lon="0.53126">
        <ele>76</ele>
        <time>2020-10-15T14:26:43Z</time>
      </trkpt>
      <trkpt lat="47.65503" lon="0.5313">
        <ele>76</ele>
        <time>2020-10-15T14:26:45Z</time>
      </trkpt>
      <trkpt lat="47.65504" lon="0.53133">
        <ele>76</ele>
        <time>2020-10-15T14:26:47Z</time>
      </trkpt>
      <trkpt lat="47.65505" lon="0.53137">
        <ele>77</ele>
        <time>2020-10-15T14:26:49Z</time>
      </trkpt>
      <trkpt lat="47.65505" lon="0.5314">
        <ele>77</ele>
        <time>2020-10-15T14:26:51Z</time>
      </trkpt>
      <trkpt lat="47.65506" lon="0.53144">
        <ele>77</ele>
        <time>2020-10-15T14:26:53Z</time>
      </trkpt>
      <trkpt lat="47.65507" lon="0.53148">
        <ele>77</ele>
        <time>2020-10-15T14:26:55Z</time>
      </trkpt>
      <trkpt lat="47.65507" lon="0.53152">
        <ele>77</ele>
        <time>2020-10-15T14:26:57Z</time>
      </trkpt>
      <trkpt lat="47.65508" lon="0.53155">
        <ele>78</ele>
        <time>2020-10-15T14:26:59Z</time>
      </trkpt>
      <trkpt lat="47.65508" lon="0.53158">
        <ele>78</ele>
        <time>2020-10-15T14:27:01Z</time>
      </trkpt>
      <trkpt lat="47.65509" lon="0.53161">
        <ele>78</ele>
        <time>2020-10-15T14:27:03Z</time>
      </trkpt>
      <trkpt lat="47.65509" lon="0.53163">
        <ele>78</ele>
        <time>2020-10-15T14:27:05Z</time>
      </trkpt>
      <trkpt lat="47.65511" lon="0.53166">
        <ele>78</ele>
        <time>2020-10-15T14:27:07Z</time>
      </trkpt>
      <trkpt lat="47.65511" lon="0.53169">
        <ele>78</ele>
        <time>2020-10-15T14:27:09Z</time>
      </trkpt>
      <trkpt lat="47.65511" lon="0.53173">
        <ele>78</ele>
        <time>2020-10-15T14:27:11Z</time>
      </trkpt>
      <trkpt lat="47.65511" lon="0.53177">
        <ele>79</ele>
        <time>2020-10-15T14:27:13Z</time>
      </trkpt>
      <trkpt lat="47.65512" lon="0.53181">
        <ele>79</ele>
        <time>2020-10-15T14:27:15Z</time>
      </trkpt>
      <trkpt lat="47.65513" lon="0.53184">
        <ele>79</ele>
        <time>2020-10-15T14:27:17Z</time>
      </trkpt>
      <trkpt lat="47.65513" lon="0.53188">
        <ele>79</ele>
        <time>2020-10-15T14:27:19Z</time>
      </trkpt>
      <trkpt lat="47.65514" lon="0.53191">
        <ele>79</ele>
        <time>2020-10-15T14:27:21Z</time>
      </trkpt>
      <trkpt lat="47.65514" lon="0.53195">
        <ele>79</ele>
        <time>2020-10-15T14:27:23Z</time>
      </trkpt>
      <trkpt lat="47.65516" lon="0.53199">
        <ele>79</ele>
        <time>2020-10-15T14:27:25Z</time>
      </trkpt>
      <trkpt lat="47.65517" lon="0.53203">
        <ele>79</ele>
        <time>2020-10-15T14:27:27Z</time>
      </trkpt>
      <trkpt lat="47.65517" lon="0.53207">
        <ele>79</ele>
        <time>2020-10-15T14:27:29Z</time>
      </trkpt>
      <trkpt lat="47.65518" lon="0.53211">
        <ele>79</ele>
        <time>2020-10-15T14:27:31Z</time>
      </trkpt>
      <trkpt lat="47.6552" lon="0.53215">
        <ele>79</ele>
        <time>2020-10-15T14:27:33Z</time>
      </trkpt>
      <trkpt lat="47.65521" lon="0.53219">
        <ele>79</ele>
        <time>2020-10-15T14:27:35Z</time>
      </trkpt>
      <trkpt lat="47.65521" lon="0.53223">
        <ele>79</ele>
        <time>2020-10-15T14:27:37Z</time>
      </trkpt>
      <trkpt lat="47.65522" lon="0.53227">
        <ele>79</ele>
        <time>2020-10-15T14:27:39Z</time>
      </trkpt>
      <trkpt lat="47.65522" lon="0.5323">
        <ele>79</ele>
        <time>2020-10-15T14:27:41Z</time>
      </trkpt>
      <trkpt lat="47.65523" lon="0.53233">
        <ele>79</ele>
        <time>2020-10-15T14:27:43Z</time>
      </trkpt>
      <trkpt lat="47.65524" lon="0.53236">
        <ele>79</ele>
        <time>2020-10-15T14:27:45Z</time>
      </trkpt>
      <trkpt lat="47.65526" lon="0.53238">
        <ele>79</ele>
        <time>2020-10-15T14:27:48Z</time>
      </trkpt>
      <trkpt lat="47.65528" lon="0.53239">
        <ele>79</ele>
        <time>2020-10-15T14:27:50Z</time>
      </trkpt>
      <trkpt lat="47.6553" lon="0.53242">
        <ele>79</ele>
        <time>2020-10-15T14:27:52Z</time>
      </trkpt>
      <trkpt lat="47.65531" lon="0.53244">
        <ele>79</ele>
        <time>2020-10-15T14:27:53Z</time>
      </trkpt>
      <trkpt lat="47.65532" lon="0.53248">
        <ele>79</ele>
        <time>2020-10-15T14:27:55Z</time>
      </trkpt>
      <trkpt lat="47.65531" lon="0.53251">
        <ele>79</ele>
        <time>2020-10-15T14:28:02Z</time>
      </trkpt>
      <trkpt lat="47.6553" lon="0.5325">
        <ele>79</ele>
        <time>2020-10-15T14:28:17Z</time>
      </trkpt>
      <trkpt lat="47.65528" lon="0.53249">
        <ele>79</ele>
        <time>2020-10-15T14:28:27Z</time>
      </trkpt>
      <trkpt lat="47.65529" lon="0.53251">
        <ele>79</ele>
        <time>2020-10-15T14:28:32Z</time>
      </trkpt>
      <trkpt lat="47.6553" lon="0.53254">
        <ele>79</ele>
        <time>2020-10-15T14:28:34Z</time>
      </trkpt>
      <trkpt lat="47.65531" lon="0.53258">
        <ele>79</ele>
        <time>2020-10-15T14:28:36Z</time>
      </trkpt>
      <trkpt lat="47.65532" lon="0.53262">
        <ele>79</ele>
        <time>2020-10-15T14:28:38Z</time>
      </trkpt>
      <trkpt lat="47.65533" lon="0.53265">
        <ele>79</ele>
        <time>2020-10-15T14:28:40Z</time>
      </trkpt>
      <trkpt lat="47.65534" lon="0.53268">
        <ele>80</ele>
        <time>2020-10-15T14:28:42Z</time>
      </trkpt>
      <trkpt lat="47.65535" lon="0.53272">
        <ele>80</ele>
        <time>2020-10-15T14:28:44Z</time>
      </trkpt>
      <trkpt lat="47.65536" lon="0.53275">
        <ele>80</ele>
        <time>2020-10-15T14:28:46Z</time>
      </trkpt>
      <trkpt lat="47.65537" lon="0.5328">
        <ele>80</ele>
        <time>2020-10-15T14:28:48Z</time>
      </trkpt>
      <trkpt lat="47.65538" lon="0.53283">
        <ele>80</ele>
        <time>2020-10-15T14:28:50Z</time>
      </trkpt>
      <trkpt lat="47.65539" lon="0.53286">
        <ele>80</ele>
        <time>2020-10-15T14:28:52Z</time>
      </trkpt>
      <trkpt lat="47.65539" lon="0.53289">
        <ele>80</ele>
        <time>2020-10-15T14:28:54Z</time>
      </trkpt>
      <trkpt lat="47.6554" lon="0.53293">
        <ele>81</ele>
        <time>2020-10-15T14:28:56Z</time>
      </trkpt>
      <trkpt lat="47.65541" lon="0.53297">
        <ele>81</ele>
        <time>2020-10-15T14:28:59Z</time>
      </trkpt>
      <trkpt lat="47.65541" lon="0.533">
        <ele>81</ele>
        <time>2020-10-15T14:29:01Z</time>
      </trkpt>
      <trkpt lat="47.65543" lon="0.53303">
        <ele>81</ele>
        <time>2020-10-15T14:29:03Z</time>
      </trkpt>
      <trkpt lat="47.65544" lon="0.53306">
        <ele>81</ele>
        <time>2020-10-15T14:29:05Z</time>
      </trkpt>
      <trkpt lat="47.65544" lon="0.53309">
        <ele>81</ele>
        <time>2020-10-15T14:29:07Z</time>
      </trkpt>
      <trkpt lat="47.65545" lon="0.53312">
        <ele>81</ele>
        <time>2020-10-15T14:29:09Z</time>
      </trkpt>
      <trkpt lat="47.65545" lon="0.53315">
        <ele>81</ele>
        <time>2020-10-15T14:29:11Z</time>
      </trkpt>
      <trkpt lat="47.65545" lon="0.53318">
        <ele>81</ele>
        <time>2020-10-15T14:29:13Z</time>
      </trkpt>
      <trkpt lat="47.65545" lon="0.53321">
        <ele>81</ele>
        <time>2020-10-15T14:29:15Z</time>
      </trkpt>
      <trkpt lat="47.65546" lon="0.53324">
        <ele>82</ele>
        <time>2020-10-15T14:29:17Z</time>
      </trkpt>
      <trkpt lat="47.65547" lon="0.53327">
        <ele>82</ele>
        <time>2020-10-15T14:29:19Z</time>
      </trkpt>
      <trkpt lat="47.65548" lon="0.53331">
        <ele>82</ele>
        <time>2020-10-15T14:29:21Z</time>
      </trkpt>
      <trkpt lat="47.65549" lon="0.53334">
        <ele>82</ele>
        <time>2020-10-15T14:29:23Z</time>
      </trkpt>
      <trkpt lat="47.65549" lon="0.53337">
        <ele>82</ele>
        <time>2020-10-15T14:29:25Z</time>
      </trkpt>
      <trkpt lat="47.6555" lon="0.5334">
        <ele>82</ele>
        <time>2020-10-15T14:29:27Z</time>
      </trkpt>
      <trkpt lat="47.65551" lon="0.53343">
        <ele>82</ele>
        <time>2020-10-15T14:29:30Z</time>
      </trkpt>
      <trkpt lat="47.65552" lon="0.53346">
        <ele>82</ele>
        <time>2020-10-15T14:29:32Z</time>
      </trkpt>
      <trkpt lat="47.65553" lon="0.53349">
        <ele>82</ele>
        <time>2020-10-15T14:29:35Z</time>
      </trkpt>
      <trkpt lat="47.65554" lon="0.53352">
        <ele>82</ele>
        <time>2020-10-15T14:29:37Z</time>
      </trkpt>
      <trkpt lat="47.65556" lon="0.53354">
        <ele>82</ele>
        <time>2020-10-15T14:29:39Z</time>
      </trkpt>
      <trkpt lat="47.65557" lon="0.53357">
        <ele>82</ele>
        <time>2020-10-15T14:29:41Z</time>
      </trkpt>
      <trkpt lat="47.65559" lon="0.53359">
        <ele>82</ele>
        <time>2020-10-15T14:29:44Z</time>
      </trkpt>
      <trkpt lat="47.6556" lon="0.53362">
        <ele>82</ele>
        <time>2020-10-15T14:29:47Z</time>
      </trkpt>
      <trkpt lat="47.65562" lon="0.53364">
        <ele>83</ele>
        <time>2020-10-15T14:29:49Z</time>
      </trkpt>
      <trkpt lat="47.65563" lon="0.53367">
        <ele>83</ele>
        <time>2020-10-15T14:29:51Z</time>
      </trkpt>
      <trkpt lat="47.65565" lon="0.53371">
        <ele>83</ele>
        <time>2020-10-15T14:29:53Z</time>
      </trkpt>
      <trkpt lat="47.65567" lon="0.53374">
        <ele>84</ele>
        <time>2020-10-15T14:29:55Z</time>
      </trkpt>
      <trkpt lat="47.6557" lon="0.53376">
        <ele>84</ele>
        <time>2020-10-15T14:29:57Z</time>
      </trkpt>
      <trkpt lat="47.65571" lon="0.53379">
        <ele>84</ele>
        <time>2020-10-15T14:29:58Z</time>
      </trkpt>
      <trkpt lat="47.65572" lon="0.53381">
        <ele>84</ele>
        <time>2020-10-15T14:29:59Z</time>
      </trkpt>
      <trkpt lat="47.65573" lon="0.53383">
        <ele>85</ele>
        <time>2020-10-15T14:30:01Z</time>
      </trkpt>
      <trkpt lat="47.65575" lon="0.53385">
        <ele>85</ele>
        <time>2020-10-15T14:30:03Z</time>
      </trkpt>
      <trkpt lat="47.65576" lon="0.53388">
        <ele>85</ele>
        <time>2020-10-15T14:30:06Z</time>
      </trkpt>
      <trkpt lat="47.65578" lon="0.5339">
        <ele>85</ele>
        <time>2020-10-15T14:30:08Z</time>
      </trkpt>
      <trkpt lat="47.65579" lon="0.53393">
        <ele>85</ele>
        <time>2020-10-15T14:30:10Z</time>
      </trkpt>
      <trkpt lat="47.6558" lon="0.53397">
        <ele>85</ele>
        <time>2020-10-15T14:30:12Z</time>
      </trkpt>
      <trkpt lat="47.65581" lon="0.534">
        <ele>86</ele>
        <time>2020-10-15T14:30:14Z</time>
      </trkpt>
      <trkpt lat="47.65583" lon="0.53403">
        <ele>86</ele>
        <time>2020-10-15T14:30:17Z</time>
      </trkpt>
      <trkpt lat="47.65585" lon="0.53406">
        <ele>86</ele>
        <time>2020-10-15T14:30:19Z</time>
      </trkpt>
      <trkpt lat="47.65587" lon="0.53409">
        <ele>87</ele>
        <time>2020-10-15T14:30:21Z</time>
      </trkpt>
      <trkpt lat="47.65588" lon="0.53412">
        <ele>87</ele>
        <time>2020-10-15T14:30:23Z</time>
      </trkpt>
      <trkpt lat="47.6559" lon="0.53415">
        <ele>87</ele>
        <time>2020-10-15T14:30:25Z</time>
      </trkpt>
      <trkpt lat="47.65591" lon="0.53417">
        <ele>88</ele>
        <time>2020-10-15T14:30:28Z</time>
      </trkpt>
      <trkpt lat="47.65593" lon="0.5342">
        <ele>88</ele>
        <time>2020-10-15T14:30:32Z</time>
      </trkpt>
      <trkpt lat="47.65594" lon="0.53423">
        <ele>88</ele>
        <time>2020-10-15T14:30:35Z</time>
      </trkpt>
      <trkpt lat="47.65596" lon="0.53426">
        <ele>88</ele>
        <time>2020-10-15T14:30:37Z</time>
      </trkpt>
      <trkpt lat="47.65597" lon="0.53429">
        <ele>88</ele>
        <time>2020-10-15T14:30:39Z</time>
      </trkpt>
      <trkpt lat="47.65599" lon="0.53433">
        <ele>88</ele>
        <time>2020-10-15T14:30:41Z</time>
      </trkpt>
      <trkpt lat="47.656" lon="0.53437">
        <ele>88</ele>
        <time>2020-10-15T14:30:43Z</time>
      </trkpt>
      <trkpt lat="47.65602" lon="0.53441">
        <ele>88</ele>
        <time>2020-10-15T14:30:45Z</time>
      </trkpt>
      <trkpt lat="47.65603" lon="0.53445">
        <ele>88</ele>
        <time>2020-10-15T14:30:47Z</time>
      </trkpt>
      <trkpt lat="47.65604" lon="0.53449">
        <ele>88</ele>
        <time>2020-10-15T14:30:49Z</time>
      </trkpt>
      <trkpt lat="47.65605" lon="0.53452">
        <ele>88</ele>
        <time>2020-10-15T14:30:51Z</time>
      </trkpt>
      <trkpt lat="47.65606" lon="0.53454">
        <ele>89</ele>
        <time>2020-10-15T14:30:53Z</time>
      </trkpt>
      <trkpt lat="47.65607" lon="0.53458">
        <ele>89</ele>
        <time>2020-10-15T14:30:55Z</time>
      </trkpt>
      <trkpt lat="47.65608" lon="0.53461">
        <ele>89</ele>
        <time>2020-10-15T14:30:57Z</time>
      </trkpt>
      <trkpt lat="47.65609" lon="0.53466">
        <ele>88</ele>
        <time>2020-10-15T14:30:59Z</time>
      </trkpt>
      <trkpt lat="47.6561" lon="0.53468">
        <ele>89</ele>
        <time>2020-10-15T14:31:01Z</time>
      </trkpt>
      <trkpt lat="47.65611" lon="0.5347">
        <ele>89</ele>
        <time>2020-10-15T14:31:03Z</time>
      </trkpt>
      <trkpt lat="47.65612" lon="0.53473">
        <ele>89</ele>
        <time>2020-10-15T14:31:05Z</time>
      </trkpt>
      <trkpt lat="47.65614" lon="0.53475">
        <ele>89</ele>
        <time>2020-10-15T14:31:07Z</time>
      </trkpt>
      <trkpt lat="47.65616" lon="0.53478">
        <ele>89</ele>
        <time>2020-10-15T14:31:09Z</time>
      </trkpt>
      <trkpt lat="47.65617" lon="0.53481">
        <ele>89</ele>
        <time>2020-10-15T14:31:12Z</time>
      </trkpt>
      <trkpt lat="47.65618" lon="0.53483">
        <ele>89</ele>
        <time>2020-10-15T14:31:14Z</time>
      </trkpt>
      <trkpt lat="47.65619" lon="0.53486">
        <ele>90</ele>
        <time>2020-10-15T14:31:16Z</time>
      </trkpt>
      <trkpt lat="47.65621" lon="0.53489">
        <ele>90</ele>
        <time>2020-10-15T14:31:19Z</time>
      </trkpt>
      <trkpt lat="47.65622" lon="0.53493">
        <ele>90</ele>
        <time>2020-10-15T14:31:21Z</time>
      </trkpt>
      <trkpt lat="47.65623" lon="0.53495">
        <ele>90</ele>
        <time>2020-10-15T14:31:23Z</time>
      </trkpt>
      <trkpt lat="47.65623" lon="0.53498">
        <ele>90</ele>
        <time>2020-10-15T14:31:25Z</time>
      </trkpt>
      <trkpt lat="47.65625" lon="0.53503">
        <ele>90</ele>
        <time>2020-10-15T14:31:27Z</time>
      </trkpt>
      <trkpt lat="47.65626" lon="0.53505">
        <ele>90</ele>
        <time>2020-10-15T14:31:28Z</time>
      </trkpt>
      <trkpt lat="47.65629" lon="0.5351">
        <ele>90</ele>
        <time>2020-10-15T14:31:30Z</time>
      </trkpt>
      <trkpt lat="47.6563" lon="0.53513">
        <ele>90</ele>
        <time>2020-10-15T14:31:31Z</time>
      </trkpt>
      <trkpt lat="47.65632" lon="0.53515">
        <ele>89</ele>
        <time>2020-10-15T14:31:32Z</time>
      </trkpt>
      <trkpt lat="47.65633" lon="0.53518">
        <ele>89</ele>
        <time>2020-10-15T14:31:34Z</time>
      </trkpt>
      <trkpt lat="47.65634" lon="0.5352">
        <ele>89</ele>
        <time>2020-10-15T14:31:36Z</time>
      </trkpt>
      <trkpt lat="47.65634" lon="0.53524">
        <ele>88</ele>
        <time>2020-10-15T14:31:39Z</time>
      </trkpt>
      <trkpt lat="47.65635" lon="0.53528">
        <ele>88</ele>
        <time>2020-10-15T14:31:42Z</time>
      </trkpt>
      <trkpt lat="47.65635" lon="0.53532">
        <ele>87</ele>
        <time>2020-10-15T14:31:44Z</time>
      </trkpt>
      <trkpt lat="47.65634" lon="0.53535">
        <ele>87</ele>
        <time>2020-10-15T14:31:46Z</time>
      </trkpt>
      <trkpt lat="47.65635" lon="0.53539">
        <ele>87</ele>
        <time>2020-10-15T14:31:48Z</time>
      </trkpt>
      <trkpt lat="47.65633" lon="0.53542">
        <ele>86</ele>
        <time>2020-10-15T14:31:50Z</time>
      </trkpt>
      <trkpt lat="47.65632" lon="0.53544">
        <ele>86</ele>
        <time>2020-10-15T14:31:52Z</time>
      </trkpt>
      <trkpt lat="47.6563" lon="0.53548">
        <ele>85</ele>
        <time>2020-10-15T14:31:56Z</time>
      </trkpt>
      <trkpt lat="47.65628" lon="0.5355">
        <ele>85</ele>
        <time>2020-10-15T14:31:58Z</time>
      </trkpt>
      <trkpt lat="47.65624" lon="0.53552">
        <ele>84</ele>
        <time>2020-10-15T14:32:00Z</time>
      </trkpt>
      <trkpt lat="47.65622" lon="0.53554">
        <ele>84</ele>
        <time>2020-10-15T14:32:02Z</time>
      </trkpt>
      <trkpt lat="47.65624" lon="0.53553">
        <ele>84</ele>
        <time>2020-10-15T14:32:23Z</time>
      </trkpt>
      <trkpt lat="47.65625" lon="0.53554">
        <ele>84</ele>
        <time>2020-10-15T14:32:44Z</time>
      </trkpt>
      <trkpt lat="47.65627" lon="0.53553">
        <ele>84</ele>
        <time>2020-10-15T14:32:51Z</time>
      </trkpt>
      <trkpt lat="47.65629" lon="0.53553">
        <ele>85</ele>
        <time>2020-10-15T14:32:55Z</time>
      </trkpt>
      <trkpt lat="47.6563" lon="0.53551">
        <ele>85</ele>
        <time>2020-10-15T14:33:04Z</time>
      </trkpt>
      <trkpt lat="47.65628" lon="0.53553">
        <ele>85</ele>
        <time>2020-10-15T14:33:16Z</time>
      </trkpt>
      <trkpt lat="47.65626" lon="0.53555">
        <ele>84</ele>
        <time>2020-10-15T14:33:19Z</time>
      </trkpt>
      <trkpt lat="47.65624" lon="0.53557">
        <ele>84</ele>
        <time>2020-10-15T14:33:22Z</time>
      </trkpt>
      <trkpt lat="47.65623" lon="0.53559">
        <ele>84</ele>
        <time>2020-10-15T14:33:31Z</time>
      </trkpt>
      <trkpt lat="47.65621" lon="0.5356">
        <ele>83</ele>
        <time>2020-10-15T14:33:33Z</time>
      </trkpt>
      <trkpt lat="47.65619" lon="0.53562">
        <ele>83</ele>
        <time>2020-10-15T14:33:36Z</time>
      </trkpt>
      <trkpt lat="47.65617" lon="0.53564">
        <ele>83</ele>
        <time>2020-10-15T14:33:39Z</time>
      </trkpt>
      <trkpt lat="47.65615" lon="0.53566">
        <ele>83</ele>
        <time>2020-10-15T14:33:42Z</time>
      </trkpt>
      <trkpt lat="47.65613" lon="0.53566">
        <ele>83</ele>
        <time>2020-10-15T14:33:44Z</time>
      </trkpt>
      <trkpt lat="47.65611" lon="0.53567">
        <ele>83</ele>
        <time>2020-10-15T14:33:47Z</time>
      </trkpt>
      <trkpt lat="47.65609" lon="0.53569">
        <ele>83</ele>
        <time>2020-10-15T14:33:49Z</time>
      </trkpt>
      <trkpt lat="47.65607" lon="0.5357">
        <ele>83</ele>
        <time>2020-10-15T14:33:52Z</time>
      </trkpt>
      <trkpt lat="47.65604" lon="0.53571">
        <ele>83</ele>
        <time>2020-10-15T14:33:55Z</time>
      </trkpt>
      <trkpt lat="47.65602" lon="0.53572">
        <ele>83</ele>
        <time>2020-10-15T14:33:58Z</time>
      </trkpt>
      <trkpt lat="47.65599" lon="0.53573">
        <ele>83</ele>
        <time>2020-10-15T14:34:01Z</time>
      </trkpt>
      <trkpt lat="47.65597" lon="0.53575">
        <ele>83</ele>
        <time>2020-10-15T14:34:03Z</time>
      </trkpt>
      <trkpt lat="47.65596" lon="0.53577">
        <ele>83</ele>
        <time>2020-10-15T14:34:05Z</time>
      </trkpt>
      <trkpt lat="47.65594" lon="0.53579">
        <ele>83</ele>
        <time>2020-10-15T14:34:08Z</time>
      </trkpt>
      <trkpt lat="47.65592" lon="0.5358">
        <ele>83</ele>
        <time>2020-10-15T14:34:11Z</time>
      </trkpt>
      <trkpt lat="47.6559" lon="0.53581">
        <ele>83</ele>
        <time>2020-10-15T14:34:13Z</time>
      </trkpt>
      <trkpt lat="47.65588" lon="0.53583">
        <ele>83</ele>
        <time>2020-10-15T14:34:15Z</time>
      </trkpt>
      <trkpt lat="47.65587" lon="0.53585">
        <ele>83</ele>
        <time>2020-10-15T14:34:17Z</time>
      </trkpt>
      <trkpt lat="47.65586" lon="0.53588">
        <ele>84</ele>
        <time>2020-10-15T14:34:20Z</time>
      </trkpt>
      <trkpt lat="47.65584" lon="0.5359">
        <ele>84</ele>
        <time>2020-10-15T14:34:23Z</time>
      </trkpt>
      <trkpt lat="47.65581" lon="0.53593">
        <ele>84</ele>
        <time>2020-10-15T14:34:26Z</time>
      </trkpt>
      <trkpt lat="47.6558" lon="0.53594">
        <ele>85</ele>
        <time>2020-10-15T14:34:29Z</time>
      </trkpt>
      <trkpt lat="47.65578" lon="0.53596">
        <ele>86</ele>
        <time>2020-10-15T14:34:32Z</time>
      </trkpt>
      <trkpt lat="47.65575" lon="0.53597">
        <ele>87</ele>
        <time>2020-10-15T14:34:35Z</time>
      </trkpt>
      <trkpt lat="47.65573" lon="0.53598">
        <ele>87</ele>
        <time>2020-10-15T14:34:37Z</time>
      </trkpt>
      <trkpt lat="47.65571" lon="0.53599">
        <ele>88</ele>
        <time>2020-10-15T14:34:39Z</time>
      </trkpt>
      <trkpt lat="47.65569" lon="0.536">
        <ele>88</ele>
        <time>2020-10-15T14:34:41Z</time>
      </trkpt>
      <trkpt lat="47.65567" lon="0.53603">
        <ele>89</ele>
        <time>2020-10-15T14:34:46Z</time>
      </trkpt>
      <trkpt lat="47.65565" lon="0.53605">
        <ele>90</ele>
        <time>2020-10-15T14:34:49Z</time>
      </trkpt>
      <trkpt lat="47.65563" lon="0.53606">
        <ele>91</ele>
        <time>2020-10-15T14:34:51Z</time>
      </trkpt>
      <trkpt lat="47.65562" lon="0.53608">
        <ele>91</ele>
        <time>2020-10-15T14:34:53Z</time>
      </trkpt>
      <trkpt lat="47.6556" lon="0.53609">
        <ele>92</ele>
        <time>2020-10-15T14:34:55Z</time>
      </trkpt>
      <trkpt lat="47.65557" lon="0.53611">
        <ele>93</ele>
        <time>2020-10-15T14:34:57Z</time>
      </trkpt>
      <trkpt lat="47.65555" lon="0.53612">
        <ele>94</ele>
        <time>2020-10-15T14:34:59Z</time>
      </trkpt>
      <trkpt lat="47.65553" lon="0.53614">
        <ele>94</ele>
        <time>2020-10-15T14:35:02Z</time>
      </trkpt>
      <trkpt lat="47.65551" lon="0.53615">
        <ele>95</ele>
        <time>2020-10-15T14:35:04Z</time>
      </trkpt>
      <trkpt lat="47.6555" lon="0.53617">
        <ele>96</ele>
        <time>2020-10-15T14:35:06Z</time>
      </trkpt>
      <trkpt lat="47.65548" lon="0.53619">
        <ele>96</ele>
        <time>2020-10-15T14:35:08Z</time>
      </trkpt>
      <trkpt lat="47.65546" lon="0.5362">
        <ele>97</ele>
        <time>2020-10-15T14:35:10Z</time>
      </trkpt>
      <trkpt lat="47.65545" lon="0.53622">
        <ele>97</ele>
        <time>2020-10-15T14:35:12Z</time>
      </trkpt>
      <trkpt lat="47.65543" lon="0.53623">
        <ele>98</ele>
        <time>2020-10-15T14:35:15Z</time>
      </trkpt>
      <trkpt lat="47.65542" lon="0.53625">
        <ele>98</ele>
        <time>2020-10-15T14:35:18Z</time>
      </trkpt>
      <trkpt lat="47.6554" lon="0.53627">
        <ele>99</ele>
        <time>2020-10-15T14:35:22Z</time>
      </trkpt>
      <trkpt lat="47.65538" lon="0.53629">
        <ele>100</ele>
        <time>2020-10-15T14:35:25Z</time>
      </trkpt>
      <trkpt lat="47.65535" lon="0.53629">
        <ele>100</ele>
        <time>2020-10-15T14:35:28Z</time>
      </trkpt>
      <trkpt lat="47.65534" lon="0.53631">
        <ele>101</ele>
        <time>2020-10-15T14:35:37Z</time>
      </trkpt>
      <trkpt lat="47.65532" lon="0.53633">
        <ele>102</ele>
        <time>2020-10-15T14:35:41Z</time>
      </trkpt>
      <trkpt lat="47.6553" lon="0.53635">
        <ele>103</ele>
        <time>2020-10-15T14:35:44Z</time>
      </trkpt>
      <trkpt lat="47.65528" lon="0.53637">
        <ele>103</ele>
        <time>2020-10-15T14:35:46Z</time>
      </trkpt>
      <trkpt lat="47.65526" lon="0.53638">
        <ele>104</ele>
        <time>2020-10-15T14:35:48Z</time>
      </trkpt>
      <trkpt lat="47.65524" lon="0.5364">
        <ele>104</ele>
        <time>2020-10-15T14:35:50Z</time>
      </trkpt>
      <trkpt lat="47.65522" lon="0.5364">
        <ele>104</ele>
        <time>2020-10-15T14:35:52Z</time>
      </trkpt>
      <trkpt lat="47.6552" lon="0.53642">
        <ele>104</ele>
        <time>2020-10-15T14:35:54Z</time>
      </trkpt>
      <trkpt lat="47.65519" lon="0.53645">
        <ele>104</ele>
        <time>2020-10-15T14:35:57Z</time>
      </trkpt>
      <trkpt lat="47.65517" lon="0.53647">
        <ele>105</ele>
        <time>2020-10-15T14:36:00Z</time>
      </trkpt>
      <trkpt lat="47.65516" lon="0.53649">
        <ele>105</ele>
        <time>2020-10-15T14:36:02Z</time>
      </trkpt>
      <trkpt lat="47.65514" lon="0.53651">
        <ele>105</ele>
        <time>2020-10-15T14:36:04Z</time>
      </trkpt>
      <trkpt lat="47.65512" lon="0.53652">
        <ele>105</ele>
        <time>2020-10-15T14:36:06Z</time>
      </trkpt>
      <trkpt lat="47.6551" lon="0.53654">
        <ele>105</ele>
        <time>2020-10-15T14:36:09Z</time>
      </trkpt>
      <trkpt lat="47.65508" lon="0.53656">
        <ele>106</ele>
        <time>2020-10-15T14:36:12Z</time>
      </trkpt>
      <trkpt lat="47.65506" lon="0.53657">
        <ele>106</ele>
        <time>2020-10-15T14:36:15Z</time>
      </trkpt>
      <trkpt lat="47.65504" lon="0.53658">
        <ele>106</ele>
        <time>2020-10-15T14:36:17Z</time>
      </trkpt>
      <trkpt lat="47.65502" lon="0.5366">
        <ele>106</ele>
        <time>2020-10-15T14:36:19Z</time>
      </trkpt>
      <trkpt lat="47.655" lon="0.53662">
        <ele>107</ele>
        <time>2020-10-15T14:36:21Z</time>
      </trkpt>
      <trkpt lat="47.65498" lon="0.53664">
        <ele>107</ele>
        <time>2020-10-15T14:36:23Z</time>
      </trkpt>
      <trkpt lat="47.65496" lon="0.53663">
        <ele>107</ele>
        <time>2020-10-15T14:36:29Z</time>
      </trkpt>
      <trkpt lat="47.65494" lon="0.53664">
        <ele>107</ele>
        <time>2020-10-15T14:36:31Z</time>
      </trkpt>
      <trkpt lat="47.65492" lon="0.53665">
        <ele>107</ele>
        <time>2020-10-15T14:36:39Z</time>
      </trkpt>
      <trkpt lat="47.6549" lon="0.53666">
        <ele>107</ele>
        <time>2020-10-15T14:36:41Z</time>
      </trkpt>
      <trkpt lat="47.65487" lon="0.53667">
        <ele>107</ele>
        <time>2020-10-15T14:36:43Z</time>
      </trkpt>
      <trkpt lat="47.65485" lon="0.53668">
        <ele>107</ele>
        <time>2020-10-15T14:36:45Z</time>
      </trkpt>
      <trkpt lat="47.65483" lon="0.5367">
        <ele>107</ele>
        <time>2020-10-15T14:36:47Z</time>
      </trkpt>
      <trkpt lat="47.65481" lon="0.53671">
        <ele>107</ele>
        <time>2020-10-15T14:36:49Z</time>
      </trkpt>
      <trkpt lat="47.65479" lon="0.53672">
        <ele>107</ele>
        <time>2020-10-15T14:36:51Z</time>
      </trkpt>
      <trkpt lat="47.65477" lon="0.53674">
        <ele>107</ele>
        <time>2020-10-15T14:36:52Z</time>
      </trkpt>
      <trkpt lat="47.65475" lon="0.53676">
        <ele>107</ele>
        <time>2020-10-15T14:36:53Z</time>
      </trkpt>
      <trkpt lat="47.65473" lon="0.53678">
        <ele>107</ele>
        <time>2020-10-15T14:36:54Z</time>
      </trkpt>
      <trkpt lat="47.65471" lon="0.5368">
        <ele>108</ele>
        <time>2020-10-15T14:36:55Z</time>
      </trkpt>
      <trkpt lat="47.65469" lon="0.53682">
        <ele>108</ele>
        <time>2020-10-15T14:36:57Z</time>
      </trkpt>
      <trkpt lat="47.65467" lon="0.53683">
        <ele>108</ele>
        <time>2020-10-15T14:36:59Z</time>
      </trkpt>
      <trkpt lat="47.65465" lon="0.53684">
        <ele>108</ele>
        <time>2020-10-15T14:37:01Z</time>
      </trkpt>
      <trkpt lat="47.65463" lon="0.53684">
        <ele>108</ele>
        <time>2020-10-15T14:37:03Z</time>
      </trkpt>
      <trkpt lat="47.65461" lon="0.53684">
        <ele>108</ele>
        <time>2020-10-15T14:37:05Z</time>
      </trkpt>
      <trkpt lat="47.65458" lon="0.53686">
        <ele>108</ele>
        <time>2020-10-15T14:37:08Z</time>
      </trkpt>
      <trkpt lat="47.65456" lon="0.53689">
        <ele>108</ele>
        <time>2020-10-15T14:37:11Z</time>
      </trkpt>
      <trkpt lat="47.65455" lon="0.53691">
        <ele>108</ele>
        <time>2020-10-15T14:37:19Z</time>
      </trkpt>
      <trkpt lat="47.65453" lon="0.53691">
        <ele>108</ele>
        <time>2020-10-15T14:37:23Z</time>
      </trkpt>
      <trkpt lat="47.65451" lon="0.53692">
        <ele>108</ele>
        <time>2020-10-15T14:37:25Z</time>
      </trkpt>
      <trkpt lat="47.65449" lon="0.53694">
        <ele>108</ele>
        <time>2020-10-15T14:37:27Z</time>
      </trkpt>
      <trkpt lat="47.65447" lon="0.53695">
        <ele>108</ele>
        <time>2020-10-15T14:37:29Z</time>
      </trkpt>
      <trkpt lat="47.65445" lon="0.53697">
        <ele>108</ele>
        <time>2020-10-15T14:37:31Z</time>
      </trkpt>
      <trkpt lat="47.65442" lon="0.53698">
        <ele>109</ele>
        <time>2020-10-15T14:37:33Z</time>
      </trkpt>
      <trkpt lat="47.65441" lon="0.537">
        <ele>109</ele>
        <time>2020-10-15T14:37:35Z</time>
      </trkpt>
      <trkpt lat="47.6544" lon="0.53702">
        <ele>109</ele>
        <time>2020-10-15T14:37:38Z</time>
      </trkpt>
      <trkpt lat="47.65438" lon="0.53703">
        <ele>109</ele>
        <time>2020-10-15T14:37:40Z</time>
      </trkpt>
      <trkpt lat="47.65435" lon="0.53704">
        <ele>109</ele>
        <time>2020-10-15T14:37:42Z</time>
      </trkpt>
      <trkpt lat="47.65433" lon="0.53705">
        <ele>109</ele>
        <time>2020-10-15T14:37:44Z</time>
      </trkpt>
      <trkpt lat="47.6543" lon="0.53706">
        <ele>110</ele>
        <time>2020-10-15T14:37:46Z</time>
      </trkpt>
      <trkpt lat="47.65428" lon="0.53707">
        <ele>110</ele>
        <time>2020-10-15T14:37:48Z</time>
      </trkpt>
      <trkpt lat="47.65425" lon="0.53708">
        <ele>110</ele>
        <time>2020-10-15T14:37:50Z</time>
      </trkpt>
      <trkpt lat="47.65423" lon="0.5371">
        <ele>110</ele>
        <time>2020-10-15T14:37:52Z</time>
      </trkpt>
      <trkpt lat="47.65421" lon="0.53711">
        <ele>110</ele>
        <time>2020-10-15T14:37:54Z</time>
      </trkpt>
      <trkpt lat="47.65418" lon="0.53712">
        <ele>110</ele>
        <time>2020-10-15T14:37:56Z</time>
      </trkpt>
      <trkpt lat="47.65416" lon="0.53713">
        <ele>111</ele>
        <time>2020-10-15T14:37:58Z</time>
      </trkpt>
      <trkpt lat="47.65413" lon="0.53714">
        <ele>111</ele>
        <time>2020-10-15T14:38:00Z</time>
      </trkpt>
      <trkpt lat="47.65411" lon="0.53714">
        <ele>111</ele>
        <time>2020-10-15T14:38:02Z</time>
      </trkpt>
      <trkpt lat="47.65409" lon="0.53715">
        <ele>111</ele>
        <time>2020-10-15T14:38:04Z</time>
      </trkpt>
      <trkpt lat="47.65407" lon="0.53715">
        <ele>111</ele>
        <time>2020-10-15T14:38:06Z</time>
      </trkpt>
      <trkpt lat="47.65405" lon="0.53715">
        <ele>111</ele>
        <time>2020-10-15T14:38:08Z</time>
      </trkpt>
      <trkpt lat="47.65403" lon="0.53717">
        <ele>111</ele>
        <time>2020-10-15T14:38:11Z</time>
      </trkpt>
      <trkpt lat="47.65401" lon="0.53718">
        <ele>111</ele>
        <time>2020-10-15T14:38:13Z</time>
      </trkpt>
      <trkpt lat="47.65399" lon="0.53718">
        <ele>111</ele>
        <time>2020-10-15T14:38:15Z</time>
      </trkpt>
      <trkpt lat="47.65397" lon="0.53719">
        <ele>111</ele>
        <time>2020-10-15T14:38:17Z</time>
      </trkpt>
      <trkpt lat="47.65395" lon="0.53721">
        <ele>111</ele>
        <time>2020-10-15T14:38:19Z</time>
      </trkpt>
      <trkpt lat="47.65392" lon="0.53721">
        <ele>111</ele>
        <time>2020-10-15T14:38:21Z</time>
      </trkpt>
      <trkpt lat="47.6539" lon="0.53721">
        <ele>111</ele>
        <time>2020-10-15T14:38:23Z</time>
      </trkpt>
      <trkpt lat="47.65387" lon="0.53721">
        <ele>112</ele>
        <time>2020-10-15T14:38:25Z</time>
      </trkpt>
      <trkpt lat="47.65385" lon="0.53722">
        <ele>112</ele>
        <time>2020-10-15T14:38:27Z</time>
      </trkpt>
      <trkpt lat="47.65382" lon="0.53722">
        <ele>112</ele>
        <time>2020-10-15T14:38:29Z</time>
      </trkpt>
      <trkpt lat="47.6538" lon="0.53722">
        <ele>112</ele>
        <time>2020-10-15T14:38:31Z</time>
      </trkpt>
      <trkpt lat="47.65378" lon="0.53722">
        <ele>112</ele>
        <time>2020-10-15T14:38:33Z</time>
      </trkpt>
      <trkpt lat="47.65375" lon="0.53722">
        <ele>112</ele>
        <time>2020-10-15T14:38:35Z</time>
      </trkpt>
      <trkpt lat="47.65373" lon="0.53723">
        <ele>112</ele>
        <time>2020-10-15T14:38:37Z</time>
      </trkpt>
      <trkpt lat="47.6537" lon="0.53723">
        <ele>112</ele>
        <time>2020-10-15T14:38:39Z</time>
      </trkpt>
      <trkpt lat="47.65368" lon="0.53724">
        <ele>112</ele>
        <time>2020-10-15T14:38:41Z</time>
      </trkpt>
      <trkpt lat="47.65366" lon="0.53724">
        <ele>112</ele>
        <time>2020-10-15T14:38:43Z</time>
      </trkpt>
      <trkpt lat="47.65363" lon="0.53726">
        <ele>113</ele>
        <time>2020-10-15T14:38:45Z</time>
      </trkpt>
      <trkpt lat="47.6536" lon="0.53727">
        <ele>113</ele>
        <time>2020-10-15T14:38:47Z</time>
      </trkpt>
      <trkpt lat="47.65358" lon="0.53727">
        <ele>113</ele>
        <time>2020-10-15T14:38:49Z</time>
      </trkpt>
      <trkpt lat="47.65355" lon="0.53727">
        <ele>113</ele>
        <time>2020-10-15T14:38:51Z</time>
      </trkpt>
      <trkpt lat="47.65353" lon="0.53727">
        <ele>113</ele>
        <time>2020-10-15T14:38:53Z</time>
      </trkpt>
      <trkpt lat="47.6535" lon="0.53729">
        <ele>113</ele>
        <time>2020-10-15T14:38:55Z</time>
      </trkpt>
      <trkpt lat="47.65348" lon="0.5373">
        <ele>113</ele>
        <time>2020-10-15T14:38:57Z</time>
      </trkpt>
      <trkpt lat="47.65345" lon="0.5373">
        <ele>113</ele>
        <time>2020-10-15T14:38:59Z</time>
      </trkpt>
      <trkpt lat="47.65343" lon="0.53731">
        <ele>113</ele>
        <time>2020-10-15T14:39:01Z</time>
      </trkpt>
      <trkpt lat="47.6534" lon="0.53732">
        <ele>113</ele>
        <time>2020-10-15T14:39:03Z</time>
      </trkpt>
      <trkpt lat="47.65338" lon="0.53732">
        <ele>113</ele>
        <time>2020-10-15T14:39:05Z</time>
      </trkpt>
      <trkpt lat="47.65336" lon="0.53733">
        <ele>113</ele>
        <time>2020-10-15T14:39:07Z</time>
      </trkpt>
      <trkpt lat="47.65333" lon="0.53733">
        <ele>113</ele>
        <time>2020-10-15T14:39:09Z</time>
      </trkpt>
      <trkpt lat="47.65331" lon="0.53733">
        <ele>113</ele>
        <time>2020-10-15T14:39:11Z</time>
      </trkpt>
      <trkpt lat="47.65329" lon="0.53734">
        <ele>113</ele>
        <time>2020-10-15T14:39:13Z</time>
      </trkpt>
      <trkpt lat="47.65326" lon="0.53735">
        <ele>113</ele>
        <time>2020-10-15T14:39:15Z</time>
      </trkpt>
      <trkpt lat="47.65324" lon="0.53736">
        <ele>113</ele>
        <time>2020-10-15T14:39:17Z</time>
      </trkpt>
      <trkpt lat="47.65321" lon="0.53738">
        <ele>113</ele>
        <time>2020-10-15T14:39:19Z</time>
      </trkpt>
      <trkpt lat="47.65318" lon="0.5374">
        <ele>113</ele>
        <time>2020-10-15T14:39:27Z</time>
      </trkpt>
      <trkpt lat="47.65315" lon="0.53742">
        <ele>113</ele>
        <time>2020-10-15T14:39:29Z</time>
      </trkpt>
      <trkpt lat="47.65314" lon="0.53742">
        <ele>113</ele>
        <time>2020-10-15T14:39:33Z</time>
      </trkpt>
      <trkpt lat="47.65311" lon="0.53743">
        <ele>112</ele>
        <time>2020-10-15T14:39:35Z</time>
      </trkpt>
      <trkpt lat="47.65309" lon="0.53744">
        <ele>112</ele>
        <time>2020-10-15T14:39:36Z</time>
      </trkpt>
      <trkpt lat="47.65307" lon="0.53745">
        <ele>112</ele>
        <time>2020-10-15T14:39:37Z</time>
      </trkpt>
      <trkpt lat="47.65304" lon="0.53746">
        <ele>112</ele>
        <time>2020-10-15T14:39:39Z</time>
      </trkpt>
      <trkpt lat="47.65301" lon="0.53747">
        <ele>112</ele>
        <time>2020-10-15T14:39:41Z</time>
      </trkpt>
      <trkpt lat="47.65298" lon="0.53747">
        <ele>112</ele>
        <time>2020-10-15T14:39:43Z</time>
      </trkpt>
      <trkpt lat="47.65296" lon="0.53748">
        <ele>112</ele>
        <time>2020-10-15T14:39:45Z</time>
      </trkpt>
      <trkpt lat="47.65293" lon="0.53749">
        <ele>112</ele>
        <time>2020-10-15T14:39:47Z</time>
      </trkpt>
      <trkpt lat="47.6529" lon="0.53751">
        <ele>111</ele>
        <time>2020-10-15T14:39:49Z</time>
      </trkpt>
      <trkpt lat="47.65288" lon="0.53752">
        <ele>111</ele>
        <time>2020-10-15T14:39:51Z</time>
      </trkpt>
      <trkpt lat="47.65285" lon="0.53751">
        <ele>111</ele>
        <time>2020-10-15T14:39:57Z</time>
      </trkpt>
      <trkpt lat="47.65283" lon="0.53751">
        <ele>111</ele>
        <time>2020-10-15T14:40:01Z</time>
      </trkpt>
      <trkpt lat="47.65279" lon="0.53751">
        <ele>111</ele>
        <time>2020-10-15T14:40:03Z</time>
      </trkpt>
      <trkpt lat="47.65277" lon="0.53752">
        <ele>111</ele>
        <time>2020-10-15T14:40:04Z</time>
      </trkpt>
      <trkpt lat="47.65275" lon="0.53752">
        <ele>110</ele>
        <time>2020-10-15T14:40:05Z</time>
      </trkpt>
      <trkpt lat="47.65273" lon="0.53753">
        <ele>110</ele>
        <time>2020-10-15T14:40:06Z</time>
      </trkpt>
      <trkpt lat="47.6527" lon="0.53754">
        <ele>110</ele>
        <time>2020-10-15T14:40:08Z</time>
      </trkpt>
      <trkpt lat="47.65268" lon="0.53755">
        <ele>110</ele>
        <time>2020-10-15T14:40:09Z</time>
      </trkpt>
      <trkpt lat="47.65266" lon="0.53756">
        <ele>110</ele>
        <time>2020-10-15T14:40:10Z</time>
      </trkpt>
      <trkpt lat="47.65264" lon="0.53758">
        <ele>110</ele>
        <time>2020-10-15T14:40:11Z</time>
      </trkpt>
      <trkpt lat="47.65261" lon="0.5376">
        <ele>110</ele>
        <time>2020-10-15T14:40:13Z</time>
      </trkpt>
      <trkpt lat="47.65258" lon="0.5376">
        <ele>110</ele>
        <time>2020-10-15T14:40:17Z</time>
      </trkpt>
      <trkpt lat="47.65255" lon="0.53761">
        <ele>110</ele>
        <time>2020-10-15T14:40:19Z</time>
      </trkpt>
      <trkpt lat="47.65252" lon="0.53762">
        <ele>110</ele>
        <time>2020-10-15T14:40:21Z</time>
      </trkpt>
      <trkpt lat="47.65249" lon="0.53762">
        <ele>110</ele>
        <time>2020-10-15T14:40:23Z</time>
      </trkpt>
      <trkpt lat="47.65245" lon="0.53762">
        <ele>110</ele>
        <time>2020-10-15T14:40:25Z</time>
      </trkpt>
      <trkpt lat="47.65243" lon="0.53763">
        <ele>110</ele>
        <time>2020-10-15T14:40:27Z</time>
      </trkpt>
      <trkpt lat="47.6524" lon="0.53763">
        <ele>110</ele>
        <time>2020-10-15T14:40:29Z</time>
      </trkpt>
      <trkpt lat="47.65237" lon="0.53763">
        <ele>110</ele>
        <time>2020-10-15T14:40:31Z</time>
      </trkpt>
      <trkpt lat="47.65234" lon="0.53763">
        <ele>110</ele>
        <time>2020-10-15T14:40:33Z</time>
      </trkpt>
      <trkpt lat="47.65232" lon="0.53763">
        <ele>110</ele>
        <time>2020-10-15T14:40:35Z</time>
      </trkpt>
      <trkpt lat="47.65228" lon="0.53763">
        <ele>110</ele>
        <time>2020-10-15T14:40:37Z</time>
      </trkpt>
      <trkpt lat="47.65225" lon="0.53763">
        <ele>110</ele>
        <time>2020-10-15T14:40:39Z</time>
      </trkpt>
      <trkpt lat="47.65221" lon="0.53763">
        <ele>110</ele>
        <time>2020-10-15T14:40:41Z</time>
      </trkpt>
      <trkpt lat="47.65218" lon="0.53762">
        <ele>110</ele>
        <time>2020-10-15T14:40:43Z</time>
      </trkpt>
      <trkpt lat="47.65215" lon="0.53763">
        <ele>111</ele>
        <time>2020-10-15T14:40:45Z</time>
      </trkpt>
      <trkpt lat="47.65213" lon="0.53763">
        <ele>111</ele>
        <time>2020-10-15T14:40:47Z</time>
      </trkpt>
      <trkpt lat="47.65209" lon="0.53763">
        <ele>111</ele>
        <time>2020-10-15T14:40:49Z</time>
      </trkpt>
      <trkpt lat="47.65206" lon="0.53763">
        <ele>111</ele>
        <time>2020-10-15T14:40:51Z</time>
      </trkpt>
      <trkpt lat="47.65204" lon="0.53763">
        <ele>111</ele>
        <time>2020-10-15T14:40:52Z</time>
      </trkpt>
      <trkpt lat="47.652" lon="0.53763">
        <ele>111</ele>
        <time>2020-10-15T14:40:54Z</time>
      </trkpt>
      <trkpt lat="47.65197" lon="0.53764">
        <ele>111</ele>
        <time>2020-10-15T14:40:56Z</time>
      </trkpt>
      <trkpt lat="47.65194" lon="0.53765">
        <ele>111</ele>
        <time>2020-10-15T14:40:58Z</time>
      </trkpt>
      <trkpt lat="47.65191" lon="0.53765">
        <ele>111</ele>
        <time>2020-10-15T14:41:00Z</time>
      </trkpt>
      <trkpt lat="47.65188" lon="0.53765">
        <ele>111</ele>
        <time>2020-10-15T14:41:02Z</time>
      </trkpt>
      <trkpt lat="47.65186" lon="0.53765">
        <ele>112</ele>
        <time>2020-10-15T14:41:04Z</time>
      </trkpt>
      <trkpt lat="47.65183" lon="0.53765">
        <ele>112</ele>
        <time>2020-10-15T14:41:06Z</time>
      </trkpt>
      <trkpt lat="47.65179" lon="0.53765">
        <ele>112</ele>
        <time>2020-10-15T14:41:08Z</time>
      </trkpt>
      <trkpt lat="47.65176" lon="0.53765">
        <ele>112</ele>
        <time>2020-10-15T14:41:10Z</time>
      </trkpt>
      <trkpt lat="47.65174" lon="0.53765">
        <ele>112</ele>
        <time>2020-10-15T14:41:11Z</time>
      </trkpt>
      <trkpt lat="47.65171" lon="0.53765">
        <ele>112</ele>
        <time>2020-10-15T14:41:13Z</time>
      </trkpt>
      <trkpt lat="47.65167" lon="0.53766">
        <ele>112</ele>
        <time>2020-10-15T14:41:15Z</time>
      </trkpt>
      <trkpt lat="47.65165" lon="0.53766">
        <ele>113</ele>
        <time>2020-10-15T14:41:17Z</time>
      </trkpt>
      <trkpt lat="47.65162" lon="0.53767">
        <ele>113</ele>
        <time>2020-10-15T14:41:19Z</time>
      </trkpt>
      <trkpt lat="47.6516" lon="0.53767">
        <ele>113</ele>
        <time>2020-10-15T14:41:21Z</time>
      </trkpt>
      <trkpt lat="47.65157" lon="0.53768">
        <ele>113</ele>
        <time>2020-10-15T14:41:23Z</time>
      </trkpt>
      <trkpt lat="47.65155" lon="0.53768">
        <ele>113</ele>
        <time>2020-10-15T14:41:25Z</time>
      </trkpt>
      <trkpt lat="47.65152" lon="0.53768">
        <ele>113</ele>
        <time>2020-10-15T14:41:27Z</time>
      </trkpt>
      <trkpt lat="47.65149" lon="0.53768">
        <ele>113</ele>
        <time>2020-10-15T14:41:29Z</time>
      </trkpt>
      <trkpt lat="47.65147" lon="0.53769">
        <ele>113</ele>
        <time>2020-10-15T14:41:31Z</time>
      </trkpt>
      <trkpt lat="47.65144" lon="0.53769">
        <ele>113</ele>
        <time>2020-10-15T14:41:33Z</time>
      </trkpt>
      <trkpt lat="47.65141" lon="0.53769">
        <ele>113</ele>
        <time>2020-10-15T14:41:35Z</time>
      </trkpt>
      <trkpt lat="47.65138" lon="0.5377">
        <ele>114</ele>
        <time>2020-10-15T14:41:37Z</time>
      </trkpt>
      <trkpt lat="47.65135" lon="0.53771">
        <ele>114</ele>
        <time>2020-10-15T14:41:39Z</time>
      </trkpt>
      <trkpt lat="47.65132" lon="0.53771">
        <ele>114</ele>
        <time>2020-10-15T14:41:41Z</time>
      </trkpt>
      <trkpt lat="47.6513" lon="0.53771">
        <ele>114</ele>
        <time>2020-10-15T14:41:43Z</time>
      </trkpt>
      <trkpt lat="47.65127" lon="0.53772">
        <ele>114</ele>
        <time>2020-10-15T14:41:45Z</time>
      </trkpt>
      <trkpt lat="47.65125" lon="0.53772">
        <ele>114</ele>
        <time>2020-10-15T14:41:47Z</time>
      </trkpt>
      <trkpt lat="47.65122" lon="0.53773">
        <ele>114</ele>
        <time>2020-10-15T14:41:49Z</time>
      </trkpt>
      <trkpt lat="47.65119" lon="0.53773">
        <ele>114</ele>
        <time>2020-10-15T14:41:51Z</time>
      </trkpt>
      <trkpt lat="47.65117" lon="0.53774">
        <ele>114</ele>
        <time>2020-10-15T14:41:53Z</time>
      </trkpt>
      <trkpt lat="47.65115" lon="0.53776">
        <ele>114</ele>
        <time>2020-10-15T14:41:55Z</time>
      </trkpt>
      <trkpt lat="47.65113" lon="0.53778">
        <ele>114</ele>
        <time>2020-10-15T14:41:57Z</time>
      </trkpt>
      <trkpt lat="47.65111" lon="0.5378">
        <ele>115</ele>
        <time>2020-10-15T14:41:59Z</time>
      </trkpt>
      <trkpt lat="47.65109" lon="0.53782">
        <ele>115</ele>
        <time>2020-10-15T14:42:01Z</time>
      </trkpt>
      <trkpt lat="47.65107" lon="0.53785">
        <ele>115</ele>
        <time>2020-10-15T14:42:03Z</time>
      </trkpt>
      <trkpt lat="47.65105" lon="0.53788">
        <ele>115</ele>
        <time>2020-10-15T14:42:05Z</time>
      </trkpt>
      <trkpt lat="47.65104" lon="0.53791">
        <ele>115</ele>
        <time>2020-10-15T14:42:07Z</time>
      </trkpt>
      <trkpt lat="47.65104" lon="0.53794">
        <ele>115</ele>
        <time>2020-10-15T14:42:09Z</time>
      </trkpt>
      <trkpt lat="47.65103" lon="0.53797">
        <ele>115</ele>
        <time>2020-10-15T14:42:12Z</time>
      </trkpt>
      <trkpt lat="47.65102" lon="0.53801">
        <ele>115</ele>
        <time>2020-10-15T14:42:14Z</time>
      </trkpt>
      <trkpt lat="47.65101" lon="0.53804">
        <ele>115</ele>
        <time>2020-10-15T14:42:16Z</time>
      </trkpt>
      <trkpt lat="47.651" lon="0.53808">
        <ele>116</ele>
        <time>2020-10-15T14:42:18Z</time>
      </trkpt>
      <trkpt lat="47.65099" lon="0.53811">
        <ele>116</ele>
        <time>2020-10-15T14:42:20Z</time>
      </trkpt>
      <trkpt lat="47.65098" lon="0.53814">
        <ele>116</ele>
        <time>2020-10-15T14:42:22Z</time>
      </trkpt>
      <trkpt lat="47.65097" lon="0.53817">
        <ele>116</ele>
        <time>2020-10-15T14:42:24Z</time>
      </trkpt>
      <trkpt lat="47.65095" lon="0.53821">
        <ele>116</ele>
        <time>2020-10-15T14:42:26Z</time>
      </trkpt>
      <trkpt lat="47.65094" lon="0.53823">
        <ele>116</ele>
        <time>2020-10-15T14:42:28Z</time>
      </trkpt>
      <trkpt lat="47.65094" lon="0.53826">
        <ele>116</ele>
        <time>2020-10-15T14:42:30Z</time>
      </trkpt>
      <trkpt lat="47.65093" lon="0.5383">
        <ele>116</ele>
        <time>2020-10-15T14:42:32Z</time>
      </trkpt>
      <trkpt lat="47.65091" lon="0.53833">
        <ele>116</ele>
        <time>2020-10-15T14:42:34Z</time>
      </trkpt>
      <trkpt lat="47.6509" lon="0.53836">
        <ele>116</ele>
        <time>2020-10-15T14:42:36Z</time>
      </trkpt>
      <trkpt lat="47.65089" lon="0.53839">
        <ele>116</ele>
        <time>2020-10-15T14:42:38Z</time>
      </trkpt>
      <trkpt lat="47.65088" lon="0.53842">
        <ele>116</ele>
        <time>2020-10-15T14:42:40Z</time>
      </trkpt>
      <trkpt lat="47.65087" lon="0.53844">
        <ele>116</ele>
        <time>2020-10-15T14:42:42Z</time>
      </trkpt>
      <trkpt lat="47.65085" lon="0.53847">
        <ele>116</ele>
        <time>2020-10-15T14:42:44Z</time>
      </trkpt>
      <trkpt lat="47.65083" lon="0.5385">
        <ele>116</ele>
        <time>2020-10-15T14:42:46Z</time>
      </trkpt>
      <trkpt lat="47.65082" lon="0.53854">
        <ele>116</ele>
        <time>2020-10-15T14:42:48Z</time>
      </trkpt>
      <trkpt lat="47.6508" lon="0.53858">
        <ele>116</ele>
        <time>2020-10-15T14:42:50Z</time>
      </trkpt>
      <trkpt lat="47.65078" lon="0.53861">
        <ele>117</ele>
        <time>2020-10-15T14:42:52Z</time>
      </trkpt>
      <trkpt lat="47.65077" lon="0.53864">
        <ele>117</ele>
        <time>2020-10-15T14:42:54Z</time>
      </trkpt>
      <trkpt lat="47.65075" lon="0.53867">
        <ele>117</ele>
        <time>2020-10-15T14:42:56Z</time>
      </trkpt>
      <trkpt lat="47.65074" lon="0.53869">
        <ele>117</ele>
        <time>2020-10-15T14:42:58Z</time>
      </trkpt>
      <trkpt lat="47.65072" lon="0.53872">
        <ele>117</ele>
        <time>2020-10-15T14:43:00Z</time>
      </trkpt>
      <trkpt lat="47.65071" lon="0.53875">
        <ele>117</ele>
        <time>2020-10-15T14:43:02Z</time>
      </trkpt>
      <trkpt lat="47.6507" lon="0.53877">
        <ele>117</ele>
        <time>2020-10-15T14:43:04Z</time>
      </trkpt>
      <trkpt lat="47.65068" lon="0.5388">
        <ele>117</ele>
        <time>2020-10-15T14:43:06Z</time>
      </trkpt>
      <trkpt lat="47.65067" lon="0.53884">
        <ele>117</ele>
        <time>2020-10-15T14:43:08Z</time>
      </trkpt>
      <trkpt lat="47.65066" lon="0.53887">
        <ele>117</ele>
        <time>2020-10-15T14:43:10Z</time>
      </trkpt>
      <trkpt lat="47.65065" lon="0.5389">
        <ele>117</ele>
        <time>2020-10-15T14:43:12Z</time>
      </trkpt>
      <trkpt lat="47.65063" lon="0.53893">
        <ele>117</ele>
        <time>2020-10-15T14:43:14Z</time>
      </trkpt>
      <trkpt lat="47.65062" lon="0.53897">
        <ele>117</ele>
        <time>2020-10-15T14:43:16Z</time>
      </trkpt>
      <trkpt lat="47.65062" lon="0.539">
        <ele>117</ele>
        <time>2020-10-15T14:43:18Z</time>
      </trkpt>
      <trkpt lat="47.65061" lon="0.53903">
        <ele>117</ele>
        <time>2020-10-15T14:43:20Z</time>
      </trkpt>
      <trkpt lat="47.65061" lon="0.53906">
        <ele>117</ele>
        <time>2020-10-15T14:43:22Z</time>
      </trkpt>
      <trkpt lat="47.6506" lon="0.53909">
        <ele>117</ele>
        <time>2020-10-15T14:43:24Z</time>
      </trkpt>
      <trkpt lat="47.65059" lon="0.53912">
        <ele>117</ele>
        <time>2020-10-15T14:43:26Z</time>
      </trkpt>
      <trkpt lat="47.65058" lon="0.53915">
        <ele>117</ele>
        <time>2020-10-15T14:43:28Z</time>
      </trkpt>
      <trkpt lat="47.65057" lon="0.53919">
        <ele>118</ele>
        <time>2020-10-15T14:43:30Z</time>
      </trkpt>
      <trkpt lat="47.65056" lon="0.53923">
        <ele>118</ele>
        <time>2020-10-15T14:43:32Z</time>
      </trkpt>
      <trkpt lat="47.65055" lon="0.53926">
        <ele>117</ele>
        <time>2020-10-15T14:43:34Z</time>
      </trkpt>
      <trkpt lat="47.65054" lon="0.53929">
        <ele>117</ele>
        <time>2020-10-15T14:43:36Z</time>
      </trkpt>
      <trkpt lat="47.65053" lon="0.53934">
        <ele>117</ele>
        <time>2020-10-15T14:43:38Z</time>
      </trkpt>
      <trkpt lat="47.65051" lon="0.53937">
        <ele>117</ele>
        <time>2020-10-15T14:43:40Z</time>
      </trkpt>
      <trkpt lat="47.6505" lon="0.53941">
        <ele>117</ele>
        <time>2020-10-15T14:43:42Z</time>
      </trkpt>
      <trkpt lat="47.65049" lon="0.53945">
        <ele>118</ele>
        <time>2020-10-15T14:43:44Z</time>
      </trkpt>
      <trkpt lat="47.65047" lon="0.53948">
        <ele>118</ele>
        <time>2020-10-15T14:43:46Z</time>
      </trkpt>
      <trkpt lat="47.65045" lon="0.53951">
        <ele>118</ele>
        <time>2020-10-15T14:43:48Z</time>
      </trkpt>
      <trkpt lat="47.65044" lon="0.53954">
        <ele>118</ele>
        <time>2020-10-15T14:43:50Z</time>
      </trkpt>
      <trkpt lat="47.65042" lon="0.53958">
        <ele>118</ele>
        <time>2020-10-15T14:43:52Z</time>
      </trkpt>
      <trkpt lat="47.65041" lon="0.53961">
        <ele>118</ele>
        <time>2020-10-15T14:43:54Z</time>
      </trkpt>
      <trkpt lat="47.6504" lon="0.53964">
        <ele>118</ele>
        <time>2020-10-15T14:43:56Z</time>
      </trkpt>
      <trkpt lat="47.6504" lon="0.53967">
        <ele>118</ele>
        <time>2020-10-15T14:43:58Z</time>
      </trkpt>
      <trkpt lat="47.65039" lon="0.53971">
        <ele>118</ele>
        <time>2020-10-15T14:44:00Z</time>
      </trkpt>
      <trkpt lat="47.65038" lon="0.53975">
        <ele>118</ele>
        <time>2020-10-15T14:44:02Z</time>
      </trkpt>
      <trkpt lat="47.65038" lon="0.53979">
        <ele>118</ele>
        <time>2020-10-15T14:44:04Z</time>
      </trkpt>
      <trkpt lat="47.65036" lon="0.53983">
        <ele>118</ele>
        <time>2020-10-15T14:44:06Z</time>
      </trkpt>
      <trkpt lat="47.65034" lon="0.53987">
        <ele>118</ele>
        <time>2020-10-15T14:44:08Z</time>
      </trkpt>
      <trkpt lat="47.65033" lon="0.53991">
        <ele>118</ele>
        <time>2020-10-15T14:44:10Z</time>
      </trkpt>
      <trkpt lat="47.65032" lon="0.53995">
        <ele>118</ele>
        <time>2020-10-15T14:44:12Z</time>
      </trkpt>
      <trkpt lat="47.65031" lon="0.53998">
        <ele>118</ele>
        <time>2020-10-15T14:44:14Z</time>
      </trkpt>
      <trkpt lat="47.6503" lon="0.54001">
        <ele>118</ele>
        <time>2020-10-15T14:44:16Z</time>
      </trkpt>
      <trkpt lat="47.65029" lon="0.54006">
        <ele>118</ele>
        <time>2020-10-15T14:44:18Z</time>
      </trkpt>
      <trkpt lat="47.65029" lon="0.54009">
        <ele>118</ele>
        <time>2020-10-15T14:44:20Z</time>
      </trkpt>
      <trkpt lat="47.65028" lon="0.54014">
        <ele>117</ele>
        <time>2020-10-15T14:44:22Z</time>
      </trkpt>
      <trkpt lat="47.65027" lon="0.54019">
        <ele>117</ele>
        <time>2020-10-15T14:44:24Z</time>
      </trkpt>
      <trkpt lat="47.65026" lon="0.54022">
        <ele>117</ele>
        <time>2020-10-15T14:44:26Z</time>
      </trkpt>
      <trkpt lat="47.65026" lon="0.54027">
        <ele>117</ele>
        <time>2020-10-15T14:44:28Z</time>
      </trkpt>
      <trkpt lat="47.65025" lon="0.54031">
        <ele>117</ele>
        <time>2020-10-15T14:44:30Z</time>
      </trkpt>
      <trkpt lat="47.65024" lon="0.54035">
        <ele>117</ele>
        <time>2020-10-15T14:44:32Z</time>
      </trkpt>
      <trkpt lat="47.65024" lon="0.54039">
        <ele>117</ele>
        <time>2020-10-15T14:44:34Z</time>
      </trkpt>
      <trkpt lat="47.65022" lon="0.54043">
        <ele>117</ele>
        <time>2020-10-15T14:44:36Z</time>
      </trkpt>
      <trkpt lat="47.65021" lon="0.54047">
        <ele>117</ele>
        <time>2020-10-15T14:44:38Z</time>
      </trkpt>
      <trkpt lat="47.6502" lon="0.54051">
        <ele>117</ele>
        <time>2020-10-15T14:44:40Z</time>
      </trkpt>
      <trkpt lat="47.65019" lon="0.54054">
        <ele>117</ele>
        <time>2020-10-15T14:44:42Z</time>
      </trkpt>
      <trkpt lat="47.65018" lon="0.54058">
        <ele>117</ele>
        <time>2020-10-15T14:44:44Z</time>
      </trkpt>
      <trkpt lat="47.65017" lon="0.54061">
        <ele>117</ele>
        <time>2020-10-15T14:44:46Z</time>
      </trkpt>
      <trkpt lat="47.65016" lon="0.54065">
        <ele>117</ele>
        <time>2020-10-15T14:44:48Z</time>
      </trkpt>
      <trkpt lat="47.65014" lon="0.54068">
        <ele>117</ele>
        <time>2020-10-15T14:44:50Z</time>
      </trkpt>
      <trkpt lat="47.65013" lon="0.54071">
        <ele>117</ele>
        <time>2020-10-15T14:44:52Z</time>
      </trkpt>
      <trkpt lat="47.65012" lon="0.54075">
        <ele>117</ele>
        <time>2020-10-15T14:44:54Z</time>
      </trkpt>
      <trkpt lat="47.65011" lon="0.54079">
        <ele>117</ele>
        <time>2020-10-15T14:44:56Z</time>
      </trkpt>
      <trkpt lat="47.6501" lon="0.54083">
        <ele>117</ele>
        <time>2020-10-15T14:44:58Z</time>
      </trkpt>
      <trkpt lat="47.65009" lon="0.54087">
        <ele>117</ele>
        <time>2020-10-15T14:45:00Z</time>
      </trkpt>
      <trkpt lat="47.65009" lon="0.5409">
        <ele>117</ele>
        <time>2020-10-15T14:45:02Z</time>
      </trkpt>
      <trkpt lat="47.65008" lon="0.54094">
        <ele>117</ele>
        <time>2020-10-15T14:45:04Z</time>
      </trkpt>
      <trkpt lat="47.65008" lon="0.54097">
        <ele>117</ele>
        <time>2020-10-15T14:45:06Z</time>
      </trkpt>
      <trkpt lat="47.65009" lon="0.541">
        <ele>117</ele>
        <time>2020-10-15T14:45:08Z</time>
      </trkpt>
      <trkpt lat="47.65009" lon="0.54103">
        <ele>117</ele>
        <time>2020-10-15T14:45:10Z</time>
      </trkpt>
      <trkpt lat="47.65009" lon="0.54106">
        <ele>117</ele>
        <time>2020-10-15T14:45:12Z</time>
      </trkpt>
      <trkpt lat="47.6501" lon="0.54111">
        <ele>117</ele>
        <time>2020-10-15T14:45:14Z</time>
      </trkpt>
      <trkpt lat="47.6501" lon="0.54115">
        <ele>116</ele>
        <time>2020-10-15T14:45:16Z</time>
      </trkpt>
      <trkpt lat="47.65011" lon="0.54119">
        <ele>116</ele>
        <time>2020-10-15T14:45:18Z</time>
      </trkpt>
      <trkpt lat="47.65011" lon="0.54123">
        <ele>116</ele>
        <time>2020-10-15T14:45:20Z</time>
      </trkpt>
      <trkpt lat="47.65012" lon="0.54127">
        <ele>116</ele>
        <time>2020-10-15T14:45:22Z</time>
      </trkpt>
      <trkpt lat="47.65012" lon="0.5413">
        <ele>116</ele>
        <time>2020-10-15T14:45:24Z</time>
      </trkpt>
      <trkpt lat="47.65012" lon="0.54133">
        <ele>116</ele>
        <time>2020-10-15T14:45:26Z</time>
      </trkpt>
      <trkpt lat="47.65013" lon="0.54137">
        <ele>116</ele>
        <time>2020-10-15T14:45:28Z</time>
      </trkpt>
      <trkpt lat="47.65014" lon="0.5414">
        <ele>116</ele>
        <time>2020-10-15T14:45:30Z</time>
      </trkpt>
      <trkpt lat="47.65015" lon="0.54143">
        <ele>116</ele>
        <time>2020-10-15T14:45:32Z</time>
      </trkpt>
      <trkpt lat="47.65016" lon="0.54146">
        <ele>116</ele>
        <time>2020-10-15T14:45:34Z</time>
      </trkpt>
      <trkpt lat="47.65017" lon="0.54149">
        <ele>116</ele>
        <time>2020-10-15T14:45:36Z</time>
      </trkpt>
      <trkpt lat="47.65018" lon="0.54152">
        <ele>116</ele>
        <time>2020-10-15T14:45:38Z</time>
      </trkpt>
      <trkpt lat="47.65019" lon="0.54155">
        <ele>116</ele>
        <time>2020-10-15T14:45:40Z</time>
      </trkpt>
      <trkpt lat="47.6502" lon="0.54158">
        <ele>116</ele>
        <time>2020-10-15T14:45:42Z</time>
      </trkpt>
      <trkpt lat="47.65021" lon="0.54161">
        <ele>116</ele>
        <time>2020-10-15T14:45:44Z</time>
      </trkpt>
      <trkpt lat="47.65022" lon="0.54165">
        <ele>116</ele>
        <time>2020-10-15T14:45:46Z</time>
      </trkpt>
      <trkpt lat="47.65022" lon="0.54169">
        <ele>115</ele>
        <time>2020-10-15T14:45:48Z</time>
      </trkpt>
      <trkpt lat="47.65023" lon="0.54172">
        <ele>115</ele>
        <time>2020-10-15T14:45:50Z</time>
      </trkpt>
      <trkpt lat="47.65023" lon="0.54176">
        <ele>115</ele>
        <time>2020-10-15T14:45:52Z</time>
      </trkpt>
      <trkpt lat="47.65024" lon="0.54179">
        <ele>115</ele>
        <time>2020-10-15T14:45:54Z</time>
      </trkpt>
      <trkpt lat="47.65024" lon="0.54183">
        <ele>115</ele>
        <time>2020-10-15T14:45:56Z</time>
      </trkpt>
      <trkpt lat="47.65024" lon="0.54186">
        <ele>115</ele>
        <time>2020-10-15T14:45:58Z</time>
      </trkpt>
      <trkpt lat="47.65023" lon="0.5419">
        <ele>115</ele>
        <time>2020-10-15T14:46:00Z</time>
      </trkpt>
      <trkpt lat="47.65022" lon="0.54194">
        <ele>115</ele>
        <time>2020-10-15T14:46:02Z</time>
      </trkpt>
      <trkpt lat="47.65021" lon="0.54197">
        <ele>115</ele>
        <time>2020-10-15T14:46:04Z</time>
      </trkpt>
      <trkpt lat="47.65021" lon="0.54201">
        <ele>115</ele>
        <time>2020-10-15T14:46:06Z</time>
      </trkpt>
      <trkpt lat="47.6502" lon="0.54205">
        <ele>115</ele>
        <time>2020-10-15T14:46:08Z</time>
      </trkpt>
      <trkpt lat="47.65019" lon="0.54209">
        <ele>115</ele>
        <time>2020-10-15T14:46:10Z</time>
      </trkpt>
      <trkpt lat="47.65018" lon="0.54213">
        <ele>115</ele>
        <time>2020-10-15T14:46:12Z</time>
      </trkpt>
      <trkpt lat="47.65018" lon="0.54218">
        <ele>115</ele>
        <time>2020-10-15T14:46:14Z</time>
      </trkpt>
      <trkpt lat="47.65017" lon="0.54221">
        <ele>115</ele>
        <time>2020-10-15T14:46:16Z</time>
      </trkpt>
      <trkpt lat="47.65016" lon="0.54226">
        <ele>115</ele>
        <time>2020-10-15T14:46:18Z</time>
      </trkpt>
      <trkpt lat="47.65016" lon="0.54229">
        <ele>115</ele>
        <time>2020-10-15T14:46:20Z</time>
      </trkpt>
      <trkpt lat="47.65015" lon="0.54233">
        <ele>115</ele>
        <time>2020-10-15T14:46:22Z</time>
      </trkpt>
      <trkpt lat="47.65015" lon="0.54236">
        <ele>115</ele>
        <time>2020-10-15T14:46:24Z</time>
      </trkpt>
      <trkpt lat="47.65015" lon="0.54239">
        <ele>115</ele>
        <time>2020-10-15T14:46:26Z</time>
      </trkpt>
      <trkpt lat="47.65014" lon="0.54242">
        <ele>115</ele>
        <time>2020-10-15T14:46:28Z</time>
      </trkpt>
      <trkpt lat="47.65014" lon="0.54246">
        <ele>115</ele>
        <time>2020-10-15T14:46:30Z</time>
      </trkpt>
      <trkpt lat="47.65013" lon="0.54249">
        <ele>115</ele>
        <time>2020-10-15T14:46:32Z</time>
      </trkpt>
      <trkpt lat="47.65013" lon="0.54252">
        <ele>115</ele>
        <time>2020-10-15T14:46:34Z</time>
      </trkpt>
      <trkpt lat="47.65013" lon="0.54257">
        <ele>116</ele>
        <time>2020-10-15T14:46:36Z</time>
      </trkpt>
      <trkpt lat="47.65012" lon="0.54261">
        <ele>116</ele>
        <time>2020-10-15T14:46:38Z</time>
      </trkpt>
      <trkpt lat="47.65012" lon="0.54265">
        <ele>116</ele>
        <time>2020-10-15T14:46:40Z</time>
      </trkpt>
      <trkpt lat="47.65012" lon="0.54268">
        <ele>116</ele>
        <time>2020-10-15T14:46:42Z</time>
      </trkpt>
      <trkpt lat="47.65011" lon="0.54272">
        <ele>116</ele>
        <time>2020-10-15T14:46:44Z</time>
      </trkpt>
      <trkpt lat="47.65011" lon="0.54275">
        <ele>116</ele>
        <time>2020-10-15T14:46:46Z</time>
      </trkpt>
      <trkpt lat="47.6501" lon="0.54278">
        <ele>116</ele>
        <time>2020-10-15T14:46:48Z</time>
      </trkpt>
      <trkpt lat="47.65009" lon="0.54281">
        <ele>116</ele>
        <time>2020-10-15T14:46:50Z</time>
      </trkpt>
      <trkpt lat="47.65008" lon="0.54285">
        <ele>116</ele>
        <time>2020-10-15T14:46:52Z</time>
      </trkpt>
      <trkpt lat="47.65007" lon="0.54289">
        <ele>116</ele>
        <time>2020-10-15T14:46:54Z</time>
      </trkpt>
      <trkpt lat="47.65006" lon="0.54292">
        <ele>116</ele>
        <time>2020-10-15T14:46:56Z</time>
      </trkpt>
      <trkpt lat="47.65005" lon="0.54295">
        <ele>116</ele>
        <time>2020-10-15T14:46:58Z</time>
      </trkpt>
      <trkpt lat="47.65004" lon="0.54299">
        <ele>116</ele>
        <time>2020-10-15T14:47:00Z</time>
      </trkpt>
      <trkpt lat="47.65003" lon="0.54303">
        <ele>116</ele>
        <time>2020-10-15T14:47:02Z</time>
      </trkpt>
      <trkpt lat="47.65003" lon="0.54307">
        <ele>116</ele>
        <time>2020-10-15T14:47:04Z</time>
      </trkpt>
      <trkpt lat="47.65002" lon="0.5431">
        <ele>116</ele>
        <time>2020-10-15T14:47:06Z</time>
      </trkpt>
      <trkpt lat="47.65001" lon="0.54314">
        <ele>116</ele>
        <time>2020-10-15T14:47:08Z</time>
      </trkpt>
      <trkpt lat="47.65001" lon="0.54317">
        <ele>116</ele>
        <time>2020-10-15T14:47:10Z</time>
      </trkpt>
      <trkpt lat="47.65" lon="0.5432">
        <ele>116</ele>
        <time>2020-10-15T14:47:12Z</time>
      </trkpt>
      <trkpt lat="47.64999" lon="0.54324">
        <ele>116</ele>
        <time>2020-10-15T14:47:14Z</time>
      </trkpt>
      <trkpt lat="47.64998" lon="0.54328">
        <ele>116</ele>
        <time>2020-10-15T14:47:16Z</time>
      </trkpt>
      <trkpt lat="47.64997" lon="0.54332">
        <ele>116</ele>
        <time>2020-10-15T14:47:18Z</time>
      </trkpt>
      <trkpt lat="47.64996" lon="0.54335">
        <ele>116</ele>
        <time>2020-10-15T14:47:20Z</time>
      </trkpt>
      <trkpt lat="47.64995" lon="0.54338">
        <ele>116</ele>
        <time>2020-10-15T14:47:22Z</time>
      </trkpt>
      <trkpt lat="47.64994" lon="0.54342">
        <ele>116</ele>
        <time>2020-10-15T14:47:24Z</time>
      </trkpt>
      <trkpt lat="47.64993" lon="0.54345">
        <ele>117</ele>
        <time>2020-10-15T14:47:26Z</time>
      </trkpt>
      <trkpt lat="47.64992" lon="0.54349">
        <ele>117</ele>
        <time>2020-10-15T14:47:28Z</time>
      </trkpt>
      <trkpt lat="47.64991" lon="0.54353">
        <ele>117</ele>
        <time>2020-10-15T14:47:30Z</time>
      </trkpt>
      <trkpt lat="47.6499" lon="0.54357">
        <ele>117</ele>
        <time>2020-10-15T14:47:32Z</time>
      </trkpt>
      <trkpt lat="47.64989" lon="0.5436">
        <ele>117</ele>
        <time>2020-10-15T14:47:34Z</time>
      </trkpt>
      <trkpt lat="47.64988" lon="0.54364">
        <ele>117</ele>
        <time>2020-10-15T14:47:36Z</time>
      </trkpt>
      <trkpt lat="47.64987" lon="0.54367">
        <ele>117</ele>
        <time>2020-10-15T14:47:38Z</time>
      </trkpt>
      <trkpt lat="47.64986" lon="0.5437">
        <ele>117</ele>
        <time>2020-10-15T14:47:40Z</time>
      </trkpt>
      <trkpt lat="47.64985" lon="0.54374">
        <ele>117</ele>
        <time>2020-10-15T14:47:42Z</time>
      </trkpt>
      <trkpt lat="47.64984" lon="0.54377">
        <ele>117</ele>
        <time>2020-10-15T14:47:44Z</time>
      </trkpt>
      <trkpt lat="47.64983" lon="0.5438">
        <ele>118</ele>
        <time>2020-10-15T14:47:46Z</time>
      </trkpt>
      <trkpt lat="47.64982" lon="0.54384">
        <ele>118</ele>
        <time>2020-10-15T14:47:48Z</time>
      </trkpt>
      <trkpt lat="47.64981" lon="0.54386">
        <ele>118</ele>
        <time>2020-10-15T14:47:50Z</time>
      </trkpt>
      <trkpt lat="47.6498" lon="0.54389">
        <ele>118</ele>
        <time>2020-10-15T14:47:52Z</time>
      </trkpt>
      <trkpt lat="47.64978" lon="0.54393">
        <ele>118</ele>
        <time>2020-10-15T14:47:54Z</time>
      </trkpt>
      <trkpt lat="47.64977" lon="0.54396">
        <ele>118</ele>
        <time>2020-10-15T14:47:56Z</time>
      </trkpt>
      <trkpt lat="47.64976" lon="0.544">
        <ele>118</ele>
        <time>2020-10-15T14:47:58Z</time>
      </trkpt>
      <trkpt lat="47.64974" lon="0.54403">
        <ele>118</ele>
        <time>2020-10-15T14:48:00Z</time>
      </trkpt>
      <trkpt lat="47.64973" lon="0.54407">
        <ele>118</ele>
        <time>2020-10-15T14:48:02Z</time>
      </trkpt>
      <trkpt lat="47.64972" lon="0.5441">
        <ele>117</ele>
        <time>2020-10-15T14:48:04Z</time>
      </trkpt>
      <trkpt lat="47.64971" lon="0.54413">
        <ele>117</ele>
        <time>2020-10-15T14:48:06Z</time>
      </trkpt>
      <trkpt lat="47.6497" lon="0.54417">
        <ele>117</ele>
        <time>2020-10-15T14:48:08Z</time>
      </trkpt>
      <trkpt lat="47.64969" lon="0.5442">
        <ele>117</ele>
        <time>2020-10-15T14:48:10Z</time>
      </trkpt>
      <trkpt lat="47.64968" lon="0.54423">
        <ele>118</ele>
        <time>2020-10-15T14:48:12Z</time>
      </trkpt>
      <trkpt lat="47.64967" lon="0.54427">
        <ele>118</ele>
        <time>2020-10-15T14:48:14Z</time>
      </trkpt>
      <trkpt lat="47.64965" lon="0.5443">
        <ele>118</ele>
        <time>2020-10-15T14:48:16Z</time>
      </trkpt>
      <trkpt lat="47.64964" lon="0.54433">
        <ele>118</ele>
        <time>2020-10-15T14:48:18Z</time>
      </trkpt>
      <trkpt lat="47.64963" lon="0.54436">
        <ele>118</ele>
        <time>2020-10-15T14:48:20Z</time>
      </trkpt>
      <trkpt lat="47.64962" lon="0.54439">
        <ele>118</ele>
        <time>2020-10-15T14:48:22Z</time>
      </trkpt>
      <trkpt lat="47.64961" lon="0.54443">
        <ele>118</ele>
        <time>2020-10-15T14:48:24Z</time>
      </trkpt>
      <trkpt lat="47.64959" lon="0.54446">
        <ele>118</ele>
        <time>2020-10-15T14:48:26Z</time>
      </trkpt>
      <trkpt lat="47.64958" lon="0.54449">
        <ele>118</ele>
        <time>2020-10-15T14:48:28Z</time>
      </trkpt>
      <trkpt lat="47.64956" lon="0.54452">
        <ele>118</ele>
        <time>2020-10-15T14:48:30Z</time>
      </trkpt>
      <trkpt lat="47.64955" lon="0.54455">
        <ele>117</ele>
        <time>2020-10-15T14:48:32Z</time>
      </trkpt>
      <trkpt lat="47.64954" lon="0.54459">
        <ele>118</ele>
        <time>2020-10-15T14:48:34Z</time>
      </trkpt>
      <trkpt lat="47.64952" lon="0.54462">
        <ele>118</ele>
        <time>2020-10-15T14:48:36Z</time>
      </trkpt>
      <trkpt lat="47.64951" lon="0.54465">
        <ele>118</ele>
        <time>2020-10-15T14:48:38Z</time>
      </trkpt>
      <trkpt lat="47.64949" lon="0.54468">
        <ele>118</ele>
        <time>2020-10-15T14:48:40Z</time>
      </trkpt>
      <trkpt lat="47.64948" lon="0.54471">
        <ele>118</ele>
        <time>2020-10-15T14:48:42Z</time>
      </trkpt>
      <trkpt lat="47.64946" lon="0.54475">
        <ele>118</ele>
        <time>2020-10-15T14:48:44Z</time>
      </trkpt>
      <trkpt lat="47.64944" lon="0.54478">
        <ele>118</ele>
        <time>2020-10-15T14:48:46Z</time>
      </trkpt>
      <trkpt lat="47.64943" lon="0.54482">
        <ele>118</ele>
        <time>2020-10-15T14:48:48Z</time>
      </trkpt>
      <trkpt lat="47.64942" lon="0.54485">
        <ele>118</ele>
        <time>2020-10-15T14:48:50Z</time>
      </trkpt>
      <trkpt lat="47.6494" lon="0.54489">
        <ele>118</ele>
        <time>2020-10-15T14:48:52Z</time>
      </trkpt>
      <trkpt lat="47.64939" lon="0.54492">
        <ele>118</ele>
        <time>2020-10-15T14:48:54Z</time>
      </trkpt>
      <trkpt lat="47.64938" lon="0.54495">
        <ele>118</ele>
        <time>2020-10-15T14:48:56Z</time>
      </trkpt>
      <trkpt lat="47.64936" lon="0.54498">
        <ele>118</ele>
        <time>2020-10-15T14:48:58Z</time>
      </trkpt>
      <trkpt lat="47.64935" lon="0.54501">
        <ele>118</ele>
        <time>2020-10-15T14:49:00Z</time>
      </trkpt>
      <trkpt lat="47.64934" lon="0.54504">
        <ele>118</ele>
        <time>2020-10-15T14:49:02Z</time>
      </trkpt>
      <trkpt lat="47.64932" lon="0.54508">
        <ele>118</ele>
        <time>2020-10-15T14:49:04Z</time>
      </trkpt>
      <trkpt lat="47.64931" lon="0.54511">
        <ele>118</ele>
        <time>2020-10-15T14:49:06Z</time>
      </trkpt>
      <trkpt lat="47.64929" lon="0.54514">
        <ele>118</ele>
        <time>2020-10-15T14:49:08Z</time>
      </trkpt>
      <trkpt lat="47.64927" lon="0.54517">
        <ele>118</ele>
        <time>2020-10-15T14:49:10Z</time>
      </trkpt>
      <trkpt lat="47.64926" lon="0.5452">
        <ele>118</ele>
        <time>2020-10-15T14:49:12Z</time>
      </trkpt>
      <trkpt lat="47.64924" lon="0.54524">
        <ele>118</ele>
        <time>2020-10-15T14:49:14Z</time>
      </trkpt>
      <trkpt lat="47.64923" lon="0.54527">
        <ele>118</ele>
        <time>2020-10-15T14:49:16Z</time>
      </trkpt>
      <trkpt lat="47.64922" lon="0.5453">
        <ele>118</ele>
        <time>2020-10-15T14:49:18Z</time>
      </trkpt>
      <trkpt lat="47.6492" lon="0.54534">
        <ele>118</ele>
        <time>2020-10-15T14:49:20Z</time>
      </trkpt>
      <trkpt lat="47.64919" lon="0.54538">
        <ele>118</ele>
        <time>2020-10-15T14:49:22Z</time>
      </trkpt>
      <trkpt lat="47.64918" lon="0.54541">
        <ele>118</ele>
        <time>2020-10-15T14:49:24Z</time>
      </trkpt>
      <trkpt lat="47.64917" lon="0.54544">
        <ele>118</ele>
        <time>2020-10-15T14:49:26Z</time>
      </trkpt>
      <trkpt lat="47.64915" lon="0.54548">
        <ele>118</ele>
        <time>2020-10-15T14:49:28Z</time>
      </trkpt>
      <trkpt lat="47.64914" lon="0.54551">
        <ele>118</ele>
        <time>2020-10-15T14:49:30Z</time>
      </trkpt>
      <trkpt lat="47.64912" lon="0.54554">
        <ele>118</ele>
        <time>2020-10-15T14:49:32Z</time>
      </trkpt>
      <trkpt lat="47.64911" lon="0.54557">
        <ele>118</ele>
        <time>2020-10-15T14:49:34Z</time>
      </trkpt>
      <trkpt lat="47.6491" lon="0.5456">
        <ele>118</ele>
        <time>2020-10-15T14:49:36Z</time>
      </trkpt>
      <trkpt lat="47.64909" lon="0.54563">
        <ele>118</ele>
        <time>2020-10-15T14:49:38Z</time>
      </trkpt>
      <trkpt lat="47.64908" lon="0.54566">
        <ele>118</ele>
        <time>2020-10-15T14:49:40Z</time>
      </trkpt>
      <trkpt lat="47.64907" lon="0.5457">
        <ele>118</ele>
        <time>2020-10-15T14:49:42Z</time>
      </trkpt>
      <trkpt lat="47.64906" lon="0.54573">
        <ele>118</ele>
        <time>2020-10-15T14:49:44Z</time>
      </trkpt>
      <trkpt lat="47.64905" lon="0.54577">
        <ele>118</ele>
        <time>2020-10-15T14:49:46Z</time>
      </trkpt>
      <trkpt lat="47.64904" lon="0.5458">
        <ele>118</ele>
        <time>2020-10-15T14:49:48Z</time>
      </trkpt>
      <trkpt lat="47.64903" lon="0.54584">
        <ele>118</ele>
        <time>2020-10-15T14:49:50Z</time>
      </trkpt>
      <trkpt lat="47.64902" lon="0.54586">
        <ele>118</ele>
        <time>2020-10-15T14:49:52Z</time>
      </trkpt>
      <trkpt lat="47.64901" lon="0.54589">
        <ele>118</ele>
        <time>2020-10-15T14:49:54Z</time>
      </trkpt>
      <trkpt lat="47.649" lon="0.54592">
        <ele>118</ele>
        <time>2020-10-15T14:49:56Z</time>
      </trkpt>
      <trkpt lat="47.64899" lon="0.54596">
        <ele>118</ele>
        <time>2020-10-15T14:49:58Z</time>
      </trkpt>
      <trkpt lat="47.64897" lon="0.54599">
        <ele>118</ele>
        <time>2020-10-15T14:50:00Z</time>
      </trkpt>
      <trkpt lat="47.64896" lon="0.54603">
        <ele>118</ele>
        <time>2020-10-15T14:50:02Z</time>
      </trkpt>
      <trkpt lat="47.64894" lon="0.54606">
        <ele>118</ele>
        <time>2020-10-15T14:50:04Z</time>
      </trkpt>
      <trkpt lat="47.64893" lon="0.54609">
        <ele>118</ele>
        <time>2020-10-15T14:50:06Z</time>
      </trkpt>
      <trkpt lat="47.64891" lon="0.54612">
        <ele>118</ele>
        <time>2020-10-15T14:50:08Z</time>
      </trkpt>
      <trkpt lat="47.6489" lon="0.54615">
        <ele>118</ele>
        <time>2020-10-15T14:50:10Z</time>
      </trkpt>
      <trkpt lat="47.64888" lon="0.54619">
        <ele>119</ele>
        <time>2020-10-15T14:50:12Z</time>
      </trkpt>
      <trkpt lat="47.64886" lon="0.54622">
        <ele>119</ele>
        <time>2020-10-15T14:50:14Z</time>
      </trkpt>
      <trkpt lat="47.64885" lon="0.54625">
        <ele>119</ele>
        <time>2020-10-15T14:50:16Z</time>
      </trkpt>
      <trkpt lat="47.64883" lon="0.54628">
        <ele>119</ele>
        <time>2020-10-15T14:50:18Z</time>
      </trkpt>
      <trkpt lat="47.64881" lon="0.54631">
        <ele>119</ele>
        <time>2020-10-15T14:50:20Z</time>
      </trkpt>
      <trkpt lat="47.6488" lon="0.54634">
        <ele>119</ele>
        <time>2020-10-15T14:50:22Z</time>
      </trkpt>
      <trkpt lat="47.64877" lon="0.54636">
        <ele>119</ele>
        <time>2020-10-15T14:50:24Z</time>
      </trkpt>
      <trkpt lat="47.64876" lon="0.54639">
        <ele>119</ele>
        <time>2020-10-15T14:50:26Z</time>
      </trkpt>
      <trkpt lat="47.64874" lon="0.54642">
        <ele>119</ele>
        <time>2020-10-15T14:50:28Z</time>
      </trkpt>
      <trkpt lat="47.64872" lon="0.54645">
        <ele>119</ele>
        <time>2020-10-15T14:50:30Z</time>
      </trkpt>
      <trkpt lat="47.6487" lon="0.54648">
        <ele>119</ele>
        <time>2020-10-15T14:50:32Z</time>
      </trkpt>
      <trkpt lat="47.64868" lon="0.54651">
        <ele>119</ele>
        <time>2020-10-15T14:50:34Z</time>
      </trkpt>
      <trkpt lat="47.64867" lon="0.54653">
        <ele>119</ele>
        <time>2020-10-15T14:50:36Z</time>
      </trkpt>
      <trkpt lat="47.64865" lon="0.54656">
        <ele>119</ele>
        <time>2020-10-15T14:50:38Z</time>
      </trkpt>
      <trkpt lat="47.64863" lon="0.54659">
        <ele>119</ele>
        <time>2020-10-15T14:50:40Z</time>
      </trkpt>
      <trkpt lat="47.64862" lon="0.54662">
        <ele>119</ele>
        <time>2020-10-15T14:50:42Z</time>
      </trkpt>
      <trkpt lat="47.64859" lon="0.54665">
        <ele>119</ele>
        <time>2020-10-15T14:50:44Z</time>
      </trkpt>
      <trkpt lat="47.64858" lon="0.54668">
        <ele>118</ele>
        <time>2020-10-15T14:50:46Z</time>
      </trkpt>
      <trkpt lat="47.64856" lon="0.5467">
        <ele>118</ele>
        <time>2020-10-15T14:50:48Z</time>
      </trkpt>
      <trkpt lat="47.64855" lon="0.54673">
        <ele>118</ele>
        <time>2020-10-15T14:50:50Z</time>
      </trkpt>
      <trkpt lat="47.64853" lon="0.54675">
        <ele>118</ele>
        <time>2020-10-15T14:50:52Z</time>
      </trkpt>
      <trkpt lat="47.64851" lon="0.54678">
        <ele>118</ele>
        <time>2020-10-15T14:50:54Z</time>
      </trkpt>
      <trkpt lat="47.64849" lon="0.54681">
        <ele>118</ele>
        <time>2020-10-15T14:50:56Z</time>
      </trkpt>
      <trkpt lat="47.64847" lon="0.54684">
        <ele>117</ele>
        <time>2020-10-15T14:50:58Z</time>
      </trkpt>
      <trkpt lat="47.64846" lon="0.54687">
        <ele>117</ele>
        <time>2020-10-15T14:51:00Z</time>
      </trkpt>
      <trkpt lat="47.64844" lon="0.5469">
        <ele>117</ele>
        <time>2020-10-15T14:51:02Z</time>
      </trkpt>
      <trkpt lat="47.64842" lon="0.54693">
        <ele>117</ele>
        <time>2020-10-15T14:51:04Z</time>
      </trkpt>
      <trkpt lat="47.6484" lon="0.54696">
        <ele>117</ele>
        <time>2020-10-15T14:51:06Z</time>
      </trkpt>
      <trkpt lat="47.64839" lon="0.54699">
        <ele>116</ele>
        <time>2020-10-15T14:51:08Z</time>
      </trkpt>
      <trkpt lat="47.64838" lon="0.54702">
        <ele>116</ele>
        <time>2020-10-15T14:51:10Z</time>
      </trkpt>
      <trkpt lat="47.64836" lon="0.54705">
        <ele>116</ele>
        <time>2020-10-15T14:51:12Z</time>
      </trkpt>
      <trkpt lat="47.64835" lon="0.54708">
        <ele>116</ele>
        <time>2020-10-15T14:51:14Z</time>
      </trkpt>
      <trkpt lat="47.64833" lon="0.54711">
        <ele>115</ele>
        <time>2020-10-15T14:51:16Z</time>
      </trkpt>
      <trkpt lat="47.64831" lon="0.54714">
        <ele>115</ele>
        <time>2020-10-15T14:51:18Z</time>
      </trkpt>
      <trkpt lat="47.6483" lon="0.54716">
        <ele>115</ele>
        <time>2020-10-15T14:51:20Z</time>
      </trkpt>
      <trkpt lat="47.64828" lon="0.54719">
        <ele>115</ele>
        <time>2020-10-15T14:51:22Z</time>
      </trkpt>
      <trkpt lat="47.64827" lon="0.54722">
        <ele>115</ele>
        <time>2020-10-15T14:51:24Z</time>
      </trkpt>
      <trkpt lat="47.64825" lon="0.54725">
        <ele>114</ele>
        <time>2020-10-15T14:51:26Z</time>
      </trkpt>
      <trkpt lat="47.64824" lon="0.54728">
        <ele>114</ele>
        <time>2020-10-15T14:51:28Z</time>
      </trkpt>
      <trkpt lat="47.64823" lon="0.54731">
        <ele>114</ele>
        <time>2020-10-15T14:51:30Z</time>
      </trkpt>
      <trkpt lat="47.64821" lon="0.54734">
        <ele>114</ele>
        <time>2020-10-15T14:51:32Z</time>
      </trkpt>
      <trkpt lat="47.6482" lon="0.54737">
        <ele>114</ele>
        <time>2020-10-15T14:51:34Z</time>
      </trkpt>
      <trkpt lat="47.64819" lon="0.54741">
        <ele>114</ele>
        <time>2020-10-15T14:51:36Z</time>
      </trkpt>
      <trkpt lat="47.64819" lon="0.54744">
        <ele>114</ele>
        <time>2020-10-15T14:51:38Z</time>
      </trkpt>
      <trkpt lat="47.64818" lon="0.54747">
        <ele>114</ele>
        <time>2020-10-15T14:51:40Z</time>
      </trkpt>
      <trkpt lat="47.64817" lon="0.5475">
        <ele>113</ele>
        <time>2020-10-15T14:51:42Z</time>
      </trkpt>
      <trkpt lat="47.64816" lon="0.54753">
        <ele>113</ele>
        <time>2020-10-15T14:51:44Z</time>
      </trkpt>
      <trkpt lat="47.64815" lon="0.54756">
        <ele>113</ele>
        <time>2020-10-15T14:51:46Z</time>
      </trkpt>
      <trkpt lat="47.64815" lon="0.54759">
        <ele>113</ele>
        <time>2020-10-15T14:51:48Z</time>
      </trkpt>
      <trkpt lat="47.64814" lon="0.54761">
        <ele>113</ele>
        <time>2020-10-15T14:51:50Z</time>
      </trkpt>
      <trkpt lat="47.64813" lon="0.54764">
        <ele>113</ele>
        <time>2020-10-15T14:51:52Z</time>
      </trkpt>
      <trkpt lat="47.64812" lon="0.54767">
        <ele>113</ele>
        <time>2020-10-15T14:51:54Z</time>
      </trkpt>
      <trkpt lat="47.64811" lon="0.5477">
        <ele>113</ele>
        <time>2020-10-15T14:51:56Z</time>
      </trkpt>
      <trkpt lat="47.6481" lon="0.54773">
        <ele>113</ele>
        <time>2020-10-15T14:51:58Z</time>
      </trkpt>
      <trkpt lat="47.64809" lon="0.54776">
        <ele>113</ele>
        <time>2020-10-15T14:52:00Z</time>
      </trkpt>
      <trkpt lat="47.64809" lon="0.54779">
        <ele>113</ele>
        <time>2020-10-15T14:52:02Z</time>
      </trkpt>
      <trkpt lat="47.64808" lon="0.54782">
        <ele>112</ele>
        <time>2020-10-15T14:52:04Z</time>
      </trkpt>
      <trkpt lat="47.64808" lon="0.54786">
        <ele>112</ele>
        <time>2020-10-15T14:52:06Z</time>
      </trkpt>
      <trkpt lat="47.64807" lon="0.5479">
        <ele>112</ele>
        <time>2020-10-15T14:52:08Z</time>
      </trkpt>
      <trkpt lat="47.64806" lon="0.54793">
        <ele>112</ele>
        <time>2020-10-15T14:52:10Z</time>
      </trkpt>
      <trkpt lat="47.64805" lon="0.54797">
        <ele>112</ele>
        <time>2020-10-15T14:52:12Z</time>
      </trkpt>
      <trkpt lat="47.64804" lon="0.54799">
        <ele>112</ele>
        <time>2020-10-15T14:52:14Z</time>
      </trkpt>
      <trkpt lat="47.64803" lon="0.54803">
        <ele>111</ele>
        <time>2020-10-15T14:52:16Z</time>
      </trkpt>
      <trkpt lat="47.64802" lon="0.54807">
        <ele>111</ele>
        <time>2020-10-15T14:52:18Z</time>
      </trkpt>
      <trkpt lat="47.648" lon="0.5481">
        <ele>111</ele>
        <time>2020-10-15T14:52:20Z</time>
      </trkpt>
      <trkpt lat="47.64799" lon="0.54813">
        <ele>111</ele>
        <time>2020-10-15T14:52:22Z</time>
      </trkpt>
      <trkpt lat="47.64798" lon="0.54816">
        <ele>111</ele>
        <time>2020-10-15T14:52:24Z</time>
      </trkpt>
      <trkpt lat="47.64797" lon="0.54819">
        <ele>111</ele>
        <time>2020-10-15T14:52:26Z</time>
      </trkpt>
      <trkpt lat="47.64796" lon="0.54822">
        <ele>110</ele>
        <time>2020-10-15T14:52:28Z</time>
      </trkpt>
      <trkpt lat="47.64796" lon="0.54826">
        <ele>110</ele>
        <time>2020-10-15T14:52:30Z</time>
      </trkpt>
      <trkpt lat="47.64795" lon="0.54829">
        <ele>110</ele>
        <time>2020-10-15T14:52:32Z</time>
      </trkpt>
      <trkpt lat="47.64793" lon="0.54833">
        <ele>110</ele>
        <time>2020-10-15T14:52:34Z</time>
      </trkpt>
      <trkpt lat="47.64792" lon="0.54836">
        <ele>110</ele>
        <time>2020-10-15T14:52:36Z</time>
      </trkpt>
      <trkpt lat="47.64791" lon="0.54839">
        <ele>110</ele>
        <time>2020-10-15T14:52:38Z</time>
      </trkpt>
      <trkpt lat="47.64789" lon="0.54842">
        <ele>110</ele>
        <time>2020-10-15T14:52:40Z</time>
      </trkpt>
      <trkpt lat="47.64788" lon="0.54845">
        <ele>109</ele>
        <time>2020-10-15T14:52:42Z</time>
      </trkpt>
      <trkpt lat="47.64787" lon="0.54848">
        <ele>109</ele>
        <time>2020-10-15T14:52:44Z</time>
      </trkpt>
      <trkpt lat="47.64785" lon="0.54851">
        <ele>109</ele>
        <time>2020-10-15T14:52:46Z</time>
      </trkpt>
      <trkpt lat="47.64783" lon="0.54854">
        <ele>109</ele>
        <time>2020-10-15T14:52:48Z</time>
      </trkpt>
      <trkpt lat="47.64782" lon="0.54857">
        <ele>109</ele>
        <time>2020-10-15T14:52:50Z</time>
      </trkpt>
      <trkpt lat="47.64781" lon="0.5486">
        <ele>109</ele>
        <time>2020-10-15T14:52:52Z</time>
      </trkpt>
      <trkpt lat="47.64779" lon="0.54862">
        <ele>109</ele>
        <time>2020-10-15T14:52:54Z</time>
      </trkpt>
      <trkpt lat="47.64777" lon="0.54866">
        <ele>108</ele>
        <time>2020-10-15T14:52:57Z</time>
      </trkpt>
      <trkpt lat="47.64776" lon="0.54869">
        <ele>108</ele>
        <time>2020-10-15T14:52:59Z</time>
      </trkpt>
      <trkpt lat="47.64774" lon="0.54872">
        <ele>108</ele>
        <time>2020-10-15T14:53:01Z</time>
      </trkpt>
      <trkpt lat="47.64773" lon="0.54875">
        <ele>108</ele>
        <time>2020-10-15T14:53:03Z</time>
      </trkpt>
      <trkpt lat="47.64772" lon="0.54878">
        <ele>108</ele>
        <time>2020-10-15T14:53:05Z</time>
      </trkpt>
      <trkpt lat="47.64771" lon="0.54881">
        <ele>108</ele>
        <time>2020-10-15T14:53:07Z</time>
      </trkpt>
      <trkpt lat="47.6477" lon="0.54884">
        <ele>108</ele>
        <time>2020-10-15T14:53:09Z</time>
      </trkpt>
      <trkpt lat="47.64768" lon="0.54887">
        <ele>108</ele>
        <time>2020-10-15T14:53:11Z</time>
      </trkpt>
      <trkpt lat="47.64766" lon="0.5489">
        <ele>107</ele>
        <time>2020-10-15T14:53:13Z</time>
      </trkpt>
      <trkpt lat="47.64764" lon="0.54892">
        <ele>107</ele>
        <time>2020-10-15T14:53:15Z</time>
      </trkpt>
      <trkpt lat="47.64761" lon="0.54892">
        <ele>107</ele>
        <time>2020-10-15T14:53:17Z</time>
      </trkpt>
      <trkpt lat="47.64759" lon="0.54893">
        <ele>107</ele>
        <time>2020-10-15T14:53:19Z</time>
      </trkpt>
      <trkpt lat="47.64756" lon="0.54894">
        <ele>107</ele>
        <time>2020-10-15T14:53:21Z</time>
      </trkpt>
      <trkpt lat="47.64754" lon="0.54895">
        <ele>107</ele>
        <time>2020-10-15T14:53:23Z</time>
      </trkpt>
      <trkpt lat="47.64751" lon="0.54896">
        <ele>107</ele>
        <time>2020-10-15T14:53:25Z</time>
      </trkpt>
      <trkpt lat="47.64748" lon="0.54898">
        <ele>107</ele>
        <time>2020-10-15T14:53:27Z</time>
      </trkpt>
      <trkpt lat="47.64745" lon="0.549">
        <ele>107</ele>
        <time>2020-10-15T14:53:29Z</time>
      </trkpt>
      <trkpt lat="47.64742" lon="0.54901">
        <ele>106</ele>
        <time>2020-10-15T14:53:31Z</time>
      </trkpt>
      <trkpt lat="47.6474" lon="0.54902">
        <ele>106</ele>
        <time>2020-10-15T14:53:32Z</time>
      </trkpt>
      <trkpt lat="47.64738" lon="0.54903">
        <ele>106</ele>
        <time>2020-10-15T14:53:34Z</time>
      </trkpt>
      <trkpt lat="47.64735" lon="0.54903">
        <ele>106</ele>
        <time>2020-10-15T14:53:36Z</time>
      </trkpt>
      <trkpt lat="47.64733" lon="0.54904">
        <ele>106</ele>
        <time>2020-10-15T14:53:38Z</time>
      </trkpt>
      <trkpt lat="47.64731" lon="0.54905">
        <ele>106</ele>
        <time>2020-10-15T14:53:40Z</time>
      </trkpt>
      <trkpt lat="47.64729" lon="0.54905">
        <ele>106</ele>
        <time>2020-10-15T14:53:42Z</time>
      </trkpt>
      <trkpt lat="47.64726" lon="0.54905">
        <ele>105</ele>
        <time>2020-10-15T14:53:44Z</time>
      </trkpt>
      <trkpt lat="47.64724" lon="0.54905">
        <ele>105</ele>
        <time>2020-10-15T14:53:46Z</time>
      </trkpt>
      <trkpt lat="47.64722" lon="0.54905">
        <ele>105</ele>
        <time>2020-10-15T14:53:48Z</time>
      </trkpt>
      <trkpt lat="47.6472" lon="0.54905">
        <ele>105</ele>
        <time>2020-10-15T14:53:50Z</time>
      </trkpt>
      <trkpt lat="47.64718" lon="0.54905">
        <ele>105</ele>
        <time>2020-10-15T14:53:52Z</time>
      </trkpt>
      <trkpt lat="47.64715" lon="0.54905">
        <ele>105</ele>
        <time>2020-10-15T14:53:54Z</time>
      </trkpt>
      <trkpt lat="47.64712" lon="0.54906">
        <ele>105</ele>
        <time>2020-10-15T14:53:56Z</time>
      </trkpt>
      <trkpt lat="47.6471" lon="0.54907">
        <ele>105</ele>
        <time>2020-10-15T14:53:58Z</time>
      </trkpt>
      <trkpt lat="47.64706" lon="0.54908">
        <ele>105</ele>
        <time>2020-10-15T14:54:00Z</time>
      </trkpt>
      <trkpt lat="47.64703" lon="0.54907">
        <ele>105</ele>
        <time>2020-10-15T14:54:02Z</time>
      </trkpt>
      <trkpt lat="47.64701" lon="0.54907">
        <ele>105</ele>
        <time>2020-10-15T14:54:04Z</time>
      </trkpt>
      <trkpt lat="47.64698" lon="0.54908">
        <ele>105</ele>
        <time>2020-10-15T14:54:06Z</time>
      </trkpt>
      <trkpt lat="47.64697" lon="0.54908">
        <ele>105</ele>
        <time>2020-10-15T14:54:08Z</time>
      </trkpt>
      <trkpt lat="47.64694" lon="0.54909">
        <ele>105</ele>
        <time>2020-10-15T14:54:11Z</time>
      </trkpt>
      <trkpt lat="47.64691" lon="0.54909">
        <ele>105</ele>
        <time>2020-10-15T14:54:13Z</time>
      </trkpt>
      <trkpt lat="47.64689" lon="0.54911">
        <ele>105</ele>
        <time>2020-10-15T14:54:15Z</time>
      </trkpt>
      <trkpt lat="47.64687" lon="0.54911">
        <ele>104</ele>
        <time>2020-10-15T14:54:17Z</time>
      </trkpt>
      <trkpt lat="47.64684" lon="0.54911">
        <ele>104</ele>
        <time>2020-10-15T14:54:19Z</time>
      </trkpt>
      <trkpt lat="47.64682" lon="0.54912">
        <ele>104</ele>
        <time>2020-10-15T14:54:21Z</time>
      </trkpt>
      <trkpt lat="47.64679" lon="0.54913">
        <ele>104</ele>
        <time>2020-10-15T14:54:23Z</time>
      </trkpt>
      <trkpt lat="47.64677" lon="0.54914">
        <ele>103</ele>
        <time>2020-10-15T14:54:25Z</time>
      </trkpt>
      <trkpt lat="47.64675" lon="0.54915">
        <ele>103</ele>
        <time>2020-10-15T14:54:27Z</time>
      </trkpt>
      <trkpt lat="47.64673" lon="0.54915">
        <ele>103</ele>
        <time>2020-10-15T14:54:29Z</time>
      </trkpt>
      <trkpt lat="47.64671" lon="0.54917">
        <ele>103</ele>
        <time>2020-10-15T14:54:31Z</time>
      </trkpt>
      <trkpt lat="47.64668" lon="0.54918">
        <ele>103</ele>
        <time>2020-10-15T14:54:33Z</time>
      </trkpt>
      <trkpt lat="47.64667" lon="0.54919">
        <ele>102</ele>
        <time>2020-10-15T14:54:35Z</time>
      </trkpt>
      <trkpt lat="47.64665" lon="0.54921">
        <ele>102</ele>
        <time>2020-10-15T14:54:37Z</time>
      </trkpt>
      <trkpt lat="47.64663" lon="0.54922">
        <ele>102</ele>
        <time>2020-10-15T14:54:39Z</time>
      </trkpt>
      <trkpt lat="47.64661" lon="0.54923">
        <ele>102</ele>
        <time>2020-10-15T14:54:41Z</time>
      </trkpt>
      <trkpt lat="47.64658" lon="0.54925">
        <ele>101</ele>
        <time>2020-10-15T14:54:43Z</time>
      </trkpt>
      <trkpt lat="47.64655" lon="0.54927">
        <ele>101</ele>
        <time>2020-10-15T14:54:45Z</time>
      </trkpt>
      <trkpt lat="47.64653" lon="0.54929">
        <ele>101</ele>
        <time>2020-10-15T14:54:47Z</time>
      </trkpt>
      <trkpt lat="47.6465" lon="0.5493">
        <ele>100</ele>
        <time>2020-10-15T14:54:49Z</time>
      </trkpt>
      <trkpt lat="47.64648" lon="0.5493">
        <ele>100</ele>
        <time>2020-10-15T14:54:51Z</time>
      </trkpt>
      <trkpt lat="47.64646" lon="0.54931">
        <ele>100</ele>
        <time>2020-10-15T14:54:53Z</time>
      </trkpt>
      <trkpt lat="47.64644" lon="0.54932">
        <ele>100</ele>
        <time>2020-10-15T14:54:55Z</time>
      </trkpt>
      <trkpt lat="47.64641" lon="0.54933">
        <ele>100</ele>
        <time>2020-10-15T14:54:57Z</time>
      </trkpt>
      <trkpt lat="47.6464" lon="0.54934">
        <ele>99</ele>
        <time>2020-10-15T14:54:58Z</time>
      </trkpt>
      <trkpt lat="47.64637" lon="0.54935">
        <ele>99</ele>
        <time>2020-10-15T14:55:00Z</time>
      </trkpt>
      <trkpt lat="47.64634" lon="0.54936">
        <ele>99</ele>
        <time>2020-10-15T14:55:02Z</time>
      </trkpt>
      <trkpt lat="47.64632" lon="0.54937">
        <ele>99</ele>
        <time>2020-10-15T14:55:04Z</time>
      </trkpt>
      <trkpt lat="47.6463" lon="0.54938">
        <ele>98</ele>
        <time>2020-10-15T14:55:06Z</time>
      </trkpt>
      <trkpt lat="47.64628" lon="0.54938">
        <ele>98</ele>
        <time>2020-10-15T14:55:08Z</time>
      </trkpt>
      <trkpt lat="47.64626" lon="0.5494">
        <ele>98</ele>
        <time>2020-10-15T14:55:10Z</time>
      </trkpt>
      <trkpt lat="47.64623" lon="0.54942">
        <ele>98</ele>
        <time>2020-10-15T14:55:12Z</time>
      </trkpt>
      <trkpt lat="47.64621" lon="0.54944">
        <ele>97</ele>
        <time>2020-10-15T14:55:14Z</time>
      </trkpt>
      <trkpt lat="47.64618" lon="0.54945">
        <ele>97</ele>
        <time>2020-10-15T14:55:16Z</time>
      </trkpt>
      <trkpt lat="47.64616" lon="0.54947">
        <ele>97</ele>
        <time>2020-10-15T14:55:18Z</time>
      </trkpt>
      <trkpt lat="47.64614" lon="0.54948">
        <ele>97</ele>
        <time>2020-10-15T14:55:20Z</time>
      </trkpt>
      <trkpt lat="47.64612" lon="0.54949">
        <ele>96</ele>
        <time>2020-10-15T14:55:22Z</time>
      </trkpt>
      <trkpt lat="47.64609" lon="0.54951">
        <ele>96</ele>
        <time>2020-10-15T14:55:24Z</time>
      </trkpt>
      <trkpt lat="47.64607" lon="0.54952">
        <ele>96</ele>
        <time>2020-10-15T14:55:26Z</time>
      </trkpt>
      <trkpt lat="47.64604" lon="0.54953">
        <ele>96</ele>
        <time>2020-10-15T14:55:28Z</time>
      </trkpt>
      <trkpt lat="47.64602" lon="0.54953">
        <ele>95</ele>
        <time>2020-10-15T14:55:30Z</time>
      </trkpt>
      <trkpt lat="47.64599" lon="0.54954">
        <ele>95</ele>
        <time>2020-10-15T14:55:32Z</time>
      </trkpt>
      <trkpt lat="47.64597" lon="0.54956">
        <ele>95</ele>
        <time>2020-10-15T14:55:34Z</time>
      </trkpt>
      <trkpt lat="47.64594" lon="0.54958">
        <ele>94</ele>
        <time>2020-10-15T14:55:36Z</time>
      </trkpt>
      <trkpt lat="47.64591" lon="0.5496">
        <ele>94</ele>
        <time>2020-10-15T14:55:38Z</time>
      </trkpt>
      <trkpt lat="47.64589" lon="0.54961">
        <ele>94</ele>
        <time>2020-10-15T14:55:40Z</time>
      </trkpt>
      <trkpt lat="47.64586" lon="0.54963">
        <ele>94</ele>
        <time>2020-10-15T14:55:42Z</time>
      </trkpt>
      <trkpt lat="47.64584" lon="0.54964">
        <ele>94</ele>
        <time>2020-10-15T14:55:44Z</time>
      </trkpt>
      <trkpt lat="47.64582" lon="0.54966">
        <ele>93</ele>
        <time>2020-10-15T14:55:46Z</time>
      </trkpt>
      <trkpt lat="47.64579" lon="0.54968">
        <ele>93</ele>
        <time>2020-10-15T14:55:48Z</time>
      </trkpt>
      <trkpt lat="47.64578" lon="0.5497">
        <ele>93</ele>
        <time>2020-10-15T14:55:50Z</time>
      </trkpt>
      <trkpt lat="47.64576" lon="0.54971">
        <ele>93</ele>
        <time>2020-10-15T14:55:52Z</time>
      </trkpt>
      <trkpt lat="47.64574" lon="0.54972">
        <ele>93</ele>
        <time>2020-10-15T14:55:54Z</time>
      </trkpt>
      <trkpt lat="47.64571" lon="0.54973">
        <ele>93</ele>
        <time>2020-10-15T14:55:56Z</time>
      </trkpt>
      <trkpt lat="47.64569" lon="0.54974">
        <ele>93</ele>
        <time>2020-10-15T14:55:58Z</time>
      </trkpt>
      <trkpt lat="47.64567" lon="0.54975">
        <ele>93</ele>
        <time>2020-10-15T14:56:00Z</time>
      </trkpt>
      <trkpt lat="47.64564" lon="0.54977">
        <ele>93</ele>
        <time>2020-10-15T14:56:02Z</time>
      </trkpt>
      <trkpt lat="47.64562" lon="0.54978">
        <ele>93</ele>
        <time>2020-10-15T14:56:04Z</time>
      </trkpt>
      <trkpt lat="47.6456" lon="0.54979">
        <ele>93</ele>
        <time>2020-10-15T14:56:06Z</time>
      </trkpt>
      <trkpt lat="47.64558" lon="0.5498">
        <ele>93</ele>
        <time>2020-10-15T14:56:08Z</time>
      </trkpt>
      <trkpt lat="47.64556" lon="0.54982">
        <ele>93</ele>
        <time>2020-10-15T14:56:10Z</time>
      </trkpt>
      <trkpt lat="47.64554" lon="0.54983">
        <ele>93</ele>
        <time>2020-10-15T14:56:12Z</time>
      </trkpt>
      <trkpt lat="47.64551" lon="0.54984">
        <ele>93</ele>
        <time>2020-10-15T14:56:14Z</time>
      </trkpt>
      <trkpt lat="47.64549" lon="0.54984">
        <ele>93</ele>
        <time>2020-10-15T14:56:16Z</time>
      </trkpt>
      <trkpt lat="47.64546" lon="0.54985">
        <ele>93</ele>
        <time>2020-10-15T14:56:18Z</time>
      </trkpt>
      <trkpt lat="47.64543" lon="0.54986">
        <ele>93</ele>
        <time>2020-10-15T14:56:20Z</time>
      </trkpt>
      <trkpt lat="47.64541" lon="0.54987">
        <ele>93</ele>
        <time>2020-10-15T14:56:22Z</time>
      </trkpt>
      <trkpt lat="47.64538" lon="0.54989">
        <ele>93</ele>
        <time>2020-10-15T14:56:24Z</time>
      </trkpt>
      <trkpt lat="47.64535" lon="0.5499">
        <ele>93</ele>
        <time>2020-10-15T14:56:26Z</time>
      </trkpt>
      <trkpt lat="47.64533" lon="0.54991">
        <ele>93</ele>
        <time>2020-10-15T14:56:28Z</time>
      </trkpt>
      <trkpt lat="47.64532" lon="0.54992">
        <ele>93</ele>
        <time>2020-10-15T14:56:30Z</time>
      </trkpt>
      <trkpt lat="47.64529" lon="0.54994">
        <ele>93</ele>
        <time>2020-10-15T14:56:33Z</time>
      </trkpt>
      <trkpt lat="47.64527" lon="0.54996">
        <ele>92</ele>
        <time>2020-10-15T14:56:36Z</time>
      </trkpt>
      <trkpt lat="47.64525" lon="0.54998">
        <ele>92</ele>
        <time>2020-10-15T14:56:39Z</time>
      </trkpt>
      <trkpt lat="47.64523" lon="0.54999">
        <ele>92</ele>
        <time>2020-10-15T14:56:41Z</time>
      </trkpt>
      <trkpt lat="47.64521" lon="0.55">
        <ele>92</ele>
        <time>2020-10-15T14:56:43Z</time>
      </trkpt>
      <trkpt lat="47.64519" lon="0.55">
        <ele>92</ele>
        <time>2020-10-15T14:56:45Z</time>
      </trkpt>
      <trkpt lat="47.64516" lon="0.55">
        <ele>92</ele>
        <time>2020-10-15T14:56:47Z</time>
      </trkpt>
      <trkpt lat="47.64514" lon="0.55">
        <ele>91</ele>
        <time>2020-10-15T14:56:49Z</time>
      </trkpt>
      <trkpt lat="47.64511" lon="0.55001">
        <ele>91</ele>
        <time>2020-10-15T14:56:51Z</time>
      </trkpt>
      <trkpt lat="47.64509" lon="0.55001">
        <ele>91</ele>
        <time>2020-10-15T14:56:53Z</time>
      </trkpt>
      <trkpt lat="47.64506" lon="0.55001">
        <ele>91</ele>
        <time>2020-10-15T14:56:55Z</time>
      </trkpt>
      <trkpt lat="47.64504" lon="0.55002">
        <ele>91</ele>
        <time>2020-10-15T14:56:57Z</time>
      </trkpt>
      <trkpt lat="47.64502" lon="0.55004">
        <ele>91</ele>
        <time>2020-10-15T14:56:59Z</time>
      </trkpt>
      <trkpt lat="47.645" lon="0.55006">
        <ele>91</ele>
        <time>2020-10-15T14:57:01Z</time>
      </trkpt>
      <trkpt lat="47.64498" lon="0.55007">
        <ele>91</ele>
        <time>2020-10-15T14:57:03Z</time>
      </trkpt>
      <trkpt lat="47.64496" lon="0.55009">
        <ele>91</ele>
        <time>2020-10-15T14:57:05Z</time>
      </trkpt>
      <trkpt lat="47.64494" lon="0.5501">
        <ele>90</ele>
        <time>2020-10-15T14:57:06Z</time>
      </trkpt>
      <trkpt lat="47.64491" lon="0.55011">
        <ele>90</ele>
        <time>2020-10-15T14:57:08Z</time>
      </trkpt>
      <trkpt lat="47.64489" lon="0.55013">
        <ele>90</ele>
        <time>2020-10-15T14:57:10Z</time>
      </trkpt>
      <trkpt lat="47.64487" lon="0.55014">
        <ele>90</ele>
        <time>2020-10-15T14:57:12Z</time>
      </trkpt>
      <trkpt lat="47.64484" lon="0.55015">
        <ele>90</ele>
        <time>2020-10-15T14:57:14Z</time>
      </trkpt>
      <trkpt lat="47.64482" lon="0.55015">
        <ele>90</ele>
        <time>2020-10-15T14:57:16Z</time>
      </trkpt>
      <trkpt lat="47.6448" lon="0.55017">
        <ele>90</ele>
        <time>2020-10-15T14:57:18Z</time>
      </trkpt>
      <trkpt lat="47.64478" lon="0.55018">
        <ele>89</ele>
        <time>2020-10-15T14:57:20Z</time>
      </trkpt>
      <trkpt lat="47.64476" lon="0.5502">
        <ele>89</ele>
        <time>2020-10-15T14:57:22Z</time>
      </trkpt>
      <trkpt lat="47.64474" lon="0.55021">
        <ele>89</ele>
        <time>2020-10-15T14:57:24Z</time>
      </trkpt>
      <trkpt lat="47.64472" lon="0.55023">
        <ele>89</ele>
        <time>2020-10-15T14:57:26Z</time>
      </trkpt>
      <trkpt lat="47.6447" lon="0.55025">
        <ele>89</ele>
        <time>2020-10-15T14:57:28Z</time>
      </trkpt>
      <trkpt lat="47.64468" lon="0.55026">
        <ele>88</ele>
        <time>2020-10-15T14:57:30Z</time>
      </trkpt>
      <trkpt lat="47.64466" lon="0.55029">
        <ele>88</ele>
        <time>2020-10-15T14:57:32Z</time>
      </trkpt>
      <trkpt lat="47.64464" lon="0.55031">
        <ele>88</ele>
        <time>2020-10-15T14:57:35Z</time>
      </trkpt>
      <trkpt lat="47.64465" lon="0.55034">
        <ele>88</ele>
        <time>2020-10-15T14:57:40Z</time>
      </trkpt>
      <trkpt lat="47.64464" lon="0.55037">
        <ele>88</ele>
        <time>2020-10-15T14:57:45Z</time>
      </trkpt>
      <trkpt lat="47.64465" lon="0.5504">
        <ele>88</ele>
        <time>2020-10-15T14:58:06Z</time>
      </trkpt>
      <trkpt lat="47.64465" lon="0.55043">
        <ele>88</ele>
        <time>2020-10-15T14:58:23Z</time>
      </trkpt>
      <trkpt lat="47.64466" lon="0.55045">
        <ele>88</ele>
        <time>2020-10-15T14:58:27Z</time>
      </trkpt>
      <trkpt lat="47.64464" lon="0.55045">
        <ele>88</ele>
        <time>2020-10-15T14:59:01Z</time>
      </trkpt>
      <trkpt lat="47.64462" lon="0.55043">
        <ele>88</ele>
        <time>2020-10-15T14:59:22Z</time>
      </trkpt>
      <trkpt lat="47.64462" lon="0.55046">
        <ele>88</ele>
        <time>2020-10-15T14:59:30Z</time>
      </trkpt>
      <trkpt lat="47.64463" lon="0.55049">
        <ele>88</ele>
        <time>2020-10-15T14:59:32Z</time>
      </trkpt>
      <trkpt lat="47.64464" lon="0.55052">
        <ele>88</ele>
        <time>2020-10-15T14:59:35Z</time>
      </trkpt>
      <trkpt lat="47.64466" lon="0.55054">
        <ele>88</ele>
        <time>2020-10-15T14:59:39Z</time>
      </trkpt>
      <trkpt lat="47.64467" lon="0.55056">
        <ele>88</ele>
        <time>2020-10-15T14:59:41Z</time>
      </trkpt>
      <trkpt lat="47.64468" lon="0.5506">
        <ele>88</ele>
        <time>2020-10-15T14:59:44Z</time>
      </trkpt>
      <trkpt lat="47.64469" lon="0.55062">
        <ele>88</ele>
        <time>2020-10-15T14:59:46Z</time>
      </trkpt>
      <trkpt lat="47.6447" lon="0.55066">
        <ele>88</ele>
        <time>2020-10-15T14:59:49Z</time>
      </trkpt>
      <trkpt lat="47.64471" lon="0.55069">
        <ele>88</ele>
        <time>2020-10-15T14:59:53Z</time>
      </trkpt>
      <trkpt lat="47.6447" lon="0.55071">
        <ele>88</ele>
        <time>2020-10-15T14:59:59Z</time>
      </trkpt>
      <trkpt lat="47.64469" lon="0.55074">
        <ele>88</ele>
        <time>2020-10-15T15:00:03Z</time>
      </trkpt>
      <trkpt lat="47.6447" lon="0.55077">
        <ele>88</ele>
        <time>2020-10-15T15:00:19Z</time>
      </trkpt>
      <trkpt lat="47.6447" lon="0.5508">
        <ele>88</ele>
        <time>2020-10-15T15:00:23Z</time>
      </trkpt>
      <trkpt lat="47.64473" lon="0.55081">
        <ele>88</ele>
        <time>2020-10-15T15:00:28Z</time>
      </trkpt>
      <trkpt lat="47.64474" lon="0.55081">
        <ele>88</ele>
        <time>2020-10-15T15:00:36Z</time>
      </trkpt>
      <trkpt lat="47.64473" lon="0.55082">
        <ele>88</ele>
        <time>2020-10-15T15:00:54Z</time>
      </trkpt>
      <trkpt lat="47.64471" lon="0.55083">
        <ele>87</ele>
        <time>2020-10-15T15:00:59Z</time>
      </trkpt>
      <trkpt lat="47.64469" lon="0.55086">
        <ele>87</ele>
        <time>2020-10-15T15:01:03Z</time>
      </trkpt>
      <trkpt lat="47.64469" lon="0.55088">
        <ele>87</ele>
        <time>2020-10-15T15:01:13Z</time>
      </trkpt>
      <trkpt lat="47.64468" lon="0.55091">
        <ele>87</ele>
        <time>2020-10-15T15:01:16Z</time>
      </trkpt>
      <trkpt lat="47.64466" lon="0.55094">
        <ele>87</ele>
        <time>2020-10-15T15:01:19Z</time>
      </trkpt>
      <trkpt lat="47.64464" lon="0.55097">
        <ele>87</ele>
        <time>2020-10-15T15:01:21Z</time>
      </trkpt>
      <trkpt lat="47.64464" lon="0.551">
        <ele>87</ele>
        <time>2020-10-15T15:01:23Z</time>
      </trkpt>
      <trkpt lat="47.64462" lon="0.55104">
        <ele>86</ele>
        <time>2020-10-15T15:01:26Z</time>
      </trkpt>
      <trkpt lat="47.64461" lon="0.55106">
        <ele>86</ele>
        <time>2020-10-15T15:01:29Z</time>
      </trkpt>
      <trkpt lat="47.64459" lon="0.55108">
        <ele>86</ele>
        <time>2020-10-15T15:01:37Z</time>
      </trkpt>
      <trkpt lat="47.6446" lon="0.55111">
        <ele>86</ele>
        <time>2020-10-15T15:01:47Z</time>
      </trkpt>
      <trkpt lat="47.64459" lon="0.55114">
        <ele>86</ele>
        <time>2020-10-15T15:01:52Z</time>
      </trkpt>
      <trkpt lat="47.64457" lon="0.55116">
        <ele>86</ele>
        <time>2020-10-15T15:01:54Z</time>
      </trkpt>
      <trkpt lat="47.64456" lon="0.55118">
        <ele>86</ele>
        <time>2020-10-15T15:01:56Z</time>
      </trkpt>
      <trkpt lat="47.64455" lon="0.55121">
        <ele>86</ele>
        <time>2020-10-15T15:01:58Z</time>
      </trkpt>
      <trkpt lat="47.64453" lon="0.55123">
        <ele>86</ele>
        <time>2020-10-15T15:02:02Z</time>
      </trkpt>
      <trkpt lat="47.64452" lon="0.55125">
        <ele>86</ele>
        <time>2020-10-15T15:02:04Z</time>
      </trkpt>
      <trkpt lat="47.6445" lon="0.55127">
        <ele>86</ele>
        <time>2020-10-15T15:02:06Z</time>
      </trkpt>
      <trkpt lat="47.64448" lon="0.55128">
        <ele>86</ele>
        <time>2020-10-15T15:02:08Z</time>
      </trkpt>
      <trkpt lat="47.64445" lon="0.55129">
        <ele>86</ele>
        <time>2020-10-15T15:02:10Z</time>
      </trkpt>
      <trkpt lat="47.64444" lon="0.5513">
        <ele>86</ele>
        <time>2020-10-15T15:02:12Z</time>
      </trkpt>
      <trkpt lat="47.64441" lon="0.55132">
        <ele>86</ele>
        <time>2020-10-15T15:02:15Z</time>
      </trkpt>
      <trkpt lat="47.64438" lon="0.55133">
        <ele>86</ele>
        <time>2020-10-15T15:02:17Z</time>
      </trkpt>
      <trkpt lat="47.64437" lon="0.55135">
        <ele>86</ele>
        <time>2020-10-15T15:02:22Z</time>
      </trkpt>
      <trkpt lat="47.64435" lon="0.55138">
        <ele>86</ele>
        <time>2020-10-15T15:02:26Z</time>
      </trkpt>
      <trkpt lat="47.64433" lon="0.5514">
        <ele>86</ele>
        <time>2020-10-15T15:02:28Z</time>
      </trkpt>
      <trkpt lat="47.64431" lon="0.55142">
        <ele>86</ele>
        <time>2020-10-15T15:02:30Z</time>
      </trkpt>
      <trkpt lat="47.64429" lon="0.55144">
        <ele>86</ele>
        <time>2020-10-15T15:02:32Z</time>
      </trkpt>
      <trkpt lat="47.64426" lon="0.55146">
        <ele>86</ele>
        <time>2020-10-15T15:02:34Z</time>
      </trkpt>
      <trkpt lat="47.64423" lon="0.55147">
        <ele>87</ele>
        <time>2020-10-15T15:02:36Z</time>
      </trkpt>
      <trkpt lat="47.6442" lon="0.55147">
        <ele>87</ele>
        <time>2020-10-15T15:02:38Z</time>
      </trkpt>
      <trkpt lat="47.64418" lon="0.55147">
        <ele>87</ele>
        <time>2020-10-15T15:02:39Z</time>
      </trkpt>
      <trkpt lat="47.64417" lon="0.55146">
        <ele>87</ele>
        <time>2020-10-15T15:02:40Z</time>
      </trkpt>
      <trkpt lat="47.64414" lon="0.55145">
        <ele>87</ele>
        <time>2020-10-15T15:02:42Z</time>
      </trkpt>
      <trkpt lat="47.64411" lon="0.55145">
        <ele>87</ele>
        <time>2020-10-15T15:02:44Z</time>
      </trkpt>
      <trkpt lat="47.64408" lon="0.55144">
        <ele>87</ele>
        <time>2020-10-15T15:02:46Z</time>
      </trkpt>
      <trkpt lat="47.64406" lon="0.55143">
        <ele>87</ele>
        <time>2020-10-15T15:02:48Z</time>
      </trkpt>
      <trkpt lat="47.64403" lon="0.55143">
        <ele>87</ele>
        <time>2020-10-15T15:02:50Z</time>
      </trkpt>
      <trkpt lat="47.64401" lon="0.55142">
        <ele>87</ele>
        <time>2020-10-15T15:02:52Z</time>
      </trkpt>
      <trkpt lat="47.64398" lon="0.5514">
        <ele>87</ele>
        <time>2020-10-15T15:02:54Z</time>
      </trkpt>
      <trkpt lat="47.64396" lon="0.55139">
        <ele>87</ele>
        <time>2020-10-15T15:02:56Z</time>
      </trkpt>
      <trkpt lat="47.64394" lon="0.55137">
        <ele>87</ele>
        <time>2020-10-15T15:02:58Z</time>
      </trkpt>
      <trkpt lat="47.64391" lon="0.55135">
        <ele>87</ele>
        <time>2020-10-15T15:03:00Z</time>
      </trkpt>
      <trkpt lat="47.64389" lon="0.55134">
        <ele>87</ele>
        <time>2020-10-15T15:03:02Z</time>
      </trkpt>
      <trkpt lat="47.64386" lon="0.55133">
        <ele>87</ele>
        <time>2020-10-15T15:03:04Z</time>
      </trkpt>
      <trkpt lat="47.64383" lon="0.55133">
        <ele>87</ele>
        <time>2020-10-15T15:03:06Z</time>
      </trkpt>
      <trkpt lat="47.6438" lon="0.55132">
        <ele>88</ele>
        <time>2020-10-15T15:03:08Z</time>
      </trkpt>
      <trkpt lat="47.64378" lon="0.55131">
        <ele>88</ele>
        <time>2020-10-15T15:03:10Z</time>
      </trkpt>
      <trkpt lat="47.64376" lon="0.55129">
        <ele>88</ele>
        <time>2020-10-15T15:03:12Z</time>
      </trkpt>
      <trkpt lat="47.64373" lon="0.55128">
        <ele>88</ele>
        <time>2020-10-15T15:03:15Z</time>
      </trkpt>
      <trkpt lat="47.64371" lon="0.55127">
        <ele>88</ele>
        <time>2020-10-15T15:03:17Z</time>
      </trkpt>
      <trkpt lat="47.64368" lon="0.55125">
        <ele>88</ele>
        <time>2020-10-15T15:03:19Z</time>
      </trkpt>
      <trkpt lat="47.64365" lon="0.55126">
        <ele>88</ele>
        <time>2020-10-15T15:03:21Z</time>
      </trkpt>
      <trkpt lat="47.64362" lon="0.55126">
        <ele>88</ele>
        <time>2020-10-15T15:03:23Z</time>
      </trkpt>
      <trkpt lat="47.6436" lon="0.55126">
        <ele>88</ele>
        <time>2020-10-15T15:03:25Z</time>
      </trkpt>
      <trkpt lat="47.64358" lon="0.55125">
        <ele>88</ele>
        <time>2020-10-15T15:03:27Z</time>
      </trkpt>
      <trkpt lat="47.64355" lon="0.55122">
        <ele>88</ele>
        <time>2020-10-15T15:03:29Z</time>
      </trkpt>
      <trkpt lat="47.64352" lon="0.55121">
        <ele>88</ele>
        <time>2020-10-15T15:03:31Z</time>
      </trkpt>
      <trkpt lat="47.6435" lon="0.5512">
        <ele>88</ele>
        <time>2020-10-15T15:03:33Z</time>
      </trkpt>
      <trkpt lat="47.64348" lon="0.55118">
        <ele>88</ele>
        <time>2020-10-15T15:03:35Z</time>
      </trkpt>
      <trkpt lat="47.64346" lon="0.55115">
        <ele>88</ele>
        <time>2020-10-15T15:03:38Z</time>
      </trkpt>
      <trkpt lat="47.64344" lon="0.55113">
        <ele>88</ele>
        <time>2020-10-15T15:03:40Z</time>
      </trkpt>
      <trkpt lat="47.64341" lon="0.55112">
        <ele>88</ele>
        <time>2020-10-15T15:03:42Z</time>
      </trkpt>
      <trkpt lat="47.64339" lon="0.55112">
        <ele>88</ele>
        <time>2020-10-15T15:03:44Z</time>
      </trkpt>
      <trkpt lat="47.64336" lon="0.55111">
        <ele>88</ele>
        <time>2020-10-15T15:03:46Z</time>
      </trkpt>
      <trkpt lat="47.64333" lon="0.5511">
        <ele>88</ele>
        <time>2020-10-15T15:03:48Z</time>
      </trkpt>
      <trkpt lat="47.64331" lon="0.55109">
        <ele>89</ele>
        <time>2020-10-15T15:03:50Z</time>
      </trkpt>
      <trkpt lat="47.64328" lon="0.55108">
        <ele>89</ele>
        <time>2020-10-15T15:03:52Z</time>
      </trkpt>
      <trkpt lat="47.64325" lon="0.55107">
        <ele>89</ele>
        <time>2020-10-15T15:03:54Z</time>
      </trkpt>
      <trkpt lat="47.64323" lon="0.55105">
        <ele>89</ele>
        <time>2020-10-15T15:03:56Z</time>
      </trkpt>
      <trkpt lat="47.64321" lon="0.55104">
        <ele>89</ele>
        <time>2020-10-15T15:03:58Z</time>
      </trkpt>
      <trkpt lat="47.64319" lon="0.55101">
        <ele>89</ele>
        <time>2020-10-15T15:04:00Z</time>
      </trkpt>
      <trkpt lat="47.64317" lon="0.55099">
        <ele>89</ele>
        <time>2020-10-15T15:04:02Z</time>
      </trkpt>
      <trkpt lat="47.64315" lon="0.55097">
        <ele>89</ele>
        <time>2020-10-15T15:04:04Z</time>
      </trkpt>
      <trkpt lat="47.64313" lon="0.55094">
        <ele>89</ele>
        <time>2020-10-15T15:04:06Z</time>
      </trkpt>
      <trkpt lat="47.64311" lon="0.55092">
        <ele>89</ele>
        <time>2020-10-15T15:04:08Z</time>
      </trkpt>
      <trkpt lat="47.64309" lon="0.55089">
        <ele>89</ele>
        <time>2020-10-15T15:04:10Z</time>
      </trkpt>
      <trkpt lat="47.64307" lon="0.55086">
        <ele>89</ele>
        <time>2020-10-15T15:04:12Z</time>
      </trkpt>
      <trkpt lat="47.64306" lon="0.55081">
        <ele>88</ele>
        <time>2020-10-15T15:04:14Z</time>
      </trkpt>
      <trkpt lat="47.64306" lon="0.55076">
        <ele>88</ele>
        <time>2020-10-15T15:04:16Z</time>
      </trkpt>
      <trkpt lat="47.64306" lon="0.55072">
        <ele>88</ele>
        <time>2020-10-15T15:04:18Z</time>
      </trkpt>
      <trkpt lat="47.64306" lon="0.55069">
        <ele>88</ele>
        <time>2020-10-15T15:04:20Z</time>
      </trkpt>
      <trkpt lat="47.64307" lon="0.55067">
        <ele>88</ele>
        <time>2020-10-15T15:04:22Z</time>
      </trkpt>
      <trkpt lat="47.64308" lon="0.55064">
        <ele>88</ele>
        <time>2020-10-15T15:04:25Z</time>
      </trkpt>
      <trkpt lat="47.64309" lon="0.5506">
        <ele>88</ele>
        <time>2020-10-15T15:04:32Z</time>
      </trkpt>
      <trkpt lat="47.64309" lon="0.55057">
        <ele>87</ele>
        <time>2020-10-15T15:04:34Z</time>
      </trkpt>
      <trkpt lat="47.64308" lon="0.55053">
        <ele>87</ele>
        <time>2020-10-15T15:04:36Z</time>
      </trkpt>
      <trkpt lat="47.64308" lon="0.55049">
        <ele>87</ele>
        <time>2020-10-15T15:04:38Z</time>
      </trkpt>
      <trkpt lat="47.64308" lon="0.55046">
        <ele>87</ele>
        <time>2020-10-15T15:04:40Z</time>
      </trkpt>
      <trkpt lat="47.64307" lon="0.55042">
        <ele>87</ele>
        <time>2020-10-15T15:04:42Z</time>
      </trkpt>
      <trkpt lat="47.64307" lon="0.5504">
        <ele>86</ele>
        <time>2020-10-15T15:04:44Z</time>
      </trkpt>
      <trkpt lat="47.64307" lon="0.55037">
        <ele>86</ele>
        <time>2020-10-15T15:04:46Z</time>
      </trkpt>
      <trkpt lat="47.64307" lon="0.55033">
        <ele>86</ele>
        <time>2020-10-15T15:04:48Z</time>
      </trkpt>
      <trkpt lat="47.64307" lon="0.5503">
        <ele>86</ele>
        <time>2020-10-15T15:04:50Z</time>
      </trkpt>
      <trkpt lat="47.64307" lon="0.55027">
        <ele>86</ele>
        <time>2020-10-15T15:04:52Z</time>
      </trkpt>
      <trkpt lat="47.64307" lon="0.55023">
        <ele>86</ele>
        <time>2020-10-15T15:04:54Z</time>
      </trkpt>
      <trkpt lat="47.64306" lon="0.5502">
        <ele>86</ele>
        <time>2020-10-15T15:04:56Z</time>
      </trkpt>
      <trkpt lat="47.64306" lon="0.55016">
        <ele>86</ele>
        <time>2020-10-15T15:04:58Z</time>
      </trkpt>
      <trkpt lat="47.64306" lon="0.55013">
        <ele>86</ele>
        <time>2020-10-15T15:05:00Z</time>
      </trkpt>
      <trkpt lat="47.64306" lon="0.5501">
        <ele>86</ele>
        <time>2020-10-15T15:05:02Z</time>
      </trkpt>
      <trkpt lat="47.64306" lon="0.55006">
        <ele>86</ele>
        <time>2020-10-15T15:05:04Z</time>
      </trkpt>
      <trkpt lat="47.64307" lon="0.55002">
        <ele>86</ele>
        <time>2020-10-15T15:05:06Z</time>
      </trkpt>
      <trkpt lat="47.64306" lon="0.54998">
        <ele>85</ele>
        <time>2020-10-15T15:05:08Z</time>
      </trkpt>
      <trkpt lat="47.64306" lon="0.54995">
        <ele>85</ele>
        <time>2020-10-15T15:05:10Z</time>
      </trkpt>
      <trkpt lat="47.64305" lon="0.54991">
        <ele>85</ele>
        <time>2020-10-15T15:05:12Z</time>
      </trkpt>
      <trkpt lat="47.64305" lon="0.54988">
        <ele>85</ele>
        <time>2020-10-15T15:05:14Z</time>
      </trkpt>
      <trkpt lat="47.64304" lon="0.54986">
        <ele>85</ele>
        <time>2020-10-15T15:05:16Z</time>
      </trkpt>
      <trkpt lat="47.64302" lon="0.54985">
        <ele>85</ele>
        <time>2020-10-15T15:05:18Z</time>
      </trkpt>
      <trkpt lat="47.643" lon="0.54983">
        <ele>85</ele>
        <time>2020-10-15T15:05:20Z</time>
      </trkpt>
      <trkpt lat="47.64298" lon="0.54981">
        <ele>85</ele>
        <time>2020-10-15T15:05:22Z</time>
      </trkpt>
      <trkpt lat="47.64296" lon="0.54979">
        <ele>85</ele>
        <time>2020-10-15T15:05:24Z</time>
      </trkpt>
      <trkpt lat="47.64294" lon="0.54978">
        <ele>85</ele>
        <time>2020-10-15T15:05:26Z</time>
      </trkpt>
      <trkpt lat="47.64293" lon="0.54975">
        <ele>85</ele>
        <time>2020-10-15T15:05:28Z</time>
      </trkpt>
      <trkpt lat="47.64293" lon="0.54971">
        <ele>85</ele>
        <time>2020-10-15T15:05:31Z</time>
      </trkpt>
      <trkpt lat="47.64293" lon="0.54967">
        <ele>85</ele>
        <time>2020-10-15T15:05:33Z</time>
      </trkpt>
      <trkpt lat="47.64292" lon="0.54963">
        <ele>85</ele>
        <time>2020-10-15T15:05:36Z</time>
      </trkpt>
      <trkpt lat="47.64292" lon="0.5496">
        <ele>85</ele>
        <time>2020-10-15T15:05:39Z</time>
      </trkpt>
      <trkpt lat="47.64293" lon="0.54955">
        <ele>85</ele>
        <time>2020-10-15T15:05:41Z</time>
      </trkpt>
      <trkpt lat="47.64293" lon="0.54952">
        <ele>84</ele>
        <time>2020-10-15T15:05:43Z</time>
      </trkpt>
      <trkpt lat="47.64293" lon="0.54949">
        <ele>84</ele>
        <time>2020-10-15T15:05:45Z</time>
      </trkpt>
      <trkpt lat="47.64293" lon="0.54946">
        <ele>84</ele>
        <time>2020-10-15T15:05:47Z</time>
      </trkpt>
      <trkpt lat="47.64293" lon="0.54942">
        <ele>84</ele>
        <time>2020-10-15T15:05:49Z</time>
      </trkpt>
      <trkpt lat="47.64293" lon="0.54938">
        <ele>84</ele>
        <time>2020-10-15T15:05:52Z</time>
      </trkpt>
      <trkpt lat="47.64293" lon="0.54934">
        <ele>84</ele>
        <time>2020-10-15T15:05:54Z</time>
      </trkpt>
      <trkpt lat="47.64293" lon="0.54929">
        <ele>84</ele>
        <time>2020-10-15T15:05:56Z</time>
      </trkpt>
      <trkpt lat="47.64293" lon="0.54925">
        <ele>84</ele>
        <time>2020-10-15T15:05:58Z</time>
      </trkpt>
      <trkpt lat="47.64294" lon="0.54922">
        <ele>84</ele>
        <time>2020-10-15T15:06:00Z</time>
      </trkpt>
      <trkpt lat="47.64295" lon="0.54919">
        <ele>84</ele>
        <time>2020-10-15T15:06:02Z</time>
      </trkpt>
      <trkpt lat="47.64295" lon="0.54915">
        <ele>83</ele>
        <time>2020-10-15T15:06:05Z</time>
      </trkpt>
      <trkpt lat="47.64294" lon="0.54912">
        <ele>83</ele>
        <time>2020-10-15T15:06:07Z</time>
      </trkpt>
      <trkpt lat="47.64294" lon="0.54909">
        <ele>83</ele>
        <time>2020-10-15T15:06:09Z</time>
      </trkpt>
      <trkpt lat="47.64293" lon="0.54905">
        <ele>83</ele>
        <time>2020-10-15T15:06:11Z</time>
      </trkpt>
      <trkpt lat="47.64292" lon="0.54902">
        <ele>83</ele>
        <time>2020-10-15T15:06:13Z</time>
      </trkpt>
      <trkpt lat="47.64292" lon="0.54899">
        <ele>83</ele>
        <time>2020-10-15T15:06:15Z</time>
      </trkpt>
      <trkpt lat="47.64292" lon="0.54896">
        <ele>83</ele>
        <time>2020-10-15T15:06:17Z</time>
      </trkpt>
      <trkpt lat="47.64291" lon="0.54893">
        <ele>83</ele>
        <time>2020-10-15T15:06:19Z</time>
      </trkpt>
      <trkpt lat="47.6429" lon="0.5489">
        <ele>83</ele>
        <time>2020-10-15T15:06:21Z</time>
      </trkpt>
      <trkpt lat="47.64289" lon="0.54886">
        <ele>83</ele>
        <time>2020-10-15T15:06:23Z</time>
      </trkpt>
      <trkpt lat="47.64289" lon="0.54882">
        <ele>83</ele>
        <time>2020-10-15T15:06:25Z</time>
      </trkpt>
      <trkpt lat="47.64289" lon="0.54879">
        <ele>83</ele>
        <time>2020-10-15T15:06:27Z</time>
      </trkpt>
      <trkpt lat="47.64288" lon="0.54876">
        <ele>83</ele>
        <time>2020-10-15T15:06:29Z</time>
      </trkpt>
      <trkpt lat="47.64287" lon="0.54873">
        <ele>83</ele>
        <time>2020-10-15T15:06:31Z</time>
      </trkpt>
      <trkpt lat="47.64285" lon="0.5487">
        <ele>83</ele>
        <time>2020-10-15T15:06:33Z</time>
      </trkpt>
      <trkpt lat="47.64283" lon="0.54868">
        <ele>83</ele>
        <time>2020-10-15T15:06:35Z</time>
      </trkpt>
      <trkpt lat="47.64281" lon="0.54865">
        <ele>83</ele>
        <time>2020-10-15T15:06:37Z</time>
      </trkpt>
      <trkpt lat="47.6428" lon="0.54863">
        <ele>83</ele>
        <time>2020-10-15T15:06:39Z</time>
      </trkpt>
      <trkpt lat="47.64279" lon="0.54859">
        <ele>83</ele>
        <time>2020-10-15T15:06:41Z</time>
      </trkpt>
      <trkpt lat="47.64278" lon="0.54857">
        <ele>83</ele>
        <time>2020-10-15T15:06:43Z</time>
      </trkpt>
      <trkpt lat="47.64276" lon="0.54854">
        <ele>84</ele>
        <time>2020-10-15T15:06:46Z</time>
      </trkpt>
      <trkpt lat="47.64275" lon="0.54851">
        <ele>84</ele>
        <time>2020-10-15T15:06:49Z</time>
      </trkpt>
      <trkpt lat="47.64274" lon="0.54848">
        <ele>84</ele>
        <time>2020-10-15T15:06:51Z</time>
      </trkpt>
      <trkpt lat="47.64274" lon="0.54844">
        <ele>84</ele>
        <time>2020-10-15T15:06:53Z</time>
      </trkpt>
      <trkpt lat="47.64274" lon="0.54841">
        <ele>84</ele>
        <time>2020-10-15T15:06:56Z</time>
      </trkpt>
      <trkpt lat="47.64275" lon="0.54838">
        <ele>84</ele>
        <time>2020-10-15T15:06:58Z</time>
      </trkpt>
      <trkpt lat="47.64276" lon="0.54834">
        <ele>84</ele>
        <time>2020-10-15T15:07:00Z</time>
      </trkpt>
      <trkpt lat="47.64279" lon="0.5483">
        <ele>83</ele>
        <time>2020-10-15T15:07:02Z</time>
      </trkpt>
      <trkpt lat="47.6428" lon="0.54828">
        <ele>83</ele>
        <time>2020-10-15T15:07:03Z</time>
      </trkpt>
      <trkpt lat="47.64281" lon="0.54826">
        <ele>83</ele>
        <time>2020-10-15T15:07:04Z</time>
      </trkpt>
      <trkpt lat="47.64283" lon="0.54822">
        <ele>83</ele>
        <time>2020-10-15T15:07:06Z</time>
      </trkpt>
      <trkpt lat="47.64285" lon="0.5482">
        <ele>83</ele>
        <time>2020-10-15T15:07:08Z</time>
      </trkpt>
      <trkpt lat="47.64287" lon="0.54818">
        <ele>83</ele>
        <time>2020-10-15T15:07:10Z</time>
      </trkpt>
      <trkpt lat="47.64289" lon="0.54816">
        <ele>83</ele>
        <time>2020-10-15T15:07:12Z</time>
      </trkpt>
      <trkpt lat="47.64291" lon="0.54814">
        <ele>83</ele>
        <time>2020-10-15T15:07:14Z</time>
      </trkpt>
      <trkpt lat="47.64293" lon="0.54812">
        <ele>83</ele>
        <time>2020-10-15T15:07:16Z</time>
      </trkpt>
      <trkpt lat="47.64295" lon="0.5481">
        <ele>83</ele>
        <time>2020-10-15T15:07:18Z</time>
      </trkpt>
      <trkpt lat="47.64296" lon="0.54808">
        <ele>83</ele>
        <time>2020-10-15T15:07:20Z</time>
      </trkpt>
      <trkpt lat="47.64296" lon="0.54805">
        <ele>83</ele>
        <time>2020-10-15T15:07:23Z</time>
      </trkpt>
      <trkpt lat="47.64295" lon="0.54801">
        <ele>83</ele>
        <time>2020-10-15T15:07:27Z</time>
      </trkpt>
      <trkpt lat="47.64294" lon="0.54797">
        <ele>83</ele>
        <time>2020-10-15T15:07:30Z</time>
      </trkpt>
      <trkpt lat="47.64293" lon="0.54793">
        <ele>83</ele>
        <time>2020-10-15T15:07:32Z</time>
      </trkpt>
      <trkpt lat="47.64293" lon="0.5479">
        <ele>83</ele>
        <time>2020-10-15T15:07:34Z</time>
      </trkpt>
      <trkpt lat="47.64293" lon="0.54787">
        <ele>83</ele>
        <time>2020-10-15T15:07:36Z</time>
      </trkpt>
      <trkpt lat="47.64293" lon="0.54784">
        <ele>83</ele>
        <time>2020-10-15T15:07:38Z</time>
      </trkpt>
      <trkpt lat="47.64292" lon="0.54781">
        <ele>83</ele>
        <time>2020-10-15T15:07:42Z</time>
      </trkpt>
      <trkpt lat="47.6429" lon="0.5478">
        <ele>83</ele>
        <time>2020-10-15T15:07:45Z</time>
      </trkpt>
      <trkpt lat="47.64288" lon="0.54779">
        <ele>83</ele>
        <time>2020-10-15T15:07:48Z</time>
      </trkpt>
      <trkpt lat="47.64286" lon="0.54777">
        <ele>83</ele>
        <time>2020-10-15T15:07:50Z</time>
      </trkpt>
      <trkpt lat="47.64284" lon="0.54774">
        <ele>83</ele>
        <time>2020-10-15T15:07:53Z</time>
      </trkpt>
      <trkpt lat="47.64282" lon="0.54772">
        <ele>83</ele>
        <time>2020-10-15T15:07:55Z</time>
      </trkpt>
      <trkpt lat="47.6428" lon="0.5477">
        <ele>83</ele>
        <time>2020-10-15T15:07:57Z</time>
      </trkpt>
      <trkpt lat="47.64278" lon="0.54766">
        <ele>83</ele>
        <time>2020-10-15T15:07:59Z</time>
      </trkpt>
      <trkpt lat="47.64277" lon="0.54764">
        <ele>84</ele>
        <time>2020-10-15T15:08:01Z</time>
      </trkpt>
      <trkpt lat="47.64275" lon="0.54762">
        <ele>84</ele>
        <time>2020-10-15T15:08:05Z</time>
      </trkpt>
      <trkpt lat="47.64273" lon="0.5476">
        <ele>84</ele>
        <time>2020-10-15T15:08:08Z</time>
      </trkpt>
      <trkpt lat="47.64271" lon="0.54758">
        <ele>84</ele>
        <time>2020-10-15T15:08:10Z</time>
      </trkpt>
      <trkpt lat="47.64268" lon="0.54756">
        <ele>84</ele>
        <time>2020-10-15T15:08:12Z</time>
      </trkpt>
      <trkpt lat="47.64266" lon="0.54753">
        <ele>84</ele>
        <time>2020-10-15T15:08:14Z</time>
      </trkpt>
      <trkpt lat="47.64264" lon="0.5475">
        <ele>84</ele>
        <time>2020-10-15T15:08:16Z</time>
      </trkpt>
      <trkpt lat="47.64263" lon="0.54747">
        <ele>84</ele>
        <time>2020-10-15T15:08:18Z</time>
      </trkpt>
      <trkpt lat="47.64261" lon="0.54744">
        <ele>84</ele>
        <time>2020-10-15T15:08:21Z</time>
      </trkpt>
      <trkpt lat="47.64262" lon="0.54741">
        <ele>84</ele>
        <time>2020-10-15T15:08:24Z</time>
      </trkpt>
      <trkpt lat="47.64261" lon="0.54738">
        <ele>84</ele>
        <time>2020-10-15T15:08:33Z</time>
      </trkpt>
      <trkpt lat="47.6426" lon="0.54736">
        <ele>84</ele>
        <time>2020-10-15T15:08:35Z</time>
      </trkpt>
      <trkpt lat="47.64258" lon="0.54734">
        <ele>84</ele>
        <time>2020-10-15T15:08:37Z</time>
      </trkpt>
      <trkpt lat="47.64256" lon="0.54731">
        <ele>84</ele>
        <time>2020-10-15T15:08:40Z</time>
      </trkpt>
      <trkpt lat="47.64254" lon="0.54729">
        <ele>84</ele>
        <time>2020-10-15T15:08:42Z</time>
      </trkpt>
      <trkpt lat="47.64252" lon="0.54728">
        <ele>84</ele>
        <time>2020-10-15T15:08:44Z</time>
      </trkpt>
      <trkpt lat="47.64251" lon="0.54725">
        <ele>84</ele>
        <time>2020-10-15T15:08:46Z</time>
      </trkpt>
      <trkpt lat="47.64249" lon="0.54724">
        <ele>84</ele>
        <time>2020-10-15T15:08:49Z</time>
      </trkpt>
      <trkpt lat="47.64247" lon="0.54726">
        <ele>84</ele>
        <time>2020-10-15T15:08:59Z</time>
      </trkpt>
      <trkpt lat="47.64246" lon="0.54729">
        <ele>84</ele>
        <time>2020-10-15T15:09:06Z</time>
      </trkpt>
      <trkpt lat="47.64244" lon="0.54729">
        <ele>84</ele>
        <time>2020-10-15T15:09:16Z</time>
      </trkpt>
      <trkpt lat="47.64244" lon="0.54732">
        <ele>84</ele>
        <time>2020-10-15T15:09:24Z</time>
      </trkpt>
      <trkpt lat="47.64245" lon="0.54735">
        <ele>84</ele>
        <time>2020-10-15T15:09:26Z</time>
      </trkpt>
      <trkpt lat="47.64245" lon="0.54739">
        <ele>85</ele>
        <time>2020-10-15T15:09:28Z</time>
      </trkpt>
      <trkpt lat="47.64245" lon="0.54743">
        <ele>85</ele>
        <time>2020-10-15T15:09:30Z</time>
      </trkpt>
      <trkpt lat="47.64245" lon="0.54746">
        <ele>85</ele>
        <time>2020-10-15T15:09:32Z</time>
      </trkpt>
      <trkpt lat="47.64246" lon="0.54748">
        <ele>85</ele>
        <time>2020-10-15T15:09:34Z</time>
      </trkpt>
      <trkpt lat="47.64248" lon="0.5475">
        <ele>85</ele>
        <time>2020-10-15T15:09:36Z</time>
      </trkpt>
      <trkpt lat="47.64251" lon="0.54751">
        <ele>85</ele>
        <time>2020-10-15T15:09:38Z</time>
      </trkpt>
      <trkpt lat="47.64253" lon="0.54752">
        <ele>85</ele>
        <time>2020-10-15T15:09:41Z</time>
      </trkpt>
      <trkpt lat="47.64255" lon="0.54753">
        <ele>85</ele>
        <time>2020-10-15T15:09:44Z</time>
      </trkpt>
      <trkpt lat="47.64256" lon="0.54754">
        <ele>85</ele>
        <time>2020-10-15T15:10:13Z</time>
      </trkpt>
      <trkpt lat="47.64257" lon="0.54757">
        <ele>85</ele>
        <time>2020-10-15T15:10:17Z</time>
      </trkpt>
      <trkpt lat="47.64256" lon="0.54761">
        <ele>85</ele>
        <time>2020-10-15T15:10:19Z</time>
      </trkpt>
      <trkpt lat="47.64255" lon="0.54765">
        <ele>85</ele>
        <time>2020-10-15T15:10:21Z</time>
      </trkpt>
      <trkpt lat="47.64254" lon="0.54769">
        <ele>85</ele>
        <time>2020-10-15T15:10:23Z</time>
      </trkpt>
      <trkpt lat="47.64253" lon="0.54773">
        <ele>85</ele>
        <time>2020-10-15T15:10:25Z</time>
      </trkpt>
      <trkpt lat="47.64252" lon="0.54777">
        <ele>85</ele>
        <time>2020-10-15T15:10:27Z</time>
      </trkpt>
      <trkpt lat="47.64251" lon="0.5478">
        <ele>85</ele>
        <time>2020-10-15T15:10:29Z</time>
      </trkpt>
      <trkpt lat="47.6425" lon="0.54782">
        <ele>85</ele>
        <time>2020-10-15T15:10:31Z</time>
      </trkpt>
      <trkpt lat="47.64249" lon="0.54785">
        <ele>85</ele>
        <time>2020-10-15T15:10:33Z</time>
      </trkpt>
      <trkpt lat="47.64247" lon="0.54788">
        <ele>85</ele>
        <time>2020-10-15T15:10:35Z</time>
      </trkpt>
      <trkpt lat="47.64246" lon="0.54791">
        <ele>85</ele>
        <time>2020-10-15T15:10:37Z</time>
      </trkpt>
      <trkpt lat="47.64245" lon="0.54795">
        <ele>85</ele>
        <time>2020-10-15T15:10:39Z</time>
      </trkpt>
      <trkpt lat="47.64244" lon="0.54798">
        <ele>85</ele>
        <time>2020-10-15T15:10:41Z</time>
      </trkpt>
      <trkpt lat="47.64244" lon="0.54802">
        <ele>85</ele>
        <time>2020-10-15T15:10:43Z</time>
      </trkpt>
      <trkpt lat="47.64243" lon="0.54805">
        <ele>85</ele>
        <time>2020-10-15T15:10:45Z</time>
      </trkpt>
      <trkpt lat="47.64241" lon="0.54807">
        <ele>85</ele>
        <time>2020-10-15T15:10:48Z</time>
      </trkpt>
      <trkpt lat="47.64239" lon="0.54808">
        <ele>85</ele>
        <time>2020-10-15T15:10:50Z</time>
      </trkpt>
      <trkpt lat="47.64237" lon="0.5481">
        <ele>85</ele>
        <time>2020-10-15T15:10:53Z</time>
      </trkpt>
      <trkpt lat="47.64235" lon="0.54811">
        <ele>85</ele>
        <time>2020-10-15T15:10:55Z</time>
      </trkpt>
      <trkpt lat="47.64234" lon="0.54811">
        <ele>85</ele>
        <time>2020-10-15T15:10:58Z</time>
      </trkpt>
      <trkpt lat="47.64233" lon="0.54809">
        <ele>85</ele>
        <time>2020-10-15T15:11:02Z</time>
      </trkpt>
      <trkpt lat="47.64231" lon="0.54806">
        <ele>85</ele>
        <time>2020-10-15T15:11:06Z</time>
      </trkpt>
      <trkpt lat="47.6423" lon="0.54804">
        <ele>85</ele>
        <time>2020-10-15T15:11:08Z</time>
      </trkpt>
      <trkpt lat="47.64228" lon="0.54802">
        <ele>85</ele>
        <time>2020-10-15T15:11:10Z</time>
      </trkpt>
      <trkpt lat="47.64227" lon="0.54799">
        <ele>85</ele>
        <time>2020-10-15T15:11:12Z</time>
      </trkpt>
      <trkpt lat="47.64226" lon="0.54796">
        <ele>85</ele>
        <time>2020-10-15T15:11:14Z</time>
      </trkpt>
      <trkpt lat="47.64224" lon="0.54792">
        <ele>85</ele>
        <time>2020-10-15T15:11:17Z</time>
      </trkpt>
      <trkpt lat="47.64224" lon="0.5479">
        <ele>85</ele>
        <time>2020-10-15T15:11:19Z</time>
      </trkpt>
      <trkpt lat="47.64223" lon="0.54787">
        <ele>85</ele>
        <time>2020-10-15T15:11:21Z</time>
      </trkpt>
      <trkpt lat="47.64222" lon="0.54785">
        <ele>85</ele>
        <time>2020-10-15T15:11:23Z</time>
      </trkpt>
      <trkpt lat="47.6422" lon="0.54782">
        <ele>85</ele>
        <time>2020-10-15T15:11:25Z</time>
      </trkpt>
      <trkpt lat="47.6422" lon="0.54779">
        <ele>85</ele>
        <time>2020-10-15T15:11:27Z</time>
      </trkpt>
      <trkpt lat="47.6422" lon="0.54776">
        <ele>85</ele>
        <time>2020-10-15T15:11:30Z</time>
      </trkpt>
      <trkpt lat="47.64221" lon="0.54774">
        <ele>85</ele>
        <time>2020-10-15T15:11:49Z</time>
      </trkpt>
      <trkpt lat="47.64219" lon="0.54774">
        <ele>85</ele>
        <time>2020-10-15T15:12:23Z</time>
      </trkpt>
      <trkpt lat="47.64221" lon="0.54774">
        <ele>85</ele>
        <time>2020-10-15T15:12:43Z</time>
      </trkpt>
      <trkpt lat="47.64223" lon="0.54774">
        <ele>85</ele>
        <time>2020-10-15T15:12:49Z</time>
      </trkpt>
      <trkpt lat="47.64225" lon="0.54774">
        <ele>85</ele>
        <time>2020-10-15T15:12:53Z</time>
      </trkpt>
      <trkpt lat="47.64223" lon="0.54775">
        <ele>85</ele>
        <time>2020-10-15T15:13:09Z</time>
      </trkpt>
      <trkpt lat="47.64222" lon="0.54776">
        <ele>85</ele>
        <time>2020-10-15T15:13:21Z</time>
      </trkpt>
      <trkpt lat="47.64223" lon="0.54776">
        <ele>85</ele>
        <time>2020-10-15T15:13:39Z</time>
      </trkpt>
      <trkpt lat="47.64222" lon="0.54775">
        <ele>85</ele>
        <time>2020-10-15T15:14:04Z</time>
      </trkpt>
      <trkpt lat="47.64223" lon="0.54772">
        <ele>85</ele>
        <time>2020-10-15T15:15:05Z</time>
      </trkpt>
      <trkpt lat="47.64221" lon="0.54773">
        <ele>85</ele>
        <time>2020-10-15T15:15:39Z</time>
      </trkpt>
      <trkpt lat="47.64222" lon="0.54771">
        <ele>85</ele>
        <time>2020-10-15T15:15:44Z</time>
      </trkpt>
    </trkseg>
  </trk>
</gpx>